<?xml version="1.0"?>
<gpx
 version="1.0"
 creator="Tracky"
 xmlns:xsi="http://www.w3.org/2001/XMLSchema-instance"
 xmlns="http://www.topografix.com/GPX/1/0"
 xsi:schemaLocation="http://www.topografix.com/GPX/1/0 http://www.topografix.com/GPX/1/0/gpx.xsd">
<time>2005-05-24T10:25:00Z</time>
<bounds minlat="37.932767" minlon="-1.100194" maxlat="37.956474" maxlon="-1.072002"/>
<trk>
 <color>64438</color>
 <width>2</width>
<trkseg>
<trkpt lat="37.956067" lon="-1.072858">
 <ele>51.480000</ele>
<time>2005-05-24T10:25:02Z</time>
</trkpt>
<trkpt lat="37.956085" lon="-1.072896">
 <ele>56.280000</ele>
<time>2005-05-24T10:25:07Z</time>
</trkpt>
<trkpt lat="37.956091" lon="-1.072890">
 <ele>63.600000</ele>
<time>2005-05-24T10:25:09Z</time>
</trkpt>
<trkpt lat="37.956060" lon="-1.072886">
 <ele>62.160000</ele>
<time>2005-05-24T10:25:12Z</time>
</trkpt>
<trkpt lat="37.956055" lon="-1.072913">
 <ele>65.220000</ele>
<time>2005-05-24T10:25:14Z</time>
</trkpt>
<trkpt lat="37.956076" lon="-1.072930">
 <ele>64.800000</ele>
<time>2005-05-24T10:25:15Z</time>
</trkpt>
<trkpt lat="37.956067" lon="-1.072916">
 <ele>64.760000</ele>
<time>2005-05-24T10:25:16Z</time>
</trkpt>
<trkpt lat="37.956079" lon="-1.072901">
 <ele>65.400000</ele>
<time>2005-05-24T10:25:20Z</time>
</trkpt>
<trkpt lat="37.956075" lon="-1.072898">
 <ele>65.240000</ele>
<time>2005-05-24T10:25:21Z</time>
</trkpt>
<trkpt lat="37.956074" lon="-1.072922">
 <ele>64.620000</ele>
<time>2005-05-24T10:25:22Z</time>
</trkpt>
<trkpt lat="37.956062" lon="-1.072930">
 <ele>64.880000</ele>
<time>2005-05-24T10:25:23Z</time>
</trkpt>
<trkpt lat="37.956063" lon="-1.072920">
 <ele>65.960000</ele>
<time>2005-05-24T10:25:24Z</time>
</trkpt>
<trkpt lat="37.956052" lon="-1.072921">
 <ele>67.420000</ele>
<time>2005-05-24T10:25:25Z</time>
</trkpt>
<trkpt lat="37.956040" lon="-1.072959">
 <ele>70.060000</ele>
<time>2005-05-24T10:25:28Z</time>
</trkpt>
<trkpt lat="37.956039" lon="-1.072988">
 <ele>63.620000</ele>
<time>2005-05-24T10:25:32Z</time>
</trkpt>
<trkpt lat="37.955995" lon="-1.073023">
 <ele>62.300000</ele>
<time>2005-05-24T10:25:34Z</time>
</trkpt>
<trkpt lat="37.955997" lon="-1.073064">
 <ele>62.040000</ele>
<time>2005-05-24T10:25:37Z</time>
</trkpt>
<trkpt lat="37.956025" lon="-1.073091">
 <ele>63.300000</ele>
<time>2005-05-24T10:25:40Z</time>
</trkpt>
<trkpt lat="37.956041" lon="-1.073077">
 <ele>63.340000</ele>
<time>2005-05-24T10:25:42Z</time>
</trkpt>
<trkpt lat="37.956128" lon="-1.073054">
 <ele>67.580000</ele>
<time>2005-05-24T10:25:46Z</time>
</trkpt>
<trkpt lat="37.956115" lon="-1.073049">
 <ele>67.700000</ele>
<time>2005-05-24T10:25:47Z</time>
</trkpt>
<trkpt lat="37.956102" lon="-1.073034">
 <ele>68.200000</ele>
<time>2005-05-24T10:25:48Z</time>
</trkpt>
<trkpt lat="37.956086" lon="-1.073024">
 <ele>68.280000</ele>
<time>2005-05-24T10:25:49Z</time>
</trkpt>
<trkpt lat="37.956105" lon="-1.073010">
 <ele>67.540000</ele>
<time>2005-05-24T10:25:50Z</time>
</trkpt>
<trkpt lat="37.956108" lon="-1.073015">
 <ele>68.460000</ele>
<time>2005-05-24T10:25:51Z</time>
</trkpt>
<trkpt lat="37.956129" lon="-1.072998">
 <ele>69.180000</ele>
<time>2005-05-24T10:25:53Z</time>
</trkpt>
<trkpt lat="37.956109" lon="-1.072915">
 <ele>71.240000</ele>
<time>2005-05-24T10:25:56Z</time>
</trkpt>
<trkpt lat="37.956058" lon="-1.072787">
 <ele>74.080000</ele>
<time>2005-05-24T10:26:00Z</time>
</trkpt>
<trkpt lat="37.956077" lon="-1.072804">
 <ele>73.340000</ele>
<time>2005-05-24T10:26:02Z</time>
</trkpt>
<trkpt lat="37.956151" lon="-1.072950">
 <ele>80.820000</ele>
<time>2005-05-24T10:26:11Z</time>
</trkpt>
<trkpt lat="37.956174" lon="-1.072944">
 <ele>82.620000</ele>
<time>2005-05-24T10:26:13Z</time>
</trkpt>
<trkpt lat="37.956172" lon="-1.072944">
 <ele>83.340000</ele>
<time>2005-05-24T10:26:14Z</time>
</trkpt>
<trkpt lat="37.956184" lon="-1.072962">
 <ele>82.680000</ele>
<time>2005-05-24T10:26:16Z</time>
</trkpt>
<trkpt lat="37.956216" lon="-1.072996">
 <ele>80.940000</ele>
<time>2005-05-24T10:26:20Z</time>
</trkpt>
<trkpt lat="37.956199" lon="-1.073007">
 <ele>79.360000</ele>
<time>2005-05-24T10:26:21Z</time>
</trkpt>
<trkpt lat="37.956187" lon="-1.073006">
 <ele>78.340000</ele>
<time>2005-05-24T10:26:22Z</time>
</trkpt>
<trkpt lat="37.956201" lon="-1.073021">
 <ele>80.900000</ele>
<time>2005-05-24T10:26:24Z</time>
</trkpt>
<trkpt lat="37.956196" lon="-1.073027">
 <ele>78.420000</ele>
<time>2005-05-24T10:26:26Z</time>
</trkpt>
<trkpt lat="37.956181" lon="-1.073043">
 <ele>78.080000</ele>
<time>2005-05-24T10:26:29Z</time>
</trkpt>
<trkpt lat="37.956194" lon="-1.073038">
 <ele>77.280000</ele>
<time>2005-05-24T10:26:30Z</time>
</trkpt>
<trkpt lat="37.956184" lon="-1.073056">
 <ele>79.500000</ele>
<time>2005-05-24T10:26:31Z</time>
</trkpt>
<trkpt lat="37.956137" lon="-1.073066">
 <ele>77.400000</ele>
<time>2005-05-24T10:26:35Z</time>
</trkpt>
<trkpt lat="37.956109" lon="-1.073067">
 <ele>77.540000</ele>
<time>2005-05-24T10:26:37Z</time>
</trkpt>
<trkpt lat="37.956100" lon="-1.073054">
 <ele>79.720000</ele>
<time>2005-05-24T10:26:39Z</time>
</trkpt>
<trkpt lat="37.956086" lon="-1.073054">
 <ele>81.360000</ele>
<time>2005-05-24T10:26:42Z</time>
</trkpt>
<trkpt lat="37.956059" lon="-1.073058">
 <ele>83.920000</ele>
<time>2005-05-24T10:26:44Z</time>
</trkpt>
<trkpt lat="37.956054" lon="-1.073077">
 <ele>83.100000</ele>
<time>2005-05-24T10:26:46Z</time>
</trkpt>
<trkpt lat="37.956007" lon="-1.073074">
 <ele>81.360000</ele>
<time>2005-05-24T10:26:48Z</time>
</trkpt>
<trkpt lat="37.956010" lon="-1.073069">
 <ele>82.000000</ele>
<time>2005-05-24T10:26:50Z</time>
</trkpt>
<trkpt lat="37.956007" lon="-1.073111">
 <ele>82.780000</ele>
<time>2005-05-24T10:26:53Z</time>
</trkpt>
<trkpt lat="37.955989" lon="-1.073120">
 <ele>82.220000</ele>
<time>2005-05-24T10:26:57Z</time>
</trkpt>
<trkpt lat="37.955996" lon="-1.073117">
 <ele>83.620000</ele>
<time>2005-05-24T10:26:58Z</time>
</trkpt>
<trkpt lat="37.956000" lon="-1.073117">
 <ele>83.940000</ele>
<time>2005-05-24T10:26:59Z</time>
</trkpt>
<trkpt lat="37.955987" lon="-1.073100">
 <ele>81.720000</ele>
<time>2005-05-24T10:27:00Z</time>
</trkpt>
<trkpt lat="37.956001" lon="-1.073092">
 <ele>84.100000</ele>
<time>2005-05-24T10:27:01Z</time>
</trkpt>
<trkpt lat="37.955995" lon="-1.073089">
 <ele>82.140000</ele>
<time>2005-05-24T10:27:02Z</time>
</trkpt>
<trkpt lat="37.955994" lon="-1.073087">
 <ele>82.400000</ele>
<time>2005-05-24T10:27:03Z</time>
</trkpt>
<trkpt lat="37.955930" lon="-1.073119">
 <ele>82.360000</ele>
<time>2005-05-24T10:27:07Z</time>
</trkpt>
<trkpt lat="37.955912" lon="-1.073096">
 <ele>82.460000</ele>
<time>2005-05-24T10:27:08Z</time>
</trkpt>
<trkpt lat="37.955920" lon="-1.073094">
 <ele>83.600000</ele>
<time>2005-05-24T10:27:09Z</time>
</trkpt>
<trkpt lat="37.955907" lon="-1.073074">
 <ele>81.040000</ele>
<time>2005-05-24T10:27:10Z</time>
</trkpt>
<trkpt lat="37.955909" lon="-1.073067">
 <ele>81.880000</ele>
<time>2005-05-24T10:27:12Z</time>
</trkpt>
<trkpt lat="37.955890" lon="-1.073051">
 <ele>81.840000</ele>
<time>2005-05-24T10:27:13Z</time>
</trkpt>
<trkpt lat="37.955887" lon="-1.073057">
 <ele>81.600000</ele>
<time>2005-05-24T10:27:14Z</time>
</trkpt>
<trkpt lat="37.955845" lon="-1.073042">
 <ele>81.400000</ele>
<time>2005-05-24T10:27:15Z</time>
</trkpt>
<trkpt lat="37.955796" lon="-1.072985">
 <ele>81.700000</ele>
<time>2005-05-24T10:27:20Z</time>
</trkpt>
<trkpt lat="37.955791" lon="-1.072895">
 <ele>80.880000</ele>
<time>2005-05-24T10:27:26Z</time>
</trkpt>
<trkpt lat="37.955779" lon="-1.072840">
 <ele>84.540000</ele>
<time>2005-05-24T10:27:30Z</time>
</trkpt>
<trkpt lat="37.955691" lon="-1.072709">
 <ele>88.140000</ele>
<time>2005-05-24T10:27:40Z</time>
</trkpt>
<trkpt lat="37.955668" lon="-1.072680">
 <ele>87.160000</ele>
<time>2005-05-24T10:27:42Z</time>
</trkpt>
<trkpt lat="37.955629" lon="-1.072699">
 <ele>86.420000</ele>
<time>2005-05-24T10:27:43Z</time>
</trkpt>
<trkpt lat="37.955570" lon="-1.072691">
 <ele>86.860000</ele>
<time>2005-05-24T10:27:46Z</time>
</trkpt>
<trkpt lat="37.955557" lon="-1.072695">
 <ele>84.580000</ele>
<time>2005-05-24T10:27:47Z</time>
</trkpt>
<trkpt lat="37.955515" lon="-1.072719">
 <ele>86.800000</ele>
<time>2005-05-24T10:27:51Z</time>
</trkpt>
<trkpt lat="37.955502" lon="-1.072760">
 <ele>86.300000</ele>
<time>2005-05-24T10:27:53Z</time>
</trkpt>
<trkpt lat="37.955443" lon="-1.072796">
 <ele>85.980000</ele>
<time>2005-05-24T10:27:59Z</time>
</trkpt>
<trkpt lat="37.955436" lon="-1.072797">
 <ele>85.700000</ele>
<time>2005-05-24T10:28:00Z</time>
</trkpt>
<trkpt lat="37.955421" lon="-1.072843">
 <ele>84.920000</ele>
<time>2005-05-24T10:28:02Z</time>
</trkpt>
<trkpt lat="37.955247" lon="-1.073013">
 <ele>82.200000</ele>
<time>2005-05-24T10:28:18Z</time>
</trkpt>
<trkpt lat="37.955235" lon="-1.073031">
 <ele>82.300000</ele>
<time>2005-05-24T10:28:19Z</time>
</trkpt>
<trkpt lat="37.955204" lon="-1.073044">
 <ele>83.140000</ele>
<time>2005-05-24T10:28:22Z</time>
</trkpt>
<trkpt lat="37.955205" lon="-1.073066">
 <ele>83.160000</ele>
<time>2005-05-24T10:28:23Z</time>
</trkpt>
<trkpt lat="37.955179" lon="-1.073064">
 <ele>81.920000</ele>
<time>2005-05-24T10:28:24Z</time>
</trkpt>
<trkpt lat="37.955108" lon="-1.073083">
 <ele>79.740000</ele>
<time>2005-05-24T10:28:29Z</time>
</trkpt>
<trkpt lat="37.955109" lon="-1.073096">
 <ele>80.680000</ele>
<time>2005-05-24T10:28:31Z</time>
</trkpt>
<trkpt lat="37.955085" lon="-1.073104">
 <ele>80.160000</ele>
<time>2005-05-24T10:28:34Z</time>
</trkpt>
<trkpt lat="37.955093" lon="-1.073167">
 <ele>79.080000</ele>
<time>2005-05-24T10:28:37Z</time>
</trkpt>
<trkpt lat="37.955036" lon="-1.073199">
 <ele>79.020000</ele>
<time>2005-05-24T10:28:39Z</time>
</trkpt>
<trkpt lat="37.955003" lon="-1.073206">
 <ele>79.420000</ele>
<time>2005-05-24T10:28:42Z</time>
</trkpt>
<trkpt lat="37.954973" lon="-1.073229">
 <ele>78.580000</ele>
<time>2005-05-24T10:28:44Z</time>
</trkpt>
<trkpt lat="37.954976" lon="-1.073238">
 <ele>79.000000</ele>
<time>2005-05-24T10:28:46Z</time>
</trkpt>
<trkpt lat="37.954959" lon="-1.073250">
 <ele>79.520000</ele>
<time>2005-05-24T10:28:47Z</time>
</trkpt>
<trkpt lat="37.954898" lon="-1.073297">
 <ele>79.740000</ele>
<time>2005-05-24T10:28:54Z</time>
</trkpt>
<trkpt lat="37.954879" lon="-1.073310">
 <ele>79.740000</ele>
<time>2005-05-24T10:28:55Z</time>
</trkpt>
<trkpt lat="37.954739" lon="-1.073347">
 <ele>81.140000</ele>
<time>2005-05-24T10:29:02Z</time>
</trkpt>
<trkpt lat="37.954737" lon="-1.073356">
 <ele>80.780000</ele>
<time>2005-05-24T10:29:04Z</time>
</trkpt>
<trkpt lat="37.954740" lon="-1.073337">
 <ele>80.820000</ele>
<time>2005-05-24T10:29:05Z</time>
</trkpt>
<trkpt lat="37.954755" lon="-1.073342">
 <ele>80.100000</ele>
<time>2005-05-24T10:29:06Z</time>
</trkpt>
<trkpt lat="37.954729" lon="-1.073378">
 <ele>80.440000</ele>
<time>2005-05-24T10:29:08Z</time>
</trkpt>
<trkpt lat="37.954596" lon="-1.073419">
 <ele>79.720000</ele>
<time>2005-05-24T10:29:12Z</time>
</trkpt>
<trkpt lat="37.954507" lon="-1.073487">
 <ele>76.180000</ele>
<time>2005-05-24T10:29:17Z</time>
</trkpt>
<trkpt lat="37.954434" lon="-1.073514">
 <ele>76.740000</ele>
<time>2005-05-24T10:29:20Z</time>
</trkpt>
<trkpt lat="37.954347" lon="-1.073556">
 <ele>74.860000</ele>
<time>2005-05-24T10:29:24Z</time>
</trkpt>
<trkpt lat="37.954349" lon="-1.073597">
 <ele>74.660000</ele>
<time>2005-05-24T10:29:26Z</time>
</trkpt>
<trkpt lat="37.954292" lon="-1.073725">
 <ele>72.520000</ele>
<time>2005-05-24T10:29:32Z</time>
</trkpt>
<trkpt lat="37.954289" lon="-1.073715">
 <ele>73.900000</ele>
<time>2005-05-24T10:29:33Z</time>
</trkpt>
<trkpt lat="37.954288" lon="-1.073725">
 <ele>73.900000</ele>
<time>2005-05-24T10:29:34Z</time>
</trkpt>
<trkpt lat="37.954251" lon="-1.073725">
 <ele>73.120000</ele>
<time>2005-05-24T10:29:36Z</time>
</trkpt>
<trkpt lat="37.954217" lon="-1.073783">
 <ele>73.280000</ele>
<time>2005-05-24T10:29:39Z</time>
</trkpt>
<trkpt lat="37.954225" lon="-1.073784">
 <ele>73.400000</ele>
<time>2005-05-24T10:29:40Z</time>
</trkpt>
<trkpt lat="37.954223" lon="-1.073788">
 <ele>73.440000</ele>
<time>2005-05-24T10:29:41Z</time>
</trkpt>
<trkpt lat="37.954190" lon="-1.073808">
 <ele>73.280000</ele>
<time>2005-05-24T10:29:44Z</time>
</trkpt>
<trkpt lat="37.954188" lon="-1.073815">
 <ele>72.900000</ele>
<time>2005-05-24T10:29:45Z</time>
</trkpt>
<trkpt lat="37.954113" lon="-1.073883">
 <ele>71.880000</ele>
<time>2005-05-24T10:29:50Z</time>
</trkpt>
<trkpt lat="37.954075" lon="-1.073888">
 <ele>71.220000</ele>
<time>2005-05-24T10:29:55Z</time>
</trkpt>
<trkpt lat="37.954074" lon="-1.073909">
 <ele>71.500000</ele>
<time>2005-05-24T10:29:56Z</time>
</trkpt>
<trkpt lat="37.954010" lon="-1.073944">
 <ele>72.300000</ele>
<time>2005-05-24T10:30:00Z</time>
</trkpt>
<trkpt lat="37.954016" lon="-1.073936">
 <ele>72.040000</ele>
<time>2005-05-24T10:30:01Z</time>
</trkpt>
<trkpt lat="37.954010" lon="-1.073950">
 <ele>71.800000</ele>
<time>2005-05-24T10:30:02Z</time>
</trkpt>
<trkpt lat="37.953953" lon="-1.073977">
 <ele>71.660000</ele>
<time>2005-05-24T10:30:05Z</time>
</trkpt>
<trkpt lat="37.953954" lon="-1.073975">
 <ele>70.840000</ele>
<time>2005-05-24T10:30:06Z</time>
</trkpt>
<trkpt lat="37.953951" lon="-1.073986">
 <ele>70.640000</ele>
<time>2005-05-24T10:30:07Z</time>
</trkpt>
<trkpt lat="37.953893" lon="-1.074035">
 <ele>70.480000</ele>
<time>2005-05-24T10:30:13Z</time>
</trkpt>
<trkpt lat="37.953908" lon="-1.074040">
 <ele>69.740000</ele>
<time>2005-05-24T10:30:14Z</time>
</trkpt>
<trkpt lat="37.953899" lon="-1.074061">
 <ele>71.320000</ele>
<time>2005-05-24T10:30:17Z</time>
</trkpt>
<trkpt lat="37.953887" lon="-1.074053">
 <ele>70.580000</ele>
<time>2005-05-24T10:30:18Z</time>
</trkpt>
<trkpt lat="37.953890" lon="-1.074044">
 <ele>72.380000</ele>
<time>2005-05-24T10:30:19Z</time>
</trkpt>
<trkpt lat="37.953879" lon="-1.074049">
 <ele>72.880000</ele>
<time>2005-05-24T10:30:20Z</time>
</trkpt>
<trkpt lat="37.953884" lon="-1.074035">
 <ele>71.120000</ele>
<time>2005-05-24T10:30:22Z</time>
</trkpt>
<trkpt lat="37.953825" lon="-1.074049">
 <ele>75.140000</ele>
<time>2005-05-24T10:30:25Z</time>
</trkpt>
<trkpt lat="37.953698" lon="-1.074137">
 <ele>74.960000</ele>
<time>2005-05-24T10:30:29Z</time>
</trkpt>
<trkpt lat="37.953692" lon="-1.074152">
 <ele>76.520000</ele>
<time>2005-05-24T10:30:31Z</time>
</trkpt>
<trkpt lat="37.953683" lon="-1.074159">
 <ele>76.560000</ele>
<time>2005-05-24T10:30:33Z</time>
</trkpt>
<trkpt lat="37.953675" lon="-1.074177">
 <ele>77.600000</ele>
<time>2005-05-24T10:30:35Z</time>
</trkpt>
<trkpt lat="37.953678" lon="-1.074192">
 <ele>79.900000</ele>
<time>2005-05-24T10:30:38Z</time>
</trkpt>
<trkpt lat="37.953697" lon="-1.074159">
 <ele>80.300000</ele>
<time>2005-05-24T10:30:40Z</time>
</trkpt>
<trkpt lat="37.953718" lon="-1.074146">
 <ele>80.760000</ele>
<time>2005-05-24T10:30:42Z</time>
</trkpt>
<trkpt lat="37.953712" lon="-1.074155">
 <ele>81.140000</ele>
<time>2005-05-24T10:30:44Z</time>
</trkpt>
<trkpt lat="37.953698" lon="-1.074148">
 <ele>81.540000</ele>
<time>2005-05-24T10:30:45Z</time>
</trkpt>
<trkpt lat="37.953641" lon="-1.074092">
 <ele>81.580000</ele>
<time>2005-05-24T10:30:49Z</time>
</trkpt>
<trkpt lat="37.953567" lon="-1.074058">
 <ele>81.420000</ele>
<time>2005-05-24T10:30:53Z</time>
</trkpt>
<trkpt lat="37.953494" lon="-1.074056">
 <ele>83.580000</ele>
<time>2005-05-24T10:30:56Z</time>
</trkpt>
<trkpt lat="37.953449" lon="-1.074010">
 <ele>83.920000</ele>
<time>2005-05-24T10:30:59Z</time>
</trkpt>
<trkpt lat="37.953425" lon="-1.073992">
 <ele>85.060000</ele>
<time>2005-05-24T10:31:02Z</time>
</trkpt>
<trkpt lat="37.953472" lon="-1.073914">
 <ele>84.400000</ele>
<time>2005-05-24T10:31:07Z</time>
</trkpt>
<trkpt lat="37.953483" lon="-1.073803">
 <ele>88.620000</ele>
<time>2005-05-24T10:31:13Z</time>
</trkpt>
<trkpt lat="37.953476" lon="-1.073774">
 <ele>90.800000</ele>
<time>2005-05-24T10:31:15Z</time>
</trkpt>
<trkpt lat="37.953478" lon="-1.073776">
 <ele>92.900000</ele>
<time>2005-05-24T10:31:16Z</time>
</trkpt>
<trkpt lat="37.953505" lon="-1.073735">
 <ele>94.320000</ele>
<time>2005-05-24T10:31:18Z</time>
</trkpt>
<trkpt lat="37.953500" lon="-1.073753">
 <ele>94.280000</ele>
<time>2005-05-24T10:31:19Z</time>
</trkpt>
<trkpt lat="37.953487" lon="-1.073753">
 <ele>92.280000</ele>
<time>2005-05-24T10:31:20Z</time>
</trkpt>
<trkpt lat="37.953477" lon="-1.073755">
 <ele>92.600000</ele>
<time>2005-05-24T10:31:21Z</time>
</trkpt>
<trkpt lat="37.953484" lon="-1.073751">
 <ele>93.780000</ele>
<time>2005-05-24T10:31:22Z</time>
</trkpt>
<trkpt lat="37.953482" lon="-1.073755">
 <ele>91.460000</ele>
<time>2005-05-24T10:31:23Z</time>
</trkpt>
<trkpt lat="37.953482" lon="-1.073755">
 <ele>92.500000</ele>
<time>2005-05-24T10:31:24Z</time>
</trkpt>
<trkpt lat="37.953482" lon="-1.073755">
 <ele>92.500000</ele>
<time>2005-05-24T10:31:25Z</time>
</trkpt>
<trkpt lat="37.953482" lon="-1.073755">
 <ele>92.500000</ele>
<time>2005-05-24T10:31:26Z</time>
</trkpt>
<trkpt lat="37.953482" lon="-1.073755">
 <ele>92.500000</ele>
<time>2005-05-24T10:31:27Z</time>
</trkpt>
<trkpt lat="37.953490" lon="-1.073732">
 <ele>94.100000</ele>
<time>2005-05-24T10:31:28Z</time>
</trkpt>
<trkpt lat="37.953608" lon="-1.073552">
 <ele>96.600000</ele>
<time>2005-05-24T10:31:34Z</time>
</trkpt>
<trkpt lat="37.953641" lon="-1.073508">
 <ele>99.020000</ele>
<time>2005-05-24T10:31:36Z</time>
</trkpt>
<trkpt lat="37.953709" lon="-1.073459">
 <ele>102.900000</ele>
<time>2005-05-24T10:31:39Z</time>
</trkpt>
<trkpt lat="37.953704" lon="-1.073399">
 <ele>104.820000</ele>
<time>2005-05-24T10:31:41Z</time>
</trkpt>
<trkpt lat="37.953743" lon="-1.073354">
 <ele>106.540000</ele>
<time>2005-05-24T10:31:44Z</time>
</trkpt>
<trkpt lat="37.953734" lon="-1.073352">
 <ele>105.060000</ele>
<time>2005-05-24T10:31:45Z</time>
</trkpt>
<trkpt lat="37.953738" lon="-1.073320">
 <ele>104.600000</ele>
<time>2005-05-24T10:31:47Z</time>
</trkpt>
<trkpt lat="37.953738" lon="-1.073190">
 <ele>107.140000</ele>
<time>2005-05-24T10:31:55Z</time>
</trkpt>
<trkpt lat="37.953750" lon="-1.073161">
 <ele>108.380000</ele>
<time>2005-05-24T10:31:57Z</time>
</trkpt>
<trkpt lat="37.953756" lon="-1.073118">
 <ele>108.020000</ele>
<time>2005-05-24T10:31:59Z</time>
</trkpt>
<trkpt lat="37.953785" lon="-1.073079">
 <ele>110.340000</ele>
<time>2005-05-24T10:32:04Z</time>
</trkpt>
<trkpt lat="37.953819" lon="-1.072892">
 <ele>111.260000</ele>
<time>2005-05-24T10:32:16Z</time>
</trkpt>
<trkpt lat="37.953837" lon="-1.072872">
 <ele>111.140000</ele>
<time>2005-05-24T10:32:17Z</time>
</trkpt>
<trkpt lat="37.953830" lon="-1.072874">
 <ele>112.500000</ele>
<time>2005-05-24T10:32:18Z</time>
</trkpt>
<trkpt lat="37.953827" lon="-1.072841">
 <ele>112.660000</ele>
<time>2005-05-24T10:32:19Z</time>
</trkpt>
<trkpt lat="37.953833" lon="-1.072764">
 <ele>113.280000</ele>
<time>2005-05-24T10:32:23Z</time>
</trkpt>
<trkpt lat="37.953820" lon="-1.072748">
 <ele>113.300000</ele>
<time>2005-05-24T10:32:24Z</time>
</trkpt>
<trkpt lat="37.953780" lon="-1.072706">
 <ele>113.700000</ele>
<time>2005-05-24T10:32:28Z</time>
</trkpt>
<trkpt lat="37.953750" lon="-1.072699">
 <ele>111.800000</ele>
<time>2005-05-24T10:32:29Z</time>
</trkpt>
<trkpt lat="37.953754" lon="-1.072699">
 <ele>112.820000</ele>
<time>2005-05-24T10:32:30Z</time>
</trkpt>
<trkpt lat="37.953756" lon="-1.072671">
 <ele>112.400000</ele>
<time>2005-05-24T10:32:32Z</time>
</trkpt>
<trkpt lat="37.953712" lon="-1.072604">
 <ele>110.060000</ele>
<time>2005-05-24T10:32:39Z</time>
</trkpt>
<trkpt lat="37.953701" lon="-1.072587">
 <ele>110.340000</ele>
<time>2005-05-24T10:32:41Z</time>
</trkpt>
<trkpt lat="37.953685" lon="-1.072495">
 <ele>112.620000</ele>
<time>2005-05-24T10:32:46Z</time>
</trkpt>
<trkpt lat="37.953707" lon="-1.072446">
 <ele>117.820000</ele>
<time>2005-05-24T10:32:50Z</time>
</trkpt>
<trkpt lat="37.953701" lon="-1.072380">
 <ele>117.920000</ele>
<time>2005-05-24T10:32:52Z</time>
</trkpt>
<trkpt lat="37.953738" lon="-1.072337">
 <ele>120.480000</ele>
<time>2005-05-24T10:32:55Z</time>
</trkpt>
<trkpt lat="37.953763" lon="-1.072273">
 <ele>120.820000</ele>
<time>2005-05-24T10:32:58Z</time>
</trkpt>
<trkpt lat="37.953776" lon="-1.072184">
 <ele>123.320000</ele>
<time>2005-05-24T10:33:02Z</time>
</trkpt>
<trkpt lat="37.953791" lon="-1.072187">
 <ele>122.880000</ele>
<time>2005-05-24T10:33:03Z</time>
</trkpt>
<trkpt lat="37.953811" lon="-1.072141">
 <ele>121.520000</ele>
<time>2005-05-24T10:33:06Z</time>
</trkpt>
<trkpt lat="37.953775" lon="-1.072098">
 <ele>121.440000</ele>
<time>2005-05-24T10:33:08Z</time>
</trkpt>
<trkpt lat="37.953775" lon="-1.072100">
 <ele>121.100000</ele>
<time>2005-05-24T10:33:09Z</time>
</trkpt>
<trkpt lat="37.953763" lon="-1.072082">
 <ele>120.080000</ele>
<time>2005-05-24T10:33:10Z</time>
</trkpt>
<trkpt lat="37.953767" lon="-1.072083">
 <ele>119.700000</ele>
<time>2005-05-24T10:33:11Z</time>
</trkpt>
<trkpt lat="37.953765" lon="-1.072077">
 <ele>120.760000</ele>
<time>2005-05-24T10:33:12Z</time>
</trkpt>
<trkpt lat="37.953770" lon="-1.072051">
 <ele>119.000000</ele>
<time>2005-05-24T10:33:14Z</time>
</trkpt>
<trkpt lat="37.953763" lon="-1.072033">
 <ele>117.760000</ele>
<time>2005-05-24T10:33:15Z</time>
</trkpt>
<trkpt lat="37.953760" lon="-1.072019">
 <ele>116.800000</ele>
<time>2005-05-24T10:33:17Z</time>
</trkpt>
<trkpt lat="37.953780" lon="-1.072016">
 <ele>117.620000</ele>
<time>2005-05-24T10:33:18Z</time>
</trkpt>
<trkpt lat="37.953772" lon="-1.072024">
 <ele>116.420000</ele>
<time>2005-05-24T10:33:19Z</time>
</trkpt>
<trkpt lat="37.953771" lon="-1.072011">
 <ele>117.720000</ele>
<time>2005-05-24T10:33:20Z</time>
</trkpt>
<trkpt lat="37.953764" lon="-1.072012">
 <ele>116.380000</ele>
<time>2005-05-24T10:33:21Z</time>
</trkpt>
<trkpt lat="37.953765" lon="-1.072002">
 <ele>116.400000</ele>
<time>2005-05-24T10:33:23Z</time>
</trkpt>
<trkpt lat="37.953759" lon="-1.072002">
 <ele>116.280000</ele>
<time>2005-05-24T10:33:24Z</time>
</trkpt>
<trkpt lat="37.953573" lon="-1.072017">
 <ele>111.700000</ele>
<time>2005-05-24T10:33:37Z</time>
</trkpt>
<trkpt lat="37.953577" lon="-1.072003">
 <ele>112.500000</ele>
<time>2005-05-24T10:33:38Z</time>
</trkpt>
<trkpt lat="37.953563" lon="-1.072010">
 <ele>111.820000</ele>
<time>2005-05-24T10:33:39Z</time>
</trkpt>
<trkpt lat="37.953541" lon="-1.072027">
 <ele>109.340000</ele>
<time>2005-05-24T10:33:44Z</time>
</trkpt>
<trkpt lat="37.953529" lon="-1.072048">
 <ele>110.100000</ele>
<time>2005-05-24T10:33:46Z</time>
</trkpt>
<trkpt lat="37.953489" lon="-1.072159">
 <ele>109.760000</ele>
<time>2005-05-24T10:33:52Z</time>
</trkpt>
<trkpt lat="37.953461" lon="-1.072154">
 <ele>107.960000</ele>
<time>2005-05-24T10:33:54Z</time>
</trkpt>
<trkpt lat="37.953448" lon="-1.072171">
 <ele>107.400000</ele>
<time>2005-05-24T10:33:55Z</time>
</trkpt>
<trkpt lat="37.953310" lon="-1.072356">
 <ele>106.300000</ele>
<time>2005-05-24T10:34:07Z</time>
</trkpt>
<trkpt lat="37.953310" lon="-1.072370">
 <ele>106.600000</ele>
<time>2005-05-24T10:34:08Z</time>
</trkpt>
<trkpt lat="37.953297" lon="-1.072369">
 <ele>107.600000</ele>
<time>2005-05-24T10:34:09Z</time>
</trkpt>
<trkpt lat="37.953297" lon="-1.072377">
 <ele>106.940000</ele>
<time>2005-05-24T10:34:11Z</time>
</trkpt>
<trkpt lat="37.953289" lon="-1.072400">
 <ele>105.920000</ele>
<time>2005-05-24T10:34:12Z</time>
</trkpt>
<trkpt lat="37.953259" lon="-1.072441">
 <ele>106.420000</ele>
<time>2005-05-24T10:34:16Z</time>
</trkpt>
<trkpt lat="37.953251" lon="-1.072452">
 <ele>106.780000</ele>
<time>2005-05-24T10:34:17Z</time>
</trkpt>
<trkpt lat="37.953255" lon="-1.072474">
 <ele>106.840000</ele>
<time>2005-05-24T10:34:19Z</time>
</trkpt>
<trkpt lat="37.953235" lon="-1.072503">
 <ele>106.540000</ele>
<time>2005-05-24T10:34:21Z</time>
</trkpt>
<trkpt lat="37.953214" lon="-1.072580">
 <ele>107.660000</ele>
<time>2005-05-24T10:34:26Z</time>
</trkpt>
<trkpt lat="37.953190" lon="-1.072600">
 <ele>105.620000</ele>
<time>2005-05-24T10:34:28Z</time>
</trkpt>
<trkpt lat="37.953177" lon="-1.072650">
 <ele>105.440000</ele>
<time>2005-05-24T10:34:30Z</time>
</trkpt>
<trkpt lat="37.953167" lon="-1.072651">
 <ele>106.440000</ele>
<time>2005-05-24T10:34:32Z</time>
</trkpt>
<trkpt lat="37.953179" lon="-1.072661">
 <ele>106.500000</ele>
<time>2005-05-24T10:34:33Z</time>
</trkpt>
<trkpt lat="37.953164" lon="-1.072656">
 <ele>107.340000</ele>
<time>2005-05-24T10:34:34Z</time>
</trkpt>
<trkpt lat="37.953084" lon="-1.072674">
 <ele>106.720000</ele>
<time>2005-05-24T10:34:39Z</time>
</trkpt>
<trkpt lat="37.953037" lon="-1.072722">
 <ele>106.840000</ele>
<time>2005-05-24T10:34:45Z</time>
</trkpt>
<trkpt lat="37.953018" lon="-1.072711">
 <ele>106.340000</ele>
<time>2005-05-24T10:34:46Z</time>
</trkpt>
<trkpt lat="37.952995" lon="-1.072700">
 <ele>105.980000</ele>
<time>2005-05-24T10:34:48Z</time>
</trkpt>
<trkpt lat="37.953001" lon="-1.072720">
 <ele>105.600000</ele>
<time>2005-05-24T10:34:49Z</time>
</trkpt>
<trkpt lat="37.952986" lon="-1.072729">
 <ele>104.980000</ele>
<time>2005-05-24T10:34:50Z</time>
</trkpt>
<trkpt lat="37.952992" lon="-1.072716">
 <ele>106.000000</ele>
<time>2005-05-24T10:34:51Z</time>
</trkpt>
<trkpt lat="37.952977" lon="-1.072724">
 <ele>105.320000</ele>
<time>2005-05-24T10:34:52Z</time>
</trkpt>
<trkpt lat="37.952900" lon="-1.072725">
 <ele>105.500000</ele>
<time>2005-05-24T10:34:55Z</time>
</trkpt>
<trkpt lat="37.952909" lon="-1.072716">
 <ele>106.300000</ele>
<time>2005-05-24T10:34:56Z</time>
</trkpt>
<trkpt lat="37.952902" lon="-1.072707">
 <ele>106.600000</ele>
<time>2005-05-24T10:34:57Z</time>
</trkpt>
<trkpt lat="37.952922" lon="-1.072720">
 <ele>107.040000</ele>
<time>2005-05-24T10:35:00Z</time>
</trkpt>
<trkpt lat="37.952927" lon="-1.072719">
 <ele>107.020000</ele>
<time>2005-05-24T10:35:01Z</time>
</trkpt>
<trkpt lat="37.952899" lon="-1.072706">
 <ele>106.100000</ele>
<time>2005-05-24T10:35:02Z</time>
</trkpt>
<trkpt lat="37.952844" lon="-1.072721">
 <ele>106.260000</ele>
<time>2005-05-24T10:35:04Z</time>
</trkpt>
<trkpt lat="37.952699" lon="-1.072690">
 <ele>105.140000</ele>
<time>2005-05-24T10:35:09Z</time>
</trkpt>
<trkpt lat="37.952628" lon="-1.072710">
 <ele>104.900000</ele>
<time>2005-05-24T10:35:11Z</time>
</trkpt>
<trkpt lat="37.952602" lon="-1.072698">
 <ele>106.400000</ele>
<time>2005-05-24T10:35:15Z</time>
</trkpt>
<trkpt lat="37.952608" lon="-1.072684">
 <ele>106.720000</ele>
<time>2005-05-24T10:35:17Z</time>
</trkpt>
<trkpt lat="37.952571" lon="-1.072685">
 <ele>106.880000</ele>
<time>2005-05-24T10:35:18Z</time>
</trkpt>
<trkpt lat="37.952431" lon="-1.072660">
 <ele>107.740000</ele>
<time>2005-05-24T10:35:25Z</time>
</trkpt>
<trkpt lat="37.952428" lon="-1.072654">
 <ele>106.980000</ele>
<time>2005-05-24T10:35:26Z</time>
</trkpt>
<trkpt lat="37.952428" lon="-1.072635">
 <ele>107.240000</ele>
<time>2005-05-24T10:35:27Z</time>
</trkpt>
<trkpt lat="37.952415" lon="-1.072639">
 <ele>107.840000</ele>
<time>2005-05-24T10:35:28Z</time>
</trkpt>
<trkpt lat="37.952402" lon="-1.072646">
 <ele>106.820000</ele>
<time>2005-05-24T10:35:29Z</time>
</trkpt>
<trkpt lat="37.952344" lon="-1.072647">
 <ele>105.700000</ele>
<time>2005-05-24T10:35:32Z</time>
</trkpt>
<trkpt lat="37.952315" lon="-1.072626">
 <ele>107.040000</ele>
<time>2005-05-24T10:35:34Z</time>
</trkpt>
<trkpt lat="37.952326" lon="-1.072614">
 <ele>108.300000</ele>
<time>2005-05-24T10:35:35Z</time>
</trkpt>
<trkpt lat="37.952318" lon="-1.072619">
 <ele>107.600000</ele>
<time>2005-05-24T10:35:36Z</time>
</trkpt>
<trkpt lat="37.952234" lon="-1.072622">
 <ele>109.200000</ele>
<time>2005-05-24T10:35:39Z</time>
</trkpt>
<trkpt lat="37.952236" lon="-1.072621">
 <ele>109.080000</ele>
<time>2005-05-24T10:35:40Z</time>
</trkpt>
<trkpt lat="37.952229" lon="-1.072621">
 <ele>108.220000</ele>
<time>2005-05-24T10:35:41Z</time>
</trkpt>
<trkpt lat="37.952193" lon="-1.072645">
 <ele>109.860000</ele>
<time>2005-05-24T10:35:46Z</time>
</trkpt>
<trkpt lat="37.952176" lon="-1.072645">
 <ele>109.560000</ele>
<time>2005-05-24T10:35:47Z</time>
</trkpt>
<trkpt lat="37.952156" lon="-1.072668">
 <ele>111.040000</ele>
<time>2005-05-24T10:35:51Z</time>
</trkpt>
<trkpt lat="37.952145" lon="-1.072658">
 <ele>110.820000</ele>
<time>2005-05-24T10:35:52Z</time>
</trkpt>
<trkpt lat="37.952160" lon="-1.072666">
 <ele>111.040000</ele>
<time>2005-05-24T10:35:53Z</time>
</trkpt>
<trkpt lat="37.952159" lon="-1.072724">
 <ele>110.640000</ele>
<time>2005-05-24T10:35:57Z</time>
</trkpt>
<trkpt lat="37.952158" lon="-1.072758">
 <ele>112.680000</ele>
<time>2005-05-24T10:36:00Z</time>
</trkpt>
<trkpt lat="37.952216" lon="-1.072782">
 <ele>116.620000</ele>
<time>2005-05-24T10:36:05Z</time>
</trkpt>
<trkpt lat="37.952229" lon="-1.072773">
 <ele>116.560000</ele>
<time>2005-05-24T10:36:06Z</time>
</trkpt>
<trkpt lat="37.952219" lon="-1.072776">
 <ele>116.920000</ele>
<time>2005-05-24T10:36:07Z</time>
</trkpt>
<trkpt lat="37.952231" lon="-1.072795">
 <ele>116.500000</ele>
<time>2005-05-24T10:36:08Z</time>
</trkpt>
<trkpt lat="37.952308" lon="-1.073002">
 <ele>114.160000</ele>
<time>2005-05-24T10:36:21Z</time>
</trkpt>
<trkpt lat="37.952370" lon="-1.073086">
 <ele>118.000000</ele>
<time>2005-05-24T10:36:28Z</time>
</trkpt>
<trkpt lat="37.952385" lon="-1.073100">
 <ele>117.940000</ele>
<time>2005-05-24T10:36:31Z</time>
</trkpt>
<trkpt lat="37.952381" lon="-1.073121">
 <ele>117.560000</ele>
<time>2005-05-24T10:36:32Z</time>
</trkpt>
<trkpt lat="37.952398" lon="-1.073221">
 <ele>117.640000</ele>
<time>2005-05-24T10:36:36Z</time>
</trkpt>
<trkpt lat="37.952362" lon="-1.073281">
 <ele>117.600000</ele>
<time>2005-05-24T10:36:38Z</time>
</trkpt>
<trkpt lat="37.952366" lon="-1.073303">
 <ele>118.100000</ele>
<time>2005-05-24T10:36:40Z</time>
</trkpt>
<trkpt lat="37.952347" lon="-1.073318">
 <ele>117.960000</ele>
<time>2005-05-24T10:36:41Z</time>
</trkpt>
<trkpt lat="37.952345" lon="-1.073396">
 <ele>117.940000</ele>
<time>2005-05-24T10:36:45Z</time>
</trkpt>
<trkpt lat="37.952332" lon="-1.073397">
 <ele>118.000000</ele>
<time>2005-05-24T10:36:46Z</time>
</trkpt>
<trkpt lat="37.952321" lon="-1.073426">
 <ele>118.640000</ele>
<time>2005-05-24T10:36:48Z</time>
</trkpt>
<trkpt lat="37.952285" lon="-1.073541">
 <ele>117.860000</ele>
<time>2005-05-24T10:36:55Z</time>
</trkpt>
<trkpt lat="37.952268" lon="-1.073632">
 <ele>119.000000</ele>
<time>2005-05-24T10:37:00Z</time>
</trkpt>
<trkpt lat="37.952282" lon="-1.073819">
 <ele>120.160000</ele>
<time>2005-05-24T10:37:08Z</time>
</trkpt>
<trkpt lat="37.952274" lon="-1.073816">
 <ele>119.840000</ele>
<time>2005-05-24T10:37:10Z</time>
</trkpt>
<trkpt lat="37.952274" lon="-1.073860">
 <ele>120.380000</ele>
<time>2005-05-24T10:37:12Z</time>
</trkpt>
<trkpt lat="37.952259" lon="-1.073852">
 <ele>120.160000</ele>
<time>2005-05-24T10:37:14Z</time>
</trkpt>
<trkpt lat="37.952259" lon="-1.073865">
 <ele>121.060000</ele>
<time>2005-05-24T10:37:15Z</time>
</trkpt>
<trkpt lat="37.952234" lon="-1.073993">
 <ele>121.980000</ele>
<time>2005-05-24T10:37:21Z</time>
</trkpt>
<trkpt lat="37.952218" lon="-1.073999">
 <ele>122.300000</ele>
<time>2005-05-24T10:37:25Z</time>
</trkpt>
<trkpt lat="37.952173" lon="-1.074050">
 <ele>121.900000</ele>
<time>2005-05-24T10:37:28Z</time>
</trkpt>
<trkpt lat="37.952187" lon="-1.074111">
 <ele>121.540000</ele>
<time>2005-05-24T10:37:31Z</time>
</trkpt>
<trkpt lat="37.952173" lon="-1.074136">
 <ele>122.400000</ele>
<time>2005-05-24T10:37:33Z</time>
</trkpt>
<trkpt lat="37.952154" lon="-1.074173">
 <ele>122.400000</ele>
<time>2005-05-24T10:37:35Z</time>
</trkpt>
<trkpt lat="37.952169" lon="-1.074243">
 <ele>122.660000</ele>
<time>2005-05-24T10:37:38Z</time>
</trkpt>
<trkpt lat="37.952168" lon="-1.074296">
 <ele>122.600000</ele>
<time>2005-05-24T10:37:41Z</time>
</trkpt>
<trkpt lat="37.952129" lon="-1.074320">
 <ele>121.820000</ele>
<time>2005-05-24T10:37:43Z</time>
</trkpt>
<trkpt lat="37.952123" lon="-1.074324">
 <ele>121.680000</ele>
<time>2005-05-24T10:37:46Z</time>
</trkpt>
<trkpt lat="37.952104" lon="-1.074327">
 <ele>121.800000</ele>
<time>2005-05-24T10:37:47Z</time>
</trkpt>
<trkpt lat="37.952075" lon="-1.074354">
 <ele>121.760000</ele>
<time>2005-05-24T10:37:50Z</time>
</trkpt>
<trkpt lat="37.952070" lon="-1.074362">
 <ele>121.760000</ele>
<time>2005-05-24T10:37:53Z</time>
</trkpt>
<trkpt lat="37.952079" lon="-1.074357">
 <ele>121.780000</ele>
<time>2005-05-24T10:37:54Z</time>
</trkpt>
<trkpt lat="37.952075" lon="-1.074351">
 <ele>122.620000</ele>
<time>2005-05-24T10:37:55Z</time>
</trkpt>
<trkpt lat="37.952004" lon="-1.074328">
 <ele>123.060000</ele>
<time>2005-05-24T10:37:58Z</time>
</trkpt>
<trkpt lat="37.952005" lon="-1.074327">
 <ele>123.600000</ele>
<time>2005-05-24T10:37:59Z</time>
</trkpt>
<trkpt lat="37.951994" lon="-1.074351">
 <ele>123.580000</ele>
<time>2005-05-24T10:38:00Z</time>
</trkpt>
<trkpt lat="37.951989" lon="-1.074333">
 <ele>122.900000</ele>
<time>2005-05-24T10:38:01Z</time>
</trkpt>
<trkpt lat="37.951950" lon="-1.074338">
 <ele>123.060000</ele>
<time>2005-05-24T10:38:03Z</time>
</trkpt>
<trkpt lat="37.951863" lon="-1.074344">
 <ele>124.200000</ele>
<time>2005-05-24T10:38:08Z</time>
</trkpt>
<trkpt lat="37.951849" lon="-1.074363">
 <ele>124.420000</ele>
<time>2005-05-24T10:38:09Z</time>
</trkpt>
<trkpt lat="37.951830" lon="-1.074353">
 <ele>125.180000</ele>
<time>2005-05-24T10:38:11Z</time>
</trkpt>
<trkpt lat="37.951834" lon="-1.074364">
 <ele>125.100000</ele>
<time>2005-05-24T10:38:12Z</time>
</trkpt>
<trkpt lat="37.951847" lon="-1.074367">
 <ele>125.620000</ele>
<time>2005-05-24T10:38:14Z</time>
</trkpt>
<trkpt lat="37.951777" lon="-1.074387">
 <ele>124.960000</ele>
<time>2005-05-24T10:38:20Z</time>
</trkpt>
<trkpt lat="37.951746" lon="-1.074380">
 <ele>123.960000</ele>
<time>2005-05-24T10:38:22Z</time>
</trkpt>
<trkpt lat="37.951753" lon="-1.074391">
 <ele>125.660000</ele>
<time>2005-05-24T10:38:23Z</time>
</trkpt>
<trkpt lat="37.951772" lon="-1.074387">
 <ele>124.600000</ele>
<time>2005-05-24T10:38:24Z</time>
</trkpt>
<trkpt lat="37.951760" lon="-1.074381">
 <ele>125.060000</ele>
<time>2005-05-24T10:38:25Z</time>
</trkpt>
<trkpt lat="37.951750" lon="-1.074380">
 <ele>124.920000</ele>
<time>2005-05-24T10:38:26Z</time>
</trkpt>
<trkpt lat="37.951758" lon="-1.074374">
 <ele>125.560000</ele>
<time>2005-05-24T10:38:27Z</time>
</trkpt>
<trkpt lat="37.951764" lon="-1.074306">
 <ele>129.520000</ele>
<time>2005-05-24T10:38:32Z</time>
</trkpt>
<trkpt lat="37.951710" lon="-1.074305">
 <ele>130.380000</ele>
<time>2005-05-24T10:38:35Z</time>
</trkpt>
<trkpt lat="37.951715" lon="-1.074301">
 <ele>130.500000</ele>
<time>2005-05-24T10:38:36Z</time>
</trkpt>
<trkpt lat="37.951700" lon="-1.074299">
 <ele>130.340000</ele>
<time>2005-05-24T10:38:37Z</time>
</trkpt>
<trkpt lat="37.951498" lon="-1.074305">
 <ele>131.960000</ele>
<time>2005-05-24T10:38:46Z</time>
</trkpt>
<trkpt lat="37.951441" lon="-1.074336">
 <ele>131.800000</ele>
<time>2005-05-24T10:38:49Z</time>
</trkpt>
<trkpt lat="37.951431" lon="-1.074367">
 <ele>131.600000</ele>
<time>2005-05-24T10:38:51Z</time>
</trkpt>
<trkpt lat="37.951401" lon="-1.074391">
 <ele>132.780000</ele>
<time>2005-05-24T10:38:54Z</time>
</trkpt>
<trkpt lat="37.951381" lon="-1.074420">
 <ele>133.920000</ele>
<time>2005-05-24T10:38:59Z</time>
</trkpt>
<trkpt lat="37.951379" lon="-1.074439">
 <ele>135.040000</ele>
<time>2005-05-24T10:39:00Z</time>
</trkpt>
<trkpt lat="37.951324" lon="-1.074532">
 <ele>135.280000</ele>
<time>2005-05-24T10:39:06Z</time>
</trkpt>
<trkpt lat="37.951274" lon="-1.074580">
 <ele>134.680000</ele>
<time>2005-05-24T10:39:11Z</time>
</trkpt>
<trkpt lat="37.951285" lon="-1.074597">
 <ele>135.380000</ele>
<time>2005-05-24T10:39:12Z</time>
</trkpt>
<trkpt lat="37.951267" lon="-1.074663">
 <ele>134.760000</ele>
<time>2005-05-24T10:39:14Z</time>
</trkpt>
<trkpt lat="37.951242" lon="-1.074656">
 <ele>135.900000</ele>
<time>2005-05-24T10:39:16Z</time>
</trkpt>
<trkpt lat="37.951242" lon="-1.074659">
 <ele>135.140000</ele>
<time>2005-05-24T10:39:17Z</time>
</trkpt>
<trkpt lat="37.951245" lon="-1.074659">
 <ele>136.080000</ele>
<time>2005-05-24T10:39:18Z</time>
</trkpt>
<trkpt lat="37.951247" lon="-1.074658">
 <ele>135.480000</ele>
<time>2005-05-24T10:39:19Z</time>
</trkpt>
<trkpt lat="37.951236" lon="-1.074670">
 <ele>135.800000</ele>
<time>2005-05-24T10:39:20Z</time>
</trkpt>
<trkpt lat="37.951216" lon="-1.074709">
 <ele>135.500000</ele>
<time>2005-05-24T10:39:24Z</time>
</trkpt>
<trkpt lat="37.951207" lon="-1.074703">
 <ele>135.600000</ele>
<time>2005-05-24T10:39:25Z</time>
</trkpt>
<trkpt lat="37.951210" lon="-1.074706">
 <ele>135.640000</ele>
<time>2005-05-24T10:39:26Z</time>
</trkpt>
<trkpt lat="37.951207" lon="-1.074759">
 <ele>135.380000</ele>
<time>2005-05-24T10:39:29Z</time>
</trkpt>
<trkpt lat="37.951181" lon="-1.074839">
 <ele>134.700000</ele>
<time>2005-05-24T10:39:35Z</time>
</trkpt>
<trkpt lat="37.951155" lon="-1.074843">
 <ele>134.800000</ele>
<time>2005-05-24T10:39:37Z</time>
</trkpt>
<trkpt lat="37.951000" lon="-1.074856">
 <ele>132.960000</ele>
<time>2005-05-24T10:39:43Z</time>
</trkpt>
<trkpt lat="37.950976" lon="-1.074856">
 <ele>133.500000</ele>
<time>2005-05-24T10:39:47Z</time>
</trkpt>
<trkpt lat="37.950982" lon="-1.074856">
 <ele>134.000000</ele>
<time>2005-05-24T10:39:48Z</time>
</trkpt>
<trkpt lat="37.950983" lon="-1.074863">
 <ele>133.660000</ele>
<time>2005-05-24T10:39:49Z</time>
</trkpt>
<trkpt lat="37.950985" lon="-1.074854">
 <ele>134.280000</ele>
<time>2005-05-24T10:39:50Z</time>
</trkpt>
<trkpt lat="37.950947" lon="-1.074811">
 <ele>134.680000</ele>
<time>2005-05-24T10:39:52Z</time>
</trkpt>
<trkpt lat="37.950885" lon="-1.074809">
 <ele>134.920000</ele>
<time>2005-05-24T10:39:55Z</time>
</trkpt>
<trkpt lat="37.950700" lon="-1.074789">
 <ele>136.280000</ele>
<time>2005-05-24T10:40:03Z</time>
</trkpt>
<trkpt lat="37.950624" lon="-1.074804">
 <ele>136.520000</ele>
<time>2005-05-24T10:40:06Z</time>
</trkpt>
<trkpt lat="37.950569" lon="-1.074799">
 <ele>138.840000</ele>
<time>2005-05-24T10:40:09Z</time>
</trkpt>
<trkpt lat="37.950512" lon="-1.074631">
 <ele>143.560000</ele>
<time>2005-05-24T10:40:16Z</time>
</trkpt>
<trkpt lat="37.950507" lon="-1.074560">
 <ele>145.160000</ele>
<time>2005-05-24T10:40:19Z</time>
</trkpt>
<trkpt lat="37.950546" lon="-1.074447">
 <ele>146.440000</ele>
<time>2005-05-24T10:40:24Z</time>
</trkpt>
<trkpt lat="37.950526" lon="-1.074435">
 <ele>145.000000</ele>
<time>2005-05-24T10:40:27Z</time>
</trkpt>
<trkpt lat="37.950558" lon="-1.074441">
 <ele>145.440000</ele>
<time>2005-05-24T10:40:29Z</time>
</trkpt>
<trkpt lat="37.950611" lon="-1.074504">
 <ele>149.440000</ele>
<time>2005-05-24T10:40:39Z</time>
</trkpt>
<trkpt lat="37.950623" lon="-1.074506">
 <ele>149.180000</ele>
<time>2005-05-24T10:40:40Z</time>
</trkpt>
<trkpt lat="37.950655" lon="-1.074539">
 <ele>150.100000</ele>
<time>2005-05-24T10:40:44Z</time>
</trkpt>
<trkpt lat="37.950678" lon="-1.074614">
 <ele>149.580000</ele>
<time>2005-05-24T10:40:48Z</time>
</trkpt>
<trkpt lat="37.950665" lon="-1.074615">
 <ele>150.420000</ele>
<time>2005-05-24T10:40:50Z</time>
</trkpt>
<trkpt lat="37.950668" lon="-1.074621">
 <ele>150.820000</ele>
<time>2005-05-24T10:40:51Z</time>
</trkpt>
<trkpt lat="37.950702" lon="-1.074670">
 <ele>152.620000</ele>
<time>2005-05-24T10:40:57Z</time>
</trkpt>
<trkpt lat="37.950709" lon="-1.074677">
 <ele>152.580000</ele>
<time>2005-05-24T10:40:58Z</time>
</trkpt>
<trkpt lat="37.950692" lon="-1.074674">
 <ele>152.600000</ele>
<time>2005-05-24T10:40:59Z</time>
</trkpt>
<trkpt lat="37.950699" lon="-1.074693">
 <ele>152.760000</ele>
<time>2005-05-24T10:41:00Z</time>
</trkpt>
<trkpt lat="37.950842" lon="-1.074974">
 <ele>152.820000</ele>
<time>2005-05-24T10:41:21Z</time>
</trkpt>
<trkpt lat="37.950816" lon="-1.075007">
 <ele>152.380000</ele>
<time>2005-05-24T10:41:23Z</time>
</trkpt>
<trkpt lat="37.950816" lon="-1.074999">
 <ele>151.500000</ele>
<time>2005-05-24T10:41:24Z</time>
</trkpt>
<trkpt lat="37.950817" lon="-1.075011">
 <ele>151.880000</ele>
<time>2005-05-24T10:41:25Z</time>
</trkpt>
<trkpt lat="37.950785" lon="-1.075133">
 <ele>151.640000</ele>
<time>2005-05-24T10:41:33Z</time>
</trkpt>
<trkpt lat="37.950806" lon="-1.075198">
 <ele>152.380000</ele>
<time>2005-05-24T10:41:36Z</time>
</trkpt>
<trkpt lat="37.950779" lon="-1.075221">
 <ele>152.040000</ele>
<time>2005-05-24T10:41:38Z</time>
</trkpt>
<trkpt lat="37.950769" lon="-1.075258">
 <ele>151.440000</ele>
<time>2005-05-24T10:41:40Z</time>
</trkpt>
<trkpt lat="37.950759" lon="-1.075283">
 <ele>151.440000</ele>
<time>2005-05-24T10:41:43Z</time>
</trkpt>
<trkpt lat="37.950762" lon="-1.075293">
 <ele>152.120000</ele>
<time>2005-05-24T10:41:44Z</time>
</trkpt>
<trkpt lat="37.950740" lon="-1.075312">
 <ele>152.320000</ele>
<time>2005-05-24T10:41:46Z</time>
</trkpt>
<trkpt lat="37.950718" lon="-1.075357">
 <ele>152.520000</ele>
<time>2005-05-24T10:41:48Z</time>
</trkpt>
<trkpt lat="37.950671" lon="-1.075414">
 <ele>153.440000</ele>
<time>2005-05-24T10:41:55Z</time>
</trkpt>
<trkpt lat="37.950658" lon="-1.075399">
 <ele>154.180000</ele>
<time>2005-05-24T10:41:56Z</time>
</trkpt>
<trkpt lat="37.950643" lon="-1.075403">
 <ele>154.780000</ele>
<time>2005-05-24T10:41:58Z</time>
</trkpt>
<trkpt lat="37.950627" lon="-1.075506">
 <ele>156.740000</ele>
<time>2005-05-24T10:42:04Z</time>
</trkpt>
<trkpt lat="37.950628" lon="-1.075500">
 <ele>156.720000</ele>
<time>2005-05-24T10:42:06Z</time>
</trkpt>
<trkpt lat="37.950617" lon="-1.075509">
 <ele>157.020000</ele>
<time>2005-05-24T10:42:07Z</time>
</trkpt>
<trkpt lat="37.950574" lon="-1.075600">
 <ele>156.720000</ele>
<time>2005-05-24T10:42:12Z</time>
</trkpt>
<trkpt lat="37.950548" lon="-1.075656">
 <ele>156.680000</ele>
<time>2005-05-24T10:42:15Z</time>
</trkpt>
<trkpt lat="37.950531" lon="-1.075738">
 <ele>156.840000</ele>
<time>2005-05-24T10:42:21Z</time>
</trkpt>
<trkpt lat="37.950493" lon="-1.075885">
 <ele>158.960000</ele>
<time>2005-05-24T10:42:33Z</time>
</trkpt>
<trkpt lat="37.950499" lon="-1.075891">
 <ele>160.720000</ele>
<time>2005-05-24T10:42:34Z</time>
</trkpt>
<trkpt lat="37.950485" lon="-1.075924">
 <ele>163.380000</ele>
<time>2005-05-24T10:42:36Z</time>
</trkpt>
<trkpt lat="37.950488" lon="-1.075930">
 <ele>163.320000</ele>
<time>2005-05-24T10:42:37Z</time>
</trkpt>
<trkpt lat="37.950464" lon="-1.075985">
 <ele>166.700000</ele>
<time>2005-05-24T10:42:43Z</time>
</trkpt>
<trkpt lat="37.950477" lon="-1.075991">
 <ele>165.500000</ele>
<time>2005-05-24T10:42:44Z</time>
</trkpt>
<trkpt lat="37.950485" lon="-1.076021">
 <ele>165.020000</ele>
<time>2005-05-24T10:42:47Z</time>
</trkpt>
<trkpt lat="37.950458" lon="-1.076059">
 <ele>165.500000</ele>
<time>2005-05-24T10:42:49Z</time>
</trkpt>
<trkpt lat="37.950465" lon="-1.076063">
 <ele>165.760000</ele>
<time>2005-05-24T10:42:50Z</time>
</trkpt>
<trkpt lat="37.950504" lon="-1.076108">
 <ele>166.360000</ele>
<time>2005-05-24T10:42:53Z</time>
</trkpt>
<trkpt lat="37.950489" lon="-1.076122">
 <ele>165.940000</ele>
<time>2005-05-24T10:42:54Z</time>
</trkpt>
<trkpt lat="37.950492" lon="-1.076179">
 <ele>167.480000</ele>
<time>2005-05-24T10:42:57Z</time>
</trkpt>
<trkpt lat="37.950490" lon="-1.076196">
 <ele>169.040000</ele>
<time>2005-05-24T10:42:59Z</time>
</trkpt>
<trkpt lat="37.950493" lon="-1.076209">
 <ele>171.340000</ele>
<time>2005-05-24T10:43:00Z</time>
</trkpt>
<trkpt lat="37.950493" lon="-1.076214">
 <ele>172.660000</ele>
<time>2005-05-24T10:43:04Z</time>
</trkpt>
<trkpt lat="37.950507" lon="-1.076226">
 <ele>172.920000</ele>
<time>2005-05-24T10:43:05Z</time>
</trkpt>
<trkpt lat="37.950510" lon="-1.076292">
 <ele>174.020000</ele>
<time>2005-05-24T10:43:08Z</time>
</trkpt>
<trkpt lat="37.950538" lon="-1.076308">
 <ele>174.860000</ele>
<time>2005-05-24T10:43:12Z</time>
</trkpt>
<trkpt lat="37.950534" lon="-1.076306">
 <ele>174.700000</ele>
<time>2005-05-24T10:43:13Z</time>
</trkpt>
<trkpt lat="37.950539" lon="-1.076326">
 <ele>174.240000</ele>
<time>2005-05-24T10:43:14Z</time>
</trkpt>
<trkpt lat="37.950526" lon="-1.076364">
 <ele>173.580000</ele>
<time>2005-05-24T10:43:17Z</time>
</trkpt>
<trkpt lat="37.950520" lon="-1.076380">
 <ele>173.340000</ele>
<time>2005-05-24T10:43:18Z</time>
</trkpt>
<trkpt lat="37.950468" lon="-1.076388">
 <ele>172.100000</ele>
<time>2005-05-24T10:43:20Z</time>
</trkpt>
<trkpt lat="37.950433" lon="-1.076424">
 <ele>174.060000</ele>
<time>2005-05-24T10:43:26Z</time>
</trkpt>
<trkpt lat="37.950412" lon="-1.076457">
 <ele>172.500000</ele>
<time>2005-05-24T10:43:28Z</time>
</trkpt>
<trkpt lat="37.950354" lon="-1.076476">
 <ele>171.540000</ele>
<time>2005-05-24T10:43:32Z</time>
</trkpt>
<trkpt lat="37.950356" lon="-1.076486">
 <ele>171.360000</ele>
<time>2005-05-24T10:43:33Z</time>
</trkpt>
<trkpt lat="37.950332" lon="-1.076516">
 <ele>171.340000</ele>
<time>2005-05-24T10:43:36Z</time>
</trkpt>
<trkpt lat="37.950324" lon="-1.076507">
 <ele>169.440000</ele>
<time>2005-05-24T10:43:37Z</time>
</trkpt>
<trkpt lat="37.950326" lon="-1.076528">
 <ele>169.380000</ele>
<time>2005-05-24T10:43:38Z</time>
</trkpt>
<trkpt lat="37.950311" lon="-1.076527">
 <ele>169.740000</ele>
<time>2005-05-24T10:43:39Z</time>
</trkpt>
<trkpt lat="37.950280" lon="-1.076565">
 <ele>169.120000</ele>
<time>2005-05-24T10:43:41Z</time>
</trkpt>
<trkpt lat="37.950268" lon="-1.076548">
 <ele>167.300000</ele>
<time>2005-05-24T10:43:42Z</time>
</trkpt>
<trkpt lat="37.950257" lon="-1.076579">
 <ele>167.720000</ele>
<time>2005-05-24T10:43:43Z</time>
</trkpt>
<trkpt lat="37.950203" lon="-1.076584">
 <ele>167.520000</ele>
<time>2005-05-24T10:43:45Z</time>
</trkpt>
<trkpt lat="37.950096" lon="-1.076566">
 <ele>166.520000</ele>
<time>2005-05-24T10:43:52Z</time>
</trkpt>
<trkpt lat="37.950071" lon="-1.076582">
 <ele>166.400000</ele>
<time>2005-05-24T10:43:54Z</time>
</trkpt>
<trkpt lat="37.949962" lon="-1.076578">
 <ele>168.960000</ele>
<time>2005-05-24T10:44:02Z</time>
</trkpt>
<trkpt lat="37.949933" lon="-1.076595">
 <ele>166.820000</ele>
<time>2005-05-24T10:44:03Z</time>
</trkpt>
<trkpt lat="37.949939" lon="-1.076596">
 <ele>167.640000</ele>
<time>2005-05-24T10:44:04Z</time>
</trkpt>
<trkpt lat="37.949918" lon="-1.076597">
 <ele>168.440000</ele>
<time>2005-05-24T10:44:05Z</time>
</trkpt>
<trkpt lat="37.949910" lon="-1.076620">
 <ele>168.000000</ele>
<time>2005-05-24T10:44:08Z</time>
</trkpt>
<trkpt lat="37.949917" lon="-1.076601">
 <ele>168.780000</ele>
<time>2005-05-24T10:44:09Z</time>
</trkpt>
<trkpt lat="37.949914" lon="-1.076590">
 <ele>168.960000</ele>
<time>2005-05-24T10:44:10Z</time>
</trkpt>
<trkpt lat="37.949902" lon="-1.076595">
 <ele>168.460000</ele>
<time>2005-05-24T10:44:11Z</time>
</trkpt>
<trkpt lat="37.949855" lon="-1.076623">
 <ele>170.200000</ele>
<time>2005-05-24T10:44:16Z</time>
</trkpt>
<trkpt lat="37.949866" lon="-1.076625">
 <ele>170.520000</ele>
<time>2005-05-24T10:44:17Z</time>
</trkpt>
<trkpt lat="37.949864" lon="-1.076631">
 <ele>172.820000</ele>
<time>2005-05-24T10:44:18Z</time>
</trkpt>
<trkpt lat="37.949865" lon="-1.076603">
 <ele>175.220000</ele>
<time>2005-05-24T10:44:19Z</time>
</trkpt>
<trkpt lat="37.949861" lon="-1.076605">
 <ele>173.260000</ele>
<time>2005-05-24T10:44:20Z</time>
</trkpt>
<trkpt lat="37.949863" lon="-1.076601">
 <ele>173.960000</ele>
<time>2005-05-24T10:44:21Z</time>
</trkpt>
<trkpt lat="37.949863" lon="-1.076600">
 <ele>175.320000</ele>
<time>2005-05-24T10:44:22Z</time>
</trkpt>
<trkpt lat="37.949862" lon="-1.076592">
 <ele>178.160000</ele>
<time>2005-05-24T10:44:29Z</time>
</trkpt>
<trkpt lat="37.949852" lon="-1.076586">
 <ele>191.780000</ele>
<time>2005-05-24T10:44:31Z</time>
</trkpt>
<trkpt lat="37.949860" lon="-1.076567">
 <ele>194.120000</ele>
<time>2005-05-24T10:44:33Z</time>
</trkpt>
<trkpt lat="37.949855" lon="-1.076571">
 <ele>187.040000</ele>
<time>2005-05-24T10:44:34Z</time>
</trkpt>
<trkpt lat="37.949832" lon="-1.076603">
 <ele>191.900000</ele>
<time>2005-05-24T10:44:37Z</time>
</trkpt>
<trkpt lat="37.949832" lon="-1.076592">
 <ele>193.260000</ele>
<time>2005-05-24T10:44:39Z</time>
</trkpt>
<trkpt lat="37.949817" lon="-1.076606">
 <ele>195.540000</ele>
<time>2005-05-24T10:44:43Z</time>
</trkpt>
<trkpt lat="37.949817" lon="-1.076612">
 <ele>197.280000</ele>
<time>2005-05-24T10:44:44Z</time>
</trkpt>
<trkpt lat="37.949809" lon="-1.076616">
 <ele>196.860000</ele>
<time>2005-05-24T10:44:46Z</time>
</trkpt>
<trkpt lat="37.949769" lon="-1.076658">
 <ele>194.900000</ele>
<time>2005-05-24T10:44:50Z</time>
</trkpt>
<trkpt lat="37.949744" lon="-1.076691">
 <ele>193.360000</ele>
<time>2005-05-24T10:44:54Z</time>
</trkpt>
<trkpt lat="37.949729" lon="-1.076702">
 <ele>193.920000</ele>
<time>2005-05-24T10:44:55Z</time>
</trkpt>
<trkpt lat="37.949676" lon="-1.076776">
 <ele>200.600000</ele>
<time>2005-05-24T10:45:06Z</time>
</trkpt>
<trkpt lat="37.949664" lon="-1.076779">
 <ele>201.460000</ele>
<time>2005-05-24T10:45:07Z</time>
</trkpt>
<trkpt lat="37.949655" lon="-1.076836">
 <ele>202.340000</ele>
<time>2005-05-24T10:45:10Z</time>
</trkpt>
<trkpt lat="37.949646" lon="-1.076877">
 <ele>205.060000</ele>
<time>2005-05-24T10:45:15Z</time>
</trkpt>
<trkpt lat="37.949665" lon="-1.076891">
 <ele>205.580000</ele>
<time>2005-05-24T10:45:16Z</time>
</trkpt>
<trkpt lat="37.949919" lon="-1.077041">
 <ele>200.660000</ele>
<time>2005-05-24T10:45:36Z</time>
</trkpt>
<trkpt lat="37.949928" lon="-1.077038">
 <ele>199.700000</ele>
<time>2005-05-24T10:45:37Z</time>
</trkpt>
<trkpt lat="37.949923" lon="-1.077055">
 <ele>199.400000</ele>
<time>2005-05-24T10:45:39Z</time>
</trkpt>
<trkpt lat="37.949928" lon="-1.077064">
 <ele>198.880000</ele>
<time>2005-05-24T10:45:41Z</time>
</trkpt>
<trkpt lat="37.949975" lon="-1.077095">
 <ele>197.040000</ele>
<time>2005-05-24T10:45:46Z</time>
</trkpt>
<trkpt lat="37.949979" lon="-1.077102">
 <ele>196.980000</ele>
<time>2005-05-24T10:45:47Z</time>
</trkpt>
<trkpt lat="37.949974" lon="-1.077209">
 <ele>195.280000</ele>
<time>2005-05-24T10:45:54Z</time>
</trkpt>
<trkpt lat="37.949959" lon="-1.077251">
 <ele>194.600000</ele>
<time>2005-05-24T10:45:56Z</time>
</trkpt>
<trkpt lat="37.949960" lon="-1.077316">
 <ele>192.840000</ele>
<time>2005-05-24T10:46:00Z</time>
</trkpt>
<trkpt lat="37.949934" lon="-1.077363">
 <ele>193.480000</ele>
<time>2005-05-24T10:46:02Z</time>
</trkpt>
<trkpt lat="37.949828" lon="-1.077563">
 <ele>190.040000</ele>
<time>2005-05-24T10:46:16Z</time>
</trkpt>
<trkpt lat="37.949818" lon="-1.077571">
 <ele>189.640000</ele>
<time>2005-05-24T10:46:19Z</time>
</trkpt>
<trkpt lat="37.949812" lon="-1.077587">
 <ele>189.140000</ele>
<time>2005-05-24T10:46:20Z</time>
</trkpt>
<trkpt lat="37.949779" lon="-1.077621">
 <ele>188.660000</ele>
<time>2005-05-24T10:46:23Z</time>
</trkpt>
<trkpt lat="37.949785" lon="-1.077614">
 <ele>188.060000</ele>
<time>2005-05-24T10:46:24Z</time>
</trkpt>
<trkpt lat="37.949791" lon="-1.077619">
 <ele>188.240000</ele>
<time>2005-05-24T10:46:25Z</time>
</trkpt>
<trkpt lat="37.949791" lon="-1.077615">
 <ele>187.660000</ele>
<time>2005-05-24T10:46:26Z</time>
</trkpt>
<trkpt lat="37.949782" lon="-1.077628">
 <ele>187.720000</ele>
<time>2005-05-24T10:46:27Z</time>
</trkpt>
<trkpt lat="37.949741" lon="-1.077607">
 <ele>186.900000</ele>
<time>2005-05-24T10:46:29Z</time>
</trkpt>
<trkpt lat="37.949676" lon="-1.077621">
 <ele>184.900000</ele>
<time>2005-05-24T10:46:33Z</time>
</trkpt>
<trkpt lat="37.949586" lon="-1.077660">
 <ele>181.980000</ele>
<time>2005-05-24T10:46:37Z</time>
</trkpt>
<trkpt lat="37.949597" lon="-1.077678">
 <ele>182.720000</ele>
<time>2005-05-24T10:46:38Z</time>
</trkpt>
<trkpt lat="37.949594" lon="-1.077689">
 <ele>182.180000</ele>
<time>2005-05-24T10:46:40Z</time>
</trkpt>
<trkpt lat="37.949584" lon="-1.077713">
 <ele>182.600000</ele>
<time>2005-05-24T10:46:41Z</time>
</trkpt>
<trkpt lat="37.949572" lon="-1.077725">
 <ele>182.000000</ele>
<time>2005-05-24T10:46:44Z</time>
</trkpt>
<trkpt lat="37.949570" lon="-1.077728">
 <ele>181.940000</ele>
<time>2005-05-24T10:46:45Z</time>
</trkpt>
<trkpt lat="37.949525" lon="-1.077858">
 <ele>182.560000</ele>
<time>2005-05-24T10:46:53Z</time>
</trkpt>
<trkpt lat="37.949516" lon="-1.077911">
 <ele>182.560000</ele>
<time>2005-05-24T10:46:56Z</time>
</trkpt>
<trkpt lat="37.949511" lon="-1.077961">
 <ele>184.600000</ele>
<time>2005-05-24T10:47:01Z</time>
</trkpt>
<trkpt lat="37.949555" lon="-1.077970">
 <ele>186.500000</ele>
<time>2005-05-24T10:47:04Z</time>
</trkpt>
<trkpt lat="37.949607" lon="-1.078128">
 <ele>188.820000</ele>
<time>2005-05-24T10:47:17Z</time>
</trkpt>
<trkpt lat="37.949618" lon="-1.078116">
 <ele>189.600000</ele>
<time>2005-05-24T10:47:19Z</time>
</trkpt>
<trkpt lat="37.949603" lon="-1.078133">
 <ele>189.620000</ele>
<time>2005-05-24T10:47:20Z</time>
</trkpt>
<trkpt lat="37.949623" lon="-1.078202">
 <ele>191.340000</ele>
<time>2005-05-24T10:47:24Z</time>
</trkpt>
<trkpt lat="37.949615" lon="-1.078188">
 <ele>192.940000</ele>
<time>2005-05-24T10:47:25Z</time>
</trkpt>
<trkpt lat="37.949615" lon="-1.078201">
 <ele>193.560000</ele>
<time>2005-05-24T10:47:27Z</time>
</trkpt>
<trkpt lat="37.949638" lon="-1.078306">
 <ele>193.120000</ele>
<time>2005-05-24T10:47:33Z</time>
</trkpt>
<trkpt lat="37.949606" lon="-1.078481">
 <ele>191.320000</ele>
<time>2005-05-24T10:47:45Z</time>
</trkpt>
<trkpt lat="37.949599" lon="-1.078495">
 <ele>191.580000</ele>
<time>2005-05-24T10:47:46Z</time>
</trkpt>
<trkpt lat="37.949576" lon="-1.078531">
 <ele>192.320000</ele>
<time>2005-05-24T10:47:50Z</time>
</trkpt>
<trkpt lat="37.949577" lon="-1.078527">
 <ele>191.600000</ele>
<time>2005-05-24T10:47:51Z</time>
</trkpt>
<trkpt lat="37.949579" lon="-1.078534">
 <ele>191.900000</ele>
<time>2005-05-24T10:47:52Z</time>
</trkpt>
<trkpt lat="37.949593" lon="-1.078541">
 <ele>187.740000</ele>
<time>2005-05-24T10:47:57Z</time>
</trkpt>
<trkpt lat="37.949594" lon="-1.078560">
 <ele>190.720000</ele>
<time>2005-05-24T10:47:58Z</time>
</trkpt>
<trkpt lat="37.949593" lon="-1.078560">
 <ele>191.480000</ele>
<time>2005-05-24T10:47:59Z</time>
</trkpt>
<trkpt lat="37.949578" lon="-1.078555">
 <ele>191.320000</ele>
<time>2005-05-24T10:48:01Z</time>
</trkpt>
<trkpt lat="37.949579" lon="-1.078563">
 <ele>194.360000</ele>
<time>2005-05-24T10:48:02Z</time>
</trkpt>
<trkpt lat="37.949525" lon="-1.078581">
 <ele>194.920000</ele>
<time>2005-05-24T10:48:05Z</time>
</trkpt>
<trkpt lat="37.949519" lon="-1.078566">
 <ele>198.340000</ele>
<time>2005-05-24T10:48:06Z</time>
</trkpt>
<trkpt lat="37.949500" lon="-1.078586">
 <ele>197.460000</ele>
<time>2005-05-24T10:48:07Z</time>
</trkpt>
<trkpt lat="37.949410" lon="-1.078625">
 <ele>196.120000</ele>
<time>2005-05-24T10:48:11Z</time>
</trkpt>
<trkpt lat="37.949411" lon="-1.078615">
 <ele>197.220000</ele>
<time>2005-05-24T10:48:12Z</time>
</trkpt>
<trkpt lat="37.949404" lon="-1.078625">
 <ele>199.780000</ele>
<time>2005-05-24T10:48:13Z</time>
</trkpt>
<trkpt lat="37.949237" lon="-1.078785">
 <ele>202.620000</ele>
<time>2005-05-24T10:48:28Z</time>
</trkpt>
<trkpt lat="37.949239" lon="-1.078841">
 <ele>201.760000</ele>
<time>2005-05-24T10:48:31Z</time>
</trkpt>
<trkpt lat="37.949230" lon="-1.078833">
 <ele>202.060000</ele>
<time>2005-05-24T10:48:32Z</time>
</trkpt>
<trkpt lat="37.949241" lon="-1.078833">
 <ele>201.480000</ele>
<time>2005-05-24T10:48:33Z</time>
</trkpt>
<trkpt lat="37.949238" lon="-1.078839">
 <ele>201.600000</ele>
<time>2005-05-24T10:48:34Z</time>
</trkpt>
<trkpt lat="37.949193" lon="-1.078841">
 <ele>200.340000</ele>
<time>2005-05-24T10:48:36Z</time>
</trkpt>
<trkpt lat="37.949027" lon="-1.078849">
 <ele>198.500000</ele>
<time>2005-05-24T10:48:43Z</time>
</trkpt>
<trkpt lat="37.948983" lon="-1.078825">
 <ele>199.780000</ele>
<time>2005-05-24T10:48:48Z</time>
</trkpt>
<trkpt lat="37.948962" lon="-1.078819">
 <ele>197.340000</ele>
<time>2005-05-24T10:48:49Z</time>
</trkpt>
<trkpt lat="37.948929" lon="-1.078756">
 <ele>196.960000</ele>
<time>2005-05-24T10:48:52Z</time>
</trkpt>
<trkpt lat="37.948941" lon="-1.078755">
 <ele>195.460000</ele>
<time>2005-05-24T10:48:53Z</time>
</trkpt>
<trkpt lat="37.948953" lon="-1.078781">
 <ele>195.220000</ele>
<time>2005-05-24T10:48:55Z</time>
</trkpt>
<trkpt lat="37.948923" lon="-1.078786">
 <ele>193.820000</ele>
<time>2005-05-24T10:48:58Z</time>
</trkpt>
<trkpt lat="37.948931" lon="-1.078796">
 <ele>193.620000</ele>
<time>2005-05-24T10:49:00Z</time>
</trkpt>
<trkpt lat="37.948962" lon="-1.078808">
 <ele>196.720000</ele>
<time>2005-05-24T10:49:03Z</time>
</trkpt>
<trkpt lat="37.948943" lon="-1.078796">
 <ele>198.200000</ele>
<time>2005-05-24T10:49:04Z</time>
</trkpt>
<trkpt lat="37.948937" lon="-1.078783">
 <ele>198.060000</ele>
<time>2005-05-24T10:49:05Z</time>
</trkpt>
<trkpt lat="37.948934" lon="-1.078788">
 <ele>198.020000</ele>
<time>2005-05-24T10:49:06Z</time>
</trkpt>
<trkpt lat="37.948943" lon="-1.078779">
 <ele>197.860000</ele>
<time>2005-05-24T10:49:07Z</time>
</trkpt>
<trkpt lat="37.948935" lon="-1.078782">
 <ele>198.020000</ele>
<time>2005-05-24T10:49:08Z</time>
</trkpt>
<trkpt lat="37.948935" lon="-1.078782">
 <ele>197.700000</ele>
<time>2005-05-24T10:49:09Z</time>
</trkpt>
<trkpt lat="37.948942" lon="-1.078771">
 <ele>201.620000</ele>
<time>2005-05-24T10:49:13Z</time>
</trkpt>
<trkpt lat="37.948919" lon="-1.078710">
 <ele>213.500000</ele>
<time>2005-05-24T10:49:18Z</time>
</trkpt>
<trkpt lat="37.948885" lon="-1.078674">
 <ele>219.240000</ele>
<time>2005-05-24T10:49:23Z</time>
</trkpt>
<trkpt lat="37.948884" lon="-1.078650">
 <ele>221.340000</ele>
<time>2005-05-24T10:49:24Z</time>
</trkpt>
<trkpt lat="37.948857" lon="-1.078634">
 <ele>222.800000</ele>
<time>2005-05-24T10:49:26Z</time>
</trkpt>
<trkpt lat="37.948868" lon="-1.078643">
 <ele>224.600000</ele>
<time>2005-05-24T10:49:27Z</time>
</trkpt>
<trkpt lat="37.948864" lon="-1.078637">
 <ele>225.420000</ele>
<time>2005-05-24T10:49:28Z</time>
</trkpt>
<trkpt lat="37.948874" lon="-1.078631">
 <ele>221.980000</ele>
<time>2005-05-24T10:49:29Z</time>
</trkpt>
<trkpt lat="37.948867" lon="-1.078627">
 <ele>225.420000</ele>
<time>2005-05-24T10:49:30Z</time>
</trkpt>
<trkpt lat="37.948867" lon="-1.078627">
 <ele>223.500000</ele>
<time>2005-05-24T10:49:31Z</time>
</trkpt>
<trkpt lat="37.948848" lon="-1.078617">
 <ele>226.180000</ele>
<time>2005-05-24T10:49:32Z</time>
</trkpt>
<trkpt lat="37.948761" lon="-1.078565">
 <ele>230.100000</ele>
<time>2005-05-24T10:49:35Z</time>
</trkpt>
<trkpt lat="37.948661" lon="-1.078428">
 <ele>246.000000</ele>
<time>2005-05-24T10:49:44Z</time>
</trkpt>
<trkpt lat="37.948662" lon="-1.078409">
 <ele>250.500000</ele>
<time>2005-05-24T10:49:47Z</time>
</trkpt>
<trkpt lat="37.948669" lon="-1.078402">
 <ele>251.060000</ele>
<time>2005-05-24T10:49:48Z</time>
</trkpt>
<trkpt lat="37.948672" lon="-1.078415">
 <ele>254.480000</ele>
<time>2005-05-24T10:49:49Z</time>
</trkpt>
<trkpt lat="37.948667" lon="-1.078422">
 <ele>253.520000</ele>
<time>2005-05-24T10:49:50Z</time>
</trkpt>
<trkpt lat="37.948643" lon="-1.078415">
 <ele>255.440000</ele>
<time>2005-05-24T10:49:51Z</time>
</trkpt>
<trkpt lat="37.948597" lon="-1.078398">
 <ele>260.220000</ele>
<time>2005-05-24T10:49:55Z</time>
</trkpt>
<trkpt lat="37.948589" lon="-1.078405">
 <ele>263.220000</ele>
<time>2005-05-24T10:49:56Z</time>
</trkpt>
<trkpt lat="37.948544" lon="-1.078455">
 <ele>269.400000</ele>
<time>2005-05-24T10:50:04Z</time>
</trkpt>
<trkpt lat="37.948529" lon="-1.078453">
 <ele>271.540000</ele>
<time>2005-05-24T10:50:05Z</time>
</trkpt>
<trkpt lat="37.948533" lon="-1.078465">
 <ele>272.260000</ele>
<time>2005-05-24T10:50:06Z</time>
</trkpt>
<trkpt lat="37.948504" lon="-1.078453">
 <ele>273.440000</ele>
<time>2005-05-24T10:50:07Z</time>
</trkpt>
<trkpt lat="37.948486" lon="-1.078477">
 <ele>278.460000</ele>
<time>2005-05-24T10:50:10Z</time>
</trkpt>
<trkpt lat="37.948498" lon="-1.078457">
 <ele>280.220000</ele>
<time>2005-05-24T10:50:11Z</time>
</trkpt>
<trkpt lat="37.948496" lon="-1.078462">
 <ele>282.920000</ele>
<time>2005-05-24T10:50:12Z</time>
</trkpt>
<trkpt lat="37.948498" lon="-1.078456">
 <ele>283.360000</ele>
<time>2005-05-24T10:50:13Z</time>
</trkpt>
<trkpt lat="37.948490" lon="-1.078445">
 <ele>284.780000</ele>
<time>2005-05-24T10:50:14Z</time>
</trkpt>
<trkpt lat="37.948504" lon="-1.078446">
 <ele>281.860000</ele>
<time>2005-05-24T10:50:15Z</time>
</trkpt>
<trkpt lat="37.948498" lon="-1.078448">
 <ele>284.980000</ele>
<time>2005-05-24T10:50:16Z</time>
</trkpt>
<trkpt lat="37.948498" lon="-1.078448">
 <ele>282.900000</ele>
<time>2005-05-24T10:50:17Z</time>
</trkpt>
<trkpt lat="37.948495" lon="-1.078451">
 <ele>285.540000</ele>
<time>2005-05-24T10:50:18Z</time>
</trkpt>
<trkpt lat="37.948475" lon="-1.078483">
 <ele>297.500000</ele>
<time>2005-05-24T10:50:22Z</time>
</trkpt>
<trkpt lat="37.948469" lon="-1.078496">
 <ele>294.640000</ele>
<time>2005-05-24T10:50:24Z</time>
</trkpt>
<trkpt lat="37.948426" lon="-1.078485">
 <ele>296.060000</ele>
<time>2005-05-24T10:50:26Z</time>
</trkpt>
<trkpt lat="37.948437" lon="-1.078494">
 <ele>297.020000</ele>
<time>2005-05-24T10:50:27Z</time>
</trkpt>
<trkpt lat="37.948429" lon="-1.078477">
 <ele>299.060000</ele>
<time>2005-05-24T10:50:28Z</time>
</trkpt>
<trkpt lat="37.948390" lon="-1.078484">
 <ele>296.020000</ele>
<time>2005-05-24T10:50:31Z</time>
</trkpt>
<trkpt lat="37.948352" lon="-1.078530">
 <ele>299.240000</ele>
<time>2005-05-24T10:50:35Z</time>
</trkpt>
<trkpt lat="37.948346" lon="-1.078533">
 <ele>297.800000</ele>
<time>2005-05-24T10:50:36Z</time>
</trkpt>
<trkpt lat="37.948322" lon="-1.078597">
 <ele>297.860000</ele>
<time>2005-05-24T10:50:41Z</time>
</trkpt>
<trkpt lat="37.948322" lon="-1.078619">
 <ele>300.560000</ele>
<time>2005-05-24T10:50:42Z</time>
</trkpt>
<trkpt lat="37.948307" lon="-1.078616">
 <ele>300.980000</ele>
<time>2005-05-24T10:50:43Z</time>
</trkpt>
<trkpt lat="37.948304" lon="-1.078641">
 <ele>299.460000</ele>
<time>2005-05-24T10:50:44Z</time>
</trkpt>
<trkpt lat="37.948292" lon="-1.078703">
 <ele>304.020000</ele>
<time>2005-05-24T10:50:50Z</time>
</trkpt>
<trkpt lat="37.948270" lon="-1.078748">
 <ele>308.860000</ele>
<time>2005-05-24T10:50:54Z</time>
</trkpt>
<trkpt lat="37.948218" lon="-1.078839">
 <ele>305.240000</ele>
<time>2005-05-24T10:51:00Z</time>
</trkpt>
<trkpt lat="37.948170" lon="-1.078904">
 <ele>306.520000</ele>
<time>2005-05-24T10:51:05Z</time>
</trkpt>
<trkpt lat="37.948157" lon="-1.078910">
 <ele>304.900000</ele>
<time>2005-05-24T10:51:06Z</time>
</trkpt>
<trkpt lat="37.948155" lon="-1.078955">
 <ele>302.740000</ele>
<time>2005-05-24T10:51:09Z</time>
</trkpt>
<trkpt lat="37.948127" lon="-1.078953">
 <ele>302.400000</ele>
<time>2005-05-24T10:51:10Z</time>
</trkpt>
<trkpt lat="37.948108" lon="-1.078981">
 <ele>302.300000</ele>
<time>2005-05-24T10:51:13Z</time>
</trkpt>
<trkpt lat="37.948086" lon="-1.078992">
 <ele>302.520000</ele>
<time>2005-05-24T10:51:16Z</time>
</trkpt>
<trkpt lat="37.948003" lon="-1.078998">
 <ele>304.100000</ele>
<time>2005-05-24T10:51:20Z</time>
</trkpt>
<trkpt lat="37.948001" lon="-1.079011">
 <ele>301.320000</ele>
<time>2005-05-24T10:51:22Z</time>
</trkpt>
<trkpt lat="37.948011" lon="-1.079024">
 <ele>301.560000</ele>
<time>2005-05-24T10:51:23Z</time>
</trkpt>
<trkpt lat="37.948007" lon="-1.079037">
 <ele>299.480000</ele>
<time>2005-05-24T10:51:24Z</time>
</trkpt>
<trkpt lat="37.947999" lon="-1.079032">
 <ele>300.360000</ele>
<time>2005-05-24T10:51:25Z</time>
</trkpt>
<trkpt lat="37.947999" lon="-1.079022">
 <ele>300.620000</ele>
<time>2005-05-24T10:51:26Z</time>
</trkpt>
<trkpt lat="37.947995" lon="-1.079035">
 <ele>299.420000</ele>
<time>2005-05-24T10:51:27Z</time>
</trkpt>
<trkpt lat="37.947961" lon="-1.079064">
 <ele>307.700000</ele>
<time>2005-05-24T10:51:32Z</time>
</trkpt>
<trkpt lat="37.947969" lon="-1.079066">
 <ele>308.300000</ele>
<time>2005-05-24T10:51:34Z</time>
</trkpt>
<trkpt lat="37.947909" lon="-1.079126">
 <ele>305.600000</ele>
<time>2005-05-24T10:51:39Z</time>
</trkpt>
<trkpt lat="37.947858" lon="-1.079176">
 <ele>305.240000</ele>
<time>2005-05-24T10:51:41Z</time>
</trkpt>
<trkpt lat="37.947840" lon="-1.079226">
 <ele>301.040000</ele>
<time>2005-05-24T10:51:45Z</time>
</trkpt>
<trkpt lat="37.947836" lon="-1.079225">
 <ele>305.980000</ele>
<time>2005-05-24T10:51:46Z</time>
</trkpt>
<trkpt lat="37.947811" lon="-1.079239">
 <ele>303.060000</ele>
<time>2005-05-24T10:51:48Z</time>
</trkpt>
<trkpt lat="37.947754" lon="-1.079282">
 <ele>305.360000</ele>
<time>2005-05-24T10:51:52Z</time>
</trkpt>
<trkpt lat="37.947741" lon="-1.079320">
 <ele>307.300000</ele>
<time>2005-05-24T10:51:57Z</time>
</trkpt>
<trkpt lat="37.947730" lon="-1.079342">
 <ele>310.180000</ele>
<time>2005-05-24T10:51:58Z</time>
</trkpt>
<trkpt lat="37.947590" lon="-1.079511">
 <ele>302.480000</ele>
<time>2005-05-24T10:52:03Z</time>
</trkpt>
<trkpt lat="37.947540" lon="-1.079605">
 <ele>304.500000</ele>
<time>2005-05-24T10:52:07Z</time>
</trkpt>
<trkpt lat="37.947538" lon="-1.079703">
 <ele>306.640000</ele>
<time>2005-05-24T10:52:11Z</time>
</trkpt>
<trkpt lat="37.947577" lon="-1.079762">
 <ele>312.020000</ele>
<time>2005-05-24T10:52:15Z</time>
</trkpt>
<trkpt lat="37.947676" lon="-1.079827">
 <ele>314.680000</ele>
<time>2005-05-24T10:52:22Z</time>
</trkpt>
<trkpt lat="37.947670" lon="-1.079846">
 <ele>314.140000</ele>
<time>2005-05-24T10:52:25Z</time>
</trkpt>
<trkpt lat="37.947669" lon="-1.079860">
 <ele>317.920000</ele>
<time>2005-05-24T10:52:26Z</time>
</trkpt>
<trkpt lat="37.947710" lon="-1.080014">
 <ele>323.520000</ele>
<time>2005-05-24T10:52:36Z</time>
</trkpt>
<trkpt lat="37.947700" lon="-1.080021">
 <ele>328.240000</ele>
<time>2005-05-24T10:52:37Z</time>
</trkpt>
<trkpt lat="37.947716" lon="-1.080033">
 <ele>327.400000</ele>
<time>2005-05-24T10:52:38Z</time>
</trkpt>
<trkpt lat="37.947713" lon="-1.080028">
 <ele>326.700000</ele>
<time>2005-05-24T10:52:39Z</time>
</trkpt>
<trkpt lat="37.947715" lon="-1.080051">
 <ele>327.080000</ele>
<time>2005-05-24T10:52:40Z</time>
</trkpt>
<trkpt lat="37.947663" lon="-1.080099">
 <ele>322.500000</ele>
<time>2005-05-24T10:52:44Z</time>
</trkpt>
<trkpt lat="37.947646" lon="-1.080115">
 <ele>324.600000</ele>
<time>2005-05-24T10:52:47Z</time>
</trkpt>
<trkpt lat="37.947577" lon="-1.080147">
 <ele>319.460000</ele>
<time>2005-05-24T10:52:50Z</time>
</trkpt>
<trkpt lat="37.947577" lon="-1.080171">
 <ele>318.700000</ele>
<time>2005-05-24T10:52:52Z</time>
</trkpt>
<trkpt lat="37.947550" lon="-1.080227">
 <ele>312.140000</ele>
<time>2005-05-24T10:52:55Z</time>
</trkpt>
<trkpt lat="37.947322" lon="-1.080331">
 <ele>305.280000</ele>
<time>2005-05-24T10:53:04Z</time>
</trkpt>
<trkpt lat="37.947282" lon="-1.080376">
 <ele>306.660000</ele>
<time>2005-05-24T10:53:07Z</time>
</trkpt>
<trkpt lat="37.947269" lon="-1.080374">
 <ele>307.500000</ele>
<time>2005-05-24T10:53:08Z</time>
</trkpt>
<trkpt lat="37.947283" lon="-1.080368">
 <ele>309.720000</ele>
<time>2005-05-24T10:53:09Z</time>
</trkpt>
<trkpt lat="37.947286" lon="-1.080380">
 <ele>311.880000</ele>
<time>2005-05-24T10:53:11Z</time>
</trkpt>
<trkpt lat="37.947287" lon="-1.080372">
 <ele>311.680000</ele>
<time>2005-05-24T10:53:12Z</time>
</trkpt>
<trkpt lat="37.947268" lon="-1.080379">
 <ele>313.220000</ele>
<time>2005-05-24T10:53:13Z</time>
</trkpt>
<trkpt lat="37.947276" lon="-1.080393">
 <ele>314.900000</ele>
<time>2005-05-24T10:53:14Z</time>
</trkpt>
<trkpt lat="37.947273" lon="-1.080398">
 <ele>317.980000</ele>
<time>2005-05-24T10:53:16Z</time>
</trkpt>
<trkpt lat="37.947275" lon="-1.080414">
 <ele>318.460000</ele>
<time>2005-05-24T10:53:18Z</time>
</trkpt>
<trkpt lat="37.947213" lon="-1.080612">
 <ele>292.020000</ele>
<time>2005-05-24T10:53:28Z</time>
</trkpt>
<trkpt lat="37.947138" lon="-1.080658">
 <ele>293.320000</ele>
<time>2005-05-24T10:53:30Z</time>
</trkpt>
<trkpt lat="37.947147" lon="-1.080689">
 <ele>314.060000</ele>
<time>2005-05-24T10:53:32Z</time>
</trkpt>
<trkpt lat="37.947153" lon="-1.080680">
 <ele>313.000000</ele>
<time>2005-05-24T10:53:36Z</time>
</trkpt>
<trkpt lat="37.947107" lon="-1.080658">
 <ele>323.380000</ele>
<time>2005-05-24T10:53:38Z</time>
</trkpt>
<trkpt lat="37.947113" lon="-1.080696">
 <ele>311.840000</ele>
<time>2005-05-24T10:53:39Z</time>
</trkpt>
<trkpt lat="37.947117" lon="-1.080692">
 <ele>319.080000</ele>
<time>2005-05-24T10:53:40Z</time>
</trkpt>
<trkpt lat="37.947111" lon="-1.080691">
 <ele>320.340000</ele>
<time>2005-05-24T10:53:41Z</time>
</trkpt>
<trkpt lat="37.947119" lon="-1.080693">
 <ele>319.940000</ele>
<time>2005-05-24T10:53:42Z</time>
</trkpt>
<trkpt lat="37.947122" lon="-1.080712">
 <ele>323.700000</ele>
<time>2005-05-24T10:53:45Z</time>
</trkpt>
<trkpt lat="37.947130" lon="-1.080718">
 <ele>324.700000</ele>
<time>2005-05-24T10:53:46Z</time>
</trkpt>
<trkpt lat="37.947151" lon="-1.080725">
 <ele>324.120000</ele>
<time>2005-05-24T10:53:48Z</time>
</trkpt>
<trkpt lat="37.947170" lon="-1.080725">
 <ele>326.900000</ele>
<time>2005-05-24T10:53:49Z</time>
</trkpt>
<trkpt lat="37.947153" lon="-1.080745">
 <ele>325.180000</ele>
<time>2005-05-24T10:53:50Z</time>
</trkpt>
<trkpt lat="37.947132" lon="-1.080830">
 <ele>323.060000</ele>
<time>2005-05-24T10:53:55Z</time>
</trkpt>
<trkpt lat="37.947131" lon="-1.080849">
 <ele>323.580000</ele>
<time>2005-05-24T10:53:57Z</time>
</trkpt>
<trkpt lat="37.947118" lon="-1.080848">
 <ele>324.740000</ele>
<time>2005-05-24T10:53:58Z</time>
</trkpt>
<trkpt lat="37.946947" lon="-1.080781">
 <ele>325.740000</ele>
<time>2005-05-24T10:54:08Z</time>
</trkpt>
<trkpt lat="37.946963" lon="-1.080772">
 <ele>328.000000</ele>
<time>2005-05-24T10:54:10Z</time>
</trkpt>
<trkpt lat="37.946987" lon="-1.080740">
 <ele>324.220000</ele>
<time>2005-05-24T10:54:15Z</time>
</trkpt>
<trkpt lat="37.946965" lon="-1.080714">
 <ele>315.780000</ele>
<time>2005-05-24T10:54:18Z</time>
</trkpt>
<trkpt lat="37.946946" lon="-1.080699">
 <ele>317.480000</ele>
<time>2005-05-24T10:54:19Z</time>
</trkpt>
<trkpt lat="37.946955" lon="-1.080638">
 <ele>318.340000</ele>
<time>2005-05-24T10:54:22Z</time>
</trkpt>
<trkpt lat="37.946963" lon="-1.080653">
 <ele>316.920000</ele>
<time>2005-05-24T10:54:24Z</time>
</trkpt>
<trkpt lat="37.946992" lon="-1.080616">
 <ele>315.880000</ele>
<time>2005-05-24T10:54:27Z</time>
</trkpt>
<trkpt lat="37.946985" lon="-1.080630">
 <ele>314.440000</ele>
<time>2005-05-24T10:54:29Z</time>
</trkpt>
<trkpt lat="37.946972" lon="-1.080646">
 <ele>312.880000</ele>
<time>2005-05-24T10:54:30Z</time>
</trkpt>
<trkpt lat="37.946964" lon="-1.080642">
 <ele>312.740000</ele>
<time>2005-05-24T10:54:31Z</time>
</trkpt>
<trkpt lat="37.946929" lon="-1.080667">
 <ele>313.700000</ele>
<time>2005-05-24T10:54:33Z</time>
</trkpt>
<trkpt lat="37.946872" lon="-1.080663">
 <ele>318.260000</ele>
<time>2005-05-24T10:54:36Z</time>
</trkpt>
<trkpt lat="37.946854" lon="-1.080649">
 <ele>320.500000</ele>
<time>2005-05-24T10:54:38Z</time>
</trkpt>
<trkpt lat="37.946840" lon="-1.080633">
 <ele>314.900000</ele>
<time>2005-05-24T10:54:39Z</time>
</trkpt>
<trkpt lat="37.946795" lon="-1.080648">
 <ele>319.620000</ele>
<time>2005-05-24T10:54:41Z</time>
</trkpt>
<trkpt lat="37.946796" lon="-1.080662">
 <ele>318.000000</ele>
<time>2005-05-24T10:54:42Z</time>
</trkpt>
<trkpt lat="37.946773" lon="-1.080634">
 <ele>319.100000</ele>
<time>2005-05-24T10:54:43Z</time>
</trkpt>
<trkpt lat="37.946666" lon="-1.080597">
 <ele>317.000000</ele>
<time>2005-05-24T10:54:47Z</time>
</trkpt>
<trkpt lat="37.946562" lon="-1.080567">
 <ele>315.240000</ele>
<time>2005-05-24T10:54:50Z</time>
</trkpt>
<trkpt lat="37.946412" lon="-1.080499">
 <ele>318.700000</ele>
<time>2005-05-24T10:54:56Z</time>
</trkpt>
<trkpt lat="37.946337" lon="-1.080451">
 <ele>319.840000</ele>
<time>2005-05-24T10:54:59Z</time>
</trkpt>
<trkpt lat="37.946265" lon="-1.080443">
 <ele>317.940000</ele>
<time>2005-05-24T10:55:03Z</time>
</trkpt>
<trkpt lat="37.946258" lon="-1.080437">
 <ele>321.940000</ele>
<time>2005-05-24T10:55:05Z</time>
</trkpt>
<trkpt lat="37.946263" lon="-1.080429">
 <ele>323.360000</ele>
<time>2005-05-24T10:55:06Z</time>
</trkpt>
<trkpt lat="37.946302" lon="-1.080429">
 <ele>324.620000</ele>
<time>2005-05-24T10:55:10Z</time>
</trkpt>
<trkpt lat="37.946279" lon="-1.080460">
 <ele>325.040000</ele>
<time>2005-05-24T10:55:12Z</time>
</trkpt>
<trkpt lat="37.946281" lon="-1.080469">
 <ele>325.200000</ele>
<time>2005-05-24T10:55:14Z</time>
</trkpt>
<trkpt lat="37.946271" lon="-1.080490">
 <ele>328.380000</ele>
<time>2005-05-24T10:55:15Z</time>
</trkpt>
<trkpt lat="37.946259" lon="-1.080483">
 <ele>326.880000</ele>
<time>2005-05-24T10:55:16Z</time>
</trkpt>
<trkpt lat="37.946258" lon="-1.080494">
 <ele>329.940000</ele>
<time>2005-05-24T10:55:17Z</time>
</trkpt>
<trkpt lat="37.946268" lon="-1.080492">
 <ele>328.080000</ele>
<time>2005-05-24T10:55:18Z</time>
</trkpt>
<trkpt lat="37.946266" lon="-1.080507">
 <ele>332.180000</ele>
<time>2005-05-24T10:55:19Z</time>
</trkpt>
<trkpt lat="37.945787" lon="-1.081568">
 <ele>216.400000</ele>
<time>2005-05-24T10:55:54Z</time>
</trkpt>
<trkpt lat="37.945792" lon="-1.081563">
 <ele>219.200000</ele>
<time>2005-05-24T10:55:55Z</time>
</trkpt>
<trkpt lat="37.945783" lon="-1.081558">
 <ele>170.350000</ele>
<time>2005-05-24T10:55:56Z</time>
</trkpt>
<trkpt lat="37.945767" lon="-1.081559">
 <ele>232.380000</ele>
<time>2005-05-24T10:56:00Z</time>
</trkpt>
<trkpt lat="37.945753" lon="-1.081561">
 <ele>235.240000</ele>
<time>2005-05-24T10:56:01Z</time>
</trkpt>
<trkpt lat="37.945751" lon="-1.081543">
 <ele>236.960000</ele>
<time>2005-05-24T10:56:02Z</time>
</trkpt>
<trkpt lat="37.945724" lon="-1.081528">
 <ele>239.920000</ele>
<time>2005-05-24T10:56:04Z</time>
</trkpt>
<trkpt lat="37.945725" lon="-1.081542">
 <ele>246.060000</ele>
<time>2005-05-24T10:56:08Z</time>
</trkpt>
<trkpt lat="37.945709" lon="-1.081548">
 <ele>250.420000</ele>
<time>2005-05-24T10:56:10Z</time>
</trkpt>
<trkpt lat="37.945719" lon="-1.081554">
 <ele>256.860000</ele>
<time>2005-05-24T10:56:14Z</time>
</trkpt>
<trkpt lat="37.945721" lon="-1.081570">
 <ele>257.140000</ele>
<time>2005-05-24T10:56:15Z</time>
</trkpt>
<trkpt lat="37.945716" lon="-1.081575">
 <ele>260.780000</ele>
<time>2005-05-24T10:56:17Z</time>
</trkpt>
<trkpt lat="37.945721" lon="-1.081583">
 <ele>263.560000</ele>
<time>2005-05-24T10:56:18Z</time>
</trkpt>
<trkpt lat="37.945713" lon="-1.081588">
 <ele>265.640000</ele>
<time>2005-05-24T10:56:20Z</time>
</trkpt>
<trkpt lat="37.945723" lon="-1.081604">
 <ele>266.400000</ele>
<time>2005-05-24T10:56:21Z</time>
</trkpt>
<trkpt lat="37.945727" lon="-1.081598">
 <ele>268.600000</ele>
<time>2005-05-24T10:56:22Z</time>
</trkpt>
<trkpt lat="37.945715" lon="-1.081606">
 <ele>269.720000</ele>
<time>2005-05-24T10:56:23Z</time>
</trkpt>
<trkpt lat="37.945700" lon="-1.081593">
 <ele>279.020000</ele>
<time>2005-05-24T10:56:28Z</time>
</trkpt>
<trkpt lat="37.945689" lon="-1.081594">
 <ele>279.700000</ele>
<time>2005-05-24T10:56:29Z</time>
</trkpt>
<trkpt lat="37.945655" lon="-1.081633">
 <ele>287.800000</ele>
<time>2005-05-24T10:56:34Z</time>
</trkpt>
<trkpt lat="37.945652" lon="-1.081629">
 <ele>290.480000</ele>
<time>2005-05-24T10:56:35Z</time>
</trkpt>
<trkpt lat="37.945663" lon="-1.081626">
 <ele>291.480000</ele>
<time>2005-05-24T10:56:36Z</time>
</trkpt>
<trkpt lat="37.945661" lon="-1.081630">
 <ele>293.260000</ele>
<time>2005-05-24T10:56:37Z</time>
</trkpt>
<trkpt lat="37.945667" lon="-1.081628">
 <ele>297.060000</ele>
<time>2005-05-24T10:56:38Z</time>
</trkpt>
<trkpt lat="37.945669" lon="-1.081646">
 <ele>294.320000</ele>
<time>2005-05-24T10:56:39Z</time>
</trkpt>
<trkpt lat="37.945676" lon="-1.081646">
 <ele>298.780000</ele>
<time>2005-05-24T10:56:41Z</time>
</trkpt>
<trkpt lat="37.945670" lon="-1.081645">
 <ele>299.320000</ele>
<time>2005-05-24T10:56:42Z</time>
</trkpt>
<trkpt lat="37.945670" lon="-1.081649">
 <ele>302.060000</ele>
<time>2005-05-24T10:56:43Z</time>
</trkpt>
<trkpt lat="37.945657" lon="-1.081665">
 <ele>306.280000</ele>
<time>2005-05-24T10:56:46Z</time>
</trkpt>
<trkpt lat="37.945660" lon="-1.081682">
 <ele>308.780000</ele>
<time>2005-05-24T10:56:48Z</time>
</trkpt>
<trkpt lat="37.945613" lon="-1.081713">
 <ele>311.580000</ele>
<time>2005-05-24T10:56:51Z</time>
</trkpt>
<trkpt lat="37.945604" lon="-1.081713">
 <ele>314.180000</ele>
<time>2005-05-24T10:56:54Z</time>
</trkpt>
<trkpt lat="37.945605" lon="-1.081743">
 <ele>318.480000</ele>
<time>2005-05-24T10:56:55Z</time>
</trkpt>
<trkpt lat="37.945599" lon="-1.081752">
 <ele>319.000000</ele>
<time>2005-05-24T10:56:57Z</time>
</trkpt>
<trkpt lat="37.945604" lon="-1.081767">
 <ele>320.360000</ele>
<time>2005-05-24T10:56:58Z</time>
</trkpt>
<trkpt lat="37.945587" lon="-1.081773">
 <ele>325.120000</ele>
<time>2005-05-24T10:57:01Z</time>
</trkpt>
<trkpt lat="37.945591" lon="-1.081769">
 <ele>324.480000</ele>
<time>2005-05-24T10:57:02Z</time>
</trkpt>
<trkpt lat="37.945599" lon="-1.081774">
 <ele>325.300000</ele>
<time>2005-05-24T10:57:03Z</time>
</trkpt>
<trkpt lat="37.945600" lon="-1.081787">
 <ele>325.740000</ele>
<time>2005-05-24T10:57:04Z</time>
</trkpt>
<trkpt lat="37.945603" lon="-1.081785">
 <ele>327.420000</ele>
<time>2005-05-24T10:57:05Z</time>
</trkpt>
<trkpt lat="37.945595" lon="-1.081815">
 <ele>328.960000</ele>
<time>2005-05-24T10:57:06Z</time>
</trkpt>
<trkpt lat="37.945586" lon="-1.081931">
 <ele>330.020000</ele>
<time>2005-05-24T10:57:13Z</time>
</trkpt>
<trkpt lat="37.945580" lon="-1.081932">
 <ele>329.760000</ele>
<time>2005-05-24T10:57:15Z</time>
</trkpt>
<trkpt lat="37.945596" lon="-1.081989">
 <ele>335.220000</ele>
<time>2005-05-24T10:57:20Z</time>
</trkpt>
<trkpt lat="37.945621" lon="-1.082036">
 <ele>336.000000</ele>
<time>2005-05-24T10:57:24Z</time>
</trkpt>
<trkpt lat="37.945593" lon="-1.082074">
 <ele>337.360000</ele>
<time>2005-05-24T10:57:26Z</time>
</trkpt>
<trkpt lat="37.945599" lon="-1.082073">
 <ele>338.060000</ele>
<time>2005-05-24T10:57:29Z</time>
</trkpt>
<trkpt lat="37.945650" lon="-1.082076">
 <ele>342.940000</ele>
<time>2005-05-24T10:57:31Z</time>
</trkpt>
<trkpt lat="37.945684" lon="-1.082026">
 <ele>347.400000</ele>
<time>2005-05-24T10:57:34Z</time>
</trkpt>
<trkpt lat="37.945683" lon="-1.082008">
 <ele>350.420000</ele>
<time>2005-05-24T10:57:38Z</time>
</trkpt>
<trkpt lat="37.945672" lon="-1.082006">
 <ele>348.220000</ele>
<time>2005-05-24T10:57:39Z</time>
</trkpt>
<trkpt lat="37.945691" lon="-1.082049">
 <ele>349.460000</ele>
<time>2005-05-24T10:57:40Z</time>
</trkpt>
<trkpt lat="37.945663" lon="-1.082063">
 <ele>347.800000</ele>
<time>2005-05-24T10:57:42Z</time>
</trkpt>
<trkpt lat="37.945657" lon="-1.082089">
 <ele>347.720000</ele>
<time>2005-05-24T10:57:44Z</time>
</trkpt>
<trkpt lat="37.945650" lon="-1.082155">
 <ele>345.160000</ele>
<time>2005-05-24T10:57:47Z</time>
</trkpt>
<trkpt lat="37.945503" lon="-1.082322">
 <ele>342.940000</ele>
<time>2005-05-24T10:57:56Z</time>
</trkpt>
<trkpt lat="37.945388" lon="-1.082427">
 <ele>343.000000</ele>
<time>2005-05-24T10:58:02Z</time>
</trkpt>
<trkpt lat="37.945411" lon="-1.082495">
 <ele>343.280000</ele>
<time>2005-05-24T10:58:05Z</time>
</trkpt>
<trkpt lat="37.945404" lon="-1.082510">
 <ele>342.560000</ele>
<time>2005-05-24T10:58:06Z</time>
</trkpt>
<trkpt lat="37.945341" lon="-1.082528">
 <ele>341.700000</ele>
<time>2005-05-24T10:58:09Z</time>
</trkpt>
<trkpt lat="37.945298" lon="-1.082598">
 <ele>340.880000</ele>
<time>2005-05-24T10:58:12Z</time>
</trkpt>
<trkpt lat="37.945257" lon="-1.082607">
 <ele>341.520000</ele>
<time>2005-05-24T10:58:15Z</time>
</trkpt>
<trkpt lat="37.945235" lon="-1.082656">
 <ele>342.740000</ele>
<time>2005-05-24T10:58:17Z</time>
</trkpt>
<trkpt lat="37.945220" lon="-1.082650">
 <ele>342.140000</ele>
<time>2005-05-24T10:58:19Z</time>
</trkpt>
<trkpt lat="37.945216" lon="-1.082645">
 <ele>340.240000</ele>
<time>2005-05-24T10:58:21Z</time>
</trkpt>
<trkpt lat="37.945218" lon="-1.082663">
 <ele>343.480000</ele>
<time>2005-05-24T10:58:22Z</time>
</trkpt>
<trkpt lat="37.945181" lon="-1.082654">
 <ele>341.660000</ele>
<time>2005-05-24T10:58:23Z</time>
</trkpt>
<trkpt lat="37.945134" lon="-1.082690">
 <ele>340.600000</ele>
<time>2005-05-24T10:58:25Z</time>
</trkpt>
<trkpt lat="37.945080" lon="-1.082774">
 <ele>339.220000</ele>
<time>2005-05-24T10:58:30Z</time>
</trkpt>
<trkpt lat="37.945052" lon="-1.082863">
 <ele>337.680000</ele>
<time>2005-05-24T10:58:37Z</time>
</trkpt>
<trkpt lat="37.945034" lon="-1.082874">
 <ele>338.700000</ele>
<time>2005-05-24T10:58:39Z</time>
</trkpt>
<trkpt lat="37.945002" lon="-1.082915">
 <ele>338.300000</ele>
<time>2005-05-24T10:58:42Z</time>
</trkpt>
<trkpt lat="37.944987" lon="-1.082959">
 <ele>339.700000</ele>
<time>2005-05-24T10:58:46Z</time>
</trkpt>
<trkpt lat="37.944974" lon="-1.083014">
 <ele>339.220000</ele>
<time>2005-05-24T10:58:48Z</time>
</trkpt>
<trkpt lat="37.944975" lon="-1.083107">
 <ele>343.380000</ele>
<time>2005-05-24T10:58:57Z</time>
</trkpt>
<trkpt lat="37.944992" lon="-1.083102">
 <ele>342.720000</ele>
<time>2005-05-24T10:58:59Z</time>
</trkpt>
<trkpt lat="37.944985" lon="-1.083166">
 <ele>333.400000</ele>
<time>2005-05-24T10:59:03Z</time>
</trkpt>
<trkpt lat="37.944272" lon="-1.084213">
 <ele>229.600000</ele>
<time>2005-05-24T10:59:35Z</time>
</trkpt>
<trkpt lat="37.944259" lon="-1.084200">
 <ele>178.250000</ele>
<time>2005-05-24T10:59:37Z</time>
</trkpt>
<trkpt lat="37.944284" lon="-1.084197">
 <ele>240.620000</ele>
<time>2005-05-24T10:59:41Z</time>
</trkpt>
<trkpt lat="37.944229" lon="-1.084178">
 <ele>253.060000</ele>
<time>2005-05-24T10:59:50Z</time>
</trkpt>
<trkpt lat="37.944218" lon="-1.084169">
 <ele>254.760000</ele>
<time>2005-05-24T10:59:52Z</time>
</trkpt>
<trkpt lat="37.944229" lon="-1.084155">
 <ele>258.960000</ele>
<time>2005-05-24T10:59:54Z</time>
</trkpt>
<trkpt lat="37.944306" lon="-1.084180">
 <ele>263.020000</ele>
<time>2005-05-24T10:59:57Z</time>
</trkpt>
<trkpt lat="37.944291" lon="-1.084173">
 <ele>264.640000</ele>
<time>2005-05-24T10:59:58Z</time>
</trkpt>
<trkpt lat="37.944295" lon="-1.084113">
 <ele>273.280000</ele>
<time>2005-05-24T11:00:01Z</time>
</trkpt>
<trkpt lat="37.944344" lon="-1.084062">
 <ele>277.200000</ele>
<time>2005-05-24T11:00:03Z</time>
</trkpt>
<trkpt lat="37.944382" lon="-1.084037">
 <ele>279.100000</ele>
<time>2005-05-24T11:00:06Z</time>
</trkpt>
<trkpt lat="37.944385" lon="-1.084022">
 <ele>276.660000</ele>
<time>2005-05-24T11:00:10Z</time>
</trkpt>
<trkpt lat="37.944374" lon="-1.084018">
 <ele>272.520000</ele>
<time>2005-05-24T11:00:11Z</time>
</trkpt>
<trkpt lat="37.944246" lon="-1.083919">
 <ele>283.200000</ele>
<time>2005-05-24T11:00:16Z</time>
</trkpt>
<trkpt lat="37.944248" lon="-1.083919">
 <ele>285.520000</ele>
<time>2005-05-24T11:00:17Z</time>
</trkpt>
<trkpt lat="37.944258" lon="-1.083907">
 <ele>284.880000</ele>
<time>2005-05-24T11:00:18Z</time>
</trkpt>
<trkpt lat="37.944262" lon="-1.083909">
 <ele>284.760000</ele>
<time>2005-05-24T11:00:19Z</time>
</trkpt>
<trkpt lat="37.944304" lon="-1.083866">
 <ele>294.400000</ele>
<time>2005-05-24T11:00:23Z</time>
</trkpt>
<trkpt lat="37.944192" lon="-1.083664">
 <ele>304.880000</ele>
<time>2005-05-24T11:00:32Z</time>
</trkpt>
<trkpt lat="37.944190" lon="-1.083672">
 <ele>305.700000</ele>
<time>2005-05-24T11:00:33Z</time>
</trkpt>
<trkpt lat="37.944169" lon="-1.083641">
 <ele>303.940000</ele>
<time>2005-05-24T11:00:34Z</time>
</trkpt>
<trkpt lat="37.944153" lon="-1.083552">
 <ele>315.480000</ele>
<time>2005-05-24T11:00:39Z</time>
</trkpt>
<trkpt lat="37.944158" lon="-1.083474">
 <ele>321.180000</ele>
<time>2005-05-24T11:00:48Z</time>
</trkpt>
<trkpt lat="37.944133" lon="-1.083453">
 <ele>321.320000</ele>
<time>2005-05-24T11:00:49Z</time>
</trkpt>
<trkpt lat="37.944111" lon="-1.083437">
 <ele>320.940000</ele>
<time>2005-05-24T11:00:50Z</time>
</trkpt>
<trkpt lat="37.944099" lon="-1.083437">
 <ele>319.840000</ele>
<time>2005-05-24T11:00:51Z</time>
</trkpt>
<trkpt lat="37.944058" lon="-1.083361">
 <ele>329.600000</ele>
<time>2005-05-24T11:00:54Z</time>
</trkpt>
<trkpt lat="37.944040" lon="-1.083332">
 <ele>323.740000</ele>
<time>2005-05-24T11:00:55Z</time>
</trkpt>
<trkpt lat="37.944036" lon="-1.083338">
 <ele>329.140000</ele>
<time>2005-05-24T11:00:56Z</time>
</trkpt>
<trkpt lat="37.943979" lon="-1.083346">
 <ele>326.440000</ele>
<time>2005-05-24T11:00:58Z</time>
</trkpt>
<trkpt lat="37.943929" lon="-1.083386">
 <ele>325.540000</ele>
<time>2005-05-24T11:01:02Z</time>
</trkpt>
<trkpt lat="37.943923" lon="-1.083374">
 <ele>329.580000</ele>
<time>2005-05-24T11:01:03Z</time>
</trkpt>
<trkpt lat="37.943867" lon="-1.083349">
 <ele>330.460000</ele>
<time>2005-05-24T11:01:07Z</time>
</trkpt>
<trkpt lat="37.943848" lon="-1.083313">
 <ele>339.380000</ele>
<time>2005-05-24T11:01:11Z</time>
</trkpt>
<trkpt lat="37.943855" lon="-1.083310">
 <ele>345.700000</ele>
<time>2005-05-24T11:01:13Z</time>
</trkpt>
<trkpt lat="37.943838" lon="-1.083286">
 <ele>346.760000</ele>
<time>2005-05-24T11:01:15Z</time>
</trkpt>
<trkpt lat="37.943819" lon="-1.083277">
 <ele>347.680000</ele>
<time>2005-05-24T11:01:16Z</time>
</trkpt>
<trkpt lat="37.943795" lon="-1.083273">
 <ele>348.840000</ele>
<time>2005-05-24T11:01:18Z</time>
</trkpt>
<trkpt lat="37.943769" lon="-1.083280">
 <ele>350.020000</ele>
<time>2005-05-24T11:01:21Z</time>
</trkpt>
<trkpt lat="37.943760" lon="-1.083284">
 <ele>353.240000</ele>
<time>2005-05-24T11:01:22Z</time>
</trkpt>
<trkpt lat="37.943741" lon="-1.083310">
 <ele>359.840000</ele>
<time>2005-05-24T11:01:26Z</time>
</trkpt>
<trkpt lat="37.943755" lon="-1.083324">
 <ele>361.360000</ele>
<time>2005-05-24T11:01:27Z</time>
</trkpt>
<trkpt lat="37.943752" lon="-1.083325">
 <ele>363.020000</ele>
<time>2005-05-24T11:01:28Z</time>
</trkpt>
<trkpt lat="37.943757" lon="-1.083356">
 <ele>367.120000</ele>
<time>2005-05-24T11:01:30Z</time>
</trkpt>
<trkpt lat="37.943757" lon="-1.083427">
 <ele>362.780000</ele>
<time>2005-05-24T11:01:35Z</time>
</trkpt>
<trkpt lat="37.943748" lon="-1.083490">
 <ele>364.960000</ele>
<time>2005-05-24T11:01:38Z</time>
</trkpt>
<trkpt lat="37.943742" lon="-1.083487">
 <ele>364.400000</ele>
<time>2005-05-24T11:01:39Z</time>
</trkpt>
<trkpt lat="37.943728" lon="-1.083517">
 <ele>363.400000</ele>
<time>2005-05-24T11:01:42Z</time>
</trkpt>
<trkpt lat="37.943734" lon="-1.083567">
 <ele>364.180000</ele>
<time>2005-05-24T11:01:46Z</time>
</trkpt>
<trkpt lat="37.943729" lon="-1.083587">
 <ele>361.720000</ele>
<time>2005-05-24T11:01:47Z</time>
</trkpt>
<trkpt lat="37.943675" lon="-1.083622">
 <ele>361.740000</ele>
<time>2005-05-24T11:01:52Z</time>
</trkpt>
<trkpt lat="37.943671" lon="-1.083637">
 <ele>364.260000</ele>
<time>2005-05-24T11:01:53Z</time>
</trkpt>
<trkpt lat="37.943668" lon="-1.083615">
 <ele>365.060000</ele>
<time>2005-05-24T11:01:54Z</time>
</trkpt>
<trkpt lat="37.943664" lon="-1.083604">
 <ele>364.500000</ele>
<time>2005-05-24T11:01:55Z</time>
</trkpt>
<trkpt lat="37.943667" lon="-1.083596">
 <ele>367.400000</ele>
<time>2005-05-24T11:01:56Z</time>
</trkpt>
<trkpt lat="37.943666" lon="-1.083602">
 <ele>365.120000</ele>
<time>2005-05-24T11:01:57Z</time>
</trkpt>
<trkpt lat="37.943648" lon="-1.083596">
 <ele>366.900000</ele>
<time>2005-05-24T11:01:58Z</time>
</trkpt>
<trkpt lat="37.943605" lon="-1.083625">
 <ele>367.980000</ele>
<time>2005-05-24T11:02:01Z</time>
</trkpt>
<trkpt lat="37.943587" lon="-1.083616">
 <ele>365.280000</ele>
<time>2005-05-24T11:02:02Z</time>
</trkpt>
<trkpt lat="37.943556" lon="-1.083643">
 <ele>365.980000</ele>
<time>2005-05-24T11:02:04Z</time>
</trkpt>
<trkpt lat="37.943565" lon="-1.083703">
 <ele>368.260000</ele>
<time>2005-05-24T11:02:06Z</time>
</trkpt>
<trkpt lat="37.943635" lon="-1.083762">
 <ele>369.600000</ele>
<time>2005-05-24T11:02:10Z</time>
</trkpt>
<trkpt lat="37.943636" lon="-1.083752">
 <ele>370.940000</ele>
<time>2005-05-24T11:02:11Z</time>
</trkpt>
<trkpt lat="37.943638" lon="-1.083756">
 <ele>369.720000</ele>
<time>2005-05-24T11:02:12Z</time>
</trkpt>
<trkpt lat="37.943644" lon="-1.083759">
 <ele>370.340000</ele>
<time>2005-05-24T11:02:13Z</time>
</trkpt>
<trkpt lat="37.943702" lon="-1.083784">
 <ele>382.740000</ele>
<time>2005-05-24T11:02:16Z</time>
</trkpt>
<trkpt lat="37.943871" lon="-1.083886">
 <ele>384.160000</ele>
<time>2005-05-24T11:02:24Z</time>
</trkpt>
<trkpt lat="37.943509" lon="-1.083772">
 <ele>380.880000</ele>
<time>2005-05-24T11:02:32Z</time>
</trkpt>
<trkpt lat="37.943257" lon="-1.083736">
 <ele>377.640000</ele>
<time>2005-05-24T11:02:38Z</time>
</trkpt>
<trkpt lat="37.943235" lon="-1.083800">
 <ele>377.660000</ele>
<time>2005-05-24T11:02:40Z</time>
</trkpt>
<trkpt lat="37.943180" lon="-1.083804">
 <ele>377.100000</ele>
<time>2005-05-24T11:02:42Z</time>
</trkpt>
<trkpt lat="37.943085" lon="-1.083778">
 <ele>375.500000</ele>
<time>2005-05-24T11:02:47Z</time>
</trkpt>
<trkpt lat="37.943048" lon="-1.083791">
 <ele>376.760000</ele>
<time>2005-05-24T11:02:49Z</time>
</trkpt>
<trkpt lat="37.943000" lon="-1.083840">
 <ele>374.500000</ele>
<time>2005-05-24T11:02:52Z</time>
</trkpt>
<trkpt lat="37.942998" lon="-1.083870">
 <ele>373.780000</ele>
<time>2005-05-24T11:02:54Z</time>
</trkpt>
<trkpt lat="37.942993" lon="-1.083887">
 <ele>374.360000</ele>
<time>2005-05-24T11:02:55Z</time>
</trkpt>
<trkpt lat="37.942927" lon="-1.083953">
 <ele>366.340000</ele>
<time>2005-05-24T11:03:00Z</time>
</trkpt>
<trkpt lat="37.942885" lon="-1.084016">
 <ele>368.800000</ele>
<time>2005-05-24T11:03:05Z</time>
</trkpt>
<trkpt lat="37.942903" lon="-1.084048">
 <ele>367.220000</ele>
<time>2005-05-24T11:03:09Z</time>
</trkpt>
<trkpt lat="37.942894" lon="-1.084119">
 <ele>368.360000</ele>
<time>2005-05-24T11:03:14Z</time>
</trkpt>
<trkpt lat="37.942913" lon="-1.084279">
 <ele>366.640000</ele>
<time>2005-05-24T11:03:26Z</time>
</trkpt>
<trkpt lat="37.942894" lon="-1.084366">
 <ele>363.720000</ele>
<time>2005-05-24T11:03:30Z</time>
</trkpt>
<trkpt lat="37.942917" lon="-1.084395">
 <ele>364.540000</ele>
<time>2005-05-24T11:03:32Z</time>
</trkpt>
<trkpt lat="37.943038" lon="-1.084650">
 <ele>367.100000</ele>
<time>2005-05-24T11:03:50Z</time>
</trkpt>
<trkpt lat="37.942935" lon="-1.084733">
 <ele>361.675000</ele>
<time>2005-05-24T11:03:53Z</time>
</trkpt>
<trkpt lat="37.942750" lon="-1.084932">
 <ele>365.680000</ele>
<time>2005-05-24T11:04:03Z</time>
</trkpt>
<trkpt lat="37.942696" lon="-1.085064">
 <ele>363.900000</ele>
<time>2005-05-24T11:04:12Z</time>
</trkpt>
<trkpt lat="37.942634" lon="-1.085097">
 <ele>361.440000</ele>
<time>2005-05-24T11:04:17Z</time>
</trkpt>
<trkpt lat="37.942635" lon="-1.085105">
 <ele>361.080000</ele>
<time>2005-05-24T11:04:18Z</time>
</trkpt>
<trkpt lat="37.942637" lon="-1.085148">
 <ele>360.840000</ele>
<time>2005-05-24T11:04:23Z</time>
</trkpt>
<trkpt lat="37.942646" lon="-1.085151">
 <ele>362.340000</ele>
<time>2005-05-24T11:04:24Z</time>
</trkpt>
<trkpt lat="37.942645" lon="-1.085154">
 <ele>361.620000</ele>
<time>2005-05-24T11:04:25Z</time>
</trkpt>
<trkpt lat="37.942647" lon="-1.085151">
 <ele>361.700000</ele>
<time>2005-05-24T11:04:26Z</time>
</trkpt>
<trkpt lat="37.942647" lon="-1.085152">
 <ele>361.700000</ele>
<time>2005-05-24T11:04:27Z</time>
</trkpt>
<trkpt lat="37.942639" lon="-1.085167">
 <ele>361.980000</ele>
<time>2005-05-24T11:04:28Z</time>
</trkpt>
<trkpt lat="37.942562" lon="-1.085225">
 <ele>362.580000</ele>
<time>2005-05-24T11:04:31Z</time>
</trkpt>
<trkpt lat="37.942385" lon="-1.085287">
 <ele>359.260000</ele>
<time>2005-05-24T11:04:43Z</time>
</trkpt>
<trkpt lat="37.942359" lon="-1.085302">
 <ele>359.340000</ele>
<time>2005-05-24T11:04:45Z</time>
</trkpt>
<trkpt lat="37.942334" lon="-1.085420">
 <ele>356.800000</ele>
<time>2005-05-24T11:04:50Z</time>
</trkpt>
<trkpt lat="37.942344" lon="-1.085428">
 <ele>357.260000</ele>
<time>2005-05-24T11:04:51Z</time>
</trkpt>
<trkpt lat="37.942337" lon="-1.085462">
 <ele>356.500000</ele>
<time>2005-05-24T11:04:54Z</time>
</trkpt>
<trkpt lat="37.942282" lon="-1.085523">
 <ele>352.240000</ele>
<time>2005-05-24T11:04:59Z</time>
</trkpt>
<trkpt lat="37.942281" lon="-1.085572">
 <ele>350.860000</ele>
<time>2005-05-24T11:05:00Z</time>
</trkpt>
<trkpt lat="37.942258" lon="-1.085582">
 <ele>351.180000</ele>
<time>2005-05-24T11:05:02Z</time>
</trkpt>
<trkpt lat="37.942183" lon="-1.085631">
 <ele>349.060000</ele>
<time>2005-05-24T11:05:05Z</time>
</trkpt>
<trkpt lat="37.942104" lon="-1.085667">
 <ele>343.380000</ele>
<time>2005-05-24T11:05:07Z</time>
</trkpt>
<trkpt lat="37.942063" lon="-1.085716">
 <ele>342.460000</ele>
<time>2005-05-24T11:05:09Z</time>
</trkpt>
<trkpt lat="37.942070" lon="-1.085797">
 <ele>340.980000</ele>
<time>2005-05-24T11:05:13Z</time>
</trkpt>
<trkpt lat="37.942056" lon="-1.085803">
 <ele>340.680000</ele>
<time>2005-05-24T11:05:14Z</time>
</trkpt>
<trkpt lat="37.942027" lon="-1.085860">
 <ele>339.580000</ele>
<time>2005-05-24T11:05:17Z</time>
</trkpt>
<trkpt lat="37.941994" lon="-1.085894">
 <ele>338.540000</ele>
<time>2005-05-24T11:05:20Z</time>
</trkpt>
<trkpt lat="37.941989" lon="-1.085914">
 <ele>340.100000</ele>
<time>2005-05-24T11:05:23Z</time>
</trkpt>
<trkpt lat="37.941990" lon="-1.085920">
 <ele>342.540000</ele>
<time>2005-05-24T11:05:26Z</time>
</trkpt>
<trkpt lat="37.941980" lon="-1.085927">
 <ele>343.560000</ele>
<time>2005-05-24T11:05:28Z</time>
</trkpt>
<trkpt lat="37.941973" lon="-1.085986">
 <ele>340.040000</ele>
<time>2005-05-24T11:05:33Z</time>
</trkpt>
<trkpt lat="37.941991" lon="-1.086060">
 <ele>339.260000</ele>
<time>2005-05-24T11:05:36Z</time>
</trkpt>
<trkpt lat="37.941991" lon="-1.086082">
 <ele>337.400000</ele>
<time>2005-05-24T11:05:38Z</time>
</trkpt>
<trkpt lat="37.941985" lon="-1.086093">
 <ele>337.900000</ele>
<time>2005-05-24T11:05:39Z</time>
</trkpt>
<trkpt lat="37.941927" lon="-1.086096">
 <ele>337.280000</ele>
<time>2005-05-24T11:05:41Z</time>
</trkpt>
<trkpt lat="37.941900" lon="-1.086102">
 <ele>336.380000</ele>
<time>2005-05-24T11:05:43Z</time>
</trkpt>
<trkpt lat="37.941926" lon="-1.086120">
 <ele>339.260000</ele>
<time>2005-05-24T11:05:45Z</time>
</trkpt>
<trkpt lat="37.941935" lon="-1.086100">
 <ele>343.660000</ele>
<time>2005-05-24T11:05:49Z</time>
</trkpt>
<trkpt lat="37.941788" lon="-1.086134">
 <ele>342.320000</ele>
<time>2005-05-24T11:05:54Z</time>
</trkpt>
<trkpt lat="37.941728" lon="-1.086114">
 <ele>340.820000</ele>
<time>2005-05-24T11:05:56Z</time>
</trkpt>
<trkpt lat="37.941660" lon="-1.086141">
 <ele>340.340000</ele>
<time>2005-05-24T11:06:00Z</time>
</trkpt>
<trkpt lat="37.941574" lon="-1.086179">
 <ele>337.500000</ele>
<time>2005-05-24T11:06:07Z</time>
</trkpt>
<trkpt lat="37.941575" lon="-1.086231">
 <ele>338.200000</ele>
<time>2005-05-24T11:06:11Z</time>
</trkpt>
<trkpt lat="37.941523" lon="-1.086238">
 <ele>335.180000</ele>
<time>2005-05-24T11:06:14Z</time>
</trkpt>
<trkpt lat="37.941500" lon="-1.086294">
 <ele>331.260000</ele>
<time>2005-05-24T11:06:16Z</time>
</trkpt>
<trkpt lat="37.941478" lon="-1.086354">
 <ele>329.620000</ele>
<time>2005-05-24T11:06:20Z</time>
</trkpt>
<trkpt lat="37.941477" lon="-1.086361">
 <ele>331.200000</ele>
<time>2005-05-24T11:06:22Z</time>
</trkpt>
<trkpt lat="37.941489" lon="-1.086369">
 <ele>329.740000</ele>
<time>2005-05-24T11:06:24Z</time>
</trkpt>
<trkpt lat="37.941473" lon="-1.086365">
 <ele>329.200000</ele>
<time>2005-05-24T11:06:26Z</time>
</trkpt>
<trkpt lat="37.941480" lon="-1.086384">
 <ele>324.880000</ele>
<time>2005-05-24T11:06:27Z</time>
</trkpt>
<trkpt lat="37.941496" lon="-1.086453">
 <ele>324.680000</ele>
<time>2005-05-24T11:06:32Z</time>
</trkpt>
<trkpt lat="37.941443" lon="-1.086440">
 <ele>326.340000</ele>
<time>2005-05-24T11:06:34Z</time>
</trkpt>
<trkpt lat="37.941343" lon="-1.086334">
 <ele>325.780000</ele>
<time>2005-05-24T11:06:40Z</time>
</trkpt>
<trkpt lat="37.941258" lon="-1.086166">
 <ele>331.500000</ele>
<time>2005-05-24T11:06:48Z</time>
</trkpt>
<trkpt lat="37.941274" lon="-1.086169">
 <ele>332.380000</ele>
<time>2005-05-24T11:06:49Z</time>
</trkpt>
<trkpt lat="37.941255" lon="-1.086154">
 <ele>330.640000</ele>
<time>2005-05-24T11:06:50Z</time>
</trkpt>
<trkpt lat="37.941141" lon="-1.086011">
 <ele>337.280000</ele>
<time>2005-05-24T11:06:57Z</time>
</trkpt>
<trkpt lat="37.941115" lon="-1.085950">
 <ele>340.280000</ele>
<time>2005-05-24T11:07:01Z</time>
</trkpt>
<trkpt lat="37.941153" lon="-1.085891">
 <ele>341.160000</ele>
<time>2005-05-24T11:07:04Z</time>
</trkpt>
<trkpt lat="37.941117" lon="-1.085863">
 <ele>341.240000</ele>
<time>2005-05-24T11:07:07Z</time>
</trkpt>
<trkpt lat="37.941108" lon="-1.085821">
 <ele>342.780000</ele>
<time>2005-05-24T11:07:09Z</time>
</trkpt>
<trkpt lat="37.941105" lon="-1.085825">
 <ele>344.300000</ele>
<time>2005-05-24T11:07:10Z</time>
</trkpt>
<trkpt lat="37.941063" lon="-1.085818">
 <ele>341.080000</ele>
<time>2005-05-24T11:07:13Z</time>
</trkpt>
<trkpt lat="37.941037" lon="-1.085851">
 <ele>336.900000</ele>
<time>2005-05-24T11:07:15Z</time>
</trkpt>
<trkpt lat="37.941036" lon="-1.085845">
 <ele>337.320000</ele>
<time>2005-05-24T11:07:16Z</time>
</trkpt>
<trkpt lat="37.941032" lon="-1.085865">
 <ele>334.260000</ele>
<time>2005-05-24T11:07:17Z</time>
</trkpt>
<trkpt lat="37.940991" lon="-1.085895">
 <ele>332.640000</ele>
<time>2005-05-24T11:07:19Z</time>
</trkpt>
<trkpt lat="37.940898" lon="-1.085921">
 <ele>330.740000</ele>
<time>2005-05-24T11:07:22Z</time>
</trkpt>
<trkpt lat="37.940847" lon="-1.085905">
 <ele>332.240000</ele>
<time>2005-05-24T11:07:24Z</time>
</trkpt>
<trkpt lat="37.940697" lon="-1.085933">
 <ele>336.040000</ele>
<time>2005-05-24T11:07:30Z</time>
</trkpt>
<trkpt lat="37.940642" lon="-1.085969">
 <ele>339.100000</ele>
<time>2005-05-24T11:07:37Z</time>
</trkpt>
<trkpt lat="37.940645" lon="-1.085952">
 <ele>339.100000</ele>
<time>2005-05-24T11:07:38Z</time>
</trkpt>
<trkpt lat="37.940625" lon="-1.085937">
 <ele>340.380000</ele>
<time>2005-05-24T11:07:39Z</time>
</trkpt>
<trkpt lat="37.940622" lon="-1.085930">
 <ele>339.420000</ele>
<time>2005-05-24T11:07:40Z</time>
</trkpt>
<trkpt lat="37.940637" lon="-1.085958">
 <ele>339.860000</ele>
<time>2005-05-24T11:07:41Z</time>
</trkpt>
<trkpt lat="37.940255" lon="-1.086428">
 <ele>341.600000</ele>
<time>2005-05-24T11:08:07Z</time>
</trkpt>
<trkpt lat="37.940302" lon="-1.086430">
 <ele>341.700000</ele>
<time>2005-05-24T11:08:08Z</time>
</trkpt>
<trkpt lat="37.941018" lon="-1.086673">
 <ele>342.100000</ele>
<time>2005-05-24T11:08:26Z</time>
</trkpt>
<trkpt lat="37.940965" lon="-1.086692">
 <ele>342.100000</ele>
<time>2005-05-24T11:08:27Z</time>
</trkpt>
<trkpt lat="37.940779" lon="-1.086813">
 <ele>341.760000</ele>
<time>2005-05-24T11:08:35Z</time>
</trkpt>
<trkpt lat="37.940729" lon="-1.086857">
 <ele>341.760000</ele>
<time>2005-05-24T11:08:37Z</time>
</trkpt>
<trkpt lat="37.940661" lon="-1.086925">
 <ele>341.880000</ele>
<time>2005-05-24T11:08:42Z</time>
</trkpt>
<trkpt lat="37.940657" lon="-1.086969">
 <ele>341.720000</ele>
<time>2005-05-24T11:08:46Z</time>
</trkpt>
<trkpt lat="37.940718" lon="-1.087171">
 <ele>341.840000</ele>
<time>2005-05-24T11:08:54Z</time>
</trkpt>
<trkpt lat="37.940613" lon="-1.087241">
 <ele>342.100000</ele>
<time>2005-05-24T11:09:00Z</time>
</trkpt>
<trkpt lat="37.940447" lon="-1.087315">
 <ele>342.200000</ele>
<time>2005-05-24T11:09:10Z</time>
</trkpt>
<trkpt lat="37.940411" lon="-1.087348">
 <ele>342.100000</ele>
<time>2005-05-24T11:09:12Z</time>
</trkpt>
<trkpt lat="37.940390" lon="-1.087381">
 <ele>341.800000</ele>
<time>2005-05-24T11:09:15Z</time>
</trkpt>
<trkpt lat="37.940377" lon="-1.087384">
 <ele>342.000000</ele>
<time>2005-05-24T11:09:16Z</time>
</trkpt>
<trkpt lat="37.940332" lon="-1.087443">
 <ele>338.320000</ele>
<time>2005-05-24T11:09:20Z</time>
</trkpt>
<trkpt lat="37.940284" lon="-1.087498">
 <ele>335.640000</ele>
<time>2005-05-24T11:09:24Z</time>
</trkpt>
<trkpt lat="37.940288" lon="-1.087539">
 <ele>334.500000</ele>
<time>2005-05-24T11:09:27Z</time>
</trkpt>
<trkpt lat="37.940286" lon="-1.087631">
 <ele>332.480000</ele>
<time>2005-05-24T11:09:30Z</time>
</trkpt>
<trkpt lat="37.940225" lon="-1.087694">
 <ele>330.880000</ele>
<time>2005-05-24T11:09:38Z</time>
</trkpt>
<trkpt lat="37.940218" lon="-1.087749">
 <ele>331.320000</ele>
<time>2005-05-24T11:09:40Z</time>
</trkpt>
<trkpt lat="37.940181" lon="-1.087870">
 <ele>330.340000</ele>
<time>2005-05-24T11:09:48Z</time>
</trkpt>
<trkpt lat="37.940025" lon="-1.088044">
 <ele>333.980000</ele>
<time>2005-05-24T11:10:01Z</time>
</trkpt>
<trkpt lat="37.939967" lon="-1.088070">
 <ele>331.320000</ele>
<time>2005-05-24T11:10:04Z</time>
</trkpt>
<trkpt lat="37.939941" lon="-1.088121">
 <ele>333.500000</ele>
<time>2005-05-24T11:10:08Z</time>
</trkpt>
<trkpt lat="37.939857" lon="-1.088126">
 <ele>336.640000</ele>
<time>2005-05-24T11:10:14Z</time>
</trkpt>
<trkpt lat="37.939854" lon="-1.088132">
 <ele>337.880000</ele>
<time>2005-05-24T11:10:15Z</time>
</trkpt>
<trkpt lat="37.939841" lon="-1.088139">
 <ele>335.440000</ele>
<time>2005-05-24T11:10:17Z</time>
</trkpt>
<trkpt lat="37.939815" lon="-1.088161">
 <ele>337.140000</ele>
<time>2005-05-24T11:10:20Z</time>
</trkpt>
<trkpt lat="37.939793" lon="-1.088149">
 <ele>336.400000</ele>
<time>2005-05-24T11:10:21Z</time>
</trkpt>
<trkpt lat="37.939809" lon="-1.088138">
 <ele>339.220000</ele>
<time>2005-05-24T11:10:23Z</time>
</trkpt>
<trkpt lat="37.939804" lon="-1.088137">
 <ele>340.720000</ele>
<time>2005-05-24T11:10:24Z</time>
</trkpt>
<trkpt lat="37.939781" lon="-1.088160">
 <ele>339.740000</ele>
<time>2005-05-24T11:10:27Z</time>
</trkpt>
<trkpt lat="37.939752" lon="-1.088219">
 <ele>336.760000</ele>
<time>2005-05-24T11:10:29Z</time>
</trkpt>
<trkpt lat="37.939738" lon="-1.088228">
 <ele>336.740000</ele>
<time>2005-05-24T11:10:32Z</time>
</trkpt>
<trkpt lat="37.939746" lon="-1.088247">
 <ele>339.780000</ele>
<time>2005-05-24T11:10:34Z</time>
</trkpt>
<trkpt lat="37.939730" lon="-1.088249">
 <ele>338.200000</ele>
<time>2005-05-24T11:10:35Z</time>
</trkpt>
<trkpt lat="37.939709" lon="-1.088236">
 <ele>336.500000</ele>
<time>2005-05-24T11:10:36Z</time>
</trkpt>
<trkpt lat="37.939632" lon="-1.088268">
 <ele>334.280000</ele>
<time>2005-05-24T11:10:39Z</time>
</trkpt>
<trkpt lat="37.939618" lon="-1.088346">
 <ele>331.380000</ele>
<time>2005-05-24T11:10:41Z</time>
</trkpt>
<trkpt lat="37.939579" lon="-1.088468">
 <ele>326.020000</ele>
<time>2005-05-24T11:10:48Z</time>
</trkpt>
<trkpt lat="37.939511" lon="-1.088485">
 <ele>327.880000</ele>
<time>2005-05-24T11:10:51Z</time>
</trkpt>
<trkpt lat="37.939429" lon="-1.088473">
 <ele>324.940000</ele>
<time>2005-05-24T11:10:53Z</time>
</trkpt>
<trkpt lat="37.939356" lon="-1.088494">
 <ele>327.920000</ele>
<time>2005-05-24T11:10:55Z</time>
</trkpt>
<trkpt lat="37.939336" lon="-1.088510">
 <ele>329.980000</ele>
<time>2005-05-24T11:10:58Z</time>
</trkpt>
<trkpt lat="37.939332" lon="-1.088495">
 <ele>329.500000</ele>
<time>2005-05-24T11:11:00Z</time>
</trkpt>
<trkpt lat="37.939320" lon="-1.088538">
 <ele>332.080000</ele>
<time>2005-05-24T11:11:02Z</time>
</trkpt>
<trkpt lat="37.939356" lon="-1.088568">
 <ele>332.260000</ele>
<time>2005-05-24T11:11:04Z</time>
</trkpt>
<trkpt lat="37.939374" lon="-1.088624">
 <ele>332.820000</ele>
<time>2005-05-24T11:11:08Z</time>
</trkpt>
<trkpt lat="37.939375" lon="-1.088673">
 <ele>334.680000</ele>
<time>2005-05-24T11:11:10Z</time>
</trkpt>
<trkpt lat="37.939411" lon="-1.088729">
 <ele>336.720000</ele>
<time>2005-05-24T11:11:14Z</time>
</trkpt>
<trkpt lat="37.939447" lon="-1.088745">
 <ele>342.480000</ele>
<time>2005-05-24T11:11:19Z</time>
</trkpt>
<trkpt lat="37.939440" lon="-1.088760">
 <ele>347.060000</ele>
<time>2005-05-24T11:11:22Z</time>
</trkpt>
<trkpt lat="37.939431" lon="-1.088775">
 <ele>347.780000</ele>
<time>2005-05-24T11:11:24Z</time>
</trkpt>
<trkpt lat="37.939420" lon="-1.088824">
 <ele>347.860000</ele>
<time>2005-05-24T11:11:28Z</time>
</trkpt>
<trkpt lat="37.939405" lon="-1.088850">
 <ele>348.160000</ele>
<time>2005-05-24T11:11:30Z</time>
</trkpt>
<trkpt lat="37.939365" lon="-1.088899">
 <ele>350.240000</ele>
<time>2005-05-24T11:11:33Z</time>
</trkpt>
<trkpt lat="37.939272" lon="-1.088913">
 <ele>350.180000</ele>
<time>2005-05-24T11:11:40Z</time>
</trkpt>
<trkpt lat="37.939252" lon="-1.088941">
 <ele>348.620000</ele>
<time>2005-05-24T11:11:42Z</time>
</trkpt>
<trkpt lat="37.939146" lon="-1.089038">
 <ele>344.240000</ele>
<time>2005-05-24T11:11:49Z</time>
</trkpt>
<trkpt lat="37.939127" lon="-1.089061">
 <ele>343.060000</ele>
<time>2005-05-24T11:11:51Z</time>
</trkpt>
<trkpt lat="37.939106" lon="-1.089108">
 <ele>345.420000</ele>
<time>2005-05-24T11:11:56Z</time>
</trkpt>
<trkpt lat="37.939093" lon="-1.089120">
 <ele>345.120000</ele>
<time>2005-05-24T11:11:57Z</time>
</trkpt>
<trkpt lat="37.939021" lon="-1.089233">
 <ele>347.160000</ele>
<time>2005-05-24T11:12:09Z</time>
</trkpt>
<trkpt lat="37.939000" lon="-1.089277">
 <ele>345.940000</ele>
<time>2005-05-24T11:12:13Z</time>
</trkpt>
<trkpt lat="37.938879" lon="-1.089476">
 <ele>350.060000</ele>
<time>2005-05-24T11:12:36Z</time>
</trkpt>
<trkpt lat="37.938883" lon="-1.089466">
 <ele>350.440000</ele>
<time>2005-05-24T11:12:37Z</time>
</trkpt>
<trkpt lat="37.938876" lon="-1.089474">
 <ele>349.680000</ele>
<time>2005-05-24T11:12:38Z</time>
</trkpt>
<trkpt lat="37.938755" lon="-1.089562">
 <ele>353.080000</ele>
<time>2005-05-24T11:12:48Z</time>
</trkpt>
<trkpt lat="37.938763" lon="-1.089583">
 <ele>352.580000</ele>
<time>2005-05-24T11:12:49Z</time>
</trkpt>
<trkpt lat="37.938736" lon="-1.089585">
 <ele>353.200000</ele>
<time>2005-05-24T11:12:50Z</time>
</trkpt>
<trkpt lat="37.938622" lon="-1.089641">
 <ele>356.100000</ele>
<time>2005-05-24T11:12:56Z</time>
</trkpt>
<trkpt lat="37.938621" lon="-1.089641">
 <ele>356.000000</ele>
<time>2005-05-24T11:12:57Z</time>
</trkpt>
<trkpt lat="37.938632" lon="-1.089650">
 <ele>355.180000</ele>
<time>2005-05-24T11:12:58Z</time>
</trkpt>
<trkpt lat="37.938608" lon="-1.089710">
 <ele>353.920000</ele>
<time>2005-05-24T11:13:00Z</time>
</trkpt>
<trkpt lat="37.938568" lon="-1.089792">
 <ele>354.720000</ele>
<time>2005-05-24T11:13:06Z</time>
</trkpt>
<trkpt lat="37.938560" lon="-1.089886">
 <ele>354.880000</ele>
<time>2005-05-24T11:13:11Z</time>
</trkpt>
<trkpt lat="37.938549" lon="-1.089997">
 <ele>354.340000</ele>
<time>2005-05-24T11:13:18Z</time>
</trkpt>
<trkpt lat="37.938516" lon="-1.090051">
 <ele>355.860000</ele>
<time>2005-05-24T11:13:23Z</time>
</trkpt>
<trkpt lat="37.938499" lon="-1.090089">
 <ele>358.700000</ele>
<time>2005-05-24T11:13:28Z</time>
</trkpt>
<trkpt lat="37.938440" lon="-1.090240">
 <ele>359.300000</ele>
<time>2005-05-24T11:13:37Z</time>
</trkpt>
<trkpt lat="37.938418" lon="-1.090293">
 <ele>357.320000</ele>
<time>2005-05-24T11:13:41Z</time>
</trkpt>
<trkpt lat="37.938295" lon="-1.090384">
 <ele>355.460000</ele>
<time>2005-05-24T11:13:48Z</time>
</trkpt>
<trkpt lat="37.938255" lon="-1.090446">
 <ele>354.080000</ele>
<time>2005-05-24T11:13:53Z</time>
</trkpt>
<trkpt lat="37.938218" lon="-1.090611">
 <ele>352.920000</ele>
<time>2005-05-24T11:14:01Z</time>
</trkpt>
<trkpt lat="37.938165" lon="-1.090683">
 <ele>351.640000</ele>
<time>2005-05-24T11:14:06Z</time>
</trkpt>
<trkpt lat="37.938169" lon="-1.090706">
 <ele>351.920000</ele>
<time>2005-05-24T11:14:08Z</time>
</trkpt>
<trkpt lat="37.938171" lon="-1.090737">
 <ele>353.060000</ele>
<time>2005-05-24T11:14:09Z</time>
</trkpt>
<trkpt lat="37.938138" lon="-1.090788">
 <ele>349.700000</ele>
<time>2005-05-24T11:14:13Z</time>
</trkpt>
<trkpt lat="37.938074" lon="-1.090817">
 <ele>351.320000</ele>
<time>2005-05-24T11:14:17Z</time>
</trkpt>
<trkpt lat="37.937935" lon="-1.090887">
 <ele>349.260000</ele>
<time>2005-05-24T11:14:25Z</time>
</trkpt>
<trkpt lat="37.937856" lon="-1.090949">
 <ele>348.800000</ele>
<time>2005-05-24T11:14:30Z</time>
</trkpt>
<trkpt lat="37.937853" lon="-1.090962">
 <ele>348.880000</ele>
<time>2005-05-24T11:14:34Z</time>
</trkpt>
<trkpt lat="37.937879" lon="-1.090948">
 <ele>351.540000</ele>
<time>2005-05-24T11:14:35Z</time>
</trkpt>
<trkpt lat="37.937893" lon="-1.090944">
 <ele>351.180000</ele>
<time>2005-05-24T11:14:36Z</time>
</trkpt>
<trkpt lat="37.937893" lon="-1.090958">
 <ele>350.900000</ele>
<time>2005-05-24T11:14:37Z</time>
</trkpt>
<trkpt lat="37.937884" lon="-1.090958">
 <ele>351.480000</ele>
<time>2005-05-24T11:14:38Z</time>
</trkpt>
<trkpt lat="37.937893" lon="-1.090952">
 <ele>351.400000</ele>
<time>2005-05-24T11:14:39Z</time>
</trkpt>
<trkpt lat="37.937893" lon="-1.090952">
 <ele>351.000000</ele>
<time>2005-05-24T11:14:40Z</time>
</trkpt>
<trkpt lat="37.937945" lon="-1.090961">
 <ele>359.720000</ele>
<time>2005-05-24T11:15:09Z</time>
</trkpt>
<trkpt lat="37.937992" lon="-1.090976">
 <ele>372.720000</ele>
<time>2005-05-24T11:15:10Z</time>
</trkpt>
<trkpt lat="37.938119" lon="-1.091057">
 <ele>372.440000</ele>
<time>2005-05-24T11:15:14Z</time>
</trkpt>
<trkpt lat="37.938071" lon="-1.091168">
 <ele>372.180000</ele>
<time>2005-05-24T11:15:19Z</time>
</trkpt>
<trkpt lat="37.938053" lon="-1.091192">
 <ele>372.340000</ele>
<time>2005-05-24T11:15:21Z</time>
</trkpt>
<trkpt lat="37.938047" lon="-1.091223">
 <ele>372.780000</ele>
<time>2005-05-24T11:15:23Z</time>
</trkpt>
<trkpt lat="37.938056" lon="-1.091239">
 <ele>373.060000</ele>
<time>2005-05-24T11:15:26Z</time>
</trkpt>
<trkpt lat="37.938001" lon="-1.091250">
 <ele>373.300000</ele>
<time>2005-05-24T11:15:28Z</time>
</trkpt>
<trkpt lat="37.937996" lon="-1.091234">
 <ele>373.200000</ele>
<time>2005-05-24T11:15:29Z</time>
</trkpt>
<trkpt lat="37.938004" lon="-1.091256">
 <ele>373.640000</ele>
<time>2005-05-24T11:15:30Z</time>
</trkpt>
<trkpt lat="37.937989" lon="-1.091365">
 <ele>373.560000</ele>
<time>2005-05-24T11:15:36Z</time>
</trkpt>
<trkpt lat="37.937957" lon="-1.091411">
 <ele>373.580000</ele>
<time>2005-05-24T11:15:43Z</time>
</trkpt>
<trkpt lat="37.937951" lon="-1.091420">
 <ele>374.140000</ele>
<time>2005-05-24T11:15:44Z</time>
</trkpt>
<trkpt lat="37.937947" lon="-1.091397">
 <ele>375.300000</ele>
<time>2005-05-24T11:15:45Z</time>
</trkpt>
<trkpt lat="37.937945" lon="-1.091392">
 <ele>376.380000</ele>
<time>2005-05-24T11:15:46Z</time>
</trkpt>
<trkpt lat="37.937944" lon="-1.091388">
 <ele>373.860000</ele>
<time>2005-05-24T11:15:47Z</time>
</trkpt>
<trkpt lat="37.937937" lon="-1.091387">
 <ele>376.740000</ele>
<time>2005-05-24T11:15:48Z</time>
</trkpt>
<trkpt lat="37.937937" lon="-1.091387">
 <ele>375.300000</ele>
<time>2005-05-24T11:15:49Z</time>
</trkpt>
<trkpt lat="37.937933" lon="-1.091386">
 <ele>376.420000</ele>
<time>2005-05-24T11:15:50Z</time>
</trkpt>
<trkpt lat="37.937927" lon="-1.091389">
 <ele>378.140000</ele>
<time>2005-05-24T11:15:51Z</time>
</trkpt>
<trkpt lat="37.937915" lon="-1.091407">
 <ele>381.260000</ele>
<time>2005-05-24T11:15:54Z</time>
</trkpt>
<trkpt lat="37.937907" lon="-1.091415">
 <ele>379.200000</ele>
<time>2005-05-24T11:15:55Z</time>
</trkpt>
<trkpt lat="37.937908" lon="-1.091412">
 <ele>379.520000</ele>
<time>2005-05-24T11:15:56Z</time>
</trkpt>
<trkpt lat="37.937898" lon="-1.091409">
 <ele>379.880000</ele>
<time>2005-05-24T11:15:58Z</time>
</trkpt>
<trkpt lat="37.937894" lon="-1.091456">
 <ele>379.660000</ele>
<time>2005-05-24T11:16:00Z</time>
</trkpt>
<trkpt lat="37.937877" lon="-1.091459">
 <ele>379.820000</ele>
<time>2005-05-24T11:16:01Z</time>
</trkpt>
<trkpt lat="37.937746" lon="-1.091522">
 <ele>379.240000</ele>
<time>2005-05-24T11:16:07Z</time>
</trkpt>
<trkpt lat="37.937714" lon="-1.091578">
 <ele>378.980000</ele>
<time>2005-05-24T11:16:12Z</time>
</trkpt>
<trkpt lat="37.937709" lon="-1.091632">
 <ele>378.420000</ele>
<time>2005-05-24T11:16:15Z</time>
</trkpt>
<trkpt lat="37.937682" lon="-1.091623">
 <ele>378.800000</ele>
<time>2005-05-24T11:16:19Z</time>
</trkpt>
<trkpt lat="37.937668" lon="-1.091655">
 <ele>379.180000</ele>
<time>2005-05-24T11:16:22Z</time>
</trkpt>
<trkpt lat="37.937640" lon="-1.091657">
 <ele>378.280000</ele>
<time>2005-05-24T11:16:24Z</time>
</trkpt>
<trkpt lat="37.937616" lon="-1.091673">
 <ele>378.600000</ele>
<time>2005-05-24T11:16:25Z</time>
</trkpt>
<trkpt lat="37.937498" lon="-1.091810">
 <ele>378.260000</ele>
<time>2005-05-24T11:16:34Z</time>
</trkpt>
<trkpt lat="37.937500" lon="-1.091838">
 <ele>378.140000</ele>
<time>2005-05-24T11:16:37Z</time>
</trkpt>
<trkpt lat="37.937488" lon="-1.091867">
 <ele>377.780000</ele>
<time>2005-05-24T11:16:38Z</time>
</trkpt>
<trkpt lat="37.937478" lon="-1.091847">
 <ele>377.780000</ele>
<time>2005-05-24T11:16:39Z</time>
</trkpt>
<trkpt lat="37.937461" lon="-1.091865">
 <ele>377.500000</ele>
<time>2005-05-24T11:16:40Z</time>
</trkpt>
<trkpt lat="37.937462" lon="-1.091922">
 <ele>376.960000</ele>
<time>2005-05-24T11:16:44Z</time>
</trkpt>
<trkpt lat="37.937461" lon="-1.092016">
 <ele>377.200000</ele>
<time>2005-05-24T11:16:49Z</time>
</trkpt>
<trkpt lat="37.937437" lon="-1.092048">
 <ele>376.660000</ele>
<time>2005-05-24T11:16:52Z</time>
</trkpt>
<trkpt lat="37.937419" lon="-1.092070">
 <ele>376.320000</ele>
<time>2005-05-24T11:16:54Z</time>
</trkpt>
<trkpt lat="37.937375" lon="-1.092106">
 <ele>375.580000</ele>
<time>2005-05-24T11:16:58Z</time>
</trkpt>
<trkpt lat="37.937374" lon="-1.092148">
 <ele>375.280000</ele>
<time>2005-05-24T11:17:00Z</time>
</trkpt>
<trkpt lat="37.937376" lon="-1.092144">
 <ele>375.340000</ele>
<time>2005-05-24T11:17:01Z</time>
</trkpt>
<trkpt lat="37.937369" lon="-1.092163">
 <ele>375.320000</ele>
<time>2005-05-24T11:17:02Z</time>
</trkpt>
<trkpt lat="37.937355" lon="-1.092163">
 <ele>375.300000</ele>
<time>2005-05-24T11:17:04Z</time>
</trkpt>
<trkpt lat="37.937356" lon="-1.092193">
 <ele>375.240000</ele>
<time>2005-05-24T11:17:05Z</time>
</trkpt>
<trkpt lat="37.937350" lon="-1.092192">
 <ele>375.160000</ele>
<time>2005-05-24T11:17:07Z</time>
</trkpt>
<trkpt lat="37.937330" lon="-1.092219">
 <ele>375.240000</ele>
<time>2005-05-24T11:17:08Z</time>
</trkpt>
<trkpt lat="37.937293" lon="-1.092289">
 <ele>376.000000</ele>
<time>2005-05-24T11:17:13Z</time>
</trkpt>
<trkpt lat="37.937287" lon="-1.092296">
 <ele>376.420000</ele>
<time>2005-05-24T11:17:14Z</time>
</trkpt>
<trkpt lat="37.937168" lon="-1.092412">
 <ele>375.940000</ele>
<time>2005-05-24T11:17:28Z</time>
</trkpt>
<trkpt lat="37.937152" lon="-1.092434">
 <ele>376.200000</ele>
<time>2005-05-24T11:17:30Z</time>
</trkpt>
<trkpt lat="37.937159" lon="-1.092450">
 <ele>376.220000</ele>
<time>2005-05-24T11:17:31Z</time>
</trkpt>
<trkpt lat="37.937146" lon="-1.092451">
 <ele>375.940000</ele>
<time>2005-05-24T11:17:32Z</time>
</trkpt>
<trkpt lat="37.937145" lon="-1.092497">
 <ele>375.620000</ele>
<time>2005-05-24T11:17:34Z</time>
</trkpt>
<trkpt lat="37.937131" lon="-1.092520">
 <ele>375.460000</ele>
<time>2005-05-24T11:17:36Z</time>
</trkpt>
<trkpt lat="37.937131" lon="-1.092540">
 <ele>375.200000</ele>
<time>2005-05-24T11:17:37Z</time>
</trkpt>
<trkpt lat="37.937096" lon="-1.092616">
 <ele>373.900000</ele>
<time>2005-05-24T11:17:42Z</time>
</trkpt>
<trkpt lat="37.937004" lon="-1.092734">
 <ele>373.100000</ele>
<time>2005-05-24T11:17:54Z</time>
</trkpt>
<trkpt lat="37.936985" lon="-1.092753">
 <ele>373.000000</ele>
<time>2005-05-24T11:17:55Z</time>
</trkpt>
<trkpt lat="37.936820" lon="-1.092880">
 <ele>371.160000</ele>
<time>2005-05-24T11:18:11Z</time>
</trkpt>
<trkpt lat="37.936818" lon="-1.092883">
 <ele>371.400000</ele>
<time>2005-05-24T11:18:12Z</time>
</trkpt>
<trkpt lat="37.936795" lon="-1.092868">
 <ele>371.180000</ele>
<time>2005-05-24T11:18:14Z</time>
</trkpt>
<trkpt lat="37.936804" lon="-1.092873">
 <ele>371.460000</ele>
<time>2005-05-24T11:18:15Z</time>
</trkpt>
<trkpt lat="37.936790" lon="-1.092886">
 <ele>371.200000</ele>
<time>2005-05-24T11:18:16Z</time>
</trkpt>
<trkpt lat="37.936735" lon="-1.092932">
 <ele>370.680000</ele>
<time>2005-05-24T11:18:22Z</time>
</trkpt>
<trkpt lat="37.936735" lon="-1.092927">
 <ele>370.940000</ele>
<time>2005-05-24T11:18:23Z</time>
</trkpt>
<trkpt lat="37.936736" lon="-1.092935">
 <ele>370.560000</ele>
<time>2005-05-24T11:18:24Z</time>
</trkpt>
<trkpt lat="37.936733" lon="-1.092928">
 <ele>370.880000</ele>
<time>2005-05-24T11:18:25Z</time>
</trkpt>
<trkpt lat="37.936723" lon="-1.092945">
 <ele>370.640000</ele>
<time>2005-05-24T11:18:26Z</time>
</trkpt>
<trkpt lat="37.936652" lon="-1.092993">
 <ele>369.160000</ele>
<time>2005-05-24T11:18:30Z</time>
</trkpt>
<trkpt lat="37.936651" lon="-1.093005">
 <ele>370.260000</ele>
<time>2005-05-24T11:18:31Z</time>
</trkpt>
<trkpt lat="37.936628" lon="-1.092998">
 <ele>369.480000</ele>
<time>2005-05-24T11:18:32Z</time>
</trkpt>
<trkpt lat="37.936638" lon="-1.093010">
 <ele>369.900000</ele>
<time>2005-05-24T11:18:33Z</time>
</trkpt>
<trkpt lat="37.936628" lon="-1.093020">
 <ele>369.880000</ele>
<time>2005-05-24T11:18:35Z</time>
</trkpt>
<trkpt lat="37.936564" lon="-1.093041">
 <ele>368.700000</ele>
<time>2005-05-24T11:18:39Z</time>
</trkpt>
<trkpt lat="37.936531" lon="-1.093048">
 <ele>368.300000</ele>
<time>2005-05-24T11:18:41Z</time>
</trkpt>
<trkpt lat="37.936508" lon="-1.093061">
 <ele>368.440000</ele>
<time>2005-05-24T11:18:42Z</time>
</trkpt>
<trkpt lat="37.936433" lon="-1.093059">
 <ele>368.980000</ele>
<time>2005-05-24T11:18:47Z</time>
</trkpt>
<trkpt lat="37.936389" lon="-1.093099">
 <ele>368.540000</ele>
<time>2005-05-24T11:18:52Z</time>
</trkpt>
<trkpt lat="37.936362" lon="-1.093138">
 <ele>368.320000</ele>
<time>2005-05-24T11:18:54Z</time>
</trkpt>
<trkpt lat="37.936338" lon="-1.093136">
 <ele>368.220000</ele>
<time>2005-05-24T11:18:57Z</time>
</trkpt>
<trkpt lat="37.936325" lon="-1.093138">
 <ele>368.260000</ele>
<time>2005-05-24T11:18:58Z</time>
</trkpt>
<trkpt lat="37.936155" lon="-1.093228">
 <ele>368.520000</ele>
<time>2005-05-24T11:19:08Z</time>
</trkpt>
<trkpt lat="37.936156" lon="-1.093223">
 <ele>368.700000</ele>
<time>2005-05-24T11:19:09Z</time>
</trkpt>
<trkpt lat="37.936149" lon="-1.093223">
 <ele>368.320000</ele>
<time>2005-05-24T11:19:11Z</time>
</trkpt>
<trkpt lat="37.936068" lon="-1.093256">
 <ele>368.180000</ele>
<time>2005-05-24T11:19:17Z</time>
</trkpt>
<trkpt lat="37.936084" lon="-1.093265">
 <ele>367.860000</ele>
<time>2005-05-24T11:19:19Z</time>
</trkpt>
<trkpt lat="37.936085" lon="-1.093266">
 <ele>368.020000</ele>
<time>2005-05-24T11:19:20Z</time>
</trkpt>
<trkpt lat="37.936060" lon="-1.093305">
 <ele>367.860000</ele>
<time>2005-05-24T11:19:23Z</time>
</trkpt>
<trkpt lat="37.936045" lon="-1.093292">
 <ele>367.740000</ele>
<time>2005-05-24T11:19:24Z</time>
</trkpt>
<trkpt lat="37.936004" lon="-1.093306">
 <ele>367.840000</ele>
<time>2005-05-24T11:19:26Z</time>
</trkpt>
<trkpt lat="37.935950" lon="-1.093316">
 <ele>368.220000</ele>
<time>2005-05-24T11:19:30Z</time>
</trkpt>
<trkpt lat="37.935946" lon="-1.093333">
 <ele>368.360000</ele>
<time>2005-05-24T11:19:31Z</time>
</trkpt>
<trkpt lat="37.935931" lon="-1.093316">
 <ele>368.240000</ele>
<time>2005-05-24T11:19:32Z</time>
</trkpt>
<trkpt lat="37.935882" lon="-1.093322">
 <ele>368.440000</ele>
<time>2005-05-24T11:19:35Z</time>
</trkpt>
<trkpt lat="37.935892" lon="-1.093352">
 <ele>368.860000</ele>
<time>2005-05-24T11:19:37Z</time>
</trkpt>
<trkpt lat="37.935865" lon="-1.093400">
 <ele>369.240000</ele>
<time>2005-05-24T11:19:40Z</time>
</trkpt>
<trkpt lat="37.935860" lon="-1.093394">
 <ele>369.160000</ele>
<time>2005-05-24T11:19:41Z</time>
</trkpt>
<trkpt lat="37.935851" lon="-1.093417">
 <ele>369.320000</ele>
<time>2005-05-24T11:19:43Z</time>
</trkpt>
<trkpt lat="37.935849" lon="-1.093397">
 <ele>369.020000</ele>
<time>2005-05-24T11:19:44Z</time>
</trkpt>
<trkpt lat="37.935848" lon="-1.093401">
 <ele>369.180000</ele>
<time>2005-05-24T11:19:45Z</time>
</trkpt>
<trkpt lat="37.935847" lon="-1.093398">
 <ele>369.100000</ele>
<time>2005-05-24T11:19:46Z</time>
</trkpt>
<trkpt lat="37.935831" lon="-1.093409">
 <ele>369.060000</ele>
<time>2005-05-24T11:19:47Z</time>
</trkpt>
<trkpt lat="37.935797" lon="-1.093416">
 <ele>369.400000</ele>
<time>2005-05-24T11:19:50Z</time>
</trkpt>
<trkpt lat="37.935778" lon="-1.093418">
 <ele>369.580000</ele>
<time>2005-05-24T11:19:51Z</time>
</trkpt>
<trkpt lat="37.935724" lon="-1.093432">
 <ele>369.080000</ele>
<time>2005-05-24T11:19:56Z</time>
</trkpt>
<trkpt lat="37.935745" lon="-1.093430">
 <ele>368.860000</ele>
<time>2005-05-24T11:19:57Z</time>
</trkpt>
<trkpt lat="37.935734" lon="-1.093436">
 <ele>368.940000</ele>
<time>2005-05-24T11:19:58Z</time>
</trkpt>
<trkpt lat="37.935559" lon="-1.093495">
 <ele>368.960000</ele>
<time>2005-05-24T11:20:06Z</time>
</trkpt>
<trkpt lat="37.935517" lon="-1.093486">
 <ele>368.600000</ele>
<time>2005-05-24T11:20:09Z</time>
</trkpt>
<trkpt lat="37.935469" lon="-1.093447">
 <ele>368.820000</ele>
<time>2005-05-24T11:20:12Z</time>
</trkpt>
<trkpt lat="37.935358" lon="-1.093470">
 <ele>369.100000</ele>
<time>2005-05-24T11:20:22Z</time>
</trkpt>
<trkpt lat="37.935339" lon="-1.093481">
 <ele>369.060000</ele>
<time>2005-05-24T11:20:23Z</time>
</trkpt>
<trkpt lat="37.935324" lon="-1.093537">
 <ele>369.220000</ele>
<time>2005-05-24T11:20:26Z</time>
</trkpt>
<trkpt lat="37.935311" lon="-1.093522">
 <ele>368.880000</ele>
<time>2005-05-24T11:20:27Z</time>
</trkpt>
<trkpt lat="37.935317" lon="-1.093542">
 <ele>369.380000</ele>
<time>2005-05-24T11:20:28Z</time>
</trkpt>
<trkpt lat="37.935306" lon="-1.093574">
 <ele>369.320000</ele>
<time>2005-05-24T11:20:31Z</time>
</trkpt>
<trkpt lat="37.935270" lon="-1.093628">
 <ele>369.320000</ele>
<time>2005-05-24T11:20:34Z</time>
</trkpt>
<trkpt lat="37.935265" lon="-1.093675">
 <ele>369.140000</ele>
<time>2005-05-24T11:20:36Z</time>
</trkpt>
<trkpt lat="37.935248" lon="-1.093702">
 <ele>369.320000</ele>
<time>2005-05-24T11:20:40Z</time>
</trkpt>
<trkpt lat="37.935238" lon="-1.093714">
 <ele>369.240000</ele>
<time>2005-05-24T11:20:41Z</time>
</trkpt>
<trkpt lat="37.935225" lon="-1.093794">
 <ele>369.220000</ele>
<time>2005-05-24T11:20:44Z</time>
</trkpt>
<trkpt lat="37.935227" lon="-1.093783">
 <ele>368.840000</ele>
<time>2005-05-24T11:20:45Z</time>
</trkpt>
<trkpt lat="37.935206" lon="-1.093797">
 <ele>369.080000</ele>
<time>2005-05-24T11:20:47Z</time>
</trkpt>
<trkpt lat="37.935191" lon="-1.093883">
 <ele>368.860000</ele>
<time>2005-05-24T11:20:52Z</time>
</trkpt>
<trkpt lat="37.935163" lon="-1.093915">
 <ele>369.180000</ele>
<time>2005-05-24T11:20:57Z</time>
</trkpt>
<trkpt lat="37.935122" lon="-1.093939">
 <ele>369.160000</ele>
<time>2005-05-24T11:21:00Z</time>
</trkpt>
<trkpt lat="37.935105" lon="-1.093960">
 <ele>369.420000</ele>
<time>2005-05-24T11:21:02Z</time>
</trkpt>
<trkpt lat="37.935002" lon="-1.094018">
 <ele>370.240000</ele>
<time>2005-05-24T11:21:08Z</time>
</trkpt>
<trkpt lat="37.934944" lon="-1.094088">
 <ele>370.580000</ele>
<time>2005-05-24T11:21:18Z</time>
</trkpt>
<trkpt lat="37.934940" lon="-1.094086">
 <ele>370.460000</ele>
<time>2005-05-24T11:21:20Z</time>
</trkpt>
<trkpt lat="37.934950" lon="-1.094069">
 <ele>370.480000</ele>
<time>2005-05-24T11:21:21Z</time>
</trkpt>
<trkpt lat="37.934952" lon="-1.094081">
 <ele>370.860000</ele>
<time>2005-05-24T11:21:22Z</time>
</trkpt>
<trkpt lat="37.934943" lon="-1.094080">
 <ele>370.400000</ele>
<time>2005-05-24T11:21:23Z</time>
</trkpt>
<trkpt lat="37.934964" lon="-1.094082">
 <ele>370.220000</ele>
<time>2005-05-24T11:21:24Z</time>
</trkpt>
<trkpt lat="37.935075" lon="-1.094079">
 <ele>371.540000</ele>
<time>2005-05-24T11:21:34Z</time>
</trkpt>
<trkpt lat="37.935078" lon="-1.094076">
 <ele>371.840000</ele>
<time>2005-05-24T11:21:35Z</time>
</trkpt>
<trkpt lat="37.935065" lon="-1.094065">
 <ele>372.100000</ele>
<time>2005-05-24T11:21:36Z</time>
</trkpt>
<trkpt lat="37.935063" lon="-1.094068">
 <ele>372.180000</ele>
<time>2005-05-24T11:21:37Z</time>
</trkpt>
<trkpt lat="37.935094" lon="-1.094067">
 <ele>372.060000</ele>
<time>2005-05-24T11:21:38Z</time>
</trkpt>
<trkpt lat="37.935112" lon="-1.094052">
 <ele>372.160000</ele>
<time>2005-05-24T11:21:41Z</time>
</trkpt>
<trkpt lat="37.935122" lon="-1.094041">
 <ele>372.560000</ele>
<time>2005-05-24T11:21:43Z</time>
</trkpt>
<trkpt lat="37.935177" lon="-1.094024">
 <ele>372.600000</ele>
<time>2005-05-24T11:21:47Z</time>
</trkpt>
<trkpt lat="37.935179" lon="-1.093999">
 <ele>372.480000</ele>
<time>2005-05-24T11:21:48Z</time>
</trkpt>
<trkpt lat="37.935231" lon="-1.093944">
 <ele>372.840000</ele>
<time>2005-05-24T11:21:52Z</time>
</trkpt>
<trkpt lat="37.935238" lon="-1.093936">
 <ele>372.820000</ele>
<time>2005-05-24T11:21:54Z</time>
</trkpt>
<trkpt lat="37.935242" lon="-1.093935">
 <ele>372.820000</ele>
<time>2005-05-24T11:21:55Z</time>
</trkpt>
<trkpt lat="37.935372" lon="-1.093946">
 <ele>372.900000</ele>
<time>2005-05-24T11:22:07Z</time>
</trkpt>
<trkpt lat="37.935370" lon="-1.093949">
 <ele>372.880000</ele>
<time>2005-05-24T11:22:08Z</time>
</trkpt>
<trkpt lat="37.935394" lon="-1.093940">
 <ele>372.920000</ele>
<time>2005-05-24T11:22:09Z</time>
</trkpt>
<trkpt lat="37.935451" lon="-1.093959">
 <ele>372.640000</ele>
<time>2005-05-24T11:22:12Z</time>
</trkpt>
<trkpt lat="37.935482" lon="-1.093954">
 <ele>372.820000</ele>
<time>2005-05-24T11:22:16Z</time>
</trkpt>
<trkpt lat="37.935484" lon="-1.093945">
 <ele>372.980000</ele>
<time>2005-05-24T11:22:17Z</time>
</trkpt>
<trkpt lat="37.935478" lon="-1.093937">
 <ele>373.200000</ele>
<time>2005-05-24T11:22:18Z</time>
</trkpt>
<trkpt lat="37.935478" lon="-1.093942">
 <ele>372.680000</ele>
<time>2005-05-24T11:22:19Z</time>
</trkpt>
<trkpt lat="37.935476" lon="-1.093953">
 <ele>373.060000</ele>
<time>2005-05-24T11:22:20Z</time>
</trkpt>
<trkpt lat="37.935480" lon="-1.093936">
 <ele>373.020000</ele>
<time>2005-05-24T11:22:21Z</time>
</trkpt>
<trkpt lat="37.935536" lon="-1.093860">
 <ele>374.760000</ele>
<time>2005-05-24T11:22:30Z</time>
</trkpt>
<trkpt lat="37.935521" lon="-1.093859">
 <ele>374.440000</ele>
<time>2005-05-24T11:22:31Z</time>
</trkpt>
<trkpt lat="37.935538" lon="-1.093866">
 <ele>374.460000</ele>
<time>2005-05-24T11:22:32Z</time>
</trkpt>
<trkpt lat="37.935601" lon="-1.093842">
 <ele>374.860000</ele>
<time>2005-05-24T11:22:35Z</time>
</trkpt>
<trkpt lat="37.935684" lon="-1.093795">
 <ele>375.620000</ele>
<time>2005-05-24T11:22:42Z</time>
</trkpt>
<trkpt lat="37.935673" lon="-1.093794">
 <ele>375.660000</ele>
<time>2005-05-24T11:22:43Z</time>
</trkpt>
<trkpt lat="37.935681" lon="-1.093797">
 <ele>375.580000</ele>
<time>2005-05-24T11:22:44Z</time>
</trkpt>
<trkpt lat="37.935680" lon="-1.093804">
 <ele>375.600000</ele>
<time>2005-05-24T11:22:45Z</time>
</trkpt>
<trkpt lat="37.935754" lon="-1.093786">
 <ele>375.900000</ele>
<time>2005-05-24T11:22:48Z</time>
</trkpt>
<trkpt lat="37.935883" lon="-1.093769">
 <ele>376.420000</ele>
<time>2005-05-24T11:22:56Z</time>
</trkpt>
<trkpt lat="37.935898" lon="-1.093756">
 <ele>376.160000</ele>
<time>2005-05-24T11:22:57Z</time>
</trkpt>
<trkpt lat="37.935954" lon="-1.093760">
 <ele>374.480000</ele>
<time>2005-05-24T11:23:01Z</time>
</trkpt>
<trkpt lat="37.936012" lon="-1.093763">
 <ele>374.700000</ele>
<time>2005-05-24T11:23:07Z</time>
</trkpt>
<trkpt lat="37.936020" lon="-1.093772">
 <ele>374.100000</ele>
<time>2005-05-24T11:23:08Z</time>
</trkpt>
<trkpt lat="37.936015" lon="-1.093774">
 <ele>374.600000</ele>
<time>2005-05-24T11:23:09Z</time>
</trkpt>
<trkpt lat="37.936013" lon="-1.093751">
 <ele>374.420000</ele>
<time>2005-05-24T11:23:10Z</time>
</trkpt>
<trkpt lat="37.936015" lon="-1.093754">
 <ele>374.560000</ele>
<time>2005-05-24T11:23:11Z</time>
</trkpt>
<trkpt lat="37.936216" lon="-1.093873">
 <ele>375.620000</ele>
<time>2005-05-24T11:23:29Z</time>
</trkpt>
<trkpt lat="37.936233" lon="-1.093886">
 <ele>375.380000</ele>
<time>2005-05-24T11:23:30Z</time>
</trkpt>
<trkpt lat="37.936228" lon="-1.093939">
 <ele>375.400000</ele>
<time>2005-05-24T11:23:32Z</time>
</trkpt>
<trkpt lat="37.936242" lon="-1.093934">
 <ele>375.560000</ele>
<time>2005-05-24T11:23:33Z</time>
</trkpt>
<trkpt lat="37.936270" lon="-1.093905">
 <ele>375.460000</ele>
<time>2005-05-24T11:23:36Z</time>
</trkpt>
<trkpt lat="37.936283" lon="-1.093907">
 <ele>375.940000</ele>
<time>2005-05-24T11:23:37Z</time>
</trkpt>
<trkpt lat="37.936283" lon="-1.093928">
 <ele>376.160000</ele>
<time>2005-05-24T11:23:38Z</time>
</trkpt>
<trkpt lat="37.936391" lon="-1.093906">
 <ele>376.220000</ele>
<time>2005-05-24T11:23:44Z</time>
</trkpt>
<trkpt lat="37.936444" lon="-1.093945">
 <ele>377.240000</ele>
<time>2005-05-24T11:23:48Z</time>
</trkpt>
<trkpt lat="37.936464" lon="-1.093945">
 <ele>377.300000</ele>
<time>2005-05-24T11:23:50Z</time>
</trkpt>
<trkpt lat="37.936482" lon="-1.093965">
 <ele>377.300000</ele>
<time>2005-05-24T11:23:52Z</time>
</trkpt>
<trkpt lat="37.936523" lon="-1.094046">
 <ele>378.380000</ele>
<time>2005-05-24T11:24:01Z</time>
</trkpt>
<trkpt lat="37.936541" lon="-1.094033">
 <ele>377.960000</ele>
<time>2005-05-24T11:24:02Z</time>
</trkpt>
<trkpt lat="37.936550" lon="-1.094051">
 <ele>378.020000</ele>
<time>2005-05-24T11:24:03Z</time>
</trkpt>
<trkpt lat="37.936551" lon="-1.094055">
 <ele>378.580000</ele>
<time>2005-05-24T11:24:05Z</time>
</trkpt>
<trkpt lat="37.936551" lon="-1.094099">
 <ele>379.440000</ele>
<time>2005-05-24T11:24:07Z</time>
</trkpt>
<trkpt lat="37.936589" lon="-1.094104">
 <ele>380.000000</ele>
<time>2005-05-24T11:24:09Z</time>
</trkpt>
<trkpt lat="37.936649" lon="-1.094058">
 <ele>379.480000</ele>
<time>2005-05-24T11:24:16Z</time>
</trkpt>
<trkpt lat="37.936644" lon="-1.094061">
 <ele>380.140000</ele>
<time>2005-05-24T11:24:17Z</time>
</trkpt>
<trkpt lat="37.936657" lon="-1.094058">
 <ele>379.920000</ele>
<time>2005-05-24T11:24:18Z</time>
</trkpt>
<trkpt lat="37.936659" lon="-1.094017">
 <ele>381.880000</ele>
<time>2005-05-24T11:24:22Z</time>
</trkpt>
<trkpt lat="37.936628" lon="-1.094027">
 <ele>382.440000</ele>
<time>2005-05-24T11:24:23Z</time>
</trkpt>
<trkpt lat="37.936610" lon="-1.093994">
 <ele>382.640000</ele>
<time>2005-05-24T11:24:24Z</time>
</trkpt>
<trkpt lat="37.936619" lon="-1.093982">
 <ele>383.760000</ele>
<time>2005-05-24T11:24:27Z</time>
</trkpt>
<trkpt lat="37.936635" lon="-1.093935">
 <ele>384.720000</ele>
<time>2005-05-24T11:24:30Z</time>
</trkpt>
<trkpt lat="37.936641" lon="-1.093863">
 <ele>385.620000</ele>
<time>2005-05-24T11:24:35Z</time>
</trkpt>
<trkpt lat="37.936685" lon="-1.093764">
 <ele>386.460000</ele>
<time>2005-05-24T11:24:41Z</time>
</trkpt>
<trkpt lat="37.936864" lon="-1.093730">
 <ele>386.420000</ele>
<time>2005-05-24T11:24:51Z</time>
</trkpt>
<trkpt lat="37.936939" lon="-1.093718">
 <ele>388.240000</ele>
<time>2005-05-24T11:24:55Z</time>
</trkpt>
<trkpt lat="37.937014" lon="-1.093737">
 <ele>388.400000</ele>
<time>2005-05-24T11:24:59Z</time>
</trkpt>
<trkpt lat="37.937063" lon="-1.093736">
 <ele>389.160000</ele>
<time>2005-05-24T11:25:02Z</time>
</trkpt>
<trkpt lat="37.937064" lon="-1.093744">
 <ele>389.300000</ele>
<time>2005-05-24T11:25:03Z</time>
</trkpt>
<trkpt lat="37.937084" lon="-1.093770">
 <ele>389.560000</ele>
<time>2005-05-24T11:25:06Z</time>
</trkpt>
<trkpt lat="37.937081" lon="-1.093775">
 <ele>389.820000</ele>
<time>2005-05-24T11:25:07Z</time>
</trkpt>
<trkpt lat="37.937086" lon="-1.093769">
 <ele>389.120000</ele>
<time>2005-05-24T11:25:08Z</time>
</trkpt>
<trkpt lat="37.937087" lon="-1.093762">
 <ele>389.900000</ele>
<time>2005-05-24T11:25:09Z</time>
</trkpt>
<trkpt lat="37.937092" lon="-1.093770">
 <ele>389.420000</ele>
<time>2005-05-24T11:25:10Z</time>
</trkpt>
<trkpt lat="37.937092" lon="-1.093770">
 <ele>389.500000</ele>
<time>2005-05-24T11:25:11Z</time>
</trkpt>
<trkpt lat="37.937117" lon="-1.093778">
 <ele>389.980000</ele>
<time>2005-05-24T11:25:23Z</time>
</trkpt>
<trkpt lat="37.937185" lon="-1.093782">
 <ele>391.220000</ele>
<time>2005-05-24T11:25:25Z</time>
</trkpt>
<trkpt lat="37.937313" lon="-1.093742">
 <ele>393.000000</ele>
<time>2005-05-24T11:25:32Z</time>
</trkpt>
<trkpt lat="37.937348" lon="-1.093747">
 <ele>393.340000</ele>
<time>2005-05-24T11:25:33Z</time>
</trkpt>
<trkpt lat="37.937402" lon="-1.093715">
 <ele>396.200000</ele>
<time>2005-05-24T11:25:38Z</time>
</trkpt>
<trkpt lat="37.937445" lon="-1.093705">
 <ele>397.580000</ele>
<time>2005-05-24T11:25:41Z</time>
</trkpt>
<trkpt lat="37.937488" lon="-1.093680">
 <ele>400.220000</ele>
<time>2005-05-24T11:25:46Z</time>
</trkpt>
<trkpt lat="37.937521" lon="-1.093683">
 <ele>400.160000</ele>
<time>2005-05-24T11:25:47Z</time>
</trkpt>
<trkpt lat="37.937644" lon="-1.093725">
 <ele>401.140000</ele>
<time>2005-05-24T11:25:57Z</time>
</trkpt>
<trkpt lat="37.937651" lon="-1.093714">
 <ele>400.420000</ele>
<time>2005-05-24T11:25:58Z</time>
</trkpt>
<trkpt lat="37.937659" lon="-1.093701">
 <ele>400.880000</ele>
<time>2005-05-24T11:25:59Z</time>
</trkpt>
<trkpt lat="37.937656" lon="-1.093705">
 <ele>400.700000</ele>
<time>2005-05-24T11:26:00Z</time>
</trkpt>
<trkpt lat="37.937672" lon="-1.093715">
 <ele>400.460000</ele>
<time>2005-05-24T11:26:01Z</time>
</trkpt>
<trkpt lat="37.937706" lon="-1.093727">
 <ele>400.680000</ele>
<time>2005-05-24T11:26:04Z</time>
</trkpt>
<trkpt lat="37.937716" lon="-1.093726">
 <ele>400.000000</ele>
<time>2005-05-24T11:26:05Z</time>
</trkpt>
<trkpt lat="37.937704" lon="-1.093758">
 <ele>400.740000</ele>
<time>2005-05-24T11:26:06Z</time>
</trkpt>
<trkpt lat="37.937739" lon="-1.093792">
 <ele>399.980000</ele>
<time>2005-05-24T11:26:09Z</time>
</trkpt>
<trkpt lat="37.937765" lon="-1.093794">
 <ele>399.420000</ele>
<time>2005-05-24T11:26:13Z</time>
</trkpt>
<trkpt lat="37.937749" lon="-1.093829">
 <ele>398.740000</ele>
<time>2005-05-24T11:26:16Z</time>
</trkpt>
<trkpt lat="37.937748" lon="-1.093824">
 <ele>398.760000</ele>
<time>2005-05-24T11:26:17Z</time>
</trkpt>
<trkpt lat="37.937740" lon="-1.093827">
 <ele>398.280000</ele>
<time>2005-05-24T11:26:18Z</time>
</trkpt>
<trkpt lat="37.937746" lon="-1.093807">
 <ele>398.060000</ele>
<time>2005-05-24T11:26:19Z</time>
</trkpt>
<trkpt lat="37.937791" lon="-1.093807">
 <ele>398.060000</ele>
<time>2005-05-24T11:26:21Z</time>
</trkpt>
<trkpt lat="37.937811" lon="-1.093816">
 <ele>398.740000</ele>
<time>2005-05-24T11:26:24Z</time>
</trkpt>
<trkpt lat="37.937819" lon="-1.093832">
 <ele>397.940000</ele>
<time>2005-05-24T11:26:25Z</time>
</trkpt>
<trkpt lat="37.937829" lon="-1.093817">
 <ele>399.100000</ele>
<time>2005-05-24T11:26:26Z</time>
</trkpt>
<trkpt lat="37.937951" lon="-1.093884">
 <ele>399.000000</ele>
<time>2005-05-24T11:26:30Z</time>
</trkpt>
<trkpt lat="37.937953" lon="-1.093903">
 <ele>398.300000</ele>
<time>2005-05-24T11:26:34Z</time>
</trkpt>
<trkpt lat="37.937952" lon="-1.093897">
 <ele>398.720000</ele>
<time>2005-05-24T11:26:35Z</time>
</trkpt>
<trkpt lat="37.937992" lon="-1.093906">
 <ele>399.480000</ele>
<time>2005-05-24T11:26:37Z</time>
</trkpt>
<trkpt lat="37.938002" lon="-1.093899">
 <ele>399.660000</ele>
<time>2005-05-24T11:26:39Z</time>
</trkpt>
<trkpt lat="37.938009" lon="-1.093866">
 <ele>400.520000</ele>
<time>2005-05-24T11:26:42Z</time>
</trkpt>
<trkpt lat="37.938008" lon="-1.093836">
 <ele>401.420000</ele>
<time>2005-05-24T11:26:43Z</time>
</trkpt>
<trkpt lat="37.938023" lon="-1.093843">
 <ele>401.740000</ele>
<time>2005-05-24T11:26:44Z</time>
</trkpt>
<trkpt lat="37.938143" lon="-1.093856">
 <ele>403.520000</ele>
<time>2005-05-24T11:26:49Z</time>
</trkpt>
<trkpt lat="37.938144" lon="-1.093858">
 <ele>403.760000</ele>
<time>2005-05-24T11:26:50Z</time>
</trkpt>
<trkpt lat="37.938145" lon="-1.093852">
 <ele>404.220000</ele>
<time>2005-05-24T11:26:51Z</time>
</trkpt>
<trkpt lat="37.938155" lon="-1.093849">
 <ele>404.520000</ele>
<time>2005-05-24T11:26:52Z</time>
</trkpt>
<trkpt lat="37.938155" lon="-1.093857">
 <ele>404.720000</ele>
<time>2005-05-24T11:26:53Z</time>
</trkpt>
<trkpt lat="37.938156" lon="-1.093845">
 <ele>405.700000</ele>
<time>2005-05-24T11:26:54Z</time>
</trkpt>
<trkpt lat="37.938208" lon="-1.093805">
 <ele>406.240000</ele>
<time>2005-05-24T11:26:57Z</time>
</trkpt>
<trkpt lat="37.938218" lon="-1.093826">
 <ele>409.440000</ele>
<time>2005-05-24T11:26:58Z</time>
</trkpt>
<trkpt lat="37.938220" lon="-1.093815">
 <ele>408.260000</ele>
<time>2005-05-24T11:26:59Z</time>
</trkpt>
<trkpt lat="37.938232" lon="-1.093830">
 <ele>409.060000</ele>
<time>2005-05-24T11:27:00Z</time>
</trkpt>
<trkpt lat="37.938236" lon="-1.093833">
 <ele>408.840000</ele>
<time>2005-05-24T11:27:01Z</time>
</trkpt>
<trkpt lat="37.938243" lon="-1.093822">
 <ele>408.680000</ele>
<time>2005-05-24T11:27:02Z</time>
</trkpt>
<trkpt lat="37.938250" lon="-1.093827">
 <ele>408.920000</ele>
<time>2005-05-24T11:27:03Z</time>
</trkpt>
<trkpt lat="37.938336" lon="-1.093831">
 <ele>410.380000</ele>
<time>2005-05-24T11:27:06Z</time>
</trkpt>
<trkpt lat="37.938411" lon="-1.093849">
 <ele>413.180000</ele>
<time>2005-05-24T11:27:10Z</time>
</trkpt>
<trkpt lat="37.938432" lon="-1.093835">
 <ele>412.460000</ele>
<time>2005-05-24T11:27:11Z</time>
</trkpt>
<trkpt lat="37.938438" lon="-1.093838">
 <ele>414.080000</ele>
<time>2005-05-24T11:27:12Z</time>
</trkpt>
<trkpt lat="37.938437" lon="-1.093832">
 <ele>412.760000</ele>
<time>2005-05-24T11:27:13Z</time>
</trkpt>
<trkpt lat="37.938518" lon="-1.093827">
 <ele>420.800000</ele>
<time>2005-05-24T11:27:16Z</time>
</trkpt>
<trkpt lat="37.938590" lon="-1.093812">
 <ele>418.320000</ele>
<time>2005-05-24T11:27:21Z</time>
</trkpt>
<trkpt lat="37.938597" lon="-1.093818">
 <ele>418.840000</ele>
<time>2005-05-24T11:27:22Z</time>
</trkpt>
<trkpt lat="37.938635" lon="-1.093867">
 <ele>419.860000</ele>
<time>2005-05-24T11:27:27Z</time>
</trkpt>
<trkpt lat="37.938653" lon="-1.093905">
 <ele>419.880000</ele>
<time>2005-05-24T11:27:29Z</time>
</trkpt>
<trkpt lat="37.938728" lon="-1.093901">
 <ele>423.300000</ele>
<time>2005-05-24T11:27:34Z</time>
</trkpt>
<trkpt lat="37.938740" lon="-1.093897">
 <ele>422.880000</ele>
<time>2005-05-24T11:27:35Z</time>
</trkpt>
<trkpt lat="37.938747" lon="-1.093902">
 <ele>424.240000</ele>
<time>2005-05-24T11:27:36Z</time>
</trkpt>
<trkpt lat="37.938830" lon="-1.093955">
 <ele>424.580000</ele>
<time>2005-05-24T11:27:43Z</time>
</trkpt>
<trkpt lat="37.938820" lon="-1.093963">
 <ele>423.780000</ele>
<time>2005-05-24T11:27:44Z</time>
</trkpt>
<trkpt lat="37.938815" lon="-1.093962">
 <ele>424.120000</ele>
<time>2005-05-24T11:27:45Z</time>
</trkpt>
<trkpt lat="37.938829" lon="-1.093972">
 <ele>424.600000</ele>
<time>2005-05-24T11:27:46Z</time>
</trkpt>
<trkpt lat="37.938932" lon="-1.093994">
 <ele>423.100000</ele>
<time>2005-05-24T11:27:55Z</time>
</trkpt>
<trkpt lat="37.938942" lon="-1.094011">
 <ele>423.880000</ele>
<time>2005-05-24T11:27:56Z</time>
</trkpt>
<trkpt lat="37.938959" lon="-1.094021">
 <ele>424.300000</ele>
<time>2005-05-24T11:27:58Z</time>
</trkpt>
<trkpt lat="37.938961" lon="-1.094013">
 <ele>423.420000</ele>
<time>2005-05-24T11:27:59Z</time>
</trkpt>
<trkpt lat="37.938958" lon="-1.094013">
 <ele>423.700000</ele>
<time>2005-05-24T11:28:00Z</time>
</trkpt>
<trkpt lat="37.938960" lon="-1.094010">
 <ele>423.860000</ele>
<time>2005-05-24T11:28:01Z</time>
</trkpt>
<trkpt lat="37.938967" lon="-1.094013">
 <ele>423.700000</ele>
<time>2005-05-24T11:28:02Z</time>
</trkpt>
<trkpt lat="37.938983" lon="-1.094064">
 <ele>425.320000</ele>
<time>2005-05-24T11:28:05Z</time>
</trkpt>
<trkpt lat="37.939018" lon="-1.094067">
 <ele>425.040000</ele>
<time>2005-05-24T11:28:07Z</time>
</trkpt>
<trkpt lat="37.939025" lon="-1.094085">
 <ele>424.660000</ele>
<time>2005-05-24T11:28:08Z</time>
</trkpt>
<trkpt lat="37.939022" lon="-1.094112">
 <ele>425.240000</ele>
<time>2005-05-24T11:28:10Z</time>
</trkpt>
<trkpt lat="37.939025" lon="-1.094107">
 <ele>425.640000</ele>
<time>2005-05-24T11:28:11Z</time>
</trkpt>
<trkpt lat="37.939032" lon="-1.094103">
 <ele>424.940000</ele>
<time>2005-05-24T11:28:12Z</time>
</trkpt>
<trkpt lat="37.939033" lon="-1.094094">
 <ele>425.700000</ele>
<time>2005-05-24T11:28:13Z</time>
</trkpt>
<trkpt lat="37.939034" lon="-1.094105">
 <ele>425.460000</ele>
<time>2005-05-24T11:28:14Z</time>
</trkpt>
<trkpt lat="37.939011" lon="-1.094109">
 <ele>424.980000</ele>
<time>2005-05-24T11:28:17Z</time>
</trkpt>
<trkpt lat="37.939025" lon="-1.094105">
 <ele>425.840000</ele>
<time>2005-05-24T11:28:18Z</time>
</trkpt>
<trkpt lat="37.939028" lon="-1.094110">
 <ele>425.100000</ele>
<time>2005-05-24T11:28:19Z</time>
</trkpt>
<trkpt lat="37.939028" lon="-1.094111">
 <ele>425.320000</ele>
<time>2005-05-24T11:28:20Z</time>
</trkpt>
<trkpt lat="37.939030" lon="-1.094111">
 <ele>425.760000</ele>
<time>2005-05-24T11:28:21Z</time>
</trkpt>
<trkpt lat="37.939081" lon="-1.094101">
 <ele>427.800000</ele>
<time>2005-05-24T11:28:25Z</time>
</trkpt>
<trkpt lat="37.939088" lon="-1.094043">
 <ele>430.100000</ele>
<time>2005-05-24T11:28:30Z</time>
</trkpt>
<trkpt lat="37.939131" lon="-1.094056">
 <ele>431.500000</ele>
<time>2005-05-24T11:28:32Z</time>
</trkpt>
<trkpt lat="37.939117" lon="-1.094057">
 <ele>431.860000</ele>
<time>2005-05-24T11:28:33Z</time>
</trkpt>
<trkpt lat="37.939126" lon="-1.094058">
 <ele>432.220000</ele>
<time>2005-05-24T11:28:34Z</time>
</trkpt>
<trkpt lat="37.939126" lon="-1.094057">
 <ele>432.080000</ele>
<time>2005-05-24T11:28:35Z</time>
</trkpt>
<trkpt lat="37.939130" lon="-1.094058">
 <ele>431.680000</ele>
<time>2005-05-24T11:28:36Z</time>
</trkpt>
<trkpt lat="37.939130" lon="-1.094058">
 <ele>431.600000</ele>
<time>2005-05-24T11:28:37Z</time>
</trkpt>
<trkpt lat="37.939131" lon="-1.094063">
 <ele>431.520000</ele>
<time>2005-05-24T11:28:39Z</time>
</trkpt>
<trkpt lat="37.939136" lon="-1.094095">
 <ele>430.200000</ele>
<time>2005-05-24T11:28:42Z</time>
</trkpt>
<trkpt lat="37.939123" lon="-1.094083">
 <ele>429.160000</ele>
<time>2005-05-24T11:28:43Z</time>
</trkpt>
<trkpt lat="37.939115" lon="-1.094108">
 <ele>429.640000</ele>
<time>2005-05-24T11:28:44Z</time>
</trkpt>
<trkpt lat="37.939071" lon="-1.094150">
 <ele>430.700000</ele>
<time>2005-05-24T11:28:47Z</time>
</trkpt>
<trkpt lat="37.939059" lon="-1.094135">
 <ele>431.700000</ele>
<time>2005-05-24T11:28:50Z</time>
</trkpt>
<trkpt lat="37.939060" lon="-1.094118">
 <ele>430.900000</ele>
<time>2005-05-24T11:28:51Z</time>
</trkpt>
<trkpt lat="37.939048" lon="-1.094131">
 <ele>431.160000</ele>
<time>2005-05-24T11:28:52Z</time>
</trkpt>
<trkpt lat="37.939057" lon="-1.094126">
 <ele>430.980000</ele>
<time>2005-05-24T11:28:53Z</time>
</trkpt>
<trkpt lat="37.939048" lon="-1.094128">
 <ele>430.500000</ele>
<time>2005-05-24T11:28:54Z</time>
</trkpt>
<trkpt lat="37.939048" lon="-1.094128">
 <ele>430.900000</ele>
<time>2005-05-24T11:28:55Z</time>
</trkpt>
<trkpt lat="37.939031" lon="-1.094138">
 <ele>430.420000</ele>
<time>2005-05-24T11:29:04Z</time>
</trkpt>
<trkpt lat="37.938976" lon="-1.094174">
 <ele>432.200000</ele>
<time>2005-05-24T11:29:07Z</time>
</trkpt>
<trkpt lat="37.938980" lon="-1.094168">
 <ele>430.440000</ele>
<time>2005-05-24T11:29:08Z</time>
</trkpt>
<trkpt lat="37.938993" lon="-1.094161">
 <ele>431.360000</ele>
<time>2005-05-24T11:29:09Z</time>
</trkpt>
<trkpt lat="37.938997" lon="-1.094157">
 <ele>431.460000</ele>
<time>2005-05-24T11:29:10Z</time>
</trkpt>
<trkpt lat="37.938998" lon="-1.094157">
 <ele>431.700000</ele>
<time>2005-05-24T11:29:11Z</time>
</trkpt>
<trkpt lat="37.938998" lon="-1.094157">
 <ele>431.300000</ele>
<time>2005-05-24T11:29:12Z</time>
</trkpt>
<trkpt lat="37.939035" lon="-1.094137">
 <ele>434.900000</ele>
<time>2005-05-24T11:29:40Z</time>
</trkpt>
<trkpt lat="37.939116" lon="-1.094103">
 <ele>445.780000</ele>
<time>2005-05-24T11:29:42Z</time>
</trkpt>
<trkpt lat="37.939159" lon="-1.094084">
 <ele>433.080000</ele>
<time>2005-05-24T11:29:43Z</time>
</trkpt>
<trkpt lat="37.939192" lon="-1.094029">
 <ele>446.960000</ele>
<time>2005-05-24T11:29:44Z</time>
</trkpt>
<trkpt lat="37.939187" lon="-1.094048">
 <ele>440.440000</ele>
<time>2005-05-24T11:29:45Z</time>
</trkpt>
<trkpt lat="37.939194" lon="-1.094041">
 <ele>439.940000</ele>
<time>2005-05-24T11:29:46Z</time>
</trkpt>
<trkpt lat="37.939195" lon="-1.094042">
 <ele>440.020000</ele>
<time>2005-05-24T11:29:47Z</time>
</trkpt>
<trkpt lat="37.939195" lon="-1.094042">
 <ele>440.100000</ele>
<time>2005-05-24T11:29:48Z</time>
</trkpt>
<trkpt lat="37.939202" lon="-1.094038">
 <ele>440.380000</ele>
<time>2005-05-24T11:29:52Z</time>
</trkpt>
<trkpt lat="37.939235" lon="-1.094061">
 <ele>439.420000</ele>
<time>2005-05-24T11:29:55Z</time>
</trkpt>
<trkpt lat="37.939208" lon="-1.094069">
 <ele>440.300000</ele>
<time>2005-05-24T11:29:56Z</time>
</trkpt>
<trkpt lat="37.939152" lon="-1.094126">
 <ele>438.640000</ele>
<time>2005-05-24T11:30:02Z</time>
</trkpt>
<trkpt lat="37.939102" lon="-1.094178">
 <ele>437.740000</ele>
<time>2005-05-24T11:30:06Z</time>
</trkpt>
<trkpt lat="37.939102" lon="-1.094169">
 <ele>436.880000</ele>
<time>2005-05-24T11:30:07Z</time>
</trkpt>
<trkpt lat="37.939084" lon="-1.094196">
 <ele>437.740000</ele>
<time>2005-05-24T11:30:08Z</time>
</trkpt>
<trkpt lat="37.938975" lon="-1.094310">
 <ele>441.780000</ele>
<time>2005-05-24T11:30:19Z</time>
</trkpt>
<trkpt lat="37.938964" lon="-1.094322">
 <ele>440.200000</ele>
<time>2005-05-24T11:30:20Z</time>
</trkpt>
<trkpt lat="37.938834" lon="-1.094448">
 <ele>436.980000</ele>
<time>2005-05-24T11:30:33Z</time>
</trkpt>
<trkpt lat="37.938806" lon="-1.094468">
 <ele>437.220000</ele>
<time>2005-05-24T11:30:34Z</time>
</trkpt>
<trkpt lat="37.938764" lon="-1.094517">
 <ele>440.220000</ele>
<time>2005-05-24T11:30:38Z</time>
</trkpt>
<trkpt lat="37.938747" lon="-1.094536">
 <ele>440.440000</ele>
<time>2005-05-24T11:30:39Z</time>
</trkpt>
<trkpt lat="37.938746" lon="-1.094522">
 <ele>440.560000</ele>
<time>2005-05-24T11:30:40Z</time>
</trkpt>
<trkpt lat="37.938748" lon="-1.094561">
 <ele>441.560000</ele>
<time>2005-05-24T11:30:41Z</time>
</trkpt>
<trkpt lat="37.938734" lon="-1.094635">
 <ele>441.940000</ele>
<time>2005-05-24T11:30:46Z</time>
</trkpt>
<trkpt lat="37.938719" lon="-1.094651">
 <ele>444.060000</ele>
<time>2005-05-24T11:30:48Z</time>
</trkpt>
<trkpt lat="37.938702" lon="-1.094720">
 <ele>445.900000</ele>
<time>2005-05-24T11:30:50Z</time>
</trkpt>
<trkpt lat="37.938657" lon="-1.094808">
 <ele>447.420000</ele>
<time>2005-05-24T11:30:57Z</time>
</trkpt>
<trkpt lat="37.938627" lon="-1.094860">
 <ele>447.860000</ele>
<time>2005-05-24T11:31:00Z</time>
</trkpt>
<trkpt lat="37.938540" lon="-1.095170">
 <ele>447.820000</ele>
<time>2005-05-24T11:31:17Z</time>
</trkpt>
<trkpt lat="37.938501" lon="-1.095244">
 <ele>448.280000</ele>
<time>2005-05-24T11:31:23Z</time>
</trkpt>
<trkpt lat="37.938416" lon="-1.095329">
 <ele>448.480000</ele>
<time>2005-05-24T11:31:28Z</time>
</trkpt>
<trkpt lat="37.938402" lon="-1.095302">
 <ele>447.620000</ele>
<time>2005-05-24T11:31:29Z</time>
</trkpt>
<trkpt lat="37.938396" lon="-1.095342">
 <ele>446.860000</ele>
<time>2005-05-24T11:31:32Z</time>
</trkpt>
<trkpt lat="37.938361" lon="-1.095394">
 <ele>445.140000</ele>
<time>2005-05-24T11:31:35Z</time>
</trkpt>
<trkpt lat="37.938323" lon="-1.095422">
 <ele>446.100000</ele>
<time>2005-05-24T11:31:39Z</time>
</trkpt>
<trkpt lat="37.938318" lon="-1.095447">
 <ele>445.440000</ele>
<time>2005-05-24T11:31:40Z</time>
</trkpt>
<trkpt lat="37.938302" lon="-1.095438">
 <ele>445.840000</ele>
<time>2005-05-24T11:31:41Z</time>
</trkpt>
<trkpt lat="37.938291" lon="-1.095465">
 <ele>445.180000</ele>
<time>2005-05-24T11:31:42Z</time>
</trkpt>
<trkpt lat="37.938234" lon="-1.095542">
 <ele>442.000000</ele>
<time>2005-05-24T11:31:49Z</time>
</trkpt>
<trkpt lat="37.938212" lon="-1.095550">
 <ele>442.740000</ele>
<time>2005-05-24T11:31:50Z</time>
</trkpt>
<trkpt lat="37.938184" lon="-1.095598">
 <ele>442.840000</ele>
<time>2005-05-24T11:31:52Z</time>
</trkpt>
<trkpt lat="37.938086" lon="-1.095775">
 <ele>445.000000</ele>
<time>2005-05-24T11:32:04Z</time>
</trkpt>
<trkpt lat="37.938059" lon="-1.095844">
 <ele>445.660000</ele>
<time>2005-05-24T11:32:07Z</time>
</trkpt>
<trkpt lat="37.937872" lon="-1.095967">
 <ele>443.660000</ele>
<time>2005-05-24T11:32:20Z</time>
</trkpt>
<trkpt lat="37.937858" lon="-1.096001">
 <ele>445.000000</ele>
<time>2005-05-24T11:32:22Z</time>
</trkpt>
<trkpt lat="37.937816" lon="-1.096030">
 <ele>445.220000</ele>
<time>2005-05-24T11:32:24Z</time>
</trkpt>
<trkpt lat="37.937665" lon="-1.096115">
 <ele>445.860000</ele>
<time>2005-05-24T11:32:39Z</time>
</trkpt>
<trkpt lat="37.937672" lon="-1.096144">
 <ele>447.500000</ele>
<time>2005-05-24T11:32:40Z</time>
</trkpt>
<trkpt lat="37.937672" lon="-1.096192">
 <ele>447.080000</ele>
<time>2005-05-24T11:32:45Z</time>
</trkpt>
<trkpt lat="37.937592" lon="-1.096231">
 <ele>445.300000</ele>
<time>2005-05-24T11:32:51Z</time>
</trkpt>
<trkpt lat="37.937545" lon="-1.096261">
 <ele>444.560000</ele>
<time>2005-05-24T11:32:57Z</time>
</trkpt>
<trkpt lat="37.937544" lon="-1.096290">
 <ele>444.200000</ele>
<time>2005-05-24T11:32:58Z</time>
</trkpt>
<trkpt lat="37.937504" lon="-1.096305">
 <ele>443.760000</ele>
<time>2005-05-24T11:33:00Z</time>
</trkpt>
<trkpt lat="37.937445" lon="-1.096322">
 <ele>443.540000</ele>
<time>2005-05-24T11:33:04Z</time>
</trkpt>
<trkpt lat="37.937436" lon="-1.096341">
 <ele>441.860000</ele>
<time>2005-05-24T11:33:06Z</time>
</trkpt>
<trkpt lat="37.937380" lon="-1.096346">
 <ele>441.460000</ele>
<time>2005-05-24T11:33:08Z</time>
</trkpt>
<trkpt lat="37.937318" lon="-1.096340">
 <ele>440.920000</ele>
<time>2005-05-24T11:33:13Z</time>
</trkpt>
<trkpt lat="37.937306" lon="-1.096345">
 <ele>440.740000</ele>
<time>2005-05-24T11:33:15Z</time>
</trkpt>
<trkpt lat="37.937253" lon="-1.096326">
 <ele>441.060000</ele>
<time>2005-05-24T11:33:18Z</time>
</trkpt>
<trkpt lat="37.937218" lon="-1.096342">
 <ele>440.940000</ele>
<time>2005-05-24T11:33:21Z</time>
</trkpt>
<trkpt lat="37.937202" lon="-1.096335">
 <ele>441.320000</ele>
<time>2005-05-24T11:33:22Z</time>
</trkpt>
<trkpt lat="37.937178" lon="-1.096312">
 <ele>441.600000</ele>
<time>2005-05-24T11:33:25Z</time>
</trkpt>
<trkpt lat="37.937153" lon="-1.096299">
 <ele>442.820000</ele>
<time>2005-05-24T11:33:26Z</time>
</trkpt>
<trkpt lat="37.937016" lon="-1.096288">
 <ele>446.640000</ele>
<time>2005-05-24T11:33:31Z</time>
</trkpt>
<trkpt lat="37.936926" lon="-1.096319">
 <ele>452.980000</ele>
<time>2005-05-24T11:33:36Z</time>
</trkpt>
<trkpt lat="37.936950" lon="-1.096316">
 <ele>452.280000</ele>
<time>2005-05-24T11:33:37Z</time>
</trkpt>
<trkpt lat="37.936939" lon="-1.096314">
 <ele>453.080000</ele>
<time>2005-05-24T11:33:38Z</time>
</trkpt>
<trkpt lat="37.936892" lon="-1.096347">
 <ele>451.720000</ele>
<time>2005-05-24T11:33:44Z</time>
</trkpt>
<trkpt lat="37.936887" lon="-1.096360">
 <ele>451.300000</ele>
<time>2005-05-24T11:33:47Z</time>
</trkpt>
<trkpt lat="37.936858" lon="-1.096358">
 <ele>449.600000</ele>
<time>2005-05-24T11:33:51Z</time>
</trkpt>
<trkpt lat="37.936850" lon="-1.096371">
 <ele>450.500000</ele>
<time>2005-05-24T11:33:52Z</time>
</trkpt>
<trkpt lat="37.936801" lon="-1.096473">
 <ele>454.100000</ele>
<time>2005-05-24T11:34:02Z</time>
</trkpt>
<trkpt lat="37.936815" lon="-1.096517">
 <ele>453.980000</ele>
<time>2005-05-24T11:34:06Z</time>
</trkpt>
<trkpt lat="37.936817" lon="-1.096550">
 <ele>454.980000</ele>
<time>2005-05-24T11:34:08Z</time>
</trkpt>
<trkpt lat="37.936785" lon="-1.096590">
 <ele>453.580000</ele>
<time>2005-05-24T11:34:09Z</time>
</trkpt>
<trkpt lat="37.936672" lon="-1.096663">
 <ele>451.300000</ele>
<time>2005-05-24T11:34:14Z</time>
</trkpt>
<trkpt lat="37.936670" lon="-1.096686">
 <ele>451.460000</ele>
<time>2005-05-24T11:34:16Z</time>
</trkpt>
<trkpt lat="37.936677" lon="-1.096678">
 <ele>451.760000</ele>
<time>2005-05-24T11:34:17Z</time>
</trkpt>
<trkpt lat="37.936646" lon="-1.096687">
 <ele>451.500000</ele>
<time>2005-05-24T11:34:18Z</time>
</trkpt>
<trkpt lat="37.936617" lon="-1.096738">
 <ele>450.580000</ele>
<time>2005-05-24T11:34:23Z</time>
</trkpt>
<trkpt lat="37.936622" lon="-1.096732">
 <ele>450.420000</ele>
<time>2005-05-24T11:34:24Z</time>
</trkpt>
<trkpt lat="37.936611" lon="-1.096748">
 <ele>451.300000</ele>
<time>2005-05-24T11:34:25Z</time>
</trkpt>
<trkpt lat="37.936580" lon="-1.096752">
 <ele>450.620000</ele>
<time>2005-05-24T11:34:28Z</time>
</trkpt>
<trkpt lat="37.936570" lon="-1.096771">
 <ele>450.620000</ele>
<time>2005-05-24T11:34:29Z</time>
</trkpt>
<trkpt lat="37.936511" lon="-1.096805">
 <ele>450.600000</ele>
<time>2005-05-24T11:34:33Z</time>
</trkpt>
<trkpt lat="37.936408" lon="-1.096860">
 <ele>449.560000</ele>
<time>2005-05-24T11:34:39Z</time>
</trkpt>
<trkpt lat="37.936388" lon="-1.096849">
 <ele>449.560000</ele>
<time>2005-05-24T11:34:41Z</time>
</trkpt>
<trkpt lat="37.936328" lon="-1.096859">
 <ele>446.560000</ele>
<time>2005-05-24T11:34:44Z</time>
</trkpt>
<trkpt lat="37.936277" lon="-1.096838">
 <ele>445.780000</ele>
<time>2005-05-24T11:34:48Z</time>
</trkpt>
<trkpt lat="37.936287" lon="-1.096840">
 <ele>446.640000</ele>
<time>2005-05-24T11:34:49Z</time>
</trkpt>
<trkpt lat="37.936284" lon="-1.096855">
 <ele>446.440000</ele>
<time>2005-05-24T11:34:51Z</time>
</trkpt>
<trkpt lat="37.936168" lon="-1.096841">
 <ele>451.360000</ele>
<time>2005-05-24T11:34:59Z</time>
</trkpt>
<trkpt lat="37.936110" lon="-1.096861">
 <ele>450.740000</ele>
<time>2005-05-24T11:35:01Z</time>
</trkpt>
<trkpt lat="37.936025" lon="-1.096859">
 <ele>450.460000</ele>
<time>2005-05-24T11:35:03Z</time>
</trkpt>
<trkpt lat="37.936034" lon="-1.096887">
 <ele>451.420000</ele>
<time>2005-05-24T11:35:04Z</time>
</trkpt>
<trkpt lat="37.936035" lon="-1.096895">
 <ele>452.360000</ele>
<time>2005-05-24T11:35:06Z</time>
</trkpt>
<trkpt lat="37.936031" lon="-1.096918">
 <ele>452.980000</ele>
<time>2005-05-24T11:35:11Z</time>
</trkpt>
<trkpt lat="37.936070" lon="-1.096985">
 <ele>459.740000</ele>
<time>2005-05-24T11:35:19Z</time>
</trkpt>
<trkpt lat="37.936085" lon="-1.097001">
 <ele>460.020000</ele>
<time>2005-05-24T11:35:21Z</time>
</trkpt>
<trkpt lat="37.936091" lon="-1.097046">
 <ele>460.420000</ele>
<time>2005-05-24T11:35:26Z</time>
</trkpt>
<trkpt lat="37.936057" lon="-1.097114">
 <ele>457.860000</ele>
<time>2005-05-24T11:35:31Z</time>
</trkpt>
<trkpt lat="37.936011" lon="-1.097150">
 <ele>457.560000</ele>
<time>2005-05-24T11:35:35Z</time>
</trkpt>
<trkpt lat="37.935992" lon="-1.097212">
 <ele>456.960000</ele>
<time>2005-05-24T11:35:38Z</time>
</trkpt>
<trkpt lat="37.935940" lon="-1.097271">
 <ele>456.840000</ele>
<time>2005-05-24T11:35:42Z</time>
</trkpt>
<trkpt lat="37.935961" lon="-1.097319">
 <ele>456.420000</ele>
<time>2005-05-24T11:35:45Z</time>
</trkpt>
<trkpt lat="37.935939" lon="-1.097361">
 <ele>456.040000</ele>
<time>2005-05-24T11:35:47Z</time>
</trkpt>
<trkpt lat="37.935906" lon="-1.097511">
 <ele>455.320000</ele>
<time>2005-05-24T11:35:58Z</time>
</trkpt>
<trkpt lat="37.935910" lon="-1.097491">
 <ele>456.080000</ele>
<time>2005-05-24T11:35:59Z</time>
</trkpt>
<trkpt lat="37.935912" lon="-1.097518">
 <ele>456.920000</ele>
<time>2005-05-24T11:36:00Z</time>
</trkpt>
<trkpt lat="37.935958" lon="-1.097588">
 <ele>461.200000</ele>
<time>2005-05-24T11:36:03Z</time>
</trkpt>
<trkpt lat="37.936015" lon="-1.097783">
 <ele>463.240000</ele>
<time>2005-05-24T11:36:12Z</time>
</trkpt>
<trkpt lat="37.936005" lon="-1.097784">
 <ele>463.000000</ele>
<time>2005-05-24T11:36:14Z</time>
</trkpt>
<trkpt lat="37.936003" lon="-1.097802">
 <ele>463.500000</ele>
<time>2005-05-24T11:36:15Z</time>
</trkpt>
<trkpt lat="37.936033" lon="-1.097878">
 <ele>473.480000</ele>
<time>2005-05-24T11:36:21Z</time>
</trkpt>
<trkpt lat="37.936038" lon="-1.097919">
 <ele>475.040000</ele>
<time>2005-05-24T11:36:23Z</time>
</trkpt>
<trkpt lat="37.936036" lon="-1.097916">
 <ele>475.440000</ele>
<time>2005-05-24T11:36:24Z</time>
</trkpt>
<trkpt lat="37.936034" lon="-1.097931">
 <ele>475.060000</ele>
<time>2005-05-24T11:36:25Z</time>
</trkpt>
<trkpt lat="37.936054" lon="-1.098056">
 <ele>471.740000</ele>
<time>2005-05-24T11:36:31Z</time>
</trkpt>
<trkpt lat="37.936029" lon="-1.098090">
 <ele>470.160000</ele>
<time>2005-05-24T11:36:33Z</time>
</trkpt>
<trkpt lat="37.935906" lon="-1.098190">
 <ele>467.440000</ele>
<time>2005-05-24T11:36:43Z</time>
</trkpt>
<trkpt lat="37.935868" lon="-1.098240">
 <ele>465.920000</ele>
<time>2005-05-24T11:36:46Z</time>
</trkpt>
<trkpt lat="37.935809" lon="-1.098219">
 <ele>462.960000</ele>
<time>2005-05-24T11:36:49Z</time>
</trkpt>
<trkpt lat="37.935753" lon="-1.098227">
 <ele>460.840000</ele>
<time>2005-05-24T11:36:52Z</time>
</trkpt>
<trkpt lat="37.935684" lon="-1.098277">
 <ele>453.220000</ele>
<time>2005-05-24T11:37:00Z</time>
</trkpt>
<trkpt lat="37.935630" lon="-1.098266">
 <ele>452.980000</ele>
<time>2005-05-24T11:37:02Z</time>
</trkpt>
<trkpt lat="37.935521" lon="-1.098290">
 <ele>449.660000</ele>
<time>2005-05-24T11:37:08Z</time>
</trkpt>
<trkpt lat="37.935458" lon="-1.098287">
 <ele>448.040000</ele>
<time>2005-05-24T11:37:12Z</time>
</trkpt>
<trkpt lat="37.935403" lon="-1.098274">
 <ele>445.520000</ele>
<time>2005-05-24T11:37:16Z</time>
</trkpt>
<trkpt lat="37.935388" lon="-1.098273">
 <ele>446.840000</ele>
<time>2005-05-24T11:37:19Z</time>
</trkpt>
<trkpt lat="37.935364" lon="-1.098269">
 <ele>446.360000</ele>
<time>2005-05-24T11:37:20Z</time>
</trkpt>
<trkpt lat="37.935288" lon="-1.098266">
 <ele>448.880000</ele>
<time>2005-05-24T11:37:26Z</time>
</trkpt>
<trkpt lat="37.935272" lon="-1.098264">
 <ele>448.100000</ele>
<time>2005-05-24T11:37:27Z</time>
</trkpt>
<trkpt lat="37.935209" lon="-1.098254">
 <ele>448.360000</ele>
<time>2005-05-24T11:37:33Z</time>
</trkpt>
<trkpt lat="37.935206" lon="-1.098290">
 <ele>448.860000</ele>
<time>2005-05-24T11:37:34Z</time>
</trkpt>
<trkpt lat="37.935212" lon="-1.098274">
 <ele>449.200000</ele>
<time>2005-05-24T11:37:35Z</time>
</trkpt>
<trkpt lat="37.935206" lon="-1.098272">
 <ele>448.800000</ele>
<time>2005-05-24T11:37:36Z</time>
</trkpt>
<trkpt lat="37.935194" lon="-1.098262">
 <ele>449.220000</ele>
<time>2005-05-24T11:37:37Z</time>
</trkpt>
<trkpt lat="37.935182" lon="-1.098271">
 <ele>449.220000</ele>
<time>2005-05-24T11:37:38Z</time>
</trkpt>
<trkpt lat="37.935121" lon="-1.098263">
 <ele>450.180000</ele>
<time>2005-05-24T11:37:40Z</time>
</trkpt>
<trkpt lat="37.934667" lon="-1.098184">
 <ele>455.040000</ele>
<time>2005-05-24T11:37:59Z</time>
</trkpt>
<trkpt lat="37.934659" lon="-1.098177">
 <ele>454.660000</ele>
<time>2005-05-24T11:38:00Z</time>
</trkpt>
<trkpt lat="37.934603" lon="-1.098169">
 <ele>454.220000</ele>
<time>2005-05-24T11:38:05Z</time>
</trkpt>
<trkpt lat="37.934593" lon="-1.098153">
 <ele>453.720000</ele>
<time>2005-05-24T11:38:06Z</time>
</trkpt>
<trkpt lat="37.934548" lon="-1.098151">
 <ele>454.720000</ele>
<time>2005-05-24T11:38:09Z</time>
</trkpt>
<trkpt lat="37.934551" lon="-1.098146">
 <ele>453.660000</ele>
<time>2005-05-24T11:38:10Z</time>
</trkpt>
<trkpt lat="37.934558" lon="-1.098132">
 <ele>450.920000</ele>
<time>2005-05-24T11:38:13Z</time>
</trkpt>
<trkpt lat="37.934536" lon="-1.098136">
 <ele>450.420000</ele>
<time>2005-05-24T11:38:14Z</time>
</trkpt>
<trkpt lat="37.934512" lon="-1.098135">
 <ele>449.900000</ele>
<time>2005-05-24T11:38:19Z</time>
</trkpt>
<trkpt lat="37.934501" lon="-1.098133">
 <ele>450.180000</ele>
<time>2005-05-24T11:38:20Z</time>
</trkpt>
<trkpt lat="37.934489" lon="-1.098122">
 <ele>450.920000</ele>
<time>2005-05-24T11:38:22Z</time>
</trkpt>
<trkpt lat="37.934472" lon="-1.098120">
 <ele>451.600000</ele>
<time>2005-05-24T11:38:23Z</time>
</trkpt>
<trkpt lat="37.934210" lon="-1.098123">
 <ele>456.620000</ele>
<time>2005-05-24T11:38:40Z</time>
</trkpt>
<trkpt lat="37.934203" lon="-1.098125">
 <ele>457.840000</ele>
<time>2005-05-24T11:38:41Z</time>
</trkpt>
<trkpt lat="37.934128" lon="-1.098131">
 <ele>456.360000</ele>
<time>2005-05-24T11:38:47Z</time>
</trkpt>
<trkpt lat="37.934085" lon="-1.098115">
 <ele>457.680000</ele>
<time>2005-05-24T11:38:51Z</time>
</trkpt>
<trkpt lat="37.934037" lon="-1.098123">
 <ele>456.700000</ele>
<time>2005-05-24T11:38:53Z</time>
</trkpt>
<trkpt lat="37.933796" lon="-1.098113">
 <ele>449.580000</ele>
<time>2005-05-24T11:39:09Z</time>
</trkpt>
<trkpt lat="37.933794" lon="-1.098085">
 <ele>445.460000</ele>
<time>2005-05-24T11:39:12Z</time>
</trkpt>
<trkpt lat="37.933775" lon="-1.098087">
 <ele>445.560000</ele>
<time>2005-05-24T11:39:14Z</time>
</trkpt>
<trkpt lat="37.933768" lon="-1.098078">
 <ele>444.460000</ele>
<time>2005-05-24T11:39:15Z</time>
</trkpt>
<trkpt lat="37.933723" lon="-1.098080">
 <ele>444.820000</ele>
<time>2005-05-24T11:39:18Z</time>
</trkpt>
<trkpt lat="37.933726" lon="-1.098089">
 <ele>445.260000</ele>
<time>2005-05-24T11:39:19Z</time>
</trkpt>
<trkpt lat="37.933708" lon="-1.098078">
 <ele>442.560000</ele>
<time>2005-05-24T11:39:20Z</time>
</trkpt>
<trkpt lat="37.933690" lon="-1.098082">
 <ele>444.640000</ele>
<time>2005-05-24T11:39:24Z</time>
</trkpt>
<trkpt lat="37.933676" lon="-1.098110">
 <ele>446.140000</ele>
<time>2005-05-24T11:39:26Z</time>
</trkpt>
<trkpt lat="37.933609" lon="-1.098097">
 <ele>444.900000</ele>
<time>2005-05-24T11:39:28Z</time>
</trkpt>
<trkpt lat="37.933598" lon="-1.098126">
 <ele>444.080000</ele>
<time>2005-05-24T11:39:31Z</time>
</trkpt>
<trkpt lat="37.933552" lon="-1.098132">
 <ele>443.200000</ele>
<time>2005-05-24T11:39:32Z</time>
</trkpt>
<trkpt lat="37.933552" lon="-1.098114">
 <ele>442.060000</ele>
<time>2005-05-24T11:39:33Z</time>
</trkpt>
<trkpt lat="37.933510" lon="-1.098108">
 <ele>441.840000</ele>
<time>2005-05-24T11:39:35Z</time>
</trkpt>
<trkpt lat="37.933286" lon="-1.098168">
 <ele>451.440000</ele>
<time>2005-05-24T11:39:50Z</time>
</trkpt>
<trkpt lat="37.933268" lon="-1.098179">
 <ele>452.880000</ele>
<time>2005-05-24T11:39:52Z</time>
</trkpt>
<trkpt lat="37.933264" lon="-1.098203">
 <ele>456.020000</ele>
<time>2005-05-24T11:39:54Z</time>
</trkpt>
<trkpt lat="37.933227" lon="-1.098250">
 <ele>459.000000</ele>
<time>2005-05-24T11:39:57Z</time>
</trkpt>
<trkpt lat="37.933236" lon="-1.098253">
 <ele>461.700000</ele>
<time>2005-05-24T11:39:58Z</time>
</trkpt>
<trkpt lat="37.933224" lon="-1.098268">
 <ele>460.620000</ele>
<time>2005-05-24T11:39:59Z</time>
</trkpt>
<trkpt lat="37.933232" lon="-1.098270">
 <ele>461.420000</ele>
<time>2005-05-24T11:40:00Z</time>
</trkpt>
<trkpt lat="37.933240" lon="-1.098243">
 <ele>459.620000</ele>
<time>2005-05-24T11:40:01Z</time>
</trkpt>
<trkpt lat="37.933243" lon="-1.098288">
 <ele>459.560000</ele>
<time>2005-05-24T11:40:03Z</time>
</trkpt>
<trkpt lat="37.933199" lon="-1.098324">
 <ele>458.460000</ele>
<time>2005-05-24T11:40:07Z</time>
</trkpt>
<trkpt lat="37.933210" lon="-1.098341">
 <ele>456.540000</ele>
<time>2005-05-24T11:40:08Z</time>
</trkpt>
<trkpt lat="37.933217" lon="-1.098355">
 <ele>458.180000</ele>
<time>2005-05-24T11:40:10Z</time>
</trkpt>
<trkpt lat="37.933208" lon="-1.098376">
 <ele>458.020000</ele>
<time>2005-05-24T11:40:11Z</time>
</trkpt>
<trkpt lat="37.933144" lon="-1.098404">
 <ele>457.680000</ele>
<time>2005-05-24T11:40:14Z</time>
</trkpt>
<trkpt lat="37.933135" lon="-1.098423">
 <ele>455.980000</ele>
<time>2005-05-24T11:40:16Z</time>
</trkpt>
<trkpt lat="37.933128" lon="-1.098419">
 <ele>455.640000</ele>
<time>2005-05-24T11:40:17Z</time>
</trkpt>
<trkpt lat="37.933121" lon="-1.098454">
 <ele>454.580000</ele>
<time>2005-05-24T11:40:18Z</time>
</trkpt>
<trkpt lat="37.933082" lon="-1.098457">
 <ele>454.080000</ele>
<time>2005-05-24T11:40:21Z</time>
</trkpt>
<trkpt lat="37.933089" lon="-1.098474">
 <ele>453.660000</ele>
<time>2005-05-24T11:40:22Z</time>
</trkpt>
<trkpt lat="37.933042" lon="-1.098535">
 <ele>451.500000</ele>
<time>2005-05-24T11:40:27Z</time>
</trkpt>
<trkpt lat="37.932976" lon="-1.098618">
 <ele>446.400000</ele>
<time>2005-05-24T11:40:34Z</time>
</trkpt>
<trkpt lat="37.932944" lon="-1.098623">
 <ele>445.620000</ele>
<time>2005-05-24T11:40:35Z</time>
</trkpt>
<trkpt lat="37.932913" lon="-1.098664">
 <ele>445.680000</ele>
<time>2005-05-24T11:40:37Z</time>
</trkpt>
<trkpt lat="37.932885" lon="-1.098775">
 <ele>445.260000</ele>
<time>2005-05-24T11:40:40Z</time>
</trkpt>
<trkpt lat="37.932901" lon="-1.098778">
 <ele>446.160000</ele>
<time>2005-05-24T11:40:41Z</time>
</trkpt>
<trkpt lat="37.932899" lon="-1.098788">
 <ele>447.720000</ele>
<time>2005-05-24T11:40:43Z</time>
</trkpt>
<trkpt lat="37.932885" lon="-1.098824">
 <ele>448.920000</ele>
<time>2005-05-24T11:40:47Z</time>
</trkpt>
<trkpt lat="37.932874" lon="-1.098855">
 <ele>450.520000</ele>
<time>2005-05-24T11:40:48Z</time>
</trkpt>
<trkpt lat="37.932866" lon="-1.098914">
 <ele>455.040000</ele>
<time>2005-05-24T11:40:54Z</time>
</trkpt>
<trkpt lat="37.932891" lon="-1.098928">
 <ele>456.340000</ele>
<time>2005-05-24T11:40:55Z</time>
</trkpt>
<trkpt lat="37.932906" lon="-1.098953">
 <ele>457.700000</ele>
<time>2005-05-24T11:41:00Z</time>
</trkpt>
<trkpt lat="37.932875" lon="-1.099013">
 <ele>460.720000</ele>
<time>2005-05-24T11:41:03Z</time>
</trkpt>
<trkpt lat="37.932931" lon="-1.099189">
 <ele>467.860000</ele>
<time>2005-05-24T11:41:14Z</time>
</trkpt>
<trkpt lat="37.932924" lon="-1.099204">
 <ele>467.860000</ele>
<time>2005-05-24T11:41:15Z</time>
</trkpt>
<trkpt lat="37.932935" lon="-1.099272">
 <ele>469.640000</ele>
<time>2005-05-24T11:41:17Z</time>
</trkpt>
<trkpt lat="37.932959" lon="-1.099276">
 <ele>471.100000</ele>
<time>2005-05-24T11:41:19Z</time>
</trkpt>
<trkpt lat="37.932960" lon="-1.099303">
 <ele>471.400000</ele>
<time>2005-05-24T11:41:20Z</time>
</trkpt>
<trkpt lat="37.932896" lon="-1.099391">
 <ele>471.280000</ele>
<time>2005-05-24T11:41:25Z</time>
</trkpt>
<trkpt lat="37.932905" lon="-1.099426">
 <ele>469.880000</ele>
<time>2005-05-24T11:41:28Z</time>
</trkpt>
<trkpt lat="37.932897" lon="-1.099460">
 <ele>470.940000</ele>
<time>2005-05-24T11:41:31Z</time>
</trkpt>
<trkpt lat="37.932839" lon="-1.099566">
 <ele>467.500000</ele>
<time>2005-05-24T11:41:36Z</time>
</trkpt>
<trkpt lat="37.932801" lon="-1.099629">
 <ele>468.180000</ele>
<time>2005-05-24T11:41:41Z</time>
</trkpt>
<trkpt lat="37.932776" lon="-1.099745">
 <ele>464.420000</ele>
<time>2005-05-24T11:41:49Z</time>
</trkpt>
<trkpt lat="37.932787" lon="-1.099742">
 <ele>466.040000</ele>
<time>2005-05-24T11:41:50Z</time>
</trkpt>
<trkpt lat="37.932772" lon="-1.099754">
 <ele>464.180000</ele>
<time>2005-05-24T11:41:51Z</time>
</trkpt>
<trkpt lat="37.932767" lon="-1.099746">
 <ele>465.860000</ele>
<time>2005-05-24T11:41:52Z</time>
</trkpt>
<trkpt lat="37.932769" lon="-1.099763">
 <ele>463.500000</ele>
<time>2005-05-24T11:41:53Z</time>
</trkpt>
<trkpt lat="37.932772" lon="-1.099815">
 <ele>457.800000</ele>
<time>2005-05-24T11:41:57Z</time>
</trkpt>
<trkpt lat="37.932783" lon="-1.099847">
 <ele>459.860000</ele>
<time>2005-05-24T11:41:58Z</time>
</trkpt>
<trkpt lat="37.932806" lon="-1.099856">
 <ele>459.900000</ele>
<time>2005-05-24T11:42:00Z</time>
</trkpt>
<trkpt lat="37.932790" lon="-1.099850">
 <ele>459.980000</ele>
<time>2005-05-24T11:42:01Z</time>
</trkpt>
<trkpt lat="37.932805" lon="-1.099869">
 <ele>459.060000</ele>
<time>2005-05-24T11:42:02Z</time>
</trkpt>
<trkpt lat="37.932887" lon="-1.100034">
 <ele>461.200000</ele>
<time>2005-05-24T11:42:10Z</time>
</trkpt>
<trkpt lat="37.932913" lon="-1.100100">
 <ele>458.180000</ele>
<time>2005-05-24T11:42:14Z</time>
</trkpt>
<trkpt lat="37.932919" lon="-1.100140">
 <ele>454.980000</ele>
<time>2005-05-24T11:42:16Z</time>
</trkpt>
<trkpt lat="37.932934" lon="-1.100152">
 <ele>453.380000</ele>
<time>2005-05-24T11:42:18Z</time>
</trkpt>
<trkpt lat="37.932941" lon="-1.100160">
 <ele>452.940000</ele>
<time>2005-05-24T11:42:19Z</time>
</trkpt>
<trkpt lat="37.932961" lon="-1.100173">
 <ele>450.700000</ele>
<time>2005-05-24T11:42:21Z</time>
</trkpt>
<trkpt lat="37.932974" lon="-1.100181">
 <ele>448.060000</ele>
<time>2005-05-24T11:42:22Z</time>
</trkpt>
<trkpt lat="37.932968" lon="-1.100172">
 <ele>446.480000</ele>
<time>2005-05-24T11:42:24Z</time>
</trkpt>
<trkpt lat="37.932986" lon="-1.100185">
 <ele>445.940000</ele>
<time>2005-05-24T11:42:25Z</time>
</trkpt>
<trkpt lat="37.933029" lon="-1.100188">
 <ele>446.340000</ele>
<time>2005-05-24T11:42:28Z</time>
</trkpt>
<trkpt lat="37.933038" lon="-1.100194">
 <ele>445.500000</ele>
<time>2005-05-24T11:42:29Z</time>
</trkpt>
<trkpt lat="37.933103" lon="-1.100180">
 <ele>445.540000</ele>
<time>2005-05-24T11:42:34Z</time>
</trkpt>
<trkpt lat="37.933141" lon="-1.100191">
 <ele>444.400000</ele>
<time>2005-05-24T11:42:36Z</time>
</trkpt>
<trkpt lat="37.933129" lon="-1.100160">
 <ele>442.720000</ele>
<time>2005-05-24T11:42:37Z</time>
</trkpt>
<trkpt lat="37.933124" lon="-1.100164">
 <ele>442.060000</ele>
<time>2005-05-24T11:42:38Z</time>
</trkpt>
<trkpt lat="37.933132" lon="-1.100160">
 <ele>441.480000</ele>
<time>2005-05-24T11:42:39Z</time>
</trkpt>
<trkpt lat="37.933279" lon="-1.100142">
 <ele>438.820000</ele>
<time>2005-05-24T11:42:48Z</time>
</trkpt>
<trkpt lat="37.933329" lon="-1.100114">
 <ele>435.820000</ele>
<time>2005-05-24T11:42:52Z</time>
</trkpt>
<trkpt lat="37.933370" lon="-1.100102">
 <ele>434.320000</ele>
<time>2005-05-24T11:42:54Z</time>
</trkpt>
<trkpt lat="37.933441" lon="-1.100063">
 <ele>432.800000</ele>
<time>2005-05-24T11:42:59Z</time>
</trkpt>
<trkpt lat="37.933361" lon="-1.099972">
 <ele>438.820000</ele>
<time>2005-05-24T11:43:06Z</time>
</trkpt>
<trkpt lat="37.933363" lon="-1.099999">
 <ele>441.180000</ele>
<time>2005-05-24T11:43:08Z</time>
</trkpt>
<trkpt lat="37.933377" lon="-1.099962">
 <ele>439.320000</ele>
<time>2005-05-24T11:43:11Z</time>
</trkpt>
<trkpt lat="37.933364" lon="-1.099809">
 <ele>445.820000</ele>
<time>2005-05-24T11:43:20Z</time>
</trkpt>
<trkpt lat="37.933376" lon="-1.099815">
 <ele>447.020000</ele>
<time>2005-05-24T11:43:21Z</time>
</trkpt>
<trkpt lat="37.933389" lon="-1.099783">
 <ele>446.300000</ele>
<time>2005-05-24T11:43:22Z</time>
</trkpt>
<trkpt lat="37.933440" lon="-1.099767">
 <ele>447.520000</ele>
<time>2005-05-24T11:43:24Z</time>
</trkpt>
<trkpt lat="37.933453" lon="-1.099724">
 <ele>446.140000</ele>
<time>2005-05-24T11:43:27Z</time>
</trkpt>
<trkpt lat="37.933488" lon="-1.099674">
 <ele>446.540000</ele>
<time>2005-05-24T11:43:31Z</time>
</trkpt>
<trkpt lat="37.933473" lon="-1.099658">
 <ele>446.400000</ele>
<time>2005-05-24T11:43:32Z</time>
</trkpt>
<trkpt lat="37.933479" lon="-1.099669">
 <ele>445.440000</ele>
<time>2005-05-24T11:43:33Z</time>
</trkpt>
<trkpt lat="37.933514" lon="-1.099663">
 <ele>445.420000</ele>
<time>2005-05-24T11:43:35Z</time>
</trkpt>
<trkpt lat="37.933522" lon="-1.099587">
 <ele>442.400000</ele>
<time>2005-05-24T11:43:38Z</time>
</trkpt>
<trkpt lat="37.933457" lon="-1.099399">
 <ele>434.360000</ele>
<time>2005-05-24T11:43:46Z</time>
</trkpt>
<trkpt lat="37.933442" lon="-1.099303">
 <ele>435.260000</ele>
<time>2005-05-24T11:43:52Z</time>
</trkpt>
<trkpt lat="37.933391" lon="-1.099186">
 <ele>436.880000</ele>
<time>2005-05-24T11:43:59Z</time>
</trkpt>
<trkpt lat="37.933414" lon="-1.099139">
 <ele>439.580000</ele>
<time>2005-05-24T11:44:02Z</time>
</trkpt>
<trkpt lat="37.933402" lon="-1.099102">
 <ele>439.740000</ele>
<time>2005-05-24T11:44:04Z</time>
</trkpt>
<trkpt lat="37.933377" lon="-1.098937">
 <ele>444.440000</ele>
<time>2005-05-24T11:44:15Z</time>
</trkpt>
<trkpt lat="37.933389" lon="-1.098918">
 <ele>444.680000</ele>
<time>2005-05-24T11:44:18Z</time>
</trkpt>
<trkpt lat="37.933403" lon="-1.098923">
 <ele>444.160000</ele>
<time>2005-05-24T11:44:19Z</time>
</trkpt>
<trkpt lat="37.933402" lon="-1.098905">
 <ele>445.420000</ele>
<time>2005-05-24T11:44:20Z</time>
</trkpt>
<trkpt lat="37.933405" lon="-1.098820">
 <ele>444.960000</ele>
<time>2005-05-24T11:44:24Z</time>
</trkpt>
<trkpt lat="37.933410" lon="-1.098817">
 <ele>445.880000</ele>
<time>2005-05-24T11:44:25Z</time>
</trkpt>
<trkpt lat="37.933413" lon="-1.098770">
 <ele>445.660000</ele>
<time>2005-05-24T11:44:27Z</time>
</trkpt>
<trkpt lat="37.933338" lon="-1.098631">
 <ele>450.320000</ele>
<time>2005-05-24T11:44:37Z</time>
</trkpt>
<trkpt lat="37.933322" lon="-1.098585">
 <ele>452.500000</ele>
<time>2005-05-24T11:44:40Z</time>
</trkpt>
<trkpt lat="37.933337" lon="-1.098581">
 <ele>454.580000</ele>
<time>2005-05-24T11:44:42Z</time>
</trkpt>
<trkpt lat="37.933323" lon="-1.098589">
 <ele>455.260000</ele>
<time>2005-05-24T11:44:43Z</time>
</trkpt>
<trkpt lat="37.933347" lon="-1.098597">
 <ele>456.600000</ele>
<time>2005-05-24T11:44:44Z</time>
</trkpt>
<trkpt lat="37.933353" lon="-1.098577">
 <ele>457.860000</ele>
<time>2005-05-24T11:44:45Z</time>
</trkpt>
<trkpt lat="37.933331" lon="-1.098516">
 <ele>461.980000</ele>
<time>2005-05-24T11:44:49Z</time>
</trkpt>
<trkpt lat="37.933328" lon="-1.098498">
 <ele>459.280000</ele>
<time>2005-05-24T11:44:50Z</time>
</trkpt>
<trkpt lat="37.933334" lon="-1.098496">
 <ele>461.620000</ele>
<time>2005-05-24T11:44:52Z</time>
</trkpt>
<trkpt lat="37.933333" lon="-1.098477">
 <ele>460.500000</ele>
<time>2005-05-24T11:44:54Z</time>
</trkpt>
<trkpt lat="37.933342" lon="-1.098419">
 <ele>459.980000</ele>
<time>2005-05-24T11:44:56Z</time>
</trkpt>
<trkpt lat="37.933350" lon="-1.098429">
 <ele>460.420000</ele>
<time>2005-05-24T11:44:57Z</time>
</trkpt>
<trkpt lat="37.933361" lon="-1.098404">
 <ele>462.540000</ele>
<time>2005-05-24T11:44:58Z</time>
</trkpt>
<trkpt lat="37.933392" lon="-1.098237">
 <ele>462.420000</ele>
<time>2005-05-24T11:45:08Z</time>
</trkpt>
<trkpt lat="37.933413" lon="-1.098254">
 <ele>462.260000</ele>
<time>2005-05-24T11:45:10Z</time>
</trkpt>
<trkpt lat="37.933398" lon="-1.098251">
 <ele>462.700000</ele>
<time>2005-05-24T11:45:11Z</time>
</trkpt>
<trkpt lat="37.933419" lon="-1.098225">
 <ele>460.440000</ele>
<time>2005-05-24T11:45:12Z</time>
</trkpt>
<trkpt lat="37.933455" lon="-1.098174">
 <ele>461.140000</ele>
<time>2005-05-24T11:45:18Z</time>
</trkpt>
<trkpt lat="37.933473" lon="-1.098169">
 <ele>459.400000</ele>
<time>2005-05-24T11:45:19Z</time>
</trkpt>
<trkpt lat="37.934043" lon="-1.098029">
 <ele>439.920000</ele>
<time>2005-05-24T11:45:57Z</time>
</trkpt>
<trkpt lat="37.934042" lon="-1.098025">
 <ele>439.000000</ele>
<time>2005-05-24T11:45:58Z</time>
</trkpt>
<trkpt lat="37.934070" lon="-1.098027">
 <ele>440.700000</ele>
<time>2005-05-24T11:45:59Z</time>
</trkpt>
<trkpt lat="37.934123" lon="-1.098022">
 <ele>438.560000</ele>
<time>2005-05-24T11:46:02Z</time>
</trkpt>
<trkpt lat="37.934147" lon="-1.098026">
 <ele>438.320000</ele>
<time>2005-05-24T11:46:03Z</time>
</trkpt>
<trkpt lat="37.934240" lon="-1.098035">
 <ele>435.980000</ele>
<time>2005-05-24T11:46:11Z</time>
</trkpt>
<trkpt lat="37.934250" lon="-1.098034">
 <ele>434.380000</ele>
<time>2005-05-24T11:46:12Z</time>
</trkpt>
<trkpt lat="37.934248" lon="-1.098029">
 <ele>434.960000</ele>
<time>2005-05-24T11:46:13Z</time>
</trkpt>
<trkpt lat="37.934251" lon="-1.098031">
 <ele>435.080000</ele>
<time>2005-05-24T11:46:14Z</time>
</trkpt>
<trkpt lat="37.934306" lon="-1.098020">
 <ele>434.680000</ele>
<time>2005-05-24T11:46:18Z</time>
</trkpt>
<trkpt lat="37.934293" lon="-1.098014">
 <ele>436.100000</ele>
<time>2005-05-24T11:46:19Z</time>
</trkpt>
<trkpt lat="37.934293" lon="-1.098016">
 <ele>434.940000</ele>
<time>2005-05-24T11:46:20Z</time>
</trkpt>
<trkpt lat="37.934299" lon="-1.098028">
 <ele>435.460000</ele>
<time>2005-05-24T11:46:21Z</time>
</trkpt>
<trkpt lat="37.934300" lon="-1.098018">
 <ele>435.140000</ele>
<time>2005-05-24T11:46:22Z</time>
</trkpt>
<trkpt lat="37.934300" lon="-1.098018">
 <ele>435.300000</ele>
<time>2005-05-24T11:46:23Z</time>
</trkpt>
<trkpt lat="37.934308" lon="-1.098017">
 <ele>437.700000</ele>
<time>2005-05-24T11:46:25Z</time>
</trkpt>
<trkpt lat="37.934360" lon="-1.098013">
 <ele>445.740000</ele>
<time>2005-05-24T11:46:27Z</time>
</trkpt>
<trkpt lat="37.934569" lon="-1.098035">
 <ele>442.720000</ele>
<time>2005-05-24T11:46:35Z</time>
</trkpt>
<trkpt lat="37.934591" lon="-1.098019">
 <ele>443.180000</ele>
<time>2005-05-24T11:46:38Z</time>
</trkpt>
<trkpt lat="37.934610" lon="-1.098030">
 <ele>444.140000</ele>
<time>2005-05-24T11:46:39Z</time>
</trkpt>
<trkpt lat="37.934618" lon="-1.098061">
 <ele>443.500000</ele>
<time>2005-05-24T11:46:41Z</time>
</trkpt>
<trkpt lat="37.934639" lon="-1.098064">
 <ele>442.540000</ele>
<time>2005-05-24T11:46:42Z</time>
</trkpt>
<trkpt lat="37.934951" lon="-1.098129">
 <ele>440.080000</ele>
<time>2005-05-24T11:47:02Z</time>
</trkpt>
<trkpt lat="37.934959" lon="-1.098129">
 <ele>441.220000</ele>
<time>2005-05-24T11:47:03Z</time>
</trkpt>
<trkpt lat="37.935041" lon="-1.098157">
 <ele>440.040000</ele>
<time>2005-05-24T11:47:12Z</time>
</trkpt>
<trkpt lat="37.935060" lon="-1.098165">
 <ele>440.380000</ele>
<time>2005-05-24T11:47:13Z</time>
</trkpt>
<trkpt lat="37.935151" lon="-1.098182">
 <ele>438.480000</ele>
<time>2005-05-24T11:47:21Z</time>
</trkpt>
<trkpt lat="37.935167" lon="-1.098177">
 <ele>438.900000</ele>
<time>2005-05-24T11:47:22Z</time>
</trkpt>
<trkpt lat="37.935198" lon="-1.098212">
 <ele>439.680000</ele>
<time>2005-05-24T11:47:24Z</time>
</trkpt>
<trkpt lat="37.935198" lon="-1.098210">
 <ele>439.160000</ele>
<time>2005-05-24T11:47:25Z</time>
</trkpt>
<trkpt lat="37.935254" lon="-1.098190">
 <ele>438.880000</ele>
<time>2005-05-24T11:47:29Z</time>
</trkpt>
<trkpt lat="37.935255" lon="-1.098209">
 <ele>438.380000</ele>
<time>2005-05-24T11:47:30Z</time>
</trkpt>
<trkpt lat="37.935295" lon="-1.098208">
 <ele>438.300000</ele>
<time>2005-05-24T11:47:32Z</time>
</trkpt>
<trkpt lat="37.935329" lon="-1.098243">
 <ele>440.960000</ele>
<time>2005-05-24T11:47:35Z</time>
</trkpt>
<trkpt lat="37.935378" lon="-1.098265">
 <ele>441.180000</ele>
<time>2005-05-24T11:47:40Z</time>
</trkpt>
<trkpt lat="37.935401" lon="-1.098269">
 <ele>439.740000</ele>
<time>2005-05-24T11:47:41Z</time>
</trkpt>
<trkpt lat="37.935402" lon="-1.098289">
 <ele>440.560000</ele>
<time>2005-05-24T11:47:44Z</time>
</trkpt>
<trkpt lat="37.935414" lon="-1.098312">
 <ele>440.000000</ele>
<time>2005-05-24T11:47:46Z</time>
</trkpt>
<trkpt lat="37.935471" lon="-1.098302">
 <ele>442.860000</ele>
<time>2005-05-24T11:47:49Z</time>
</trkpt>
<trkpt lat="37.935525" lon="-1.098315">
 <ele>442.140000</ele>
<time>2005-05-24T11:47:53Z</time>
</trkpt>
<trkpt lat="37.935579" lon="-1.098334">
 <ele>441.540000</ele>
<time>2005-05-24T11:47:56Z</time>
</trkpt>
<trkpt lat="37.935660" lon="-1.098312">
 <ele>441.980000</ele>
<time>2005-05-24T11:48:02Z</time>
</trkpt>
<trkpt lat="37.935668" lon="-1.098316">
 <ele>441.180000</ele>
<time>2005-05-24T11:48:03Z</time>
</trkpt>
<trkpt lat="37.935727" lon="-1.098287">
 <ele>443.560000</ele>
<time>2005-05-24T11:48:06Z</time>
</trkpt>
<trkpt lat="37.935788" lon="-1.098283">
 <ele>444.800000</ele>
<time>2005-05-24T11:48:09Z</time>
</trkpt>
<trkpt lat="37.935783" lon="-1.098272">
 <ele>444.840000</ele>
<time>2005-05-24T11:48:10Z</time>
</trkpt>
<trkpt lat="37.935813" lon="-1.098236">
 <ele>443.120000</ele>
<time>2005-05-24T11:48:14Z</time>
</trkpt>
<trkpt lat="37.935821" lon="-1.098200">
 <ele>441.980000</ele>
<time>2005-05-24T11:48:19Z</time>
</trkpt>
<trkpt lat="37.935787" lon="-1.098151">
 <ele>443.140000</ele>
<time>2005-05-24T11:48:23Z</time>
</trkpt>
<trkpt lat="37.935746" lon="-1.097851">
 <ele>447.780000</ele>
<time>2005-05-24T11:48:44Z</time>
</trkpt>
<trkpt lat="37.935729" lon="-1.097800">
 <ele>447.160000</ele>
<time>2005-05-24T11:48:48Z</time>
</trkpt>
<trkpt lat="37.935733" lon="-1.097740">
 <ele>446.500000</ele>
<time>2005-05-24T11:48:51Z</time>
</trkpt>
<trkpt lat="37.935700" lon="-1.097653">
 <ele>451.920000</ele>
<time>2005-05-24T11:48:57Z</time>
</trkpt>
<trkpt lat="37.935698" lon="-1.097656">
 <ele>451.900000</ele>
<time>2005-05-24T11:48:58Z</time>
</trkpt>
<trkpt lat="37.935713" lon="-1.097619">
 <ele>454.660000</ele>
<time>2005-05-24T11:48:59Z</time>
</trkpt>
<trkpt lat="37.935732" lon="-1.097464">
 <ele>458.120000</ele>
<time>2005-05-24T11:49:10Z</time>
</trkpt>
<trkpt lat="37.935741" lon="-1.097197">
 <ele>454.620000</ele>
<time>2005-05-24T11:49:27Z</time>
</trkpt>
<trkpt lat="37.935780" lon="-1.097117">
 <ele>458.360000</ele>
<time>2005-05-24T11:49:33Z</time>
</trkpt>
<trkpt lat="37.935779" lon="-1.097081">
 <ele>461.420000</ele>
<time>2005-05-24T11:49:36Z</time>
</trkpt>
<trkpt lat="37.935842" lon="-1.096994">
 <ele>465.840000</ele>
<time>2005-05-24T11:49:41Z</time>
</trkpt>
<trkpt lat="37.935930" lon="-1.096902">
 <ele>469.300000</ele>
<time>2005-05-24T11:49:49Z</time>
</trkpt>
<trkpt lat="37.936055" lon="-1.096860">
 <ele>469.820000</ele>
<time>2005-05-24T11:49:54Z</time>
</trkpt>
<trkpt lat="37.936114" lon="-1.096891">
 <ele>470.360000</ele>
<time>2005-05-24T11:49:57Z</time>
</trkpt>
<trkpt lat="37.936154" lon="-1.096866">
 <ele>466.400000</ele>
<time>2005-05-24T11:49:58Z</time>
</trkpt>
<trkpt lat="37.936216" lon="-1.096872">
 <ele>467.560000</ele>
<time>2005-05-24T11:50:00Z</time>
</trkpt>
<trkpt lat="37.936339" lon="-1.096855">
 <ele>463.980000</ele>
<time>2005-05-24T11:50:08Z</time>
</trkpt>
<trkpt lat="37.936422" lon="-1.096739">
 <ele>453.000000</ele>
<time>2005-05-24T11:50:20Z</time>
</trkpt>
<trkpt lat="37.936445" lon="-1.096718">
 <ele>453.340000</ele>
<time>2005-05-24T11:50:21Z</time>
</trkpt>
<trkpt lat="37.936647" lon="-1.096596">
 <ele>447.740000</ele>
<time>2005-05-24T11:50:36Z</time>
</trkpt>
<trkpt lat="37.936678" lon="-1.096586">
 <ele>445.600000</ele>
<time>2005-05-24T11:50:38Z</time>
</trkpt>
<trkpt lat="37.936723" lon="-1.096528">
 <ele>446.320000</ele>
<time>2005-05-24T11:50:42Z</time>
</trkpt>
<trkpt lat="37.936730" lon="-1.096498">
 <ele>447.120000</ele>
<time>2005-05-24T11:50:44Z</time>
</trkpt>
<trkpt lat="37.936769" lon="-1.096440">
 <ele>447.180000</ele>
<time>2005-05-24T11:50:47Z</time>
</trkpt>
<trkpt lat="37.936822" lon="-1.096327">
 <ele>454.740000</ele>
<time>2005-05-24T11:50:56Z</time>
</trkpt>
<trkpt lat="37.936855" lon="-1.096288">
 <ele>458.800000</ele>
<time>2005-05-24T11:51:02Z</time>
</trkpt>
<trkpt lat="37.936941" lon="-1.096282">
 <ele>459.660000</ele>
<time>2005-05-24T11:51:06Z</time>
</trkpt>
<trkpt lat="37.936963" lon="-1.096285">
 <ele>459.540000</ele>
<time>2005-05-24T11:51:09Z</time>
</trkpt>
<trkpt lat="37.936981" lon="-1.096295">
 <ele>459.740000</ele>
<time>2005-05-24T11:51:10Z</time>
</trkpt>
<trkpt lat="37.937104" lon="-1.096305">
 <ele>455.460000</ele>
<time>2005-05-24T11:51:17Z</time>
</trkpt>
<trkpt lat="37.937173" lon="-1.096308">
 <ele>451.380000</ele>
<time>2005-05-24T11:51:22Z</time>
</trkpt>
<trkpt lat="37.937215" lon="-1.096284">
 <ele>450.060000</ele>
<time>2005-05-24T11:51:24Z</time>
</trkpt>
<trkpt lat="37.937301" lon="-1.096282">
 <ele>444.820000</ele>
<time>2005-05-24T11:51:29Z</time>
</trkpt>
<trkpt lat="37.937330" lon="-1.096289">
 <ele>442.440000</ele>
<time>2005-05-24T11:51:32Z</time>
</trkpt>
<trkpt lat="37.937352" lon="-1.096292">
 <ele>442.740000</ele>
<time>2005-05-24T11:51:33Z</time>
</trkpt>
<trkpt lat="37.937374" lon="-1.096283">
 <ele>439.660000</ele>
<time>2005-05-24T11:51:36Z</time>
</trkpt>
<trkpt lat="37.937385" lon="-1.096283">
 <ele>437.960000</ele>
<time>2005-05-24T11:51:37Z</time>
</trkpt>
<trkpt lat="37.937456" lon="-1.096240">
 <ele>438.300000</ele>
<time>2005-05-24T11:51:44Z</time>
</trkpt>
<trkpt lat="37.937489" lon="-1.096123">
 <ele>438.200000</ele>
<time>2005-05-24T11:51:53Z</time>
</trkpt>
<trkpt lat="37.937494" lon="-1.096130">
 <ele>438.200000</ele>
<time>2005-05-24T11:51:54Z</time>
</trkpt>
<trkpt lat="37.937514" lon="-1.096104">
 <ele>439.960000</ele>
<time>2005-05-24T11:51:55Z</time>
</trkpt>
<trkpt lat="37.937513" lon="-1.096104">
 <ele>436.760000</ele>
<time>2005-05-24T11:51:56Z</time>
</trkpt>
<trkpt lat="37.937521" lon="-1.096093">
 <ele>438.220000</ele>
<time>2005-05-24T11:51:57Z</time>
</trkpt>
<trkpt lat="37.937675" lon="-1.095965">
 <ele>441.980000</ele>
<time>2005-05-24T11:52:10Z</time>
</trkpt>
<trkpt lat="37.937667" lon="-1.095920">
 <ele>442.620000</ele>
<time>2005-05-24T11:52:12Z</time>
</trkpt>
<trkpt lat="37.937673" lon="-1.095904">
 <ele>443.860000</ele>
<time>2005-05-24T11:52:14Z</time>
</trkpt>
<trkpt lat="37.937696" lon="-1.095897">
 <ele>443.940000</ele>
<time>2005-05-24T11:52:16Z</time>
</trkpt>
<trkpt lat="37.937733" lon="-1.095860">
 <ele>445.340000</ele>
<time>2005-05-24T11:52:18Z</time>
</trkpt>
<trkpt lat="37.937883" lon="-1.095760">
 <ele>448.220000</ele>
<time>2005-05-24T11:52:32Z</time>
</trkpt>
<trkpt lat="37.937889" lon="-1.095743">
 <ele>448.020000</ele>
<time>2005-05-24T11:52:33Z</time>
</trkpt>
<trkpt lat="37.937948" lon="-1.095692">
 <ele>447.540000</ele>
<time>2005-05-24T11:52:38Z</time>
</trkpt>
<trkpt lat="37.938110" lon="-1.095511">
 <ele>449.500000</ele>
<time>2005-05-24T11:52:57Z</time>
</trkpt>
<trkpt lat="37.938117" lon="-1.095507">
 <ele>449.600000</ele>
<time>2005-05-24T11:52:58Z</time>
</trkpt>
<trkpt lat="37.938212" lon="-1.095403">
 <ele>448.260000</ele>
<time>2005-05-24T11:53:06Z</time>
</trkpt>
<trkpt lat="37.938239" lon="-1.095328">
 <ele>448.300000</ele>
<time>2005-05-24T11:53:12Z</time>
</trkpt>
<trkpt lat="37.938278" lon="-1.095313">
 <ele>449.740000</ele>
<time>2005-05-24T11:53:13Z</time>
</trkpt>
<trkpt lat="37.938310" lon="-1.095260">
 <ele>448.020000</ele>
<time>2005-05-24T11:53:16Z</time>
</trkpt>
<trkpt lat="37.938310" lon="-1.095260">
 <ele>449.140000</ele>
<time>2005-05-24T11:53:17Z</time>
</trkpt>
<trkpt lat="37.938328" lon="-1.095264">
 <ele>446.760000</ele>
<time>2005-05-24T11:53:18Z</time>
</trkpt>
<trkpt lat="37.938333" lon="-1.095252">
 <ele>447.100000</ele>
<time>2005-05-24T11:53:20Z</time>
</trkpt>
<trkpt lat="37.938366" lon="-1.095211">
 <ele>447.100000</ele>
<time>2005-05-24T11:53:23Z</time>
</trkpt>
<trkpt lat="37.938371" lon="-1.095203">
 <ele>447.160000</ele>
<time>2005-05-24T11:53:24Z</time>
</trkpt>
<trkpt lat="37.938452" lon="-1.095039">
 <ele>448.180000</ele>
<time>2005-05-24T11:53:36Z</time>
</trkpt>
<trkpt lat="37.938458" lon="-1.095021">
 <ele>448.800000</ele>
<time>2005-05-24T11:53:37Z</time>
</trkpt>
<trkpt lat="37.938469" lon="-1.094954">
 <ele>452.720000</ele>
<time>2005-05-24T11:53:43Z</time>
</trkpt>
<trkpt lat="37.938485" lon="-1.094935">
 <ele>453.200000</ele>
<time>2005-05-24T11:53:45Z</time>
</trkpt>
<trkpt lat="37.938489" lon="-1.094891">
 <ele>454.020000</ele>
<time>2005-05-24T11:53:49Z</time>
</trkpt>
<trkpt lat="37.938488" lon="-1.094879">
 <ele>454.280000</ele>
<time>2005-05-24T11:53:50Z</time>
</trkpt>
<trkpt lat="37.938530" lon="-1.094811">
 <ele>455.320000</ele>
<time>2005-05-24T11:53:54Z</time>
</trkpt>
<trkpt lat="37.938547" lon="-1.094767">
 <ele>454.520000</ele>
<time>2005-05-24T11:53:57Z</time>
</trkpt>
<trkpt lat="37.938640" lon="-1.094694">
 <ele>461.240000</ele>
<time>2005-05-24T11:54:04Z</time>
</trkpt>
<trkpt lat="37.938685" lon="-1.094638">
 <ele>461.360000</ele>
<time>2005-05-24T11:54:07Z</time>
</trkpt>
<trkpt lat="37.938684" lon="-1.094601">
 <ele>460.560000</ele>
<time>2005-05-24T11:54:10Z</time>
</trkpt>
<trkpt lat="37.938691" lon="-1.094586">
 <ele>458.920000</ele>
<time>2005-05-24T11:54:11Z</time>
</trkpt>
<trkpt lat="37.938835" lon="-1.094399">
 <ele>457.740000</ele>
<time>2005-05-24T11:54:23Z</time>
</trkpt>
<trkpt lat="37.938877" lon="-1.094348">
 <ele>455.840000</ele>
<time>2005-05-24T11:54:26Z</time>
</trkpt>
<trkpt lat="37.938939" lon="-1.094309">
 <ele>455.120000</ele>
<time>2005-05-24T11:54:29Z</time>
</trkpt>
<trkpt lat="37.938978" lon="-1.094284">
 <ele>454.600000</ele>
<time>2005-05-24T11:54:34Z</time>
</trkpt>
<trkpt lat="37.938985" lon="-1.094262">
 <ele>452.840000</ele>
<time>2005-05-24T11:54:35Z</time>
</trkpt>
<trkpt lat="37.939020" lon="-1.094227">
 <ele>451.580000</ele>
<time>2005-05-24T11:54:38Z</time>
</trkpt>
<trkpt lat="37.939006" lon="-1.094230">
 <ele>452.220000</ele>
<time>2005-05-24T11:54:39Z</time>
</trkpt>
<trkpt lat="37.939021" lon="-1.094219">
 <ele>452.620000</ele>
<time>2005-05-24T11:54:40Z</time>
</trkpt>
<trkpt lat="37.939059" lon="-1.094168">
 <ele>454.300000</ele>
<time>2005-05-24T11:54:46Z</time>
</trkpt>
<trkpt lat="37.939073" lon="-1.094143">
 <ele>454.540000</ele>
<time>2005-05-24T11:54:47Z</time>
</trkpt>
<trkpt lat="37.939162" lon="-1.094052">
 <ele>460.640000</ele>
<time>2005-05-24T11:54:55Z</time>
</trkpt>
<trkpt lat="37.939299" lon="-1.093984">
 <ele>461.400000</ele>
<time>2005-05-24T11:55:06Z</time>
</trkpt>
<trkpt lat="37.939300" lon="-1.093983">
 <ele>459.820000</ele>
<time>2005-05-24T11:55:07Z</time>
</trkpt>
<trkpt lat="37.939398" lon="-1.093960">
 <ele>457.820000</ele>
<time>2005-05-24T11:55:12Z</time>
</trkpt>
<trkpt lat="37.939425" lon="-1.093954">
 <ele>457.600000</ele>
<time>2005-05-24T11:55:13Z</time>
</trkpt>
<trkpt lat="37.939470" lon="-1.093931">
 <ele>453.840000</ele>
<time>2005-05-24T11:55:17Z</time>
</trkpt>
<trkpt lat="37.939474" lon="-1.093939">
 <ele>453.740000</ele>
<time>2005-05-24T11:55:18Z</time>
</trkpt>
<trkpt lat="37.939477" lon="-1.093935">
 <ele>451.440000</ele>
<time>2005-05-24T11:55:20Z</time>
</trkpt>
<trkpt lat="37.939529" lon="-1.093922">
 <ele>449.460000</ele>
<time>2005-05-24T11:55:22Z</time>
</trkpt>
<trkpt lat="37.939643" lon="-1.093886">
 <ele>442.460000</ele>
<time>2005-05-24T11:55:29Z</time>
</trkpt>
<trkpt lat="37.939769" lon="-1.093824">
 <ele>437.120000</ele>
<time>2005-05-24T11:55:40Z</time>
</trkpt>
<trkpt lat="37.939795" lon="-1.093817">
 <ele>435.180000</ele>
<time>2005-05-24T11:55:44Z</time>
</trkpt>
<trkpt lat="37.939886" lon="-1.093825">
 <ele>435.340000</ele>
<time>2005-05-24T11:55:48Z</time>
</trkpt>
<trkpt lat="37.939878" lon="-1.093835">
 <ele>435.600000</ele>
<time>2005-05-24T11:55:49Z</time>
</trkpt>
<trkpt lat="37.939905" lon="-1.093829">
 <ele>435.900000</ele>
<time>2005-05-24T11:55:50Z</time>
</trkpt>
<trkpt lat="37.939949" lon="-1.093859">
 <ele>436.180000</ele>
<time>2005-05-24T11:55:52Z</time>
</trkpt>
<trkpt lat="37.940035" lon="-1.093868">
 <ele>437.880000</ele>
<time>2005-05-24T11:55:57Z</time>
</trkpt>
<trkpt lat="37.940029" lon="-1.093859">
 <ele>438.540000</ele>
<time>2005-05-24T11:55:59Z</time>
</trkpt>
<trkpt lat="37.940047" lon="-1.093857">
 <ele>437.300000</ele>
<time>2005-05-24T11:56:00Z</time>
</trkpt>
<trkpt lat="37.940116" lon="-1.093816">
 <ele>433.440000</ele>
<time>2005-05-24T11:56:08Z</time>
</trkpt>
<trkpt lat="37.940119" lon="-1.093797">
 <ele>434.220000</ele>
<time>2005-05-24T11:56:10Z</time>
</trkpt>
<trkpt lat="37.940151" lon="-1.093710">
 <ele>438.480000</ele>
<time>2005-05-24T11:56:17Z</time>
</trkpt>
<trkpt lat="37.940163" lon="-1.093696">
 <ele>439.440000</ele>
<time>2005-05-24T11:56:18Z</time>
</trkpt>
<trkpt lat="37.940210" lon="-1.093593">
 <ele>445.660000</ele>
<time>2005-05-24T11:56:26Z</time>
</trkpt>
<trkpt lat="37.940241" lon="-1.093583">
 <ele>448.280000</ele>
<time>2005-05-24T11:56:28Z</time>
</trkpt>
<trkpt lat="37.940260" lon="-1.093537">
 <ele>447.260000</ele>
<time>2005-05-24T11:56:31Z</time>
</trkpt>
<trkpt lat="37.940271" lon="-1.093503">
 <ele>446.680000</ele>
<time>2005-05-24T11:56:33Z</time>
</trkpt>
<trkpt lat="37.940337" lon="-1.093436">
 <ele>446.080000</ele>
<time>2005-05-24T11:56:39Z</time>
</trkpt>
<trkpt lat="37.940366" lon="-1.093419">
 <ele>445.640000</ele>
<time>2005-05-24T11:56:41Z</time>
</trkpt>
<trkpt lat="37.940403" lon="-1.093382">
 <ele>445.840000</ele>
<time>2005-05-24T11:56:44Z</time>
</trkpt>
<trkpt lat="37.940389" lon="-1.093369">
 <ele>447.260000</ele>
<time>2005-05-24T11:56:45Z</time>
</trkpt>
<trkpt lat="37.940399" lon="-1.093361">
 <ele>448.460000</ele>
<time>2005-05-24T11:56:46Z</time>
</trkpt>
<trkpt lat="37.940393" lon="-1.093356">
 <ele>447.000000</ele>
<time>2005-05-24T11:56:47Z</time>
</trkpt>
<trkpt lat="37.940407" lon="-1.093326">
 <ele>447.480000</ele>
<time>2005-05-24T11:56:49Z</time>
</trkpt>
<trkpt lat="37.940573" lon="-1.093122">
 <ele>451.640000</ele>
<time>2005-05-24T11:57:07Z</time>
</trkpt>
<trkpt lat="37.940571" lon="-1.093104">
 <ele>451.720000</ele>
<time>2005-05-24T11:57:08Z</time>
</trkpt>
<trkpt lat="37.940533" lon="-1.092883">
 <ele>451.900000</ele>
<time>2005-05-24T11:57:25Z</time>
</trkpt>
<trkpt lat="37.940532" lon="-1.092880">
 <ele>450.980000</ele>
<time>2005-05-24T11:57:26Z</time>
</trkpt>
<trkpt lat="37.940507" lon="-1.092836">
 <ele>454.040000</ele>
<time>2005-05-24T11:57:29Z</time>
</trkpt>
<trkpt lat="37.940504" lon="-1.092822">
 <ele>453.800000</ele>
<time>2005-05-24T11:57:30Z</time>
</trkpt>
<trkpt lat="37.940516" lon="-1.092769">
 <ele>456.280000</ele>
<time>2005-05-24T11:57:34Z</time>
</trkpt>
<trkpt lat="37.940508" lon="-1.092754">
 <ele>457.000000</ele>
<time>2005-05-24T11:57:35Z</time>
</trkpt>
<trkpt lat="37.940527" lon="-1.092753">
 <ele>456.860000</ele>
<time>2005-05-24T11:57:36Z</time>
</trkpt>
<trkpt lat="37.940592" lon="-1.092706">
 <ele>456.040000</ele>
<time>2005-05-24T11:57:40Z</time>
</trkpt>
<trkpt lat="37.940575" lon="-1.092668">
 <ele>456.880000</ele>
<time>2005-05-24T11:57:42Z</time>
</trkpt>
<trkpt lat="37.940567" lon="-1.092649">
 <ele>459.160000</ele>
<time>2005-05-24T11:57:45Z</time>
</trkpt>
<trkpt lat="37.940564" lon="-1.092633">
 <ele>459.960000</ele>
<time>2005-05-24T11:57:46Z</time>
</trkpt>
<trkpt lat="37.940603" lon="-1.092582">
 <ele>460.520000</ele>
<time>2005-05-24T11:57:48Z</time>
</trkpt>
<trkpt lat="37.940669" lon="-1.092431">
 <ele>453.000000</ele>
<time>2005-05-24T11:57:55Z</time>
</trkpt>
<trkpt lat="37.940626" lon="-1.092342">
 <ele>456.760000</ele>
<time>2005-05-24T11:58:01Z</time>
</trkpt>
<trkpt lat="37.940630" lon="-1.092329">
 <ele>457.000000</ele>
<time>2005-05-24T11:58:02Z</time>
</trkpt>
<trkpt lat="37.940619" lon="-1.092174">
 <ele>461.360000</ele>
<time>2005-05-24T11:58:15Z</time>
</trkpt>
<trkpt lat="37.940627" lon="-1.092149">
 <ele>462.280000</ele>
<time>2005-05-24T11:58:17Z</time>
</trkpt>
<trkpt lat="37.940682" lon="-1.092102">
 <ele>459.120000</ele>
<time>2005-05-24T11:58:20Z</time>
</trkpt>
<trkpt lat="37.940686" lon="-1.092100">
 <ele>458.160000</ele>
<time>2005-05-24T11:58:21Z</time>
</trkpt>
<trkpt lat="37.940694" lon="-1.092090">
 <ele>458.400000</ele>
<time>2005-05-24T11:58:22Z</time>
</trkpt>
<trkpt lat="37.940823" lon="-1.091924">
 <ele>457.440000</ele>
<time>2005-05-24T11:58:31Z</time>
</trkpt>
<trkpt lat="37.940825" lon="-1.091912">
 <ele>456.580000</ele>
<time>2005-05-24T11:58:32Z</time>
</trkpt>
<trkpt lat="37.940873" lon="-1.091872">
 <ele>459.860000</ele>
<time>2005-05-24T11:58:35Z</time>
</trkpt>
<trkpt lat="37.940896" lon="-1.091858">
 <ele>460.280000</ele>
<time>2005-05-24T11:58:38Z</time>
</trkpt>
<trkpt lat="37.940925" lon="-1.091829">
 <ele>459.820000</ele>
<time>2005-05-24T11:58:40Z</time>
</trkpt>
<trkpt lat="37.941240" lon="-1.091667">
 <ele>458.540000</ele>
<time>2005-05-24T11:59:04Z</time>
</trkpt>
<trkpt lat="37.941240" lon="-1.091640">
 <ele>459.800000</ele>
<time>2005-05-24T11:59:08Z</time>
</trkpt>
<trkpt lat="37.941263" lon="-1.091624">
 <ele>458.260000</ele>
<time>2005-05-24T11:59:09Z</time>
</trkpt>
<trkpt lat="37.941326" lon="-1.091576">
 <ele>454.940000</ele>
<time>2005-05-24T11:59:16Z</time>
</trkpt>
<trkpt lat="37.941352" lon="-1.091563">
 <ele>455.160000</ele>
<time>2005-05-24T11:59:17Z</time>
</trkpt>
<trkpt lat="37.941367" lon="-1.091502">
 <ele>455.620000</ele>
<time>2005-05-24T11:59:20Z</time>
</trkpt>
<trkpt lat="37.941404" lon="-1.091487">
 <ele>456.300000</ele>
<time>2005-05-24T11:59:22Z</time>
</trkpt>
<trkpt lat="37.941501" lon="-1.091421">
 <ele>453.440000</ele>
<time>2005-05-24T11:59:28Z</time>
</trkpt>
<trkpt lat="37.941580" lon="-1.091382">
 <ele>451.400000</ele>
<time>2005-05-24T11:59:36Z</time>
</trkpt>
<trkpt lat="37.941664" lon="-1.091320">
 <ele>447.800000</ele>
<time>2005-05-24T11:59:43Z</time>
</trkpt>
<trkpt lat="37.941815" lon="-1.091203">
 <ele>450.620000</ele>
<time>2005-05-24T11:59:57Z</time>
</trkpt>
<trkpt lat="37.941822" lon="-1.091193">
 <ele>450.840000</ele>
<time>2005-05-24T11:59:58Z</time>
</trkpt>
<trkpt lat="37.941824" lon="-1.091198">
 <ele>451.800000</ele>
<time>2005-05-24T11:59:59Z</time>
</trkpt>
<trkpt lat="37.941847" lon="-1.091182">
 <ele>451.660000</ele>
<time>2005-05-24T12:00:00Z</time>
</trkpt>
<trkpt lat="37.941847" lon="-1.091198">
 <ele>453.320000</ele>
<time>2005-05-24T12:00:02Z</time>
</trkpt>
<trkpt lat="37.941862" lon="-1.091182">
 <ele>454.120000</ele>
<time>2005-05-24T12:00:03Z</time>
</trkpt>
<trkpt lat="37.942059" lon="-1.091038">
 <ele>448.640000</ele>
<time>2005-05-24T12:00:19Z</time>
</trkpt>
<trkpt lat="37.942080" lon="-1.091007">
 <ele>452.700000</ele>
<time>2005-05-24T12:00:24Z</time>
</trkpt>
<trkpt lat="37.942101" lon="-1.090994">
 <ele>454.480000</ele>
<time>2005-05-24T12:00:26Z</time>
</trkpt>
<trkpt lat="37.942146" lon="-1.090942">
 <ele>449.520000</ele>
<time>2005-05-24T12:00:33Z</time>
</trkpt>
<trkpt lat="37.942143" lon="-1.090950">
 <ele>449.960000</ele>
<time>2005-05-24T12:00:34Z</time>
</trkpt>
<trkpt lat="37.942155" lon="-1.090937">
 <ele>448.600000</ele>
<time>2005-05-24T12:00:35Z</time>
</trkpt>
<trkpt lat="37.942189" lon="-1.090878">
 <ele>446.020000</ele>
<time>2005-05-24T12:00:39Z</time>
</trkpt>
<trkpt lat="37.942205" lon="-1.090889">
 <ele>445.740000</ele>
<time>2005-05-24T12:00:40Z</time>
</trkpt>
<trkpt lat="37.942216" lon="-1.090887">
 <ele>446.320000</ele>
<time>2005-05-24T12:00:42Z</time>
</trkpt>
<trkpt lat="37.942215" lon="-1.090886">
 <ele>444.900000</ele>
<time>2005-05-24T12:00:43Z</time>
</trkpt>
<trkpt lat="37.942213" lon="-1.090880">
 <ele>445.640000</ele>
<time>2005-05-24T12:00:44Z</time>
</trkpt>
<trkpt lat="37.942221" lon="-1.090882">
 <ele>446.200000</ele>
<time>2005-05-24T12:00:45Z</time>
</trkpt>
<trkpt lat="37.942282" lon="-1.090857">
 <ele>444.180000</ele>
<time>2005-05-24T12:00:48Z</time>
</trkpt>
<trkpt lat="37.942407" lon="-1.090764">
 <ele>437.840000</ele>
<time>2005-05-24T12:01:00Z</time>
</trkpt>
<trkpt lat="37.942416" lon="-1.090780">
 <ele>437.180000</ele>
<time>2005-05-24T12:01:01Z</time>
</trkpt>
<trkpt lat="37.942421" lon="-1.090780">
 <ele>434.680000</ele>
<time>2005-05-24T12:01:03Z</time>
</trkpt>
<trkpt lat="37.942441" lon="-1.090769">
 <ele>435.100000</ele>
<time>2005-05-24T12:01:05Z</time>
</trkpt>
<trkpt lat="37.942458" lon="-1.090768">
 <ele>433.760000</ele>
<time>2005-05-24T12:01:06Z</time>
</trkpt>
<trkpt lat="37.942639" lon="-1.090717">
 <ele>434.500000</ele>
<time>2005-05-24T12:01:17Z</time>
</trkpt>
<trkpt lat="37.942711" lon="-1.090696">
 <ele>438.080000</ele>
<time>2005-05-24T12:01:23Z</time>
</trkpt>
<trkpt lat="37.942760" lon="-1.090673">
 <ele>438.780000</ele>
<time>2005-05-24T12:01:27Z</time>
</trkpt>
<trkpt lat="37.942800" lon="-1.090645">
 <ele>439.960000</ele>
<time>2005-05-24T12:01:32Z</time>
</trkpt>
<trkpt lat="37.942818" lon="-1.090622">
 <ele>439.620000</ele>
<time>2005-05-24T12:01:34Z</time>
</trkpt>
<trkpt lat="37.942908" lon="-1.090459">
 <ele>438.840000</ele>
<time>2005-05-24T12:01:47Z</time>
</trkpt>
<trkpt lat="37.942907" lon="-1.090446">
 <ele>439.040000</ele>
<time>2005-05-24T12:01:48Z</time>
</trkpt>
<trkpt lat="37.942859" lon="-1.090424">
 <ele>438.360000</ele>
<time>2005-05-24T12:01:50Z</time>
</trkpt>
<trkpt lat="37.942872" lon="-1.090392">
 <ele>439.280000</ele>
<time>2005-05-24T12:01:52Z</time>
</trkpt>
<trkpt lat="37.942860" lon="-1.090387">
 <ele>439.020000</ele>
<time>2005-05-24T12:01:53Z</time>
</trkpt>
<trkpt lat="37.942856" lon="-1.090333">
 <ele>441.560000</ele>
<time>2005-05-24T12:01:57Z</time>
</trkpt>
<trkpt lat="37.942831" lon="-1.090315">
 <ele>444.460000</ele>
<time>2005-05-24T12:02:01Z</time>
</trkpt>
<trkpt lat="37.942806" lon="-1.090284">
 <ele>444.380000</ele>
<time>2005-05-24T12:02:03Z</time>
</trkpt>
<trkpt lat="37.942823" lon="-1.090234">
 <ele>444.000000</ele>
<time>2005-05-24T12:02:06Z</time>
</trkpt>
<trkpt lat="37.942807" lon="-1.090226">
 <ele>443.000000</ele>
<time>2005-05-24T12:02:08Z</time>
</trkpt>
<trkpt lat="37.942806" lon="-1.090206">
 <ele>443.100000</ele>
<time>2005-05-24T12:02:09Z</time>
</trkpt>
<trkpt lat="37.942787" lon="-1.090183">
 <ele>441.800000</ele>
<time>2005-05-24T12:02:12Z</time>
</trkpt>
<trkpt lat="37.942786" lon="-1.090174">
 <ele>443.000000</ele>
<time>2005-05-24T12:02:13Z</time>
</trkpt>
<trkpt lat="37.942807" lon="-1.090064">
 <ele>439.920000</ele>
<time>2005-05-24T12:02:21Z</time>
</trkpt>
<trkpt lat="37.942796" lon="-1.090065">
 <ele>443.140000</ele>
<time>2005-05-24T12:02:22Z</time>
</trkpt>
<trkpt lat="37.942793" lon="-1.090073">
 <ele>443.900000</ele>
<time>2005-05-24T12:02:23Z</time>
</trkpt>
<trkpt lat="37.942821" lon="-1.090059">
 <ele>442.280000</ele>
<time>2005-05-24T12:02:24Z</time>
</trkpt>
<trkpt lat="37.942845" lon="-1.090003">
 <ele>445.180000</ele>
<time>2005-05-24T12:02:26Z</time>
</trkpt>
<trkpt lat="37.942852" lon="-1.089964">
 <ele>446.480000</ele>
<time>2005-05-24T12:02:28Z</time>
</trkpt>
<trkpt lat="37.942860" lon="-1.089967">
 <ele>445.000000</ele>
<time>2005-05-24T12:02:29Z</time>
</trkpt>
<trkpt lat="37.942901" lon="-1.089936">
 <ele>445.920000</ele>
<time>2005-05-24T12:02:31Z</time>
</trkpt>
<trkpt lat="37.942973" lon="-1.089908">
 <ele>451.240000</ele>
<time>2005-05-24T12:02:36Z</time>
</trkpt>
<trkpt lat="37.943007" lon="-1.089890">
 <ele>450.800000</ele>
<time>2005-05-24T12:02:38Z</time>
</trkpt>
<trkpt lat="37.943001" lon="-1.089885">
 <ele>450.240000</ele>
<time>2005-05-24T12:02:39Z</time>
</trkpt>
<trkpt lat="37.943000" lon="-1.089829">
 <ele>450.560000</ele>
<time>2005-05-24T12:02:42Z</time>
</trkpt>
<trkpt lat="37.943022" lon="-1.089843">
 <ele>451.260000</ele>
<time>2005-05-24T12:02:43Z</time>
</trkpt>
<trkpt lat="37.943029" lon="-1.089821">
 <ele>450.860000</ele>
<time>2005-05-24T12:02:44Z</time>
</trkpt>
<trkpt lat="37.943048" lon="-1.089812">
 <ele>450.420000</ele>
<time>2005-05-24T12:02:45Z</time>
</trkpt>
<trkpt lat="37.943046" lon="-1.089826">
 <ele>450.560000</ele>
<time>2005-05-24T12:02:46Z</time>
</trkpt>
<trkpt lat="37.943048" lon="-1.089821">
 <ele>450.780000</ele>
<time>2005-05-24T12:02:47Z</time>
</trkpt>
<trkpt lat="37.943044" lon="-1.089818">
 <ele>450.420000</ele>
<time>2005-05-24T12:02:48Z</time>
</trkpt>
<trkpt lat="37.943105" lon="-1.089783">
 <ele>449.960000</ele>
<time>2005-05-24T12:02:52Z</time>
</trkpt>
<trkpt lat="37.943131" lon="-1.089708">
 <ele>451.540000</ele>
<time>2005-05-24T12:02:57Z</time>
</trkpt>
<trkpt lat="37.943148" lon="-1.089713">
 <ele>452.940000</ele>
<time>2005-05-24T12:02:58Z</time>
</trkpt>
<trkpt lat="37.943165" lon="-1.089693">
 <ele>452.040000</ele>
<time>2005-05-24T12:03:01Z</time>
</trkpt>
<trkpt lat="37.943244" lon="-1.089577">
 <ele>453.860000</ele>
<time>2005-05-24T12:03:12Z</time>
</trkpt>
<trkpt lat="37.943273" lon="-1.089535">
 <ele>455.040000</ele>
<time>2005-05-24T12:03:14Z</time>
</trkpt>
<trkpt lat="37.943278" lon="-1.089503">
 <ele>452.700000</ele>
<time>2005-05-24T12:03:17Z</time>
</trkpt>
<trkpt lat="37.943289" lon="-1.089483">
 <ele>452.340000</ele>
<time>2005-05-24T12:03:20Z</time>
</trkpt>
<trkpt lat="37.943286" lon="-1.089473">
 <ele>451.880000</ele>
<time>2005-05-24T12:03:21Z</time>
</trkpt>
<trkpt lat="37.943300" lon="-1.089370">
 <ele>450.800000</ele>
<time>2005-05-24T12:03:31Z</time>
</trkpt>
<trkpt lat="37.943359" lon="-1.089239">
 <ele>451.180000</ele>
<time>2005-05-24T12:03:43Z</time>
</trkpt>
<trkpt lat="37.943326" lon="-1.089171">
 <ele>455.440000</ele>
<time>2005-05-24T12:03:47Z</time>
</trkpt>
<trkpt lat="37.943385" lon="-1.088900">
 <ele>445.960000</ele>
<time>2005-05-24T12:04:00Z</time>
</trkpt>
<trkpt lat="37.943400" lon="-1.088816">
 <ele>445.300000</ele>
<time>2005-05-24T12:04:05Z</time>
</trkpt>
<trkpt lat="37.943463" lon="-1.088758">
 <ele>443.340000</ele>
<time>2005-05-24T12:04:11Z</time>
</trkpt>
<trkpt lat="37.943465" lon="-1.088707">
 <ele>441.620000</ele>
<time>2005-05-24T12:04:13Z</time>
</trkpt>
<trkpt lat="37.943555" lon="-1.088598">
 <ele>439.560000</ele>
<time>2005-05-24T12:04:20Z</time>
</trkpt>
<trkpt lat="37.943583" lon="-1.088540">
 <ele>440.580000</ele>
<time>2005-05-24T12:04:25Z</time>
</trkpt>
<trkpt lat="37.943596" lon="-1.088528">
 <ele>441.520000</ele>
<time>2005-05-24T12:04:26Z</time>
</trkpt>
<trkpt lat="37.943626" lon="-1.088470">
 <ele>441.620000</ele>
<time>2005-05-24T12:04:32Z</time>
</trkpt>
<trkpt lat="37.943646" lon="-1.088457">
 <ele>440.380000</ele>
<time>2005-05-24T12:04:34Z</time>
</trkpt>
<trkpt lat="37.943647" lon="-1.088443">
 <ele>440.640000</ele>
<time>2005-05-24T12:04:35Z</time>
</trkpt>
<trkpt lat="37.943698" lon="-1.088377">
 <ele>441.340000</ele>
<time>2005-05-24T12:04:38Z</time>
</trkpt>
<trkpt lat="37.943767" lon="-1.088304">
 <ele>447.280000</ele>
<time>2005-05-24T12:04:45Z</time>
</trkpt>
<trkpt lat="37.943784" lon="-1.088292">
 <ele>447.820000</ele>
<time>2005-05-24T12:04:46Z</time>
</trkpt>
<trkpt lat="37.943863" lon="-1.088290">
 <ele>448.280000</ele>
<time>2005-05-24T12:04:49Z</time>
</trkpt>
<trkpt lat="37.943868" lon="-1.088271">
 <ele>448.380000</ele>
<time>2005-05-24T12:04:50Z</time>
</trkpt>
<trkpt lat="37.943927" lon="-1.088201">
 <ele>445.880000</ele>
<time>2005-05-24T12:04:55Z</time>
</trkpt>
<trkpt lat="37.944079" lon="-1.088040">
 <ele>442.060000</ele>
<time>2005-05-24T12:05:10Z</time>
</trkpt>
<trkpt lat="37.944092" lon="-1.088042">
 <ele>442.160000</ele>
<time>2005-05-24T12:05:11Z</time>
</trkpt>
<trkpt lat="37.944114" lon="-1.088006">
 <ele>441.420000</ele>
<time>2005-05-24T12:05:13Z</time>
</trkpt>
<trkpt lat="37.944169" lon="-1.088005">
 <ele>443.280000</ele>
<time>2005-05-24T12:05:17Z</time>
</trkpt>
<trkpt lat="37.944233" lon="-1.087934">
 <ele>440.820000</ele>
<time>2005-05-24T12:05:23Z</time>
</trkpt>
<trkpt lat="37.944302" lon="-1.087875">
 <ele>438.600000</ele>
<time>2005-05-24T12:05:31Z</time>
</trkpt>
<trkpt lat="37.944312" lon="-1.087859">
 <ele>437.460000</ele>
<time>2005-05-24T12:05:32Z</time>
</trkpt>
<trkpt lat="37.944335" lon="-1.087852">
 <ele>438.180000</ele>
<time>2005-05-24T12:05:34Z</time>
</trkpt>
<trkpt lat="37.944343" lon="-1.087839">
 <ele>436.220000</ele>
<time>2005-05-24T12:05:35Z</time>
</trkpt>
<trkpt lat="37.944355" lon="-1.087856">
 <ele>435.720000</ele>
<time>2005-05-24T12:05:36Z</time>
</trkpt>
<trkpt lat="37.944398" lon="-1.087841">
 <ele>437.060000</ele>
<time>2005-05-24T12:05:39Z</time>
</trkpt>
<trkpt lat="37.944449" lon="-1.087865">
 <ele>441.400000</ele>
<time>2005-05-24T12:05:43Z</time>
</trkpt>
<trkpt lat="37.944463" lon="-1.087859">
 <ele>443.220000</ele>
<time>2005-05-24T12:05:46Z</time>
</trkpt>
<trkpt lat="37.944470" lon="-1.087867">
 <ele>443.920000</ele>
<time>2005-05-24T12:05:47Z</time>
</trkpt>
<trkpt lat="37.944577" lon="-1.087949">
 <ele>448.380000</ele>
<time>2005-05-24T12:05:58Z</time>
</trkpt>
<trkpt lat="37.944618" lon="-1.087983">
 <ele>448.020000</ele>
<time>2005-05-24T12:05:59Z</time>
</trkpt>
<trkpt lat="37.944704" lon="-1.087988">
 <ele>448.680000</ele>
<time>2005-05-24T12:06:02Z</time>
</trkpt>
<trkpt lat="37.944712" lon="-1.087985">
 <ele>446.300000</ele>
<time>2005-05-24T12:06:04Z</time>
</trkpt>
<trkpt lat="37.944721" lon="-1.087981">
 <ele>442.220000</ele>
<time>2005-05-24T12:06:07Z</time>
</trkpt>
<trkpt lat="37.944728" lon="-1.087961">
 <ele>441.800000</ele>
<time>2005-05-24T12:06:09Z</time>
</trkpt>
<trkpt lat="37.944709" lon="-1.087940">
 <ele>444.320000</ele>
<time>2005-05-24T12:06:12Z</time>
</trkpt>
<trkpt lat="37.944718" lon="-1.087945">
 <ele>444.800000</ele>
<time>2005-05-24T12:06:13Z</time>
</trkpt>
<trkpt lat="37.944739" lon="-1.087907">
 <ele>446.300000</ele>
<time>2005-05-24T12:06:16Z</time>
</trkpt>
<trkpt lat="37.944738" lon="-1.087918">
 <ele>445.640000</ele>
<time>2005-05-24T12:06:17Z</time>
</trkpt>
<trkpt lat="37.944736" lon="-1.087915">
 <ele>445.400000</ele>
<time>2005-05-24T12:06:18Z</time>
</trkpt>
<trkpt lat="37.944755" lon="-1.087912">
 <ele>445.780000</ele>
<time>2005-05-24T12:06:19Z</time>
</trkpt>
<trkpt lat="37.944754" lon="-1.087913">
 <ele>447.280000</ele>
<time>2005-05-24T12:06:20Z</time>
</trkpt>
<trkpt lat="37.944749" lon="-1.087891">
 <ele>445.840000</ele>
<time>2005-05-24T12:06:21Z</time>
</trkpt>
<trkpt lat="37.944777" lon="-1.087844">
 <ele>446.880000</ele>
<time>2005-05-24T12:06:23Z</time>
</trkpt>
<trkpt lat="37.944867" lon="-1.087778">
 <ele>442.100000</ele>
<time>2005-05-24T12:06:31Z</time>
</trkpt>
<trkpt lat="37.944862" lon="-1.087767">
 <ele>443.060000</ele>
<time>2005-05-24T12:06:32Z</time>
</trkpt>
<trkpt lat="37.944870" lon="-1.087727">
 <ele>442.200000</ele>
<time>2005-05-24T12:06:35Z</time>
</trkpt>
<trkpt lat="37.944923" lon="-1.087659">
 <ele>441.760000</ele>
<time>2005-05-24T12:06:41Z</time>
</trkpt>
<trkpt lat="37.944951" lon="-1.087612">
 <ele>441.740000</ele>
<time>2005-05-24T12:06:45Z</time>
</trkpt>
<trkpt lat="37.944973" lon="-1.087538">
 <ele>441.540000</ele>
<time>2005-05-24T12:06:52Z</time>
</trkpt>
<trkpt lat="37.944994" lon="-1.087528">
 <ele>442.080000</ele>
<time>2005-05-24T12:06:53Z</time>
</trkpt>
<trkpt lat="37.944999" lon="-1.087509">
 <ele>441.000000</ele>
<time>2005-05-24T12:06:56Z</time>
</trkpt>
<trkpt lat="37.945026" lon="-1.087468">
 <ele>443.140000</ele>
<time>2005-05-24T12:06:59Z</time>
</trkpt>
<trkpt lat="37.945051" lon="-1.087446">
 <ele>442.680000</ele>
<time>2005-05-24T12:07:02Z</time>
</trkpt>
<trkpt lat="37.945059" lon="-1.087461">
 <ele>444.940000</ele>
<time>2005-05-24T12:07:03Z</time>
</trkpt>
<trkpt lat="37.945068" lon="-1.087453">
 <ele>441.280000</ele>
<time>2005-05-24T12:07:04Z</time>
</trkpt>
<trkpt lat="37.945110" lon="-1.087452">
 <ele>441.240000</ele>
<time>2005-05-24T12:07:07Z</time>
</trkpt>
<trkpt lat="37.945121" lon="-1.087452">
 <ele>441.380000</ele>
<time>2005-05-24T12:07:08Z</time>
</trkpt>
<trkpt lat="37.945244" lon="-1.087424">
 <ele>444.820000</ele>
<time>2005-05-24T12:07:19Z</time>
</trkpt>
<trkpt lat="37.945251" lon="-1.087435">
 <ele>445.460000</ele>
<time>2005-05-24T12:07:20Z</time>
</trkpt>
<trkpt lat="37.945257" lon="-1.087432">
 <ele>445.260000</ele>
<time>2005-05-24T12:07:21Z</time>
</trkpt>
<trkpt lat="37.945251" lon="-1.087432">
 <ele>445.780000</ele>
<time>2005-05-24T12:07:22Z</time>
</trkpt>
<trkpt lat="37.945258" lon="-1.087432">
 <ele>445.460000</ele>
<time>2005-05-24T12:07:23Z</time>
</trkpt>
<trkpt lat="37.945258" lon="-1.087432">
 <ele>445.300000</ele>
<time>2005-05-24T12:07:24Z</time>
</trkpt>
<trkpt lat="37.945253" lon="-1.087428">
 <ele>447.220000</ele>
<time>2005-05-24T12:07:25Z</time>
</trkpt>
<trkpt lat="37.945237" lon="-1.087400">
 <ele>454.060000</ele>
<time>2005-05-24T12:07:29Z</time>
</trkpt>
<trkpt lat="37.945231" lon="-1.087407">
 <ele>451.640000</ele>
<time>2005-05-24T12:07:30Z</time>
</trkpt>
<trkpt lat="37.945230" lon="-1.087402">
 <ele>450.460000</ele>
<time>2005-05-24T12:07:31Z</time>
</trkpt>
<trkpt lat="37.945252" lon="-1.087390">
 <ele>451.740000</ele>
<time>2005-05-24T12:07:32Z</time>
</trkpt>
<trkpt lat="37.945255" lon="-1.087383">
 <ele>452.160000</ele>
<time>2005-05-24T12:07:33Z</time>
</trkpt>
<trkpt lat="37.945245" lon="-1.087394">
 <ele>450.940000</ele>
<time>2005-05-24T12:07:34Z</time>
</trkpt>
<trkpt lat="37.945260" lon="-1.087376">
 <ele>452.340000</ele>
<time>2005-05-24T12:07:35Z</time>
</trkpt>
<trkpt lat="37.945323" lon="-1.087332">
 <ele>451.700000</ele>
<time>2005-05-24T12:07:39Z</time>
</trkpt>
<trkpt lat="37.945325" lon="-1.087329">
 <ele>449.320000</ele>
<time>2005-05-24T12:07:40Z</time>
</trkpt>
<trkpt lat="37.945288" lon="-1.087257">
 <ele>446.540000</ele>
<time>2005-05-24T12:07:45Z</time>
</trkpt>
<trkpt lat="37.945291" lon="-1.087256">
 <ele>446.440000</ele>
<time>2005-05-24T12:07:46Z</time>
</trkpt>
<trkpt lat="37.945268" lon="-1.087248">
 <ele>447.220000</ele>
<time>2005-05-24T12:07:47Z</time>
</trkpt>
<trkpt lat="37.945271" lon="-1.087257">
 <ele>446.120000</ele>
<time>2005-05-24T12:07:48Z</time>
</trkpt>
<trkpt lat="37.945264" lon="-1.087254">
 <ele>443.860000</ele>
<time>2005-05-24T12:07:49Z</time>
</trkpt>
<trkpt lat="37.945263" lon="-1.087259">
 <ele>444.000000</ele>
<time>2005-05-24T12:07:50Z</time>
</trkpt>
<trkpt lat="37.945266" lon="-1.087246">
 <ele>443.120000</ele>
<time>2005-05-24T12:07:51Z</time>
</trkpt>
<trkpt lat="37.945279" lon="-1.087233">
 <ele>441.540000</ele>
<time>2005-05-24T12:07:52Z</time>
</trkpt>
<trkpt lat="37.945270" lon="-1.087232">
 <ele>441.700000</ele>
<time>2005-05-24T12:07:53Z</time>
</trkpt>
<trkpt lat="37.945286" lon="-1.087227">
 <ele>440.560000</ele>
<time>2005-05-24T12:07:54Z</time>
</trkpt>
<trkpt lat="37.945306" lon="-1.087201">
 <ele>439.040000</ele>
<time>2005-05-24T12:07:57Z</time>
</trkpt>
<trkpt lat="37.945306" lon="-1.087183">
 <ele>438.620000</ele>
<time>2005-05-24T12:07:58Z</time>
</trkpt>
<trkpt lat="37.945289" lon="-1.087146">
 <ele>438.160000</ele>
<time>2005-05-24T12:08:02Z</time>
</trkpt>
<trkpt lat="37.945267" lon="-1.087115">
 <ele>437.480000</ele>
<time>2005-05-24T12:08:05Z</time>
</trkpt>
<trkpt lat="37.945255" lon="-1.087101">
 <ele>437.020000</ele>
<time>2005-05-24T12:08:09Z</time>
</trkpt>
<trkpt lat="37.945257" lon="-1.087066">
 <ele>435.300000</ele>
<time>2005-05-24T12:08:10Z</time>
</trkpt>
<trkpt lat="37.945291" lon="-1.086997">
 <ele>432.280000</ele>
<time>2005-05-24T12:08:14Z</time>
</trkpt>
<trkpt lat="37.945300" lon="-1.087001">
 <ele>431.780000</ele>
<time>2005-05-24T12:08:15Z</time>
</trkpt>
<trkpt lat="37.945292" lon="-1.086995">
 <ele>431.820000</ele>
<time>2005-05-24T12:08:16Z</time>
</trkpt>
<trkpt lat="37.945295" lon="-1.086989">
 <ele>431.020000</ele>
<time>2005-05-24T12:08:17Z</time>
</trkpt>
<trkpt lat="37.945301" lon="-1.086997">
 <ele>432.120000</ele>
<time>2005-05-24T12:08:18Z</time>
</trkpt>
<trkpt lat="37.945300" lon="-1.086987">
 <ele>431.080000</ele>
<time>2005-05-24T12:08:19Z</time>
</trkpt>
<trkpt lat="37.945336" lon="-1.086947">
 <ele>433.260000</ele>
<time>2005-05-24T12:08:23Z</time>
</trkpt>
<trkpt lat="37.945333" lon="-1.086952">
 <ele>428.040000</ele>
<time>2005-05-24T12:08:24Z</time>
</trkpt>
<trkpt lat="37.945345" lon="-1.086951">
 <ele>430.260000</ele>
<time>2005-05-24T12:08:25Z</time>
</trkpt>
<trkpt lat="37.945365" lon="-1.086925">
 <ele>430.280000</ele>
<time>2005-05-24T12:08:27Z</time>
</trkpt>
<trkpt lat="37.945373" lon="-1.086922">
 <ele>428.860000</ele>
<time>2005-05-24T12:08:28Z</time>
</trkpt>
<trkpt lat="37.945368" lon="-1.086923">
 <ele>428.160000</ele>
<time>2005-05-24T12:08:29Z</time>
</trkpt>
<trkpt lat="37.945375" lon="-1.086909">
 <ele>430.320000</ele>
<time>2005-05-24T12:08:30Z</time>
</trkpt>
<trkpt lat="37.945376" lon="-1.086921">
 <ele>428.140000</ele>
<time>2005-05-24T12:08:31Z</time>
</trkpt>
<trkpt lat="37.945380" lon="-1.086913">
 <ele>429.020000</ele>
<time>2005-05-24T12:08:32Z</time>
</trkpt>
<trkpt lat="37.945380" lon="-1.086835">
 <ele>421.920000</ele>
<time>2005-05-24T12:08:37Z</time>
</trkpt>
<trkpt lat="37.945381" lon="-1.086815">
 <ele>426.040000</ele>
<time>2005-05-24T12:08:38Z</time>
</trkpt>
<trkpt lat="37.945423" lon="-1.086747">
 <ele>423.920000</ele>
<time>2005-05-24T12:08:41Z</time>
</trkpt>
<trkpt lat="37.945453" lon="-1.086716">
 <ele>423.020000</ele>
<time>2005-05-24T12:08:45Z</time>
</trkpt>
<trkpt lat="37.945459" lon="-1.086712">
 <ele>423.040000</ele>
<time>2005-05-24T12:08:46Z</time>
</trkpt>
<trkpt lat="37.945517" lon="-1.086662">
 <ele>419.540000</ele>
<time>2005-05-24T12:08:51Z</time>
</trkpt>
<trkpt lat="37.945503" lon="-1.086656">
 <ele>422.380000</ele>
<time>2005-05-24T12:08:54Z</time>
</trkpt>
<trkpt lat="37.945500" lon="-1.086640">
 <ele>422.720000</ele>
<time>2005-05-24T12:08:55Z</time>
</trkpt>
<trkpt lat="37.945507" lon="-1.086651">
 <ele>422.440000</ele>
<time>2005-05-24T12:08:56Z</time>
</trkpt>
<trkpt lat="37.945501" lon="-1.086656">
 <ele>422.360000</ele>
<time>2005-05-24T12:08:57Z</time>
</trkpt>
<trkpt lat="37.945499" lon="-1.086651">
 <ele>422.020000</ele>
<time>2005-05-24T12:08:58Z</time>
</trkpt>
<trkpt lat="37.945502" lon="-1.086591">
 <ele>422.940000</ele>
<time>2005-05-24T12:09:02Z</time>
</trkpt>
<trkpt lat="37.945533" lon="-1.086570">
 <ele>424.400000</ele>
<time>2005-05-24T12:09:04Z</time>
</trkpt>
<trkpt lat="37.945627" lon="-1.086435">
 <ele>425.640000</ele>
<time>2005-05-24T12:09:12Z</time>
</trkpt>
<trkpt lat="37.945665" lon="-1.086376">
 <ele>425.940000</ele>
<time>2005-05-24T12:09:18Z</time>
</trkpt>
<trkpt lat="37.945681" lon="-1.086388">
 <ele>425.580000</ele>
<time>2005-05-24T12:09:19Z</time>
</trkpt>
<trkpt lat="37.945690" lon="-1.086367">
 <ele>424.620000</ele>
<time>2005-05-24T12:09:20Z</time>
</trkpt>
<trkpt lat="37.945696" lon="-1.086317">
 <ele>424.300000</ele>
<time>2005-05-24T12:09:25Z</time>
</trkpt>
<trkpt lat="37.945720" lon="-1.086277">
 <ele>424.180000</ele>
<time>2005-05-24T12:09:27Z</time>
</trkpt>
<trkpt lat="37.945746" lon="-1.086269">
 <ele>425.520000</ele>
<time>2005-05-24T12:09:29Z</time>
</trkpt>
<trkpt lat="37.945743" lon="-1.086261">
 <ele>425.480000</ele>
<time>2005-05-24T12:09:30Z</time>
</trkpt>
<trkpt lat="37.945772" lon="-1.086194">
 <ele>424.380000</ele>
<time>2005-05-24T12:09:33Z</time>
</trkpt>
<trkpt lat="37.945853" lon="-1.086107">
 <ele>419.640000</ele>
<time>2005-05-24T12:09:43Z</time>
</trkpt>
<trkpt lat="37.945861" lon="-1.086056">
 <ele>419.100000</ele>
<time>2005-05-24T12:09:45Z</time>
</trkpt>
<trkpt lat="37.945870" lon="-1.086042">
 <ele>418.140000</ele>
<time>2005-05-24T12:09:48Z</time>
</trkpt>
<trkpt lat="37.945874" lon="-1.086033">
 <ele>417.400000</ele>
<time>2005-05-24T12:09:50Z</time>
</trkpt>
<trkpt lat="37.945890" lon="-1.086048">
 <ele>416.380000</ele>
<time>2005-05-24T12:09:52Z</time>
</trkpt>
<trkpt lat="37.945931" lon="-1.086034">
 <ele>415.440000</ele>
<time>2005-05-24T12:09:55Z</time>
</trkpt>
<trkpt lat="37.945974" lon="-1.085958">
 <ele>412.440000</ele>
<time>2005-05-24T12:10:00Z</time>
</trkpt>
<trkpt lat="37.946086" lon="-1.085824">
 <ele>409.340000</ele>
<time>2005-05-24T12:10:08Z</time>
</trkpt>
<trkpt lat="37.946077" lon="-1.085824">
 <ele>410.980000</ele>
<time>2005-05-24T12:10:10Z</time>
</trkpt>
<trkpt lat="37.946072" lon="-1.085785">
 <ele>413.400000</ele>
<time>2005-05-24T12:10:12Z</time>
</trkpt>
<trkpt lat="37.946098" lon="-1.085743">
 <ele>414.340000</ele>
<time>2005-05-24T12:10:17Z</time>
</trkpt>
<trkpt lat="37.946111" lon="-1.085706">
 <ele>412.760000</ele>
<time>2005-05-24T12:10:19Z</time>
</trkpt>
<trkpt lat="37.946155" lon="-1.085622">
 <ele>412.920000</ele>
<time>2005-05-24T12:10:24Z</time>
</trkpt>
<trkpt lat="37.946207" lon="-1.085569">
 <ele>412.920000</ele>
<time>2005-05-24T12:10:28Z</time>
</trkpt>
<trkpt lat="37.946209" lon="-1.085546">
 <ele>413.660000</ele>
<time>2005-05-24T12:10:29Z</time>
</trkpt>
<trkpt lat="37.946239" lon="-1.085527">
 <ele>413.540000</ele>
<time>2005-05-24T12:10:32Z</time>
</trkpt>
<trkpt lat="37.946261" lon="-1.085508">
 <ele>412.020000</ele>
<time>2005-05-24T12:10:33Z</time>
</trkpt>
<trkpt lat="37.946331" lon="-1.085499">
 <ele>411.500000</ele>
<time>2005-05-24T12:10:36Z</time>
</trkpt>
<trkpt lat="37.946332" lon="-1.085490">
 <ele>410.260000</ele>
<time>2005-05-24T12:10:38Z</time>
</trkpt>
<trkpt lat="37.946368" lon="-1.085472">
 <ele>410.400000</ele>
<time>2005-05-24T12:10:40Z</time>
</trkpt>
<trkpt lat="37.946410" lon="-1.085443">
 <ele>406.740000</ele>
<time>2005-05-24T12:10:42Z</time>
</trkpt>
<trkpt lat="37.946575" lon="-1.085326">
 <ele>407.840000</ele>
<time>2005-05-24T12:10:52Z</time>
</trkpt>
<trkpt lat="37.946746" lon="-1.085095">
 <ele>412.380000</ele>
<time>2005-05-24T12:11:07Z</time>
</trkpt>
<trkpt lat="37.946755" lon="-1.085083">
 <ele>413.100000</ele>
<time>2005-05-24T12:11:09Z</time>
</trkpt>
<trkpt lat="37.946791" lon="-1.085039">
 <ele>417.920000</ele>
<time>2005-05-24T12:11:13Z</time>
</trkpt>
<trkpt lat="37.946806" lon="-1.085067">
 <ele>418.660000</ele>
<time>2005-05-24T12:11:15Z</time>
</trkpt>
<trkpt lat="37.946804" lon="-1.085057">
 <ele>417.320000</ele>
<time>2005-05-24T12:11:16Z</time>
</trkpt>
<trkpt lat="37.946860" lon="-1.085000">
 <ele>417.860000</ele>
<time>2005-05-24T12:11:19Z</time>
</trkpt>
<trkpt lat="37.946857" lon="-1.084960">
 <ele>418.740000</ele>
<time>2005-05-24T12:11:21Z</time>
</trkpt>
<trkpt lat="37.946865" lon="-1.084896">
 <ele>418.200000</ele>
<time>2005-05-24T12:11:26Z</time>
</trkpt>
<trkpt lat="37.946895" lon="-1.084901">
 <ele>417.280000</ele>
<time>2005-05-24T12:11:27Z</time>
</trkpt>
<trkpt lat="37.946927" lon="-1.084883">
 <ele>414.300000</ele>
<time>2005-05-24T12:11:30Z</time>
</trkpt>
<trkpt lat="37.946959" lon="-1.084878">
 <ele>414.100000</ele>
<time>2005-05-24T12:11:33Z</time>
</trkpt>
<trkpt lat="37.946994" lon="-1.084846">
 <ele>414.360000</ele>
<time>2005-05-24T12:11:35Z</time>
</trkpt>
<trkpt lat="37.947048" lon="-1.084813">
 <ele>411.080000</ele>
<time>2005-05-24T12:11:39Z</time>
</trkpt>
<trkpt lat="37.947126" lon="-1.084788">
 <ele>411.380000</ele>
<time>2005-05-24T12:11:43Z</time>
</trkpt>
<trkpt lat="37.947129" lon="-1.084738">
 <ele>410.220000</ele>
<time>2005-05-24T12:11:46Z</time>
</trkpt>
<trkpt lat="37.947195" lon="-1.084688">
 <ele>406.120000</ele>
<time>2005-05-24T12:11:49Z</time>
</trkpt>
<trkpt lat="37.947296" lon="-1.084568">
 <ele>407.940000</ele>
<time>2005-05-24T12:11:57Z</time>
</trkpt>
<trkpt lat="37.947298" lon="-1.084565">
 <ele>407.720000</ele>
<time>2005-05-24T12:11:59Z</time>
</trkpt>
<trkpt lat="37.947300" lon="-1.084566">
 <ele>408.220000</ele>
<time>2005-05-24T12:12:00Z</time>
</trkpt>
<trkpt lat="37.947373" lon="-1.084546">
 <ele>407.100000</ele>
<time>2005-05-24T12:12:02Z</time>
</trkpt>
<trkpt lat="37.947418" lon="-1.084469">
 <ele>407.480000</ele>
<time>2005-05-24T12:12:04Z</time>
</trkpt>
<trkpt lat="37.947434" lon="-1.084446">
 <ele>406.260000</ele>
<time>2005-05-24T12:12:07Z</time>
</trkpt>
<trkpt lat="37.947432" lon="-1.084427">
 <ele>406.040000</ele>
<time>2005-05-24T12:12:08Z</time>
</trkpt>
<trkpt lat="37.947474" lon="-1.084370">
 <ele>406.180000</ele>
<time>2005-05-24T12:12:11Z</time>
</trkpt>
<trkpt lat="37.947491" lon="-1.084270">
 <ele>407.480000</ele>
<time>2005-05-24T12:12:15Z</time>
</trkpt>
<trkpt lat="37.947500" lon="-1.084222">
 <ele>410.900000</ele>
<time>2005-05-24T12:12:23Z</time>
</trkpt>
<trkpt lat="37.947530" lon="-1.084139">
 <ele>410.460000</ele>
<time>2005-05-24T12:12:25Z</time>
</trkpt>
<trkpt lat="37.947532" lon="-1.084086">
 <ele>409.540000</ele>
<time>2005-05-24T12:12:29Z</time>
</trkpt>
<trkpt lat="37.947573" lon="-1.084040">
 <ele>410.040000</ele>
<time>2005-05-24T12:12:32Z</time>
</trkpt>
<trkpt lat="37.947600" lon="-1.084020">
 <ele>409.060000</ele>
<time>2005-05-24T12:12:34Z</time>
</trkpt>
<trkpt lat="37.947629" lon="-1.084015">
 <ele>408.980000</ele>
<time>2005-05-24T12:12:36Z</time>
</trkpt>
<trkpt lat="37.947677" lon="-1.084010">
 <ele>406.620000</ele>
<time>2005-05-24T12:12:38Z</time>
</trkpt>
<trkpt lat="37.947731" lon="-1.083967">
 <ele>402.800000</ele>
<time>2005-05-24T12:12:42Z</time>
</trkpt>
<trkpt lat="37.947793" lon="-1.083934">
 <ele>396.900000</ele>
<time>2005-05-24T12:12:48Z</time>
</trkpt>
<trkpt lat="37.947819" lon="-1.083891">
 <ele>395.660000</ele>
<time>2005-05-24T12:12:51Z</time>
</trkpt>
<trkpt lat="37.947880" lon="-1.083825">
 <ele>396.600000</ele>
<time>2005-05-24T12:12:56Z</time>
</trkpt>
<trkpt lat="37.947880" lon="-1.083831">
 <ele>396.960000</ele>
<time>2005-05-24T12:12:57Z</time>
</trkpt>
<trkpt lat="37.947892" lon="-1.083808">
 <ele>396.700000</ele>
<time>2005-05-24T12:12:58Z</time>
</trkpt>
<trkpt lat="37.947971" lon="-1.083770">
 <ele>394.540000</ele>
<time>2005-05-24T12:13:01Z</time>
</trkpt>
<trkpt lat="37.948005" lon="-1.083714">
 <ele>393.660000</ele>
<time>2005-05-24T12:13:04Z</time>
</trkpt>
<trkpt lat="37.948009" lon="-1.083706">
 <ele>393.560000</ele>
<time>2005-05-24T12:13:06Z</time>
</trkpt>
<trkpt lat="37.948020" lon="-1.083686">
 <ele>395.920000</ele>
<time>2005-05-24T12:13:07Z</time>
</trkpt>
<trkpt lat="37.948168" lon="-1.083533">
 <ele>394.120000</ele>
<time>2005-05-24T12:13:17Z</time>
</trkpt>
<trkpt lat="37.948317" lon="-1.083443">
 <ele>389.440000</ele>
<time>2005-05-24T12:13:26Z</time>
</trkpt>
<trkpt lat="37.948366" lon="-1.083473">
 <ele>388.900000</ele>
<time>2005-05-24T12:13:28Z</time>
</trkpt>
<trkpt lat="37.948404" lon="-1.083491">
 <ele>392.660000</ele>
<time>2005-05-24T12:13:31Z</time>
</trkpt>
<trkpt lat="37.948460" lon="-1.083493">
 <ele>392.040000</ele>
<time>2005-05-24T12:13:34Z</time>
</trkpt>
<trkpt lat="37.948538" lon="-1.083444">
 <ele>392.640000</ele>
<time>2005-05-24T12:13:40Z</time>
</trkpt>
<trkpt lat="37.948527" lon="-1.083408">
 <ele>396.240000</ele>
<time>2005-05-24T12:13:44Z</time>
</trkpt>
<trkpt lat="37.948495" lon="-1.083377">
 <ele>398.340000</ele>
<time>2005-05-24T12:13:46Z</time>
</trkpt>
<trkpt lat="37.948518" lon="-1.083359">
 <ele>399.380000</ele>
<time>2005-05-24T12:13:48Z</time>
</trkpt>
<trkpt lat="37.948637" lon="-1.083276">
 <ele>402.080000</ele>
<time>2005-05-24T12:13:55Z</time>
</trkpt>
<trkpt lat="37.948637" lon="-1.083243">
 <ele>403.260000</ele>
<time>2005-05-24T12:13:58Z</time>
</trkpt>
<trkpt lat="37.948642" lon="-1.083245">
 <ele>403.320000</ele>
<time>2005-05-24T12:13:59Z</time>
</trkpt>
<trkpt lat="37.948634" lon="-1.083245">
 <ele>403.920000</ele>
<time>2005-05-24T12:14:00Z</time>
</trkpt>
<trkpt lat="37.948637" lon="-1.083217">
 <ele>404.080000</ele>
<time>2005-05-24T12:14:02Z</time>
</trkpt>
<trkpt lat="37.948643" lon="-1.083226">
 <ele>403.360000</ele>
<time>2005-05-24T12:14:03Z</time>
</trkpt>
<trkpt lat="37.948645" lon="-1.083202">
 <ele>402.520000</ele>
<time>2005-05-24T12:14:04Z</time>
</trkpt>
<trkpt lat="37.948691" lon="-1.083138">
 <ele>403.360000</ele>
<time>2005-05-24T12:14:08Z</time>
</trkpt>
<trkpt lat="37.948798" lon="-1.083028">
 <ele>401.300000</ele>
<time>2005-05-24T12:14:17Z</time>
</trkpt>
<trkpt lat="37.948790" lon="-1.083034">
 <ele>399.640000</ele>
<time>2005-05-24T12:14:18Z</time>
</trkpt>
<trkpt lat="37.948798" lon="-1.083004">
 <ele>401.040000</ele>
<time>2005-05-24T12:14:19Z</time>
</trkpt>
<trkpt lat="37.948813" lon="-1.083009">
 <ele>400.620000</ele>
<time>2005-05-24T12:14:20Z</time>
</trkpt>
<trkpt lat="37.948841" lon="-1.082956">
 <ele>403.140000</ele>
<time>2005-05-24T12:14:23Z</time>
</trkpt>
<trkpt lat="37.948904" lon="-1.082602">
 <ele>407.080000</ele>
<time>2005-05-24T12:14:44Z</time>
</trkpt>
<trkpt lat="37.948899" lon="-1.082586">
 <ele>407.500000</ele>
<time>2005-05-24T12:14:45Z</time>
</trkpt>
<trkpt lat="37.948946" lon="-1.082546">
 <ele>406.820000</ele>
<time>2005-05-24T12:14:48Z</time>
</trkpt>
<trkpt lat="37.948960" lon="-1.082507">
 <ele>406.440000</ele>
<time>2005-05-24T12:14:51Z</time>
</trkpt>
<trkpt lat="37.948978" lon="-1.082423">
 <ele>406.500000</ele>
<time>2005-05-24T12:14:53Z</time>
</trkpt>
<trkpt lat="37.949037" lon="-1.082384">
 <ele>405.440000</ele>
<time>2005-05-24T12:14:55Z</time>
</trkpt>
<trkpt lat="37.949034" lon="-1.082329">
 <ele>405.720000</ele>
<time>2005-05-24T12:14:57Z</time>
</trkpt>
<trkpt lat="37.949036" lon="-1.082314">
 <ele>405.740000</ele>
<time>2005-05-24T12:14:59Z</time>
</trkpt>
<trkpt lat="37.949036" lon="-1.082306">
 <ele>406.540000</ele>
<time>2005-05-24T12:15:00Z</time>
</trkpt>
<trkpt lat="37.949075" lon="-1.082194">
 <ele>406.200000</ele>
<time>2005-05-24T12:15:09Z</time>
</trkpt>
<trkpt lat="37.949078" lon="-1.082174">
 <ele>404.520000</ele>
<time>2005-05-24T12:15:10Z</time>
</trkpt>
<trkpt lat="37.949089" lon="-1.082116">
 <ele>405.600000</ele>
<time>2005-05-24T12:15:14Z</time>
</trkpt>
<trkpt lat="37.949078" lon="-1.082092">
 <ele>404.760000</ele>
<time>2005-05-24T12:15:15Z</time>
</trkpt>
<trkpt lat="37.949087" lon="-1.082074">
 <ele>406.240000</ele>
<time>2005-05-24T12:15:17Z</time>
</trkpt>
<trkpt lat="37.949093" lon="-1.082083">
 <ele>404.840000</ele>
<time>2005-05-24T12:15:18Z</time>
</trkpt>
<trkpt lat="37.949113" lon="-1.082073">
 <ele>405.340000</ele>
<time>2005-05-24T12:15:19Z</time>
</trkpt>
<trkpt lat="37.949112" lon="-1.082073">
 <ele>404.980000</ele>
<time>2005-05-24T12:15:20Z</time>
</trkpt>
<trkpt lat="37.949113" lon="-1.082047">
 <ele>406.000000</ele>
<time>2005-05-24T12:15:21Z</time>
</trkpt>
<trkpt lat="37.949133" lon="-1.082024">
 <ele>405.300000</ele>
<time>2005-05-24T12:15:22Z</time>
</trkpt>
<trkpt lat="37.949178" lon="-1.081914">
 <ele>407.040000</ele>
<time>2005-05-24T12:15:28Z</time>
</trkpt>
<trkpt lat="37.949187" lon="-1.081911">
 <ele>404.180000</ele>
<time>2005-05-24T12:15:29Z</time>
</trkpt>
<trkpt lat="37.949224" lon="-1.081856">
 <ele>403.720000</ele>
<time>2005-05-24T12:15:31Z</time>
</trkpt>
<trkpt lat="37.949255" lon="-1.081779">
 <ele>400.580000</ele>
<time>2005-05-24T12:15:34Z</time>
</trkpt>
<trkpt lat="37.949277" lon="-1.081766">
 <ele>401.920000</ele>
<time>2005-05-24T12:15:35Z</time>
</trkpt>
<trkpt lat="37.949279" lon="-1.081752">
 <ele>404.220000</ele>
<time>2005-05-24T12:15:38Z</time>
</trkpt>
<trkpt lat="37.949283" lon="-1.081735">
 <ele>405.480000</ele>
<time>2005-05-24T12:15:39Z</time>
</trkpt>
<trkpt lat="37.949337" lon="-1.081697">
 <ele>405.420000</ele>
<time>2005-05-24T12:15:43Z</time>
</trkpt>
<trkpt lat="37.949337" lon="-1.081698">
 <ele>402.860000</ele>
<time>2005-05-24T12:15:44Z</time>
</trkpt>
<trkpt lat="37.949360" lon="-1.081703">
 <ele>405.140000</ele>
<time>2005-05-24T12:15:45Z</time>
</trkpt>
<trkpt lat="37.949387" lon="-1.081666">
 <ele>402.180000</ele>
<time>2005-05-24T12:15:47Z</time>
</trkpt>
<trkpt lat="37.949396" lon="-1.081648">
 <ele>401.400000</ele>
<time>2005-05-24T12:15:49Z</time>
</trkpt>
<trkpt lat="37.949406" lon="-1.081640">
 <ele>401.900000</ele>
<time>2005-05-24T12:15:50Z</time>
</trkpt>
<trkpt lat="37.949401" lon="-1.081596">
 <ele>401.380000</ele>
<time>2005-05-24T12:15:53Z</time>
</trkpt>
<trkpt lat="37.949419" lon="-1.081569">
 <ele>399.500000</ele>
<time>2005-05-24T12:15:55Z</time>
</trkpt>
<trkpt lat="37.949419" lon="-1.081546">
 <ele>397.440000</ele>
<time>2005-05-24T12:15:56Z</time>
</trkpt>
<trkpt lat="37.949423" lon="-1.081541">
 <ele>395.380000</ele>
<time>2005-05-24T12:15:58Z</time>
</trkpt>
<trkpt lat="37.949434" lon="-1.081520">
 <ele>396.240000</ele>
<time>2005-05-24T12:15:59Z</time>
</trkpt>
<trkpt lat="37.949547" lon="-1.081403">
 <ele>391.680000</ele>
<time>2005-05-24T12:16:09Z</time>
</trkpt>
<trkpt lat="37.949539" lon="-1.081404">
 <ele>391.780000</ele>
<time>2005-05-24T12:16:10Z</time>
</trkpt>
<trkpt lat="37.949576" lon="-1.081396">
 <ele>390.320000</ele>
<time>2005-05-24T12:16:11Z</time>
</trkpt>
<trkpt lat="37.949630" lon="-1.081360">
 <ele>388.260000</ele>
<time>2005-05-24T12:16:15Z</time>
</trkpt>
<trkpt lat="37.949656" lon="-1.081349">
 <ele>389.900000</ele>
<time>2005-05-24T12:16:17Z</time>
</trkpt>
<trkpt lat="37.949743" lon="-1.081325">
 <ele>392.080000</ele>
<time>2005-05-24T12:16:24Z</time>
</trkpt>
<trkpt lat="37.949757" lon="-1.081330">
 <ele>391.260000</ele>
<time>2005-05-24T12:16:25Z</time>
</trkpt>
<trkpt lat="37.949799" lon="-1.081339">
 <ele>394.180000</ele>
<time>2005-05-24T12:16:27Z</time>
</trkpt>
<trkpt lat="37.949782" lon="-1.081340">
 <ele>390.300000</ele>
<time>2005-05-24T12:16:28Z</time>
</trkpt>
<trkpt lat="37.949794" lon="-1.081330">
 <ele>393.100000</ele>
<time>2005-05-24T12:16:29Z</time>
</trkpt>
<trkpt lat="37.949831" lon="-1.081245">
 <ele>391.460000</ele>
<time>2005-05-24T12:16:33Z</time>
</trkpt>
<trkpt lat="37.949884" lon="-1.081157">
 <ele>388.980000</ele>
<time>2005-05-24T12:16:39Z</time>
</trkpt>
<trkpt lat="37.949861" lon="-1.081128">
 <ele>387.860000</ele>
<time>2005-05-24T12:16:41Z</time>
</trkpt>
<trkpt lat="37.949897" lon="-1.081066">
 <ele>385.400000</ele>
<time>2005-05-24T12:16:44Z</time>
</trkpt>
<trkpt lat="37.949938" lon="-1.081001">
 <ele>383.620000</ele>
<time>2005-05-24T12:16:46Z</time>
</trkpt>
<trkpt lat="37.949935" lon="-1.080951">
 <ele>381.820000</ele>
<time>2005-05-24T12:16:50Z</time>
</trkpt>
<trkpt lat="37.949940" lon="-1.080919">
 <ele>380.180000</ele>
<time>2005-05-24T12:16:52Z</time>
</trkpt>
<trkpt lat="37.949970" lon="-1.080822">
 <ele>377.520000</ele>
<time>2005-05-24T12:17:03Z</time>
</trkpt>
<trkpt lat="37.950011" lon="-1.080773">
 <ele>377.780000</ele>
<time>2005-05-24T12:17:06Z</time>
</trkpt>
<trkpt lat="37.950034" lon="-1.080689">
 <ele>378.280000</ele>
<time>2005-05-24T12:17:10Z</time>
</trkpt>
<trkpt lat="37.950012" lon="-1.080683">
 <ele>376.280000</ele>
<time>2005-05-24T12:17:12Z</time>
</trkpt>
<trkpt lat="37.950022" lon="-1.080694">
 <ele>374.520000</ele>
<time>2005-05-24T12:17:13Z</time>
</trkpt>
<trkpt lat="37.950022" lon="-1.080675">
 <ele>372.920000</ele>
<time>2005-05-24T12:17:14Z</time>
</trkpt>
<trkpt lat="37.950031" lon="-1.080566">
 <ele>368.180000</ele>
<time>2005-05-24T12:17:24Z</time>
</trkpt>
<trkpt lat="37.950050" lon="-1.080530">
 <ele>367.180000</ele>
<time>2005-05-24T12:17:25Z</time>
</trkpt>
<trkpt lat="37.950072" lon="-1.080515">
 <ele>366.780000</ele>
<time>2005-05-24T12:17:29Z</time>
</trkpt>
<trkpt lat="37.950056" lon="-1.080510">
 <ele>364.840000</ele>
<time>2005-05-24T12:17:30Z</time>
</trkpt>
<trkpt lat="37.950059" lon="-1.080501">
 <ele>366.640000</ele>
<time>2005-05-24T12:17:31Z</time>
</trkpt>
<trkpt lat="37.950064" lon="-1.080495">
 <ele>369.900000</ele>
<time>2005-05-24T12:17:33Z</time>
</trkpt>
<trkpt lat="37.950097" lon="-1.080492">
 <ele>368.280000</ele>
<time>2005-05-24T12:17:34Z</time>
</trkpt>
<trkpt lat="37.950098" lon="-1.080492">
 <ele>371.160000</ele>
<time>2005-05-24T12:17:35Z</time>
</trkpt>
<trkpt lat="37.950098" lon="-1.080495">
 <ele>370.440000</ele>
<time>2005-05-24T12:17:37Z</time>
</trkpt>
<trkpt lat="37.950144" lon="-1.080472">
 <ele>375.680000</ele>
<time>2005-05-24T12:17:40Z</time>
</trkpt>
<trkpt lat="37.950155" lon="-1.080423">
 <ele>375.260000</ele>
<time>2005-05-24T12:17:43Z</time>
</trkpt>
<trkpt lat="37.950153" lon="-1.080398">
 <ele>374.140000</ele>
<time>2005-05-24T12:17:46Z</time>
</trkpt>
<trkpt lat="37.950197" lon="-1.080314">
 <ele>374.560000</ele>
<time>2005-05-24T12:17:51Z</time>
</trkpt>
<trkpt lat="37.950180" lon="-1.080310">
 <ele>376.080000</ele>
<time>2005-05-24T12:17:53Z</time>
</trkpt>
<trkpt lat="37.950185" lon="-1.080300">
 <ele>374.220000</ele>
<time>2005-05-24T12:17:54Z</time>
</trkpt>
<trkpt lat="37.950157" lon="-1.080263">
 <ele>374.760000</ele>
<time>2005-05-24T12:17:56Z</time>
</trkpt>
<trkpt lat="37.950169" lon="-1.080261">
 <ele>375.320000</ele>
<time>2005-05-24T12:17:57Z</time>
</trkpt>
<trkpt lat="37.950176" lon="-1.080248">
 <ele>375.380000</ele>
<time>2005-05-24T12:18:00Z</time>
</trkpt>
<trkpt lat="37.950163" lon="-1.080223">
 <ele>375.560000</ele>
<time>2005-05-24T12:18:02Z</time>
</trkpt>
<trkpt lat="37.950159" lon="-1.080196">
 <ele>376.400000</ele>
<time>2005-05-24T12:18:03Z</time>
</trkpt>
<trkpt lat="37.950169" lon="-1.080201">
 <ele>374.100000</ele>
<time>2005-05-24T12:18:04Z</time>
</trkpt>
<trkpt lat="37.950188" lon="-1.080149">
 <ele>374.980000</ele>
<time>2005-05-24T12:18:06Z</time>
</trkpt>
<trkpt lat="37.950188" lon="-1.080117">
 <ele>375.160000</ele>
<time>2005-05-24T12:18:09Z</time>
</trkpt>
<trkpt lat="37.950185" lon="-1.080100">
 <ele>374.780000</ele>
<time>2005-05-24T12:18:10Z</time>
</trkpt>
<trkpt lat="37.950231" lon="-1.080020">
 <ele>375.640000</ele>
<time>2005-05-24T12:18:14Z</time>
</trkpt>
<trkpt lat="37.950212" lon="-1.079997">
 <ele>373.300000</ele>
<time>2005-05-24T12:18:16Z</time>
</trkpt>
<trkpt lat="37.950211" lon="-1.079944">
 <ele>370.560000</ele>
<time>2005-05-24T12:18:18Z</time>
</trkpt>
<trkpt lat="37.950264" lon="-1.079821">
 <ele>372.080000</ele>
<time>2005-05-24T12:18:24Z</time>
</trkpt>
<trkpt lat="37.950250" lon="-1.079744">
 <ele>366.520000</ele>
<time>2005-05-24T12:18:28Z</time>
</trkpt>
<trkpt lat="37.950244" lon="-1.079722">
 <ele>364.940000</ele>
<time>2005-05-24T12:18:31Z</time>
</trkpt>
<trkpt lat="37.950224" lon="-1.079682">
 <ele>366.480000</ele>
<time>2005-05-24T12:18:32Z</time>
</trkpt>
<trkpt lat="37.950242" lon="-1.079608">
 <ele>367.300000</ele>
<time>2005-05-24T12:18:36Z</time>
</trkpt>
<trkpt lat="37.950235" lon="-1.079577">
 <ele>363.880000</ele>
<time>2005-05-24T12:18:39Z</time>
</trkpt>
<trkpt lat="37.950246" lon="-1.079567">
 <ele>363.120000</ele>
<time>2005-05-24T12:18:40Z</time>
</trkpt>
<trkpt lat="37.950278" lon="-1.079465">
 <ele>359.500000</ele>
<time>2005-05-24T12:18:48Z</time>
</trkpt>
<trkpt lat="37.950293" lon="-1.079465">
 <ele>358.260000</ele>
<time>2005-05-24T12:18:49Z</time>
</trkpt>
<trkpt lat="37.950317" lon="-1.079404">
 <ele>356.200000</ele>
<time>2005-05-24T12:18:52Z</time>
</trkpt>
<trkpt lat="37.950317" lon="-1.079397">
 <ele>356.020000</ele>
<time>2005-05-24T12:18:54Z</time>
</trkpt>
<trkpt lat="37.950324" lon="-1.079385">
 <ele>354.760000</ele>
<time>2005-05-24T12:18:56Z</time>
</trkpt>
<trkpt lat="37.950306" lon="-1.079381">
 <ele>353.840000</ele>
<time>2005-05-24T12:18:58Z</time>
</trkpt>
<trkpt lat="37.950280" lon="-1.079415">
 <ele>351.920000</ele>
<time>2005-05-24T12:19:04Z</time>
</trkpt>
<trkpt lat="37.950257" lon="-1.079426">
 <ele>352.220000</ele>
<time>2005-05-24T12:19:05Z</time>
</trkpt>
<trkpt lat="37.950261" lon="-1.079421">
 <ele>351.040000</ele>
<time>2005-05-24T12:19:06Z</time>
</trkpt>
<trkpt lat="37.950267" lon="-1.079352">
 <ele>350.440000</ele>
<time>2005-05-24T12:19:10Z</time>
</trkpt>
<trkpt lat="37.950304" lon="-1.079293">
 <ele>352.460000</ele>
<time>2005-05-24T12:19:14Z</time>
</trkpt>
<trkpt lat="37.950321" lon="-1.079309">
 <ele>352.240000</ele>
<time>2005-05-24T12:19:16Z</time>
</trkpt>
<trkpt lat="37.950317" lon="-1.079288">
 <ele>350.120000</ele>
<time>2005-05-24T12:19:17Z</time>
</trkpt>
<trkpt lat="37.950337" lon="-1.079290">
 <ele>351.580000</ele>
<time>2005-05-24T12:19:19Z</time>
</trkpt>
<trkpt lat="37.950377" lon="-1.079260">
 <ele>351.160000</ele>
<time>2005-05-24T12:19:21Z</time>
</trkpt>
<trkpt lat="37.950401" lon="-1.079258">
 <ele>349.540000</ele>
<time>2005-05-24T12:19:24Z</time>
</trkpt>
<trkpt lat="37.950415" lon="-1.079251">
 <ele>349.180000</ele>
<time>2005-05-24T12:19:26Z</time>
</trkpt>
<trkpt lat="37.950416" lon="-1.079244">
 <ele>348.340000</ele>
<time>2005-05-24T12:19:29Z</time>
</trkpt>
<trkpt lat="37.950466" lon="-1.079246">
 <ele>348.100000</ele>
<time>2005-05-24T12:19:31Z</time>
</trkpt>
<trkpt lat="37.950460" lon="-1.079245">
 <ele>348.240000</ele>
<time>2005-05-24T12:19:32Z</time>
</trkpt>
<trkpt lat="37.950444" lon="-1.079219">
 <ele>347.300000</ele>
<time>2005-05-24T12:19:33Z</time>
</trkpt>
<trkpt lat="37.950451" lon="-1.079218">
 <ele>348.160000</ele>
<time>2005-05-24T12:19:34Z</time>
</trkpt>
<trkpt lat="37.950465" lon="-1.079207">
 <ele>347.220000</ele>
<time>2005-05-24T12:19:36Z</time>
</trkpt>
<trkpt lat="37.950502" lon="-1.079151">
 <ele>344.640000</ele>
<time>2005-05-24T12:19:39Z</time>
</trkpt>
<trkpt lat="37.950517" lon="-1.079125">
 <ele>343.940000</ele>
<time>2005-05-24T12:19:42Z</time>
</trkpt>
<trkpt lat="37.950523" lon="-1.079118">
 <ele>342.780000</ele>
<time>2005-05-24T12:19:43Z</time>
</trkpt>
<trkpt lat="37.950556" lon="-1.079074">
 <ele>344.020000</ele>
<time>2005-05-24T12:19:48Z</time>
</trkpt>
<trkpt lat="37.950543" lon="-1.079071">
 <ele>341.820000</ele>
<time>2005-05-24T12:19:49Z</time>
</trkpt>
<trkpt lat="37.950543" lon="-1.079084">
 <ele>342.320000</ele>
<time>2005-05-24T12:19:50Z</time>
</trkpt>
<trkpt lat="37.950562" lon="-1.079078">
 <ele>342.900000</ele>
<time>2005-05-24T12:19:51Z</time>
</trkpt>
<trkpt lat="37.950571" lon="-1.079033">
 <ele>339.300000</ele>
<time>2005-05-24T12:19:54Z</time>
</trkpt>
<trkpt lat="37.950554" lon="-1.079010">
 <ele>338.940000</ele>
<time>2005-05-24T12:19:56Z</time>
</trkpt>
<trkpt lat="37.950539" lon="-1.078972">
 <ele>338.640000</ele>
<time>2005-05-24T12:19:59Z</time>
</trkpt>
<trkpt lat="37.950581" lon="-1.078933">
 <ele>341.860000</ele>
<time>2005-05-24T12:20:03Z</time>
</trkpt>
<trkpt lat="37.950610" lon="-1.078923">
 <ele>340.120000</ele>
<time>2005-05-24T12:20:05Z</time>
</trkpt>
<trkpt lat="37.950643" lon="-1.078811">
 <ele>338.580000</ele>
<time>2005-05-24T12:20:10Z</time>
</trkpt>
<trkpt lat="37.950641" lon="-1.078742">
 <ele>337.600000</ele>
<time>2005-05-24T12:20:14Z</time>
</trkpt>
<trkpt lat="37.950652" lon="-1.078718">
 <ele>337.300000</ele>
<time>2005-05-24T12:20:15Z</time>
</trkpt>
<trkpt lat="37.950663" lon="-1.078654">
 <ele>334.180000</ele>
<time>2005-05-24T12:20:20Z</time>
</trkpt>
<trkpt lat="37.950665" lon="-1.078677">
 <ele>332.880000</ele>
<time>2005-05-24T12:20:21Z</time>
</trkpt>
<trkpt lat="37.950687" lon="-1.078694">
 <ele>334.100000</ele>
<time>2005-05-24T12:20:22Z</time>
</trkpt>
<trkpt lat="37.950685" lon="-1.078675">
 <ele>332.460000</ele>
<time>2005-05-24T12:20:23Z</time>
</trkpt>
<trkpt lat="37.950672" lon="-1.078615">
 <ele>333.300000</ele>
<time>2005-05-24T12:20:28Z</time>
</trkpt>
<trkpt lat="37.950713" lon="-1.078606">
 <ele>333.640000</ele>
<time>2005-05-24T12:20:32Z</time>
</trkpt>
<trkpt lat="37.950761" lon="-1.078585">
 <ele>333.180000</ele>
<time>2005-05-24T12:20:34Z</time>
</trkpt>
<trkpt lat="37.950758" lon="-1.078577">
 <ele>331.920000</ele>
<time>2005-05-24T12:20:36Z</time>
</trkpt>
<trkpt lat="37.950758" lon="-1.078561">
 <ele>332.040000</ele>
<time>2005-05-24T12:20:37Z</time>
</trkpt>
<trkpt lat="37.950781" lon="-1.078532">
 <ele>330.660000</ele>
<time>2005-05-24T12:20:40Z</time>
</trkpt>
<trkpt lat="37.950825" lon="-1.078476">
 <ele>332.740000</ele>
<time>2005-05-24T12:20:42Z</time>
</trkpt>
<trkpt lat="37.950929" lon="-1.078384">
 <ele>331.440000</ele>
<time>2005-05-24T12:20:49Z</time>
</trkpt>
<trkpt lat="37.950946" lon="-1.078374">
 <ele>329.420000</ele>
<time>2005-05-24T12:20:51Z</time>
</trkpt>
<trkpt lat="37.950997" lon="-1.078333">
 <ele>328.820000</ele>
<time>2005-05-24T12:20:53Z</time>
</trkpt>
<trkpt lat="37.951078" lon="-1.078300">
 <ele>327.080000</ele>
<time>2005-05-24T12:21:00Z</time>
</trkpt>
<trkpt lat="37.951095" lon="-1.078297">
 <ele>325.740000</ele>
<time>2005-05-24T12:21:02Z</time>
</trkpt>
<trkpt lat="37.951145" lon="-1.078290">
 <ele>323.820000</ele>
<time>2005-05-24T12:21:06Z</time>
</trkpt>
<trkpt lat="37.951150" lon="-1.078278">
 <ele>322.660000</ele>
<time>2005-05-24T12:21:07Z</time>
</trkpt>
<trkpt lat="37.951202" lon="-1.078201">
 <ele>319.780000</ele>
<time>2005-05-24T12:21:15Z</time>
</trkpt>
<trkpt lat="37.951211" lon="-1.078208">
 <ele>316.940000</ele>
<time>2005-05-24T12:21:16Z</time>
</trkpt>
<trkpt lat="37.951216" lon="-1.078191">
 <ele>315.620000</ele>
<time>2005-05-24T12:21:17Z</time>
</trkpt>
<trkpt lat="37.951213" lon="-1.078194">
 <ele>319.260000</ele>
<time>2005-05-24T12:21:18Z</time>
</trkpt>
<trkpt lat="37.951224" lon="-1.078187">
 <ele>313.100000</ele>
<time>2005-05-24T12:21:19Z</time>
</trkpt>
<trkpt lat="37.951276" lon="-1.078112">
 <ele>307.060000</ele>
<time>2005-05-24T12:21:24Z</time>
</trkpt>
<trkpt lat="37.951325" lon="-1.078100">
 <ele>306.980000</ele>
<time>2005-05-24T12:21:26Z</time>
</trkpt>
<trkpt lat="37.951331" lon="-1.078047">
 <ele>308.640000</ele>
<time>2005-05-24T12:21:29Z</time>
</trkpt>
<trkpt lat="37.951334" lon="-1.078056">
 <ele>308.920000</ele>
<time>2005-05-24T12:21:30Z</time>
</trkpt>
<trkpt lat="37.951324" lon="-1.078054">
 <ele>309.380000</ele>
<time>2005-05-24T12:21:32Z</time>
</trkpt>
<trkpt lat="37.951331" lon="-1.078050">
 <ele>311.400000</ele>
<time>2005-05-24T12:21:33Z</time>
</trkpt>
<trkpt lat="37.951433" lon="-1.077992">
 <ele>312.080000</ele>
<time>2005-05-24T12:21:44Z</time>
</trkpt>
<trkpt lat="37.951433" lon="-1.077998">
 <ele>314.240000</ele>
<time>2005-05-24T12:21:45Z</time>
</trkpt>
<trkpt lat="37.951447" lon="-1.077993">
 <ele>315.280000</ele>
<time>2005-05-24T12:21:46Z</time>
</trkpt>
<trkpt lat="37.951506" lon="-1.077943">
 <ele>320.600000</ele>
<time>2005-05-24T12:21:53Z</time>
</trkpt>
<trkpt lat="37.951521" lon="-1.077942">
 <ele>321.080000</ele>
<time>2005-05-24T12:21:54Z</time>
</trkpt>
<trkpt lat="37.951597" lon="-1.077895">
 <ele>326.740000</ele>
<time>2005-05-24T12:21:58Z</time>
</trkpt>
<trkpt lat="37.951590" lon="-1.077895">
 <ele>328.180000</ele>
<time>2005-05-24T12:21:59Z</time>
</trkpt>
<trkpt lat="37.951600" lon="-1.077888">
 <ele>327.160000</ele>
<time>2005-05-24T12:22:01Z</time>
</trkpt>
<trkpt lat="37.951743" lon="-1.077832">
 <ele>322.940000</ele>
<time>2005-05-24T12:22:11Z</time>
</trkpt>
<trkpt lat="37.951741" lon="-1.077834">
 <ele>322.520000</ele>
<time>2005-05-24T12:22:12Z</time>
</trkpt>
<trkpt lat="37.951751" lon="-1.077837">
 <ele>322.240000</ele>
<time>2005-05-24T12:22:13Z</time>
</trkpt>
<trkpt lat="37.951750" lon="-1.077855">
 <ele>321.620000</ele>
<time>2005-05-24T12:22:14Z</time>
</trkpt>
<trkpt lat="37.951795" lon="-1.077822">
 <ele>320.820000</ele>
<time>2005-05-24T12:22:17Z</time>
</trkpt>
<trkpt lat="37.951850" lon="-1.077844">
 <ele>320.300000</ele>
<time>2005-05-24T12:22:21Z</time>
</trkpt>
<trkpt lat="37.951882" lon="-1.077822">
 <ele>318.460000</ele>
<time>2005-05-24T12:22:23Z</time>
</trkpt>
<trkpt lat="37.951882" lon="-1.077837">
 <ele>321.820000</ele>
<time>2005-05-24T12:22:25Z</time>
</trkpt>
<trkpt lat="37.951908" lon="-1.077839">
 <ele>321.480000</ele>
<time>2005-05-24T12:22:26Z</time>
</trkpt>
<trkpt lat="37.951937" lon="-1.077813">
 <ele>317.620000</ele>
<time>2005-05-24T12:22:31Z</time>
</trkpt>
<trkpt lat="37.951948" lon="-1.077826">
 <ele>315.080000</ele>
<time>2005-05-24T12:22:33Z</time>
</trkpt>
<trkpt lat="37.951996" lon="-1.077818">
 <ele>314.260000</ele>
<time>2005-05-24T12:22:36Z</time>
</trkpt>
<trkpt lat="37.952004" lon="-1.077840">
 <ele>315.080000</ele>
<time>2005-05-24T12:22:38Z</time>
</trkpt>
<trkpt lat="37.952014" lon="-1.077829">
 <ele>314.440000</ele>
<time>2005-05-24T12:22:39Z</time>
</trkpt>
<trkpt lat="37.952081" lon="-1.077794">
 <ele>314.160000</ele>
<time>2005-05-24T12:22:44Z</time>
</trkpt>
<trkpt lat="37.952099" lon="-1.077822">
 <ele>313.840000</ele>
<time>2005-05-24T12:22:49Z</time>
</trkpt>
<trkpt lat="37.952103" lon="-1.077815">
 <ele>313.760000</ele>
<time>2005-05-24T12:22:50Z</time>
</trkpt>
<trkpt lat="37.952100" lon="-1.077822">
 <ele>311.880000</ele>
<time>2005-05-24T12:22:51Z</time>
</trkpt>
<trkpt lat="37.952113" lon="-1.077811">
 <ele>314.380000</ele>
<time>2005-05-24T12:22:52Z</time>
</trkpt>
<trkpt lat="37.952191" lon="-1.077823">
 <ele>311.660000</ele>
<time>2005-05-24T12:22:55Z</time>
</trkpt>
<trkpt lat="37.952188" lon="-1.077836">
 <ele>312.200000</ele>
<time>2005-05-24T12:22:56Z</time>
</trkpt>
<trkpt lat="37.952202" lon="-1.077850">
 <ele>309.820000</ele>
<time>2005-05-24T12:22:58Z</time>
</trkpt>
<trkpt lat="37.952254" lon="-1.077878">
 <ele>307.820000</ele>
<time>2005-05-24T12:23:04Z</time>
</trkpt>
<trkpt lat="37.952268" lon="-1.077882">
 <ele>306.180000</ele>
<time>2005-05-24T12:23:05Z</time>
</trkpt>
<trkpt lat="37.952240" lon="-1.077864">
 <ele>305.500000</ele>
<time>2005-05-24T12:23:06Z</time>
</trkpt>
<trkpt lat="37.952251" lon="-1.077854">
 <ele>304.940000</ele>
<time>2005-05-24T12:23:07Z</time>
</trkpt>
<trkpt lat="37.952300" lon="-1.077840">
 <ele>299.300000</ele>
<time>2005-05-24T12:23:11Z</time>
</trkpt>
<trkpt lat="37.952311" lon="-1.077811">
 <ele>302.840000</ele>
<time>2005-05-24T12:23:13Z</time>
</trkpt>
<trkpt lat="37.952330" lon="-1.077813">
 <ele>301.960000</ele>
<time>2005-05-24T12:23:14Z</time>
</trkpt>
<trkpt lat="37.952337" lon="-1.077775">
 <ele>301.120000</ele>
<time>2005-05-24T12:23:18Z</time>
</trkpt>
<trkpt lat="37.952348" lon="-1.077735">
 <ele>299.080000</ele>
<time>2005-05-24T12:23:21Z</time>
</trkpt>
<trkpt lat="37.952339" lon="-1.077750">
 <ele>299.280000</ele>
<time>2005-05-24T12:23:22Z</time>
</trkpt>
<trkpt lat="37.952301" lon="-1.077738">
 <ele>297.900000</ele>
<time>2005-05-24T12:23:24Z</time>
</trkpt>
<trkpt lat="37.952302" lon="-1.077715">
 <ele>298.900000</ele>
<time>2005-05-24T12:23:26Z</time>
</trkpt>
<trkpt lat="37.952309" lon="-1.077676">
 <ele>296.760000</ele>
<time>2005-05-24T12:23:29Z</time>
</trkpt>
<trkpt lat="37.952222" lon="-1.077570">
 <ele>291.100000</ele>
<time>2005-05-24T12:23:43Z</time>
</trkpt>
<trkpt lat="37.952236" lon="-1.077566">
 <ele>290.800000</ele>
<time>2005-05-24T12:23:44Z</time>
</trkpt>
<trkpt lat="37.952271" lon="-1.077509">
 <ele>288.960000</ele>
<time>2005-05-24T12:23:49Z</time>
</trkpt>
<trkpt lat="37.952297" lon="-1.077503">
 <ele>288.060000</ele>
<time>2005-05-24T12:23:54Z</time>
</trkpt>
<trkpt lat="37.952314" lon="-1.077495">
 <ele>288.380000</ele>
<time>2005-05-24T12:23:56Z</time>
</trkpt>
<trkpt lat="37.952317" lon="-1.077460">
 <ele>287.900000</ele>
<time>2005-05-24T12:23:57Z</time>
</trkpt>
<trkpt lat="37.952331" lon="-1.077461">
 <ele>287.740000</ele>
<time>2005-05-24T12:23:58Z</time>
</trkpt>
<trkpt lat="37.952383" lon="-1.077415">
 <ele>286.820000</ele>
<time>2005-05-24T12:24:01Z</time>
</trkpt>
<trkpt lat="37.952381" lon="-1.077429">
 <ele>285.160000</ele>
<time>2005-05-24T12:24:02Z</time>
</trkpt>
<trkpt lat="37.952386" lon="-1.077421">
 <ele>287.080000</ele>
<time>2005-05-24T12:24:03Z</time>
</trkpt>
<trkpt lat="37.952406" lon="-1.077409">
 <ele>285.940000</ele>
<time>2005-05-24T12:24:05Z</time>
</trkpt>
<trkpt lat="37.952404" lon="-1.077418">
 <ele>286.100000</ele>
<time>2005-05-24T12:24:06Z</time>
</trkpt>
<trkpt lat="37.952402" lon="-1.077401">
 <ele>285.400000</ele>
<time>2005-05-24T12:24:07Z</time>
</trkpt>
<trkpt lat="37.952399" lon="-1.077412">
 <ele>285.980000</ele>
<time>2005-05-24T12:24:08Z</time>
</trkpt>
<trkpt lat="37.952405" lon="-1.077405">
 <ele>285.980000</ele>
<time>2005-05-24T12:24:09Z</time>
</trkpt>
<trkpt lat="37.952405" lon="-1.077405">
 <ele>285.900000</ele>
<time>2005-05-24T12:24:10Z</time>
</trkpt>
<trkpt lat="37.952399" lon="-1.077398">
 <ele>283.580000</ele>
<time>2005-05-24T12:24:18Z</time>
</trkpt>
<trkpt lat="37.952363" lon="-1.077352">
 <ele>283.100000</ele>
<time>2005-05-24T12:24:21Z</time>
</trkpt>
<trkpt lat="37.952406" lon="-1.077328">
 <ele>277.220000</ele>
<time>2005-05-24T12:24:25Z</time>
</trkpt>
<trkpt lat="37.952485" lon="-1.077300">
 <ele>275.240000</ele>
<time>2005-05-24T12:24:30Z</time>
</trkpt>
<trkpt lat="37.952522" lon="-1.077254">
 <ele>275.900000</ele>
<time>2005-05-24T12:24:32Z</time>
</trkpt>
<trkpt lat="37.952536" lon="-1.077239">
 <ele>276.380000</ele>
<time>2005-05-24T12:24:35Z</time>
</trkpt>
<trkpt lat="37.952516" lon="-1.077227">
 <ele>275.640000</ele>
<time>2005-05-24T12:24:37Z</time>
</trkpt>
<trkpt lat="37.952477" lon="-1.077203">
 <ele>275.500000</ele>
<time>2005-05-24T12:24:41Z</time>
</trkpt>
<trkpt lat="37.952486" lon="-1.077209">
 <ele>275.100000</ele>
<time>2005-05-24T12:24:42Z</time>
</trkpt>
<trkpt lat="37.952494" lon="-1.077205">
 <ele>274.500000</ele>
<time>2005-05-24T12:24:43Z</time>
</trkpt>
<trkpt lat="37.952488" lon="-1.077201">
 <ele>276.580000</ele>
<time>2005-05-24T12:24:44Z</time>
</trkpt>
<trkpt lat="37.952481" lon="-1.077202">
 <ele>275.500000</ele>
<time>2005-05-24T12:24:45Z</time>
</trkpt>
<trkpt lat="37.952483" lon="-1.077200">
 <ele>275.660000</ele>
<time>2005-05-24T12:24:46Z</time>
</trkpt>
<trkpt lat="37.952483" lon="-1.077200">
 <ele>275.500000</ele>
<time>2005-05-24T12:24:47Z</time>
</trkpt>
<trkpt lat="37.952493" lon="-1.077186">
 <ele>274.940000</ele>
<time>2005-05-24T12:24:50Z</time>
</trkpt>
<trkpt lat="37.952568" lon="-1.077074">
 <ele>272.500000</ele>
<time>2005-05-24T12:24:56Z</time>
</trkpt>
<trkpt lat="37.952600" lon="-1.077040">
 <ele>273.840000</ele>
<time>2005-05-24T12:24:58Z</time>
</trkpt>
<trkpt lat="37.952590" lon="-1.077019">
 <ele>274.380000</ele>
<time>2005-05-24T12:25:02Z</time>
</trkpt>
<trkpt lat="37.952592" lon="-1.077013">
 <ele>273.920000</ele>
<time>2005-05-24T12:25:03Z</time>
</trkpt>
<trkpt lat="37.952591" lon="-1.077014">
 <ele>271.300000</ele>
<time>2005-05-24T12:25:04Z</time>
</trkpt>
<trkpt lat="37.952612" lon="-1.077012">
 <ele>270.640000</ele>
<time>2005-05-24T12:25:05Z</time>
</trkpt>
<trkpt lat="37.952600" lon="-1.077018">
 <ele>269.640000</ele>
<time>2005-05-24T12:25:06Z</time>
</trkpt>
<trkpt lat="37.952607" lon="-1.077025">
 <ele>271.080000</ele>
<time>2005-05-24T12:25:07Z</time>
</trkpt>
<trkpt lat="37.952658" lon="-1.077014">
 <ele>270.000000</ele>
<time>2005-05-24T12:25:11Z</time>
</trkpt>
<trkpt lat="37.952752" lon="-1.076965">
 <ele>264.980000</ele>
<time>2005-05-24T12:25:22Z</time>
</trkpt>
<trkpt lat="37.952746" lon="-1.076969">
 <ele>266.360000</ele>
<time>2005-05-24T12:25:23Z</time>
</trkpt>
<trkpt lat="37.952744" lon="-1.076968">
 <ele>265.860000</ele>
<time>2005-05-24T12:25:24Z</time>
</trkpt>
<trkpt lat="37.952743" lon="-1.076970">
 <ele>265.920000</ele>
<time>2005-05-24T12:25:25Z</time>
</trkpt>
<trkpt lat="37.952747" lon="-1.076963">
 <ele>265.880000</ele>
<time>2005-05-24T12:25:26Z</time>
</trkpt>
<trkpt lat="37.952740" lon="-1.076880">
 <ele>266.940000</ele>
<time>2005-05-24T12:25:33Z</time>
</trkpt>
<trkpt lat="37.952743" lon="-1.076894">
 <ele>266.540000</ele>
<time>2005-05-24T12:25:34Z</time>
</trkpt>
<trkpt lat="37.952751" lon="-1.076890">
 <ele>267.040000</ele>
<time>2005-05-24T12:25:35Z</time>
</trkpt>
<trkpt lat="37.952817" lon="-1.076889">
 <ele>261.320000</ele>
<time>2005-05-24T12:25:40Z</time>
</trkpt>
<trkpt lat="37.952837" lon="-1.076877">
 <ele>261.900000</ele>
<time>2005-05-24T12:25:41Z</time>
</trkpt>
<trkpt lat="37.952835" lon="-1.076877">
 <ele>260.080000</ele>
<time>2005-05-24T12:25:42Z</time>
</trkpt>
<trkpt lat="37.952844" lon="-1.076876">
 <ele>260.280000</ele>
<time>2005-05-24T12:25:43Z</time>
</trkpt>
<trkpt lat="37.952857" lon="-1.076897">
 <ele>259.180000</ele>
<time>2005-05-24T12:25:46Z</time>
</trkpt>
<trkpt lat="37.952848" lon="-1.076887">
 <ele>258.380000</ele>
<time>2005-05-24T12:25:47Z</time>
</trkpt>
<trkpt lat="37.952850" lon="-1.076886">
 <ele>258.660000</ele>
<time>2005-05-24T12:25:48Z</time>
</trkpt>
<trkpt lat="37.952851" lon="-1.076834">
 <ele>255.860000</ele>
<time>2005-05-24T12:25:52Z</time>
</trkpt>
<trkpt lat="37.952839" lon="-1.076828">
 <ele>255.700000</ele>
<time>2005-05-24T12:25:55Z</time>
</trkpt>
<trkpt lat="37.952852" lon="-1.076837">
 <ele>254.100000</ele>
<time>2005-05-24T12:25:56Z</time>
</trkpt>
<trkpt lat="37.952857" lon="-1.076843">
 <ele>254.760000</ele>
<time>2005-05-24T12:25:57Z</time>
</trkpt>
<trkpt lat="37.952850" lon="-1.076829">
 <ele>252.800000</ele>
<time>2005-05-24T12:25:58Z</time>
</trkpt>
<trkpt lat="37.952785" lon="-1.076670">
 <ele>250.440000</ele>
<time>2005-05-24T12:26:11Z</time>
</trkpt>
<trkpt lat="37.952795" lon="-1.076650">
 <ele>249.460000</ele>
<time>2005-05-24T12:26:12Z</time>
</trkpt>
<trkpt lat="37.952802" lon="-1.076627">
 <ele>246.800000</ele>
<time>2005-05-24T12:26:15Z</time>
</trkpt>
<trkpt lat="37.952803" lon="-1.076651">
 <ele>247.200000</ele>
<time>2005-05-24T12:26:16Z</time>
</trkpt>
<trkpt lat="37.952809" lon="-1.076632">
 <ele>245.800000</ele>
<time>2005-05-24T12:26:17Z</time>
</trkpt>
<trkpt lat="37.952814" lon="-1.076636">
 <ele>247.160000</ele>
<time>2005-05-24T12:26:18Z</time>
</trkpt>
<trkpt lat="37.952812" lon="-1.076632">
 <ele>246.680000</ele>
<time>2005-05-24T12:26:19Z</time>
</trkpt>
<trkpt lat="37.952812" lon="-1.076632">
 <ele>247.000000</ele>
<time>2005-05-24T12:26:20Z</time>
</trkpt>
<trkpt lat="37.952821" lon="-1.076620">
 <ele>245.960000</ele>
<time>2005-05-24T12:26:21Z</time>
</trkpt>
<trkpt lat="37.952839" lon="-1.076568">
 <ele>244.900000</ele>
<time>2005-05-24T12:26:24Z</time>
</trkpt>
<trkpt lat="37.952853" lon="-1.076594">
 <ele>241.520000</ele>
<time>2005-05-24T12:26:25Z</time>
</trkpt>
<trkpt lat="37.952861" lon="-1.076569">
 <ele>241.080000</ele>
<time>2005-05-24T12:26:26Z</time>
</trkpt>
<trkpt lat="37.952865" lon="-1.076580">
 <ele>243.820000</ele>
<time>2005-05-24T12:26:27Z</time>
</trkpt>
<trkpt lat="37.952865" lon="-1.076564">
 <ele>240.740000</ele>
<time>2005-05-24T12:26:28Z</time>
</trkpt>
<trkpt lat="37.952901" lon="-1.076480">
 <ele>241.080000</ele>
<time>2005-05-24T12:26:33Z</time>
</trkpt>
<trkpt lat="37.952924" lon="-1.076459">
 <ele>241.140000</ele>
<time>2005-05-24T12:26:34Z</time>
</trkpt>
<trkpt lat="37.952911" lon="-1.076446">
 <ele>239.480000</ele>
<time>2005-05-24T12:26:35Z</time>
</trkpt>
<trkpt lat="37.952937" lon="-1.076403">
 <ele>241.360000</ele>
<time>2005-05-24T12:26:38Z</time>
</trkpt>
<trkpt lat="37.952942" lon="-1.076329">
 <ele>239.740000</ele>
<time>2005-05-24T12:26:41Z</time>
</trkpt>
<trkpt lat="37.952949" lon="-1.076319">
 <ele>237.400000</ele>
<time>2005-05-24T12:26:44Z</time>
</trkpt>
<trkpt lat="37.953002" lon="-1.076300">
 <ele>235.640000</ele>
<time>2005-05-24T12:26:49Z</time>
</trkpt>
<trkpt lat="37.953022" lon="-1.076264">
 <ele>233.140000</ele>
<time>2005-05-24T12:26:54Z</time>
</trkpt>
<trkpt lat="37.953029" lon="-1.076275">
 <ele>232.020000</ele>
<time>2005-05-24T12:26:55Z</time>
</trkpt>
<trkpt lat="37.953036" lon="-1.076261">
 <ele>232.820000</ele>
<time>2005-05-24T12:26:56Z</time>
</trkpt>
<trkpt lat="37.953040" lon="-1.076237">
 <ele>229.920000</ele>
<time>2005-05-24T12:26:58Z</time>
</trkpt>
<trkpt lat="37.953052" lon="-1.076251">
 <ele>228.700000</ele>
<time>2005-05-24T12:27:00Z</time>
</trkpt>
<trkpt lat="37.953040" lon="-1.076259">
 <ele>229.260000</ele>
<time>2005-05-24T12:27:01Z</time>
</trkpt>
<trkpt lat="37.953042" lon="-1.076261">
 <ele>229.980000</ele>
<time>2005-05-24T12:27:02Z</time>
</trkpt>
<trkpt lat="37.953046" lon="-1.076246">
 <ele>228.740000</ele>
<time>2005-05-24T12:27:03Z</time>
</trkpt>
<trkpt lat="37.953059" lon="-1.076196">
 <ele>230.280000</ele>
<time>2005-05-24T12:27:07Z</time>
</trkpt>
<trkpt lat="37.953073" lon="-1.076204">
 <ele>232.440000</ele>
<time>2005-05-24T12:27:08Z</time>
</trkpt>
<trkpt lat="37.953107" lon="-1.076171">
 <ele>232.460000</ele>
<time>2005-05-24T12:27:11Z</time>
</trkpt>
<trkpt lat="37.953078" lon="-1.076129">
 <ele>232.600000</ele>
<time>2005-05-24T12:27:14Z</time>
</trkpt>
<trkpt lat="37.953082" lon="-1.076134">
 <ele>231.780000</ele>
<time>2005-05-24T12:27:15Z</time>
</trkpt>
<trkpt lat="37.953114" lon="-1.076127">
 <ele>231.980000</ele>
<time>2005-05-24T12:27:18Z</time>
</trkpt>
<trkpt lat="37.953152" lon="-1.076106">
 <ele>231.440000</ele>
<time>2005-05-24T12:27:21Z</time>
</trkpt>
<trkpt lat="37.953150" lon="-1.076109">
 <ele>233.220000</ele>
<time>2005-05-24T12:27:22Z</time>
</trkpt>
<trkpt lat="37.953138" lon="-1.076121">
 <ele>231.660000</ele>
<time>2005-05-24T12:27:23Z</time>
</trkpt>
<trkpt lat="37.953146" lon="-1.076113">
 <ele>232.540000</ele>
<time>2005-05-24T12:27:23Z</time>
</trkpt>
<trkpt lat="37.953152" lon="-1.076112">
 <ele>232.120000</ele>
<time>2005-05-24T12:27:26Z</time>
</trkpt>
<trkpt lat="37.953152" lon="-1.076112">
 <ele>232.200000</ele>
<time>2005-05-24T12:27:27Z</time>
</trkpt>
<trkpt lat="37.953155" lon="-1.076104">
 <ele>231.680000</ele>
<time>2005-05-24T12:27:28Z</time>
</trkpt>
<trkpt lat="37.953185" lon="-1.076064">
 <ele>227.280000</ele>
<time>2005-05-24T12:27:32Z</time>
</trkpt>
<trkpt lat="37.953174" lon="-1.076067">
 <ele>228.560000</ele>
<time>2005-05-24T12:27:33Z</time>
</trkpt>
<trkpt lat="37.953189" lon="-1.076063">
 <ele>227.460000</ele>
<time>2005-05-24T12:27:34Z</time>
</trkpt>
<trkpt lat="37.953179" lon="-1.076066">
 <ele>228.380000</ele>
<time>2005-05-24T12:27:35Z</time>
</trkpt>
<trkpt lat="37.953182" lon="-1.076062">
 <ele>227.820000</ele>
<time>2005-05-24T12:27:36Z</time>
</trkpt>
<trkpt lat="37.953182" lon="-1.076062">
 <ele>228.300000</ele>
<time>2005-05-24T12:27:37Z</time>
</trkpt>
<trkpt lat="37.953195" lon="-1.076043">
 <ele>228.780000</ele>
<time>2005-05-24T12:28:05Z</time>
</trkpt>
<trkpt lat="37.953258" lon="-1.075933">
 <ele>229.820000</ele>
<time>2005-05-24T12:28:12Z</time>
</trkpt>
<trkpt lat="37.953232" lon="-1.075902">
 <ele>230.240000</ele>
<time>2005-05-24T12:28:16Z</time>
</trkpt>
<trkpt lat="37.953239" lon="-1.075920">
 <ele>230.000000</ele>
<time>2005-05-24T12:28:17Z</time>
</trkpt>
<trkpt lat="37.953226" lon="-1.075917">
 <ele>229.000000</ele>
<time>2005-05-24T12:28:18Z</time>
</trkpt>
<trkpt lat="37.953227" lon="-1.075922">
 <ele>228.260000</ele>
<time>2005-05-24T12:28:19Z</time>
</trkpt>
<trkpt lat="37.953214" lon="-1.075909">
 <ele>227.460000</ele>
<time>2005-05-24T12:28:21Z</time>
</trkpt>
<trkpt lat="37.953233" lon="-1.075923">
 <ele>226.240000</ele>
<time>2005-05-24T12:28:22Z</time>
</trkpt>
<trkpt lat="37.953220" lon="-1.075915">
 <ele>226.300000</ele>
<time>2005-05-24T12:28:23Z</time>
</trkpt>
<trkpt lat="37.953223" lon="-1.075913">
 <ele>226.580000</ele>
<time>2005-05-24T12:28:24Z</time>
</trkpt>
<trkpt lat="37.953210" lon="-1.075913">
 <ele>224.940000</ele>
<time>2005-05-24T12:28:25Z</time>
</trkpt>
<trkpt lat="37.953193" lon="-1.075908">
 <ele>223.360000</ele>
<time>2005-05-24T12:28:28Z</time>
</trkpt>
<trkpt lat="37.953204" lon="-1.075914">
 <ele>224.700000</ele>
<time>2005-05-24T12:28:29Z</time>
</trkpt>
<trkpt lat="37.953192" lon="-1.075908">
 <ele>223.000000</ele>
<time>2005-05-24T12:28:30Z</time>
</trkpt>
<trkpt lat="37.953181" lon="-1.075917">
 <ele>225.080000</ele>
<time>2005-05-24T12:28:31Z</time>
</trkpt>
<trkpt lat="37.953182" lon="-1.075917">
 <ele>223.560000</ele>
<time>2005-05-24T12:28:32Z</time>
</trkpt>
<trkpt lat="37.953182" lon="-1.075917">
 <ele>224.200000</ele>
<time>2005-05-24T12:28:33Z</time>
</trkpt>
<trkpt lat="37.953180" lon="-1.075908">
 <ele>222.440000</ele>
<time>2005-05-24T12:28:36Z</time>
</trkpt>
<trkpt lat="37.953170" lon="-1.075836">
 <ele>222.940000</ele>
<time>2005-05-24T12:28:39Z</time>
</trkpt>
<trkpt lat="37.953173" lon="-1.075844">
 <ele>216.240000</ele>
<time>2005-05-24T12:28:40Z</time>
</trkpt>
<trkpt lat="37.953179" lon="-1.075828">
 <ele>220.680000</ele>
<time>2005-05-24T12:28:41Z</time>
</trkpt>
<trkpt lat="37.953213" lon="-1.075775">
 <ele>220.480000</ele>
<time>2005-05-24T12:28:45Z</time>
</trkpt>
<trkpt lat="37.953219" lon="-1.075756">
 <ele>221.080000</ele>
<time>2005-05-24T12:28:46Z</time>
</trkpt>
<trkpt lat="37.953310" lon="-1.075594">
 <ele>217.560000</ele>
<time>2005-05-24T12:28:56Z</time>
</trkpt>
<trkpt lat="37.953310" lon="-1.075590">
 <ele>215.780000</ele>
<time>2005-05-24T12:28:57Z</time>
</trkpt>
<trkpt lat="37.953294" lon="-1.075584">
 <ele>213.080000</ele>
<time>2005-05-24T12:28:58Z</time>
</trkpt>
<trkpt lat="37.953303" lon="-1.075589">
 <ele>217.320000</ele>
<time>2005-05-24T12:28:59Z</time>
</trkpt>
<trkpt lat="37.953312" lon="-1.075587">
 <ele>213.600000</ele>
<time>2005-05-24T12:29:00Z</time>
</trkpt>
<trkpt lat="37.953310" lon="-1.075580">
 <ele>214.720000</ele>
<time>2005-05-24T12:29:01Z</time>
</trkpt>
<trkpt lat="37.953310" lon="-1.075580">
 <ele>215.200000</ele>
<time>2005-05-24T12:29:02Z</time>
</trkpt>
<trkpt lat="37.953312" lon="-1.075569">
 <ele>213.000000</ele>
<time>2005-05-24T12:29:07Z</time>
</trkpt>
<trkpt lat="37.953343" lon="-1.075505">
 <ele>204.780000</ele>
<time>2005-05-24T12:29:11Z</time>
</trkpt>
<trkpt lat="37.953353" lon="-1.075487">
 <ele>209.440000</ele>
<time>2005-05-24T12:29:13Z</time>
</trkpt>
<trkpt lat="37.953356" lon="-1.075490">
 <ele>208.660000</ele>
<time>2005-05-24T12:29:14Z</time>
</trkpt>
<trkpt lat="37.953354" lon="-1.075470">
 <ele>208.280000</ele>
<time>2005-05-24T12:29:15Z</time>
</trkpt>
<trkpt lat="37.953370" lon="-1.075454">
 <ele>209.160000</ele>
<time>2005-05-24T12:29:18Z</time>
</trkpt>
<trkpt lat="37.953371" lon="-1.075447">
 <ele>209.220000</ele>
<time>2005-05-24T12:29:19Z</time>
</trkpt>
<trkpt lat="37.953366" lon="-1.075462">
 <ele>208.280000</ele>
<time>2005-05-24T12:29:20Z</time>
</trkpt>
<trkpt lat="37.953370" lon="-1.075466">
 <ele>210.180000</ele>
<time>2005-05-24T12:29:21Z</time>
</trkpt>
<trkpt lat="37.953375" lon="-1.075446">
 <ele>208.280000</ele>
<time>2005-05-24T12:29:22Z</time>
</trkpt>
<trkpt lat="37.953373" lon="-1.075452">
 <ele>209.080000</ele>
<time>2005-05-24T12:29:23Z</time>
</trkpt>
<trkpt lat="37.953373" lon="-1.075452">
 <ele>209.000000</ele>
<time>2005-05-24T12:29:24Z</time>
</trkpt>
<trkpt lat="37.953366" lon="-1.075448">
 <ele>209.320000</ele>
<time>2005-05-24T12:29:25Z</time>
</trkpt>
<trkpt lat="37.953327" lon="-1.075386">
 <ele>208.460000</ele>
<time>2005-05-24T12:29:30Z</time>
</trkpt>
<trkpt lat="37.953339" lon="-1.075384">
 <ele>207.300000</ele>
<time>2005-05-24T12:29:31Z</time>
</trkpt>
<trkpt lat="37.953360" lon="-1.075318">
 <ele>208.080000</ele>
<time>2005-05-24T12:29:35Z</time>
</trkpt>
<trkpt lat="37.953378" lon="-1.075315">
 <ele>207.260000</ele>
<time>2005-05-24T12:29:36Z</time>
</trkpt>
<trkpt lat="37.953382" lon="-1.075293">
 <ele>208.920000</ele>
<time>2005-05-24T12:29:38Z</time>
</trkpt>
<trkpt lat="37.953350" lon="-1.075287">
 <ele>209.720000</ele>
<time>2005-05-24T12:29:40Z</time>
</trkpt>
<trkpt lat="37.953337" lon="-1.075270">
 <ele>209.880000</ele>
<time>2005-05-24T12:29:42Z</time>
</trkpt>
<trkpt lat="37.953351" lon="-1.075232">
 <ele>208.820000</ele>
<time>2005-05-24T12:29:44Z</time>
</trkpt>
<trkpt lat="37.953345" lon="-1.075200">
 <ele>207.280000</ele>
<time>2005-05-24T12:29:47Z</time>
</trkpt>
<trkpt lat="37.953363" lon="-1.075178">
 <ele>207.340000</ele>
<time>2005-05-24T12:29:48Z</time>
</trkpt>
<trkpt lat="37.953329" lon="-1.075138">
 <ele>206.200000</ele>
<time>2005-05-24T12:29:50Z</time>
</trkpt>
<trkpt lat="37.953327" lon="-1.075154">
 <ele>205.280000</ele>
<time>2005-05-24T12:29:51Z</time>
</trkpt>
<trkpt lat="37.953325" lon="-1.075148">
 <ele>203.880000</ele>
<time>2005-05-24T12:29:52Z</time>
</trkpt>
<trkpt lat="37.953323" lon="-1.075144">
 <ele>201.760000</ele>
<time>2005-05-24T12:29:54Z</time>
</trkpt>
<trkpt lat="37.953331" lon="-1.075097">
 <ele>197.860000</ele>
<time>2005-05-24T12:29:57Z</time>
</trkpt>
<trkpt lat="37.953327" lon="-1.075103">
 <ele>197.680000</ele>
<time>2005-05-24T12:29:58Z</time>
</trkpt>
<trkpt lat="37.953317" lon="-1.075110">
 <ele>198.760000</ele>
<time>2005-05-24T12:29:59Z</time>
</trkpt>
<trkpt lat="37.953322" lon="-1.075122">
 <ele>198.520000</ele>
<time>2005-05-24T12:30:00Z</time>
</trkpt>
<trkpt lat="37.953323" lon="-1.075108">
 <ele>198.920000</ele>
<time>2005-05-24T12:30:01Z</time>
</trkpt>
<trkpt lat="37.953316" lon="-1.075113">
 <ele>198.680000</ele>
<time>2005-05-24T12:30:02Z</time>
</trkpt>
<trkpt lat="37.953315" lon="-1.075112">
 <ele>199.320000</ele>
<time>2005-05-24T12:30:03Z</time>
</trkpt>
<trkpt lat="37.953315" lon="-1.075112">
 <ele>199.000000</ele>
<time>2005-05-24T12:30:04Z</time>
</trkpt>
<trkpt lat="37.953319" lon="-1.075097">
 <ele>198.280000</ele>
<time>2005-05-24T12:30:11Z</time>
</trkpt>
<trkpt lat="37.953337" lon="-1.075035">
 <ele>198.980000</ele>
<time>2005-05-24T12:30:14Z</time>
</trkpt>
<trkpt lat="37.953332" lon="-1.075044">
 <ele>196.520000</ele>
<time>2005-05-24T12:30:15Z</time>
</trkpt>
<trkpt lat="37.953340" lon="-1.075031">
 <ele>198.180000</ele>
<time>2005-05-24T12:30:16Z</time>
</trkpt>
<trkpt lat="37.953338" lon="-1.075039">
 <ele>197.500000</ele>
<time>2005-05-24T12:30:17Z</time>
</trkpt>
<trkpt lat="37.953340" lon="-1.075030">
 <ele>198.380000</ele>
<time>2005-05-24T12:30:18Z</time>
</trkpt>
<trkpt lat="37.953340" lon="-1.075030">
 <ele>197.900000</ele>
<time>2005-05-24T12:30:19Z</time>
</trkpt>
<trkpt lat="37.953349" lon="-1.075029">
 <ele>197.900000</ele>
<time>2005-05-24T12:30:21Z</time>
</trkpt>
<trkpt lat="37.953402" lon="-1.074986">
 <ele>201.200000</ele>
<time>2005-05-24T12:30:24Z</time>
</trkpt>
<trkpt lat="37.953447" lon="-1.074925">
 <ele>199.300000</ele>
<time>2005-05-24T12:30:30Z</time>
</trkpt>
<trkpt lat="37.953475" lon="-1.074912">
 <ele>198.840000</ele>
<time>2005-05-24T12:30:31Z</time>
</trkpt>
<trkpt lat="37.953484" lon="-1.074912">
 <ele>201.320000</ele>
<time>2005-05-24T12:30:35Z</time>
</trkpt>
<trkpt lat="37.953476" lon="-1.074896">
 <ele>201.200000</ele>
<time>2005-05-24T12:30:36Z</time>
</trkpt>
<trkpt lat="37.953482" lon="-1.074899">
 <ele>201.600000</ele>
<time>2005-05-24T12:30:37Z</time>
</trkpt>
<trkpt lat="37.953482" lon="-1.074903">
 <ele>201.200000</ele>
<time>2005-05-24T12:30:38Z</time>
</trkpt>
<trkpt lat="37.953482" lon="-1.074903">
 <ele>201.520000</ele>
<time>2005-05-24T12:30:39Z</time>
</trkpt>
<trkpt lat="37.953482" lon="-1.074903">
 <ele>201.200000</ele>
<time>2005-05-24T12:30:40Z</time>
</trkpt>
<trkpt lat="37.953482" lon="-1.074903">
 <ele>201.200000</ele>
<time>2005-05-24T12:30:41Z</time>
</trkpt>
<trkpt lat="37.953482" lon="-1.074903">
 <ele>201.200000</ele>
<time>2005-05-24T12:30:42Z</time>
</trkpt>
<trkpt lat="37.953482" lon="-1.074903">
 <ele>201.200000</ele>
<time>2005-05-24T12:30:43Z</time>
</trkpt>
<trkpt lat="37.953482" lon="-1.074903">
 <ele>201.200000</ele>
<time>2005-05-24T12:30:44Z</time>
</trkpt>
<trkpt lat="37.953482" lon="-1.074903">
 <ele>201.200000</ele>
<time>2005-05-24T12:30:45Z</time>
</trkpt>
<trkpt lat="37.953482" lon="-1.074903">
 <ele>201.200000</ele>
<time>2005-05-24T12:30:46Z</time>
</trkpt>
<trkpt lat="37.953482" lon="-1.074903">
 <ele>201.200000</ele>
<time>2005-05-24T12:30:47Z</time>
</trkpt>
<trkpt lat="37.953492" lon="-1.074902">
 <ele>202.240000</ele>
<time>2005-05-24T12:30:48Z</time>
</trkpt>
<trkpt lat="37.953556" lon="-1.074857">
 <ele>201.420000</ele>
<time>2005-05-24T12:30:51Z</time>
</trkpt>
<trkpt lat="37.953549" lon="-1.074854">
 <ele>204.860000</ele>
<time>2005-05-24T12:30:52Z</time>
</trkpt>
<trkpt lat="37.953556" lon="-1.074847">
 <ele>202.880000</ele>
<time>2005-05-24T12:30:53Z</time>
</trkpt>
<trkpt lat="37.953628" lon="-1.074848">
 <ele>202.000000</ele>
<time>2005-05-24T12:30:56Z</time>
</trkpt>
<trkpt lat="37.953622" lon="-1.074823">
 <ele>203.240000</ele>
<time>2005-05-24T12:30:57Z</time>
</trkpt>
<trkpt lat="37.953665" lon="-1.074759">
 <ele>203.040000</ele>
<time>2005-05-24T12:31:02Z</time>
</trkpt>
<trkpt lat="37.953659" lon="-1.074739">
 <ele>202.280000</ele>
<time>2005-05-24T12:31:03Z</time>
</trkpt>
<trkpt lat="37.953639" lon="-1.074742">
 <ele>202.500000</ele>
<time>2005-05-24T12:31:04Z</time>
</trkpt>
<trkpt lat="37.953651" lon="-1.074742">
 <ele>202.280000</ele>
<time>2005-05-24T12:31:05Z</time>
</trkpt>
<trkpt lat="37.953650" lon="-1.074737">
 <ele>202.580000</ele>
<time>2005-05-24T12:31:06Z</time>
</trkpt>
<trkpt lat="37.953652" lon="-1.074730">
 <ele>202.420000</ele>
<time>2005-05-24T12:31:07Z</time>
</trkpt>
<trkpt lat="37.953652" lon="-1.074730">
 <ele>202.500000</ele>
<time>2005-05-24T12:31:08Z</time>
</trkpt>
<trkpt lat="37.953666" lon="-1.074734">
 <ele>196.900000</ele>
<time>2005-05-24T12:31:25Z</time>
</trkpt>
<trkpt lat="37.953731" lon="-1.074726">
 <ele>185.580000</ele>
<time>2005-05-24T12:31:31Z</time>
</trkpt>
<trkpt lat="37.953724" lon="-1.074746">
 <ele>186.160000</ele>
<time>2005-05-24T12:31:32Z</time>
</trkpt>
<trkpt lat="37.953729" lon="-1.074733">
 <ele>185.900000</ele>
<time>2005-05-24T12:31:33Z</time>
</trkpt>
<trkpt lat="37.953726" lon="-1.074741">
 <ele>186.020000</ele>
<time>2005-05-24T12:31:34Z</time>
</trkpt>
<trkpt lat="37.953728" lon="-1.074737">
 <ele>185.940000</ele>
<time>2005-05-24T12:31:35Z</time>
</trkpt>
<trkpt lat="37.953728" lon="-1.074737">
 <ele>186.100000</ele>
<time>2005-05-24T12:31:36Z</time>
</trkpt>
<trkpt lat="37.953735" lon="-1.074731">
 <ele>187.380000</ele>
<time>2005-05-24T12:31:37Z</time>
</trkpt>
<trkpt lat="37.953789" lon="-1.074629">
 <ele>195.480000</ele>
<time>2005-05-24T12:31:43Z</time>
</trkpt>
<trkpt lat="37.953798" lon="-1.074637">
 <ele>195.960000</ele>
<time>2005-05-24T12:31:44Z</time>
</trkpt>
<trkpt lat="37.953809" lon="-1.074597">
 <ele>196.340000</ele>
<time>2005-05-24T12:31:46Z</time>
</trkpt>
<trkpt lat="37.953833" lon="-1.074488">
 <ele>202.020000</ele>
<time>2005-05-24T12:31:52Z</time>
</trkpt>
<trkpt lat="37.953853" lon="-1.074444">
 <ele>203.220000</ele>
<time>2005-05-24T12:31:54Z</time>
</trkpt>
<trkpt lat="37.953867" lon="-1.074415">
 <ele>198.940000</ele>
<time>2005-05-24T12:31:57Z</time>
</trkpt>
<trkpt lat="37.953870" lon="-1.074419">
 <ele>200.800000</ele>
<time>2005-05-24T12:31:58Z</time>
</trkpt>
<trkpt lat="37.953889" lon="-1.074401">
 <ele>200.820000</ele>
<time>2005-05-24T12:31:59Z</time>
</trkpt>
<trkpt lat="37.953919" lon="-1.074320">
 <ele>203.720000</ele>
<time>2005-05-24T12:32:01Z</time>
</trkpt>
<trkpt lat="37.953904" lon="-1.074307">
 <ele>206.060000</ele>
<time>2005-05-24T12:32:03Z</time>
</trkpt>
<trkpt lat="37.953925" lon="-1.074321">
 <ele>206.520000</ele>
<time>2005-05-24T12:32:04Z</time>
</trkpt>
<trkpt lat="37.953920" lon="-1.074282">
 <ele>209.320000</ele>
<time>2005-05-24T12:32:06Z</time>
</trkpt>
<trkpt lat="37.953936" lon="-1.074254">
 <ele>211.780000</ele>
<time>2005-05-24T12:32:09Z</time>
</trkpt>
<trkpt lat="37.953939" lon="-1.074242">
 <ele>215.100000</ele>
<time>2005-05-24T12:32:10Z</time>
</trkpt>
<trkpt lat="37.953928" lon="-1.074255">
 <ele>212.960000</ele>
<time>2005-05-24T12:32:11Z</time>
</trkpt>
<trkpt lat="37.953936" lon="-1.074255">
 <ele>214.080000</ele>
<time>2005-05-24T12:32:12Z</time>
</trkpt>
<trkpt lat="37.953936" lon="-1.074254">
 <ele>212.880000</ele>
<time>2005-05-24T12:32:13Z</time>
</trkpt>
<trkpt lat="37.953937" lon="-1.074250">
 <ele>213.200000</ele>
<time>2005-05-24T12:32:15Z</time>
</trkpt>
<trkpt lat="37.953955" lon="-1.074247">
 <ele>208.840000</ele>
<time>2005-05-24T12:32:34Z</time>
</trkpt>
<trkpt lat="37.954042" lon="-1.074224">
 <ele>202.160000</ele>
<time>2005-05-24T12:32:40Z</time>
</trkpt>
<trkpt lat="37.954030" lon="-1.074213">
 <ele>201.080000</ele>
<time>2005-05-24T12:32:41Z</time>
</trkpt>
<trkpt lat="37.954042" lon="-1.074211">
 <ele>205.280000</ele>
<time>2005-05-24T12:32:42Z</time>
</trkpt>
<trkpt lat="37.954050" lon="-1.074211">
 <ele>199.880000</ele>
<time>2005-05-24T12:32:43Z</time>
</trkpt>
<trkpt lat="37.954067" lon="-1.074183">
 <ele>202.640000</ele>
<time>2005-05-24T12:32:47Z</time>
</trkpt>
<trkpt lat="37.954054" lon="-1.074203">
 <ele>203.760000</ele>
<time>2005-05-24T12:32:48Z</time>
</trkpt>
<trkpt lat="37.954055" lon="-1.074191">
 <ele>201.600000</ele>
<time>2005-05-24T12:32:49Z</time>
</trkpt>
<trkpt lat="37.954053" lon="-1.074195">
 <ele>203.760000</ele>
<time>2005-05-24T12:32:50Z</time>
</trkpt>
<trkpt lat="37.954055" lon="-1.074193">
 <ele>202.480000</ele>
<time>2005-05-24T12:32:51Z</time>
</trkpt>
<trkpt lat="37.954055" lon="-1.074193">
 <ele>202.800000</ele>
<time>2005-05-24T12:32:52Z</time>
</trkpt>
<trkpt lat="37.954054" lon="-1.074189">
 <ele>194.680000</ele>
<time>2005-05-24T12:33:01Z</time>
</trkpt>
<trkpt lat="37.954069" lon="-1.074169">
 <ele>165.040000</ele>
<time>2005-05-24T12:33:05Z</time>
</trkpt>
<trkpt lat="37.954068" lon="-1.074166">
 <ele>181.420000</ele>
<time>2005-05-24T12:33:06Z</time>
</trkpt>
<trkpt lat="37.954066" lon="-1.074175">
 <ele>181.560000</ele>
<time>2005-05-24T12:33:07Z</time>
</trkpt>
<trkpt lat="37.954053" lon="-1.074168">
 <ele>180.540000</ele>
<time>2005-05-24T12:33:08Z</time>
</trkpt>
<trkpt lat="37.954058" lon="-1.074170">
 <ele>180.840000</ele>
<time>2005-05-24T12:33:09Z</time>
</trkpt>
<trkpt lat="37.954049" lon="-1.074166">
 <ele>179.940000</ele>
<time>2005-05-24T12:33:10Z</time>
</trkpt>
<trkpt lat="37.954049" lon="-1.074136">
 <ele>179.960000</ele>
<time>2005-05-24T12:33:12Z</time>
</trkpt>
<trkpt lat="37.954036" lon="-1.074142">
 <ele>181.560000</ele>
<time>2005-05-24T12:33:13Z</time>
</trkpt>
<trkpt lat="37.954054" lon="-1.074148">
 <ele>182.760000</ele>
<time>2005-05-24T12:33:14Z</time>
</trkpt>
<trkpt lat="37.954058" lon="-1.074131">
 <ele>181.120000</ele>
<time>2005-05-24T12:33:15Z</time>
</trkpt>
<trkpt lat="37.954077" lon="-1.074089">
 <ele>176.400000</ele>
<time>2005-05-24T12:33:18Z</time>
</trkpt>
<trkpt lat="37.954077" lon="-1.074102">
 <ele>176.100000</ele>
<time>2005-05-24T12:33:19Z</time>
</trkpt>
<trkpt lat="37.954083" lon="-1.074085">
 <ele>175.100000</ele>
<time>2005-05-24T12:33:20Z</time>
</trkpt>
<trkpt lat="37.954080" lon="-1.074087">
 <ele>176.380000</ele>
<time>2005-05-24T12:33:21Z</time>
</trkpt>
<trkpt lat="37.954083" lon="-1.074065">
 <ele>175.980000</ele>
<time>2005-05-24T12:33:22Z</time>
</trkpt>
<trkpt lat="37.954081" lon="-1.074054">
 <ele>175.940000</ele>
<time>2005-05-24T12:33:23Z</time>
</trkpt>
<trkpt lat="37.954092" lon="-1.074074">
 <ele>177.260000</ele>
<time>2005-05-24T12:33:24Z</time>
</trkpt>
<trkpt lat="37.954091" lon="-1.074074">
 <ele>176.020000</ele>
<time>2005-05-24T12:33:25Z</time>
</trkpt>
<trkpt lat="37.954091" lon="-1.074063">
 <ele>176.660000</ele>
<time>2005-05-24T12:33:26Z</time>
</trkpt>
<trkpt lat="37.954090" lon="-1.074063">
 <ele>176.500000</ele>
<time>2005-05-24T12:33:27Z</time>
</trkpt>
<trkpt lat="37.954092" lon="-1.074054">
 <ele>176.700000</ele>
<time>2005-05-24T12:33:28Z</time>
</trkpt>
<trkpt lat="37.954111" lon="-1.074002">
 <ele>178.680000</ele>
<time>2005-05-24T12:33:31Z</time>
</trkpt>
<trkpt lat="37.954101" lon="-1.074016">
 <ele>179.020000</ele>
<time>2005-05-24T12:33:32Z</time>
</trkpt>
<trkpt lat="37.954112" lon="-1.074002">
 <ele>179.360000</ele>
<time>2005-05-24T12:33:33Z</time>
</trkpt>
<trkpt lat="37.954107" lon="-1.074010">
 <ele>178.980000</ele>
<time>2005-05-24T12:33:34Z</time>
</trkpt>
<trkpt lat="37.954112" lon="-1.074002">
 <ele>179.300000</ele>
<time>2005-05-24T12:33:35Z</time>
</trkpt>
<trkpt lat="37.954112" lon="-1.074002">
 <ele>178.900000</ele>
<time>2005-05-24T12:33:36Z</time>
</trkpt>
<trkpt lat="37.954110" lon="-1.073997">
 <ele>178.460000</ele>
<time>2005-05-24T12:33:37Z</time>
</trkpt>
<trkpt lat="37.954105" lon="-1.073995">
 <ele>177.680000</ele>
<time>2005-05-24T12:33:38Z</time>
</trkpt>
<trkpt lat="37.954108" lon="-1.073977">
 <ele>175.440000</ele>
<time>2005-05-24T12:33:41Z</time>
</trkpt>
<trkpt lat="37.954084" lon="-1.073958">
 <ele>174.820000</ele>
<time>2005-05-24T12:33:43Z</time>
</trkpt>
<trkpt lat="37.954100" lon="-1.073960">
 <ele>175.440000</ele>
<time>2005-05-24T12:33:44Z</time>
</trkpt>
<trkpt lat="37.954110" lon="-1.073932">
 <ele>173.180000</ele>
<time>2005-05-24T12:33:46Z</time>
</trkpt>
<trkpt lat="37.954118" lon="-1.073922">
 <ele>172.100000</ele>
<time>2005-05-24T12:33:47Z</time>
</trkpt>
<trkpt lat="37.954109" lon="-1.073936">
 <ele>172.280000</ele>
<time>2005-05-24T12:33:48Z</time>
</trkpt>
<trkpt lat="37.954105" lon="-1.073919">
 <ele>173.680000</ele>
<time>2005-05-24T12:33:50Z</time>
</trkpt>
<trkpt lat="37.954107" lon="-1.073902">
 <ele>170.520000</ele>
<time>2005-05-24T12:33:52Z</time>
</trkpt>
<trkpt lat="37.954111" lon="-1.073901">
 <ele>171.060000</ele>
<time>2005-05-24T12:33:53Z</time>
</trkpt>
<trkpt lat="37.954112" lon="-1.073902">
 <ele>169.580000</ele>
<time>2005-05-24T12:33:54Z</time>
</trkpt>
<trkpt lat="37.954101" lon="-1.073916">
 <ele>167.560000</ele>
<time>2005-05-24T12:33:56Z</time>
</trkpt>
<trkpt lat="37.954092" lon="-1.073904">
 <ele>168.800000</ele>
<time>2005-05-24T12:33:59Z</time>
</trkpt>
<trkpt lat="37.954088" lon="-1.073882">
 <ele>167.840000</ele>
<time>2005-05-24T12:34:01Z</time>
</trkpt>
<trkpt lat="37.954092" lon="-1.073894">
 <ele>169.980000</ele>
<time>2005-05-24T12:34:02Z</time>
</trkpt>
<trkpt lat="37.954084" lon="-1.073891">
 <ele>168.120000</ele>
<time>2005-05-24T12:34:03Z</time>
</trkpt>
<trkpt lat="37.954086" lon="-1.073881">
 <ele>168.300000</ele>
<time>2005-05-24T12:34:04Z</time>
</trkpt>
<trkpt lat="37.954083" lon="-1.073880">
 <ele>168.780000</ele>
<time>2005-05-24T12:34:05Z</time>
</trkpt>
<trkpt lat="37.954056" lon="-1.073839">
 <ele>163.660000</ele>
<time>2005-05-24T12:34:10Z</time>
</trkpt>
<trkpt lat="37.954053" lon="-1.073821">
 <ele>166.360000</ele>
<time>2005-05-24T12:34:11Z</time>
</trkpt>
<trkpt lat="37.954067" lon="-1.073766">
 <ele>162.580000</ele>
<time>2005-05-24T12:34:16Z</time>
</trkpt>
<trkpt lat="37.954045" lon="-1.073779">
 <ele>163.120000</ele>
<time>2005-05-24T12:34:17Z</time>
</trkpt>
<trkpt lat="37.954042" lon="-1.073770">
 <ele>162.140000</ele>
<time>2005-05-24T12:34:18Z</time>
</trkpt>
<trkpt lat="37.954049" lon="-1.073790">
 <ele>161.640000</ele>
<time>2005-05-24T12:34:19Z</time>
</trkpt>
<trkpt lat="37.954042" lon="-1.073786">
 <ele>161.320000</ele>
<time>2005-05-24T12:34:20Z</time>
</trkpt>
<trkpt lat="37.954069" lon="-1.073777">
 <ele>159.200000</ele>
<time>2005-05-24T12:34:21Z</time>
</trkpt>
<trkpt lat="37.954063" lon="-1.073765">
 <ele>161.280000</ele>
<time>2005-05-24T12:34:22Z</time>
</trkpt>
<trkpt lat="37.954054" lon="-1.073773">
 <ele>159.860000</ele>
<time>2005-05-24T12:34:23Z</time>
</trkpt>
<trkpt lat="37.954062" lon="-1.073772">
 <ele>159.940000</ele>
<time>2005-05-24T12:34:24Z</time>
</trkpt>
<trkpt lat="37.954062" lon="-1.073772">
 <ele>160.500000</ele>
<time>2005-05-24T12:34:25Z</time>
</trkpt>
<trkpt lat="37.954072" lon="-1.073761">
 <ele>159.220000</ele>
<time>2005-05-24T12:34:27Z</time>
</trkpt>
<trkpt lat="37.954098" lon="-1.073719">
 <ele>155.380000</ele>
<time>2005-05-24T12:34:29Z</time>
</trkpt>
<trkpt lat="37.954124" lon="-1.073716">
 <ele>154.440000</ele>
<time>2005-05-24T12:34:31Z</time>
</trkpt>
<trkpt lat="37.954121" lon="-1.073719">
 <ele>158.620000</ele>
<time>2005-05-24T12:34:32Z</time>
</trkpt>
<trkpt lat="37.954122" lon="-1.073702">
 <ele>158.060000</ele>
<time>2005-05-24T12:34:33Z</time>
</trkpt>
<trkpt lat="37.954131" lon="-1.073713">
 <ele>157.360000</ele>
<time>2005-05-24T12:34:34Z</time>
</trkpt>
<trkpt lat="37.954128" lon="-1.073705">
 <ele>158.720000</ele>
<time>2005-05-24T12:34:35Z</time>
</trkpt>
<trkpt lat="37.954155" lon="-1.073639">
 <ele>158.920000</ele>
<time>2005-05-24T12:34:39Z</time>
</trkpt>
<trkpt lat="37.954162" lon="-1.073651">
 <ele>159.620000</ele>
<time>2005-05-24T12:34:40Z</time>
</trkpt>
<trkpt lat="37.954167" lon="-1.073651">
 <ele>159.420000</ele>
<time>2005-05-24T12:34:41Z</time>
</trkpt>
<trkpt lat="37.954150" lon="-1.073635">
 <ele>160.560000</ele>
<time>2005-05-24T12:34:42Z</time>
</trkpt>
<trkpt lat="37.954145" lon="-1.073636">
 <ele>159.100000</ele>
<time>2005-05-24T12:34:43Z</time>
</trkpt>
<trkpt lat="37.954153" lon="-1.073648">
 <ele>159.940000</ele>
<time>2005-05-24T12:34:44Z</time>
</trkpt>
<trkpt lat="37.954153" lon="-1.073640">
 <ele>159.860000</ele>
<time>2005-05-24T12:34:45Z</time>
</trkpt>
<trkpt lat="37.954153" lon="-1.073640">
 <ele>159.700000</ele>
<time>2005-05-24T12:34:46Z</time>
</trkpt>
<trkpt lat="37.954150" lon="-1.073627">
 <ele>158.100000</ele>
<time>2005-05-24T12:34:56Z</time>
</trkpt>
<trkpt lat="37.954140" lon="-1.073574">
 <ele>157.260000</ele>
<time>2005-05-24T12:34:59Z</time>
</trkpt>
<trkpt lat="37.954134" lon="-1.073593">
 <ele>152.000000</ele>
<time>2005-05-24T12:35:00Z</time>
</trkpt>
<trkpt lat="37.954128" lon="-1.073589">
 <ele>154.040000</ele>
<time>2005-05-24T12:35:01Z</time>
</trkpt>
<trkpt lat="37.954145" lon="-1.073573">
 <ele>154.440000</ele>
<time>2005-05-24T12:35:02Z</time>
</trkpt>
<trkpt lat="37.954138" lon="-1.073575">
 <ele>154.600000</ele>
<time>2005-05-24T12:35:03Z</time>
</trkpt>
<trkpt lat="37.954138" lon="-1.073575">
 <ele>154.600000</ele>
<time>2005-05-24T12:35:04Z</time>
</trkpt>
<trkpt lat="37.954137" lon="-1.073574">
 <ele>154.680000</ele>
<time>2005-05-24T12:35:05Z</time>
</trkpt>
<trkpt lat="37.954134" lon="-1.073557">
 <ele>155.440000</ele>
<time>2005-05-24T12:35:09Z</time>
</trkpt>
<trkpt lat="37.954140" lon="-1.073550">
 <ele>155.380000</ele>
<time>2005-05-24T12:35:10Z</time>
</trkpt>
<trkpt lat="37.954143" lon="-1.073563">
 <ele>155.160000</ele>
<time>2005-05-24T12:35:11Z</time>
</trkpt>
<trkpt lat="37.954141" lon="-1.073560">
 <ele>155.460000</ele>
<time>2005-05-24T12:35:12Z</time>
</trkpt>
<trkpt lat="37.954170" lon="-1.073516">
 <ele>153.120000</ele>
<time>2005-05-24T12:35:15Z</time>
</trkpt>
<trkpt lat="37.954174" lon="-1.073522">
 <ele>154.260000</ele>
<time>2005-05-24T12:35:16Z</time>
</trkpt>
<trkpt lat="37.954205" lon="-1.073518">
 <ele>153.660000</ele>
<time>2005-05-24T12:35:18Z</time>
</trkpt>
<trkpt lat="37.954207" lon="-1.073521">
 <ele>151.080000</ele>
<time>2005-05-24T12:35:19Z</time>
</trkpt>
<trkpt lat="37.954220" lon="-1.073505">
 <ele>150.620000</ele>
<time>2005-05-24T12:35:21Z</time>
</trkpt>
<trkpt lat="37.954199" lon="-1.073478">
 <ele>146.400000</ele>
<time>2005-05-24T12:35:26Z</time>
</trkpt>
<trkpt lat="37.954203" lon="-1.073486">
 <ele>147.820000</ele>
<time>2005-05-24T12:35:27Z</time>
</trkpt>
<trkpt lat="37.954204" lon="-1.073482">
 <ele>145.980000</ele>
<time>2005-05-24T12:35:28Z</time>
</trkpt>
<trkpt lat="37.954202" lon="-1.073481">
 <ele>147.200000</ele>
<time>2005-05-24T12:35:29Z</time>
</trkpt>
<trkpt lat="37.954198" lon="-1.073478">
 <ele>147.280000</ele>
<time>2005-05-24T12:35:30Z</time>
</trkpt>
<trkpt lat="37.954198" lon="-1.073478">
 <ele>147.200000</ele>
<time>2005-05-24T12:35:31Z</time>
</trkpt>
<trkpt lat="37.954188" lon="-1.073465">
 <ele>148.080000</ele>
<time>2005-05-24T12:35:40Z</time>
</trkpt>
<trkpt lat="37.954190" lon="-1.073435">
 <ele>152.020000</ele>
<time>2005-05-24T12:35:42Z</time>
</trkpt>
<trkpt lat="37.954215" lon="-1.073385">
 <ele>151.440000</ele>
<time>2005-05-24T12:35:46Z</time>
</trkpt>
<trkpt lat="37.954213" lon="-1.073353">
 <ele>150.100000</ele>
<time>2005-05-24T12:35:47Z</time>
</trkpt>
<trkpt lat="37.954225" lon="-1.073318">
 <ele>153.080000</ele>
<time>2005-05-24T12:35:51Z</time>
</trkpt>
<trkpt lat="37.954270" lon="-1.073330">
 <ele>155.820000</ele>
<time>2005-05-24T12:35:54Z</time>
</trkpt>
<trkpt lat="37.954299" lon="-1.073307">
 <ele>156.240000</ele>
<time>2005-05-24T12:35:57Z</time>
</trkpt>
<trkpt lat="37.954292" lon="-1.073300">
 <ele>159.020000</ele>
<time>2005-05-24T12:35:58Z</time>
</trkpt>
<trkpt lat="37.954286" lon="-1.073324">
 <ele>158.720000</ele>
<time>2005-05-24T12:35:59Z</time>
</trkpt>
<trkpt lat="37.954291" lon="-1.073311">
 <ele>159.000000</ele>
<time>2005-05-24T12:36:00Z</time>
</trkpt>
<trkpt lat="37.954293" lon="-1.073319">
 <ele>157.800000</ele>
<time>2005-05-24T12:36:01Z</time>
</trkpt>
<trkpt lat="37.954293" lon="-1.073312">
 <ele>159.880000</ele>
<time>2005-05-24T12:36:02Z</time>
</trkpt>
<trkpt lat="37.954293" lon="-1.073312">
 <ele>158.600000</ele>
<time>2005-05-24T12:36:03Z</time>
</trkpt>
<trkpt lat="37.954303" lon="-1.073306">
 <ele>160.000000</ele>
<time>2005-05-24T12:36:05Z</time>
</trkpt>
<trkpt lat="37.954358" lon="-1.073250">
 <ele>158.160000</ele>
<time>2005-05-24T12:36:08Z</time>
</trkpt>
<trkpt lat="37.954503" lon="-1.073072">
 <ele>165.040000</ele>
<time>2005-05-24T12:36:21Z</time>
</trkpt>
<trkpt lat="37.954528" lon="-1.073050">
 <ele>162.840000</ele>
<time>2005-05-24T12:36:22Z</time>
</trkpt>
<trkpt lat="37.954532" lon="-1.073040">
 <ele>163.960000</ele>
<time>2005-05-24T12:36:23Z</time>
</trkpt>
<trkpt lat="37.954526" lon="-1.073051">
 <ele>163.460000</ele>
<time>2005-05-24T12:36:24Z</time>
</trkpt>
<trkpt lat="37.954530" lon="-1.073043">
 <ele>163.920000</ele>
<time>2005-05-24T12:36:25Z</time>
</trkpt>
<trkpt lat="37.954537" lon="-1.073052">
 <ele>163.500000</ele>
<time>2005-05-24T12:36:26Z</time>
</trkpt>
<trkpt lat="37.954542" lon="-1.073043">
 <ele>164.140000</ele>
<time>2005-05-24T12:36:27Z</time>
</trkpt>
<trkpt lat="37.954633" lon="-1.072977">
 <ele>164.920000</ele>
<time>2005-05-24T12:36:31Z</time>
</trkpt>
<trkpt lat="37.954652" lon="-1.072908">
 <ele>165.960000</ele>
<time>2005-05-24T12:36:33Z</time>
</trkpt>
<trkpt lat="37.954697" lon="-1.072817">
 <ele>168.700000</ele>
<time>2005-05-24T12:36:36Z</time>
</trkpt>
<trkpt lat="37.954741" lon="-1.072818">
 <ele>168.500000</ele>
<time>2005-05-24T12:36:39Z</time>
</trkpt>
<trkpt lat="37.954788" lon="-1.072780">
 <ele>160.840000</ele>
<time>2005-05-24T12:36:44Z</time>
</trkpt>
<trkpt lat="37.954829" lon="-1.072789">
 <ele>157.480000</ele>
<time>2005-05-24T12:36:47Z</time>
</trkpt>
<trkpt lat="37.954841" lon="-1.072783">
 <ele>154.760000</ele>
<time>2005-05-24T12:36:49Z</time>
</trkpt>
<trkpt lat="37.954855" lon="-1.072779">
 <ele>151.020000</ele>
<time>2005-05-24T12:36:52Z</time>
</trkpt>
<trkpt lat="37.954893" lon="-1.072765">
 <ele>149.500000</ele>
<time>2005-05-24T12:36:53Z</time>
</trkpt>
<trkpt lat="37.954969" lon="-1.072761">
 <ele>141.380000</ele>
<time>2005-05-24T12:37:00Z</time>
</trkpt>
<trkpt lat="37.954967" lon="-1.072758">
 <ele>140.220000</ele>
<time>2005-05-24T12:37:01Z</time>
</trkpt>
<trkpt lat="37.954986" lon="-1.072761">
 <ele>137.760000</ele>
<time>2005-05-24T12:37:03Z</time>
</trkpt>
<trkpt lat="37.955041" lon="-1.072745">
 <ele>136.940000</ele>
<time>2005-05-24T12:37:05Z</time>
</trkpt>
<trkpt lat="37.955184" lon="-1.072700">
 <ele>138.360000</ele>
<time>2005-05-24T12:37:11Z</time>
</trkpt>
<trkpt lat="37.955211" lon="-1.072658">
 <ele>141.660000</ele>
<time>2005-05-24T12:37:15Z</time>
</trkpt>
<trkpt lat="37.955252" lon="-1.072630">
 <ele>138.140000</ele>
<time>2005-05-24T12:37:20Z</time>
</trkpt>
<trkpt lat="37.955285" lon="-1.072682">
 <ele>137.180000</ele>
<time>2005-05-24T12:37:23Z</time>
</trkpt>
<trkpt lat="37.955298" lon="-1.072673">
 <ele>135.140000</ele>
<time>2005-05-24T12:37:24Z</time>
</trkpt>
<trkpt lat="37.955406" lon="-1.072606">
 <ele>135.020000</ele>
<time>2005-05-24T12:37:35Z</time>
</trkpt>
<trkpt lat="37.955420" lon="-1.072606">
 <ele>133.000000</ele>
<time>2005-05-24T12:37:37Z</time>
</trkpt>
<trkpt lat="37.955427" lon="-1.072592">
 <ele>133.040000</ele>
<time>2005-05-24T12:37:39Z</time>
</trkpt>
<trkpt lat="37.955446" lon="-1.072569">
 <ele>132.840000</ele>
<time>2005-05-24T12:37:40Z</time>
</trkpt>
<trkpt lat="37.955441" lon="-1.072569">
 <ele>133.640000</ele>
<time>2005-05-24T12:37:42Z</time>
</trkpt>
<trkpt lat="37.955439" lon="-1.072559">
 <ele>131.780000</ele>
<time>2005-05-24T12:37:43Z</time>
</trkpt>
<trkpt lat="37.955454" lon="-1.072556">
 <ele>133.340000</ele>
<time>2005-05-24T12:37:45Z</time>
</trkpt>
<trkpt lat="37.955462" lon="-1.072530">
 <ele>135.080000</ele>
<time>2005-05-24T12:37:46Z</time>
</trkpt>
<trkpt lat="37.955482" lon="-1.072529">
 <ele>134.100000</ele>
<time>2005-05-24T12:37:48Z</time>
</trkpt>
<trkpt lat="37.955502" lon="-1.072495">
 <ele>132.100000</ele>
<time>2005-05-24T12:37:49Z</time>
</trkpt>
<trkpt lat="37.955576" lon="-1.072463">
 <ele>129.960000</ele>
<time>2005-05-24T12:37:53Z</time>
</trkpt>
<trkpt lat="37.955681" lon="-1.072430">
 <ele>128.820000</ele>
<time>2005-05-24T12:37:59Z</time>
</trkpt>
<trkpt lat="37.955732" lon="-1.072456">
 <ele>130.280000</ele>
<time>2005-05-24T12:38:03Z</time>
</trkpt>
<trkpt lat="37.955724" lon="-1.072454">
 <ele>129.040000</ele>
<time>2005-05-24T12:38:04Z</time>
</trkpt>
<trkpt lat="37.955745" lon="-1.072476">
 <ele>128.200000</ele>
<time>2005-05-24T12:38:05Z</time>
</trkpt>
<trkpt lat="37.955827" lon="-1.072509">
 <ele>129.260000</ele>
<time>2005-05-24T12:38:14Z</time>
</trkpt>
<trkpt lat="37.955860" lon="-1.072529">
 <ele>131.820000</ele>
<time>2005-05-24T12:38:16Z</time>
</trkpt>
<trkpt lat="37.955969" lon="-1.072612">
 <ele>135.780000</ele>
<time>2005-05-24T12:38:28Z</time>
</trkpt>
<trkpt lat="37.955979" lon="-1.072613">
 <ele>139.300000</ele>
<time>2005-05-24T12:38:29Z</time>
</trkpt>
<trkpt lat="37.955968" lon="-1.072622">
 <ele>138.520000</ele>
<time>2005-05-24T12:38:30Z</time>
</trkpt>
<trkpt lat="37.955976" lon="-1.072613">
 <ele>139.580000</ele>
<time>2005-05-24T12:38:31Z</time>
</trkpt>
<trkpt lat="37.956001" lon="-1.072621">
 <ele>140.020000</ele>
<time>2005-05-24T12:38:33Z</time>
</trkpt>
<trkpt lat="37.956011" lon="-1.072630">
 <ele>137.120000</ele>
<time>2005-05-24T12:38:34Z</time>
</trkpt>
<trkpt lat="37.956002" lon="-1.072620">
 <ele>139.240000</ele>
<time>2005-05-24T12:38:35Z</time>
</trkpt>
<trkpt lat="37.956018" lon="-1.072654">
 <ele>137.380000</ele>
<time>2005-05-24T12:38:36Z</time>
</trkpt>
<trkpt lat="37.956101" lon="-1.072709">
 <ele>135.040000</ele>
<time>2005-05-24T12:38:43Z</time>
</trkpt>
<trkpt lat="37.956126" lon="-1.072685">
 <ele>133.760000</ele>
<time>2005-05-24T12:38:47Z</time>
</trkpt>
<trkpt lat="37.956132" lon="-1.072689">
 <ele>136.540000</ele>
<time>2005-05-24T12:38:48Z</time>
</trkpt>
<trkpt lat="37.956111" lon="-1.072683">
 <ele>137.000000</ele>
<time>2005-05-24T12:38:49Z</time>
</trkpt>
<trkpt lat="37.956118" lon="-1.072657">
 <ele>136.260000</ele>
<time>2005-05-24T12:38:50Z</time>
</trkpt>
<trkpt lat="37.956181" lon="-1.072591">
 <ele>134.560000</ele>
<time>2005-05-24T12:38:55Z</time>
</trkpt>
<trkpt lat="37.956183" lon="-1.072604">
 <ele>133.920000</ele>
<time>2005-05-24T12:38:56Z</time>
</trkpt>
<trkpt lat="37.956168" lon="-1.072587">
 <ele>134.840000</ele>
<time>2005-05-24T12:38:57Z</time>
</trkpt>
<trkpt lat="37.956162" lon="-1.072602">
 <ele>135.920000</ele>
<time>2005-05-24T12:38:58Z</time>
</trkpt>
<trkpt lat="37.956163" lon="-1.072582">
 <ele>135.260000</ele>
<time>2005-05-24T12:38:59Z</time>
</trkpt>
<trkpt lat="37.956177" lon="-1.072604">
 <ele>135.160000</ele>
<time>2005-05-24T12:39:00Z</time>
</trkpt>
<trkpt lat="37.956231" lon="-1.072599">
 <ele>134.820000</ele>
<time>2005-05-24T12:39:03Z</time>
</trkpt>
<trkpt lat="37.956230" lon="-1.072610">
 <ele>135.300000</ele>
<time>2005-05-24T12:39:04Z</time>
</trkpt>
<trkpt lat="37.956243" lon="-1.072611">
 <ele>136.540000</ele>
<time>2005-05-24T12:39:05Z</time>
</trkpt>
<trkpt lat="37.956264" lon="-1.072629">
 <ele>133.860000</ele>
<time>2005-05-24T12:39:07Z</time>
</trkpt>
<trkpt lat="37.956264" lon="-1.072629">
 <ele>129.140000</ele>
<time>2005-05-24T12:39:08Z</time>
</trkpt>
<trkpt lat="37.956284" lon="-1.072624">
 <ele>128.860000</ele>
<time>2005-05-24T12:39:09Z</time>
</trkpt>
<trkpt lat="37.956384" lon="-1.072553">
 <ele>126.940000</ele>
<time>2005-05-24T12:39:12Z</time>
</trkpt>
<trkpt lat="37.956474" lon="-1.072542">
 <ele>132.680000</ele>
<time>2005-05-24T12:39:15Z</time>
</trkpt>
<trkpt lat="37.956474" lon="-1.072556">
 <ele>132.880000</ele>
<time>2005-05-24T12:39:16Z</time>
</trkpt>
<trkpt lat="37.956456" lon="-1.072547">
 <ele>137.820000</ele>
<time>2005-05-24T12:39:17Z</time>
</trkpt>
<trkpt lat="37.956460" lon="-1.072564">
 <ele>141.840000</ele>
<time>2005-05-24T12:39:18Z</time>
</trkpt>
<trkpt lat="37.956439" lon="-1.072565">
 <ele>144.680000</ele>
<time>2005-05-24T12:39:19Z</time>
</trkpt>
<trkpt lat="37.956429" lon="-1.072568">
 <ele>147.840000</ele>
<time>2005-05-24T12:39:20Z</time>
</trkpt>
<trkpt lat="37.956433" lon="-1.072569">
 <ele>144.340000</ele>
<time>2005-05-24T12:39:21Z</time>
</trkpt>
<trkpt lat="37.956421" lon="-1.072552">
 <ele>149.240000</ele>
<time>2005-05-24T12:39:23Z</time>
</trkpt>
<trkpt lat="37.956414" lon="-1.072541">
 <ele>149.080000</ele>
<time>2005-05-24T12:39:24Z</time>
</trkpt>
</trkseg>
</trk>
</gpx>
